Site Date LOGGERID PROGID AIRTEMP_MEAN_150_0_04 AIRTEMP_MEAN_250_0_03 AIRTEMP_MEAN_350_0_02 AIRTEMP_MEAN_450_0_01 AIRTEMP_MEAN_350_0_08 RELHUM_MEAN_150_0_04 RELHUM_MEAN_450_0_01 DEWPT_MEAN_150_0_04 DEWPT_MEAN_450_0_01 SOILTEMP_MEAN_0_10_01 SOILTEMP_MEAN_0_20_02 SOILTEMP_MEAN_0_50_03 SOILTEMP_MEAN_0_100_04 SOILWC_MEAN_0_10_01 SOILWC_MEAN_0_20_02 SOILWC_MEAN_0_50_03 SOILWC_MEAN_0_100_04 SOLAR_MEAN_850_0_01 SNOWDEP_MED_0_0_01 SWE_MED_0_0_01 WSPD_PRO_MEAN_1000_0_01 WDIR_PRO_MEAN_1000_0_01 WDIR_PRO_STDDEV_1000_0_01 AIRTEMP_MAX_150_0_04 AIRTEMP_MAX_250_0_03 AIRTEMP_MAX_350_0_02 AIRTEMP_MAX_350_0_08 AIRTEMP_MAX_450_0_01 DEWPT_MAX_150_0_04 DEWPT_MAX_450_0_01 AIRTEMP_MIN_150_0_04 AIRTEMP_MIN_250_0_03 AIRTEMP_MIN_350_0_02 AIRTEMP_MIN_350_0_08 AIRTEMP_MIN_450_0_01 DEWPT_MIN_150_0_04 DEWPT_MIN_450_0_01 WSPD_PRO_MAX_1000_0_01 SATVP_MEAN_150_0_04 VAP_MEAN_150_0_04 VPD_MEAN_150_0_04 SATVP_MEAN_450_0_01 VAP_MEAN_450_0_01 VPD_MEAN_450_0_01 PAR_MEAN_850_0_01
VANMET_231 2018-10-01 00:00:00 231 11739.0 7.972 8.080 8.180 8.010 8.380 95.400 96.300 7.289 7.460 12.690 12.770 11.480 9.910 0.109 0.140 0.191 0.518 0.00 0.00 0.00 0.0000 0.00 0.00 7.996 8.080 8.190 8.440 8.020 7.309 7.472 7.952 8.070 8.170 8.320 7.989 7.264 7.442 0.0000 10.707 10.219 0.493 10.734 10.339 0.397 0.000
VANMET_231 2018-09-30 23:55:00 231 11739.0 7.984 8.090 8.200 8.020 8.370 95.500 96.300 7.312 7.476 12.700 12.770 11.480 9.910 0.109 0.140 0.191 0.518 0.00 0.00 0.00 0.0000 0.00 0.00 8.010 8.120 8.230 8.400 8.050 7.336 7.516 7.959 8.070 8.170 8.350 7.982 7.277 7.436 0.0000 10.715 10.235 0.482 10.742 10.350 0.397 0.000
VANMET_231 2018-09-30 23:50:00 231 11739.0 7.986 8.120 8.240 8.050 8.420 95.600 96.400 7.333 7.525 12.720 12.770 11.480 9.910 0.109 0.140 0.191 0.518 0.00 0.00 0.00 0.0000 0.00 0.00 8.010 8.130 8.250 8.480 8.080 7.356 7.554 7.966 8.110 8.230 8.350 8.030 7.314 7.493 0.0000 10.717 10.249 0.472 10.764 10.385 0.387 0.000
VANMET_231 2018-09-30 23:45:00 231 11739.0 7.959 8.100 8.230 8.020 8.450 95.700 96.500 7.315 7.515 12.730 12.780 11.480 9.910 0.109 0.140 0.191 0.518 0.00 0.00 0.00 0.0000 0.00 0.00 7.983 8.120 8.250 8.500 8.050 7.341 7.538 7.930 8.080 8.200 8.420 8.000 7.282 7.498 0.0000 10.697 10.237 0.460 10.742 10.378 0.376 0.000
VANMET_231 2018-09-30 23:40:00 231 11739.0 7.928 8.070 8.200 8.010 8.410 95.700 96.600 7.283 7.508 12.740 12.780 11.480 9.910 0.109 0.140 0.191 0.518 0.00 0.00 0.00 0.0000 0.00 0.00 7.950 8.080 8.210 8.430 8.030 7.303 7.526 7.910 8.060 8.190 8.390 7.993 7.262 7.493 0.0000 10.675 10.214 0.459 10.734 10.373 0.365 0.000
VANMET_231 2018-09-30 23:35:00 231 11739.0 7.891 8.050 8.190 7.989 8.400 95.600 96.700 7.245 7.508 12.760 12.780 11.480 9.910 0.109 0.140 0.191 0.518 0.00 0.00 0.00 0.0000 0.00 0.00 7.917 8.060 8.200 8.410 8.000 7.271 7.525 7.877 8.050 8.190 8.370 7.973 7.226 7.490 0.0000 10.648 10.188 0.468 10.719 10.373 0.354 0.000
VANMET_231 2018-09-30 23:30:00 231 11739.0 7.840 8.020 8.170 7.967 8.350 95.700 96.900 7.205 7.514 12.770 12.780 11.490 9.910 0.109 0.140 0.191 0.518 0.00 0.00 0.00 0.0020 10.56 0.00 7.887 8.050 8.190 8.390 7.993 7.247 7.533 7.787 7.998 8.150 8.310 7.940 7.166 7.496 0.0330 10.611 10.160 0.456 10.703 10.377 0.332 0.000
VANMET_231 2018-09-30 23:25:00 231 11739.0 7.763 7.964 8.110 7.916 8.320 95.900 97.200 7.158 7.499 12.790 12.780 11.490 9.910 0.109 0.140 0.191 0.518 0.00 0.00 0.00 0.2310 10.53 0.02 7.807 7.996 8.150 8.350 7.953 7.190 7.520 7.714 7.933 8.080 8.290 7.871 7.133 7.469 0.4640 10.555 10.127 0.433 10.666 10.366 0.299 0.000
VANMET_231 2018-09-30 23:20:00 231 11739.0 7.678 7.880 8.020 7.820 8.270 96.200 97.300 7.113 7.431 12.800 12.780 11.490 9.910 0.109 0.140 0.191 0.518 0.00 0.00 0.00 0.1970 6.16 2.81 7.728 7.924 8.070 8.310 7.871 7.145 7.468 7.635 7.830 7.976 8.250 7.771 7.087 7.395 0.6340 10.494 10.096 0.399 10.596 10.318 0.286 0.000
VANMET_231 2018-09-30 23:15:00 231 11739.0 7.573 7.791 7.936 7.720 8.210 96.400 97.500 7.037 7.360 12.810 12.790 11.490 9.910 0.109 0.140 0.191 0.518 0.00 0.00 0.00 0.1090 0.51 0.67 7.622 7.828 7.972 8.240 7.778 7.074 7.404 7.522 7.751 7.898 8.200 7.655 6.996 7.301 0.3990 10.419 10.043 0.375 10.524 10.268 0.263 0.000
VANMET_231 2018-09-30 23:10:00 231 11739.0 7.461 7.701 7.850 7.609 8.120 96.400 97.600 6.935 7.261 12.830 12.790 11.490 9.910 0.109 0.140 0.191 0.518 0.00 0.00 0.00 0.1550 0.57 0.09 7.519 7.748 7.897 8.190 7.661 6.992 7.312 7.422 7.659 7.800 8.060 7.555 6.893 7.210 0.4700 10.340 9.973 0.372 10.445 10.199 0.251 0.000
VANMET_231 2018-09-30 23:05:00 231 11739.0 7.366 7.586 7.729 7.502 7.989 96.500 97.600 6.849 7.159 12.840 12.790 11.490 9.910 0.109 0.140 0.191 0.518 0.00 0.00 0.00 0.3690 7.33 6.87 7.422 7.653 7.794 8.060 7.565 6.900 7.223 7.312 7.518 7.659 7.938 7.435 6.807 7.089 0.6140 10.273 9.915 0.360 10.369 10.128 0.249 0.000
VANMET_231 2018-09-30 23:00:00 231 11739.0 7.250 7.445 7.592 7.375 7.844 96.500 97.600 6.735 7.023 12.860 12.790 11.490 9.910 0.109 0.140 0.191 0.518 0.00 0.00 0.00 0.4040 357.30 6.27 7.309 7.512 7.654 7.926 7.435 6.801 7.090 7.196 7.386 7.541 7.763 7.329 6.663 6.973 0.5030 10.191 9.837 0.357 10.279 10.034 0.247 0.000
VANMET_231 2018-09-30 22:55:00 231 11739.0 7.154 7.344 7.491 7.286 7.686 96.500 97.500 6.633 6.923 12.870 12.790 11.490 9.910 0.109 0.140 0.191 0.518 0.00 0.00 0.00 0.4610 4.65 0.00 7.206 7.383 7.535 7.766 7.319 6.681 6.960 7.106 7.300 7.443 7.617 7.249 6.587 6.882 0.6340 10.124 9.768 0.354 10.216 9.965 0.255 0.000
VANMET_231 2018-09-30 22:50:00 231 11739.0 7.073 7.233 7.392 7.209 7.565 96.200 97.400 6.516 6.830 12.880 12.790 11.490 9.910 0.109 0.140 0.191 0.518 0.00 0.00 0.00 0.5420 4.60 0.00 7.116 7.293 7.438 7.612 7.246 6.592 6.876 7.050 7.183 7.349 7.500 7.169 6.467 6.778 0.7320 10.068 9.690 0.383 10.163 9.902 0.264 0.000
VANMET_231 2018-09-30 22:45:00 231 11739.0 7.068 7.180 7.336 7.176 7.477 96.100 97.200 6.495 6.775 12.900 12.790 11.490 9.910 0.109 0.140 0.191 0.518 0.00 0.00 0.00 0.5650 4.64 0.02 7.092 7.184 7.346 7.494 7.199 6.525 6.805 7.046 7.174 7.324 7.457 7.163 6.465 6.756 0.8040 10.065 9.676 0.393 10.140 9.864 0.284 0.000
VANMET_231 2018-09-30 22:40:00 231 11739.0 7.108 7.169 7.302 7.175 7.461 96.100 97.000 6.532 6.744 12.910 12.790 11.490 9.910 0.109 0.140 0.191 0.518 0.00 0.00 0.00 0.6470 359.30 4.60 7.136 7.181 7.326 7.491 7.199 6.556 6.775 7.072 7.159 7.290 7.440 7.156 6.503 6.716 0.7970 10.093 9.701 0.394 10.139 9.843 0.304 0.000
VANMET_231 2018-09-30 22:35:00 231 11739.0 7.180 7.213 7.366 7.218 7.468 95.900 96.900 6.575 6.767 12.930 12.790 11.490 9.910 0.109 0.140 0.191 0.518 0.00 0.00 0.00 0.6230 359.60 3.95 7.219 7.255 7.407 7.497 7.259 6.602 6.800 7.136 7.184 7.320 7.427 7.179 6.542 6.734 0.7640 10.142 9.729 0.416 10.169 9.859 0.315 0.000
VANMET_231 2018-09-30 22:30:00 231 11739.0 7.254 7.287 7.434 7.287 7.501 95.700 96.800 6.624 6.813 12.940 12.790 11.490 9.910 0.109 0.140 0.191 0.518 0.00 0.00 0.00 0.6070 3.51 0.05 7.289 7.300 7.452 7.519 7.306 6.651 6.829 7.212 7.259 7.409 7.469 7.252 6.598 6.791 0.7640 10.194 9.762 0.438 10.217 9.890 0.327 0.000
VANMET_231 2018-09-30 22:25:00 231 11739.0 7.351 7.357 7.513 7.357 7.551 95.400 96.500 6.671 6.845 12.960 12.790 11.490 9.910 0.109 0.140 0.191 0.518 0.00 0.00 0.00 0.5100 3.85 0.54 7.405 7.425 7.582 7.618 7.415 6.729 6.896 7.302 7.300 7.453 7.480 7.305 6.619 6.801 0.6010 10.262 9.794 0.472 10.266 9.912 0.359 0.000
VANMET_231 2018-09-30 22:20:00 231 11739.0 7.436 7.480 7.641 7.469 7.711 95.500 96.500 6.771 6.949 12.970 12.790 11.490 9.910 0.109 0.140 0.191 0.518 0.00 0.00 0.00 0.6670 4.74 0.05 7.465 7.501 7.673 7.754 7.502 6.798 6.976 7.396 7.435 7.591 7.622 7.426 6.731 6.908 0.7380 10.322 9.862 0.464 10.345 9.983 0.362 0.000
VANMET_231 2018-09-30 22:15:00 231 11739.0 7.496 7.546 7.715 7.549 7.772 95.400 96.400 6.817 7.016 12.980 12.790 11.490 9.910 0.109 0.140 0.191 0.518 0.00 0.00 0.00 0.5820 6.03 2.02 7.528 7.599 7.769 7.842 7.595 6.846 7.064 7.459 7.507 7.675 7.728 7.509 6.790 6.975 0.7380 10.364 9.893 0.477 10.402 10.029 0.374 0.000
VANMET_231 2018-09-30 22:10:00 231 11739.0 7.539 7.649 7.802 7.616 7.922 95.500 96.500 6.871 7.101 13.000 12.790 11.490 9.910 0.109 0.140 0.191 0.518 0.00 0.00 0.00 0.5770 8.79 0.58 7.558 7.681 7.819 7.971 7.638 6.900 7.129 7.512 7.605 7.772 7.853 7.588 6.827 7.062 0.7250 10.395 9.930 0.468 10.450 10.088 0.366 0.000
VANMET_231 2018-09-30 22:05:00 231 11739.0 7.499 7.652 7.799 7.597 7.956 95.700 96.600 6.857 7.093 13.010 12.790 11.490 9.910 0.109 0.140 0.191 0.518 0.00 0.00 0.00 0.4380 8.16 0.04 7.528 7.680 7.817 7.969 7.631 6.890 7.127 7.465 7.621 7.776 7.930 7.561 6.814 7.058 0.6080 10.366 9.920 0.446 10.436 10.082 0.355 0.000
VANMET_231 2018-09-30 22:00:00 231 11739.0 7.462 7.611 7.763 7.566 7.889 95.600 96.600 6.812 7.068 13.020 12.790 11.490 9.910 0.109 0.140 0.191 0.518 0.00 0.00 0.00 0.5020 8.15 0.03 7.478 7.620 7.775 7.925 7.588 6.828 7.086 7.448 7.601 7.756 7.863 7.548 6.791 7.043 0.6530 10.340 9.889 0.455 10.414 10.065 0.354 0.000
VANMET_231 2018-09-30 21:55:00 231 11739.0 7.429 7.590 7.723 7.521 7.871 95.700 96.700 6.800 7.031 13.040 12.790 11.490 9.910 0.109 0.140 0.191 0.518 0.00 0.00 0.00 0.5170 7.63 0.40 7.465 7.609 7.751 7.889 7.558 6.826 7.065 7.388 7.560 7.691 7.858 7.481 6.779 6.990 0.6400 10.317 9.881 0.444 10.382 10.039 0.343 0.000
VANMET_231 2018-09-30 21:50:00 231 11739.0 7.365 7.525 7.656 7.466 7.812 95.900 96.700 6.759 6.979 13.050 12.790 11.500 9.910 0.109 0.140 0.191 0.518 0.00 0.00 0.00 0.4420 7.08 0.08 7.388 7.557 7.686 7.854 7.491 6.784 7.005 7.338 7.501 7.634 7.771 7.438 6.735 6.950 0.5360 10.272 9.853 0.421 10.343 10.004 0.341 0.000
VANMET_231 2018-09-30 21:45:00 231 11739.0 7.315 7.457 7.605 7.433 7.734 95.900 96.700 6.710 6.946 13.060 12.790 11.500 9.910 0.109 0.140 0.191 0.518 0.00 0.00 0.00 0.3730 345.50 9.84 7.345 7.496 7.631 7.767 7.458 6.741 6.975 7.295 7.422 7.583 7.692 7.398 6.683 6.909 0.5360 10.237 9.820 0.420 10.320 9.981 0.341 0.000
VANMET_231 2018-09-30 21:40:00 231 11739.0 7.287 7.421 7.582 7.414 7.726 95.800 96.700 6.664 6.927 13.070 12.790 11.500 9.910 0.109 0.140 0.191 0.518 0.00 0.00 0.00 0.4210 359.90 1.13 7.309 7.426 7.589 7.803 7.431 6.684 6.949 7.262 7.414 7.576 7.692 7.398 6.640 6.906 0.5880 10.217 9.789 0.429 10.306 9.968 0.340 0.000
VANMET_231 2018-09-30 21:35:00 231 11739.0 7.244 7.410 7.579 7.406 7.763 95.800 96.800 6.620 6.934 13.080 12.790 11.500 9.910 0.109 0.140 0.191 0.518 0.00 0.00 0.00 0.4430 0.11 0.02 7.279 7.420 7.586 7.803 7.428 6.659 6.958 7.212 7.390 7.557 7.747 7.375 6.579 6.901 0.5420 10.187 9.760 0.428 10.301 9.973 0.330 0.000
VANMET_231 2018-09-30 21:30:00 231 11739.0 7.185 7.342 7.505 7.326 7.683 95.600 96.600 6.532 6.834 13.100 12.790 11.500 9.910 0.109 0.140 0.191 0.518 0.00 0.00 0.00 0.4510 0.11 0.02 7.219 7.385 7.551 7.746 7.378 6.579 6.902 7.152 7.314 7.470 7.601 7.289 6.496 6.786 0.6730 10.146 9.701 0.446 10.244 9.904 0.348 0.000
VANMET_231 2018-09-30 21:25:00 231 11739.0 7.162 7.314 7.465 7.293 7.585 95.700 96.500 6.527 6.781 13.110 12.790 11.500 9.910 0.109 0.140 0.191 0.518 0.00 0.00 0.00 0.6020 1.76 2.77 7.185 7.320 7.468 7.598 7.308 6.570 6.801 7.142 7.309 7.457 7.573 7.278 6.490 6.761 0.6730 10.130 9.697 0.436 10.221 9.868 0.358 0.000
VANMET_231 2018-09-30 21:20:00 231 11739.0 7.142 7.295 7.444 7.292 7.542 95.700 96.400 6.508 6.764 13.120 12.790 11.500 9.910 0.109 0.140 0.191 0.518 0.00 0.00 0.00 0.4930 357.10 8.35 7.168 7.321 7.462 7.610 7.314 6.538 6.792 7.121 7.276 7.432 7.512 7.275 6.468 6.741 0.7580 10.116 9.685 0.435 10.221 9.857 0.368 0.000
VANMET_231 2018-09-30 21:15:00 231 11739.0 7.134 7.274 7.428 7.287 7.585 95.600 96.400 6.492 6.763 13.130 12.790 11.500 9.910 0.109 0.140 0.191 0.518 0.00 0.00 0.00 0.4930 334.50 17.17 7.155 7.317 7.460 7.633 7.331 6.544 6.816 7.108 7.248 7.406 7.530 7.261 6.458 6.729 0.7250 10.111 9.674 0.445 10.217 9.856 0.368 0.000
VANMET_231 2018-09-30 21:10:00 231 11739.0 7.156 7.271 7.430 7.281 7.536 95.500 96.300 6.497 6.738 13.140 12.790 11.500 9.910 0.109 0.140 0.191 0.518 0.00 0.00 0.00 0.4750 341.70 14.37 7.181 7.289 7.442 7.562 7.301 6.536 6.759 7.141 7.232 7.406 7.516 7.264 6.468 6.720 0.6660 10.126 9.677 0.456 10.213 9.839 0.378 0.000
VANMET_231 2018-09-30 21:05:00 231 11739.0 7.176 7.242 7.425 7.293 7.500 95.500 96.200 6.505 6.734 13.150 12.790 11.500 9.910 0.109 0.140 0.191 0.518 0.00 0.00 0.00 0.6790 0.96 4.82 7.211 7.250 7.434 7.514 7.307 6.522 6.751 7.141 7.225 7.404 7.486 7.277 6.474 6.721 0.7710 10.140 9.683 0.456 10.221 9.836 0.388 0.000
VANMET_231 2018-09-30 21:00:00 231 11739.0 7.220 7.291 7.463 7.319 7.507 95.100 96.000 6.498 6.724 13.160 12.780 11.500 9.910 0.109 0.140 0.191 0.518 0.00 0.00 0.00 0.6320 4.30 2.09 7.257 7.331 7.488 7.541 7.343 6.530 6.734 7.171 7.250 7.433 7.475 7.287 6.456 6.704 0.7320 10.170 9.678 0.498 10.240 9.830 0.410 0.000
VANMET_231 2018-09-30 20:55:00 231 11739.0 7.281 7.376 7.512 7.351 7.595 95.000 95.800 6.535 6.725 13.170 12.780 11.500 9.910 0.109 0.140 0.191 0.518 0.00 0.00 0.00 0.7600 5.81 0.00 7.320 7.404 7.533 7.643 7.376 6.577 6.746 7.230 7.335 7.488 7.538 7.330 6.485 6.705 0.8750 10.213 9.703 0.511 10.262 9.830 0.431 0.000
VANMET_231 2018-09-30 20:50:00 231 11739.0 7.294 7.389 7.534 7.376 7.648 95.100 95.700 6.569 6.740 13.180 12.780 11.500 9.910 0.109 0.140 0.191 0.518 0.00 0.00 0.00 0.8440 5.59 0.24 7.316 7.403 7.534 7.656 7.393 6.590 6.762 7.270 7.365 7.532 7.642 7.363 6.542 6.725 0.9730 10.222 9.725 0.501 10.280 9.841 0.442 0.000
VANMET_231 2018-09-30 20:45:00 231 11739.0 7.279 7.338 7.533 7.395 7.628 95.200 95.700 6.566 6.761 13.190 12.780 11.500 9.910 0.109 0.140 0.191 0.518 0.00 0.00 0.00 0.6760 2.88 0.90 7.303 7.363 7.541 7.658 7.419 6.592 6.784 7.247 7.320 7.526 7.596 7.370 6.531 6.735 0.8750 10.212 9.723 0.490 10.293 9.855 0.443 0.000
VANMET_231 2018-09-30 20:40:00 231 11739.0 7.296 7.360 7.551 7.426 7.647 95.100 95.700 6.576 6.792 13.200 12.780 11.500 9.910 0.109 0.140 0.191 0.518 0.00 0.00 0.00 0.8130 3.46 0.37 7.316 7.371 7.556 7.661 7.442 6.594 6.806 7.266 7.347 7.541 7.633 7.409 6.545 6.776 0.9020 10.223 9.730 0.501 10.315 9.876 0.444 0.000
VANMET_231 2018-09-30 20:35:00 231 11739.0 7.321 7.383 7.565 7.440 7.653 95.000 95.500 6.579 6.779 13.210 12.780 11.500 9.910 0.109 0.140 0.191 0.518 0.00 0.00 0.00 0.6710 1.46 1.45 7.339 7.407 7.589 7.698 7.472 6.602 6.807 7.292 7.366 7.547 7.624 7.412 6.551 6.752 0.8040 10.241 9.732 0.512 10.325 9.867 0.465 0.000
VANMET_231 2018-09-30 20:30:00 231 11739.0 7.342 7.409 7.592 7.467 7.705 94.900 95.400 6.580 6.788 13.220 12.770 11.500 9.910 0.109 0.140 0.191 0.518 0.00 0.00 0.00 0.7450 4.36 0.65 7.372 7.415 7.595 7.719 7.485 6.603 6.808 7.322 7.404 7.589 7.692 7.455 6.564 6.763 0.9210 10.256 9.733 0.523 10.344 9.873 0.476 0.000
VANMET_231 2018-09-30 20:25:00 231 11739.0 7.381 7.422 7.600 7.498 7.700 94.700 95.300 6.589 6.803 13.230 12.770 11.500 9.910 0.109 0.140 0.191 0.518 0.00 0.00 0.00 0.6530 1.27 0.23 7.418 7.438 7.616 7.713 7.524 6.617 6.830 7.345 7.409 7.591 7.687 7.478 6.572 6.786 0.7910 10.283 9.739 0.545 10.366 9.883 0.487 0.000
VANMET_231 2018-09-30 20:20:00 231 11739.0 7.447 7.480 7.658 7.551 7.747 94.600 95.200 6.644 6.834 13.230 12.770 11.500 9.910 0.109 0.140 0.191 0.518 0.00 0.00 0.00 0.5860 0.62 0.04 7.481 7.513 7.697 7.765 7.598 6.679 6.865 7.415 7.441 7.620 7.711 7.521 6.607 6.812 0.6600 10.330 9.776 0.558 10.403 9.904 0.499 0.000
VANMET_231 2018-09-30 20:15:00 231 11739.0 7.505 7.557 7.736 7.623 7.787 94.400 94.800 6.666 6.850 13.240 12.770 11.500 9.910 0.109 0.140 0.191 0.518 0.00 0.00 0.00 0.6150 0.49 5.34 7.537 7.604 7.777 7.833 7.664 6.687 6.865 7.471 7.517 7.699 7.762 7.574 6.655 6.821 0.7250 10.371 9.791 0.581 10.455 9.915 0.544 0.000
VANMET_231 2018-09-30 20:10:00 231 11739.0 7.568 7.659 7.813 7.682 7.883 94.200 94.500 6.695 6.863 13.250 12.770 11.500 9.910 0.109 0.140 0.191 0.518 0.00 0.00 0.00 0.7510 6.87 0.19 7.594 7.702 7.840 7.934 7.720 6.718 6.898 7.531 7.609 7.781 7.839 7.647 6.670 6.833 0.9210 10.415 9.810 0.604 10.497 9.924 0.577 0.000
VANMET_231 2018-09-30 20:05:00 231 11739.0 7.567 7.690 7.853 7.720 7.953 94.200 94.500 6.705 6.892 13.260 12.760 11.500 9.910 0.109 0.140 0.191 0.518 0.00 0.00 0.00 0.7500 4.26 2.18 7.600 7.700 7.859 7.968 7.739 6.724 6.916 7.550 7.671 7.841 7.938 7.700 6.689 6.871 0.8690 10.415 9.817 0.604 10.524 9.944 0.579 0.000
VANMET_231 2018-09-30 20:00:00 231 11739.0 7.574 7.686 7.863 7.730 7.941 94.100 94.200 6.690 6.868 13.260 12.760 11.500 9.910 0.109 0.140 0.191 0.518 0.00 0.00 0.00 0.7360 5.55 2.54 7.590 7.701 7.870 7.961 7.749 6.718 6.891 7.550 7.671 7.855 7.924 7.709 6.666 6.851 0.9410 10.420 9.807 0.615 10.531 9.928 0.611 0.000
VANMET_231 2018-09-30 19:55:00 231 11739.0 7.605 7.683 7.877 7.756 7.965 93.900 94.100 6.698 6.865 13.270 12.760 11.510 9.910 0.109 0.140 0.191 0.518 0.00 0.00 0.00 0.8110 7.16 0.06 7.626 7.697 7.884 7.975 7.779 6.713 6.884 7.586 7.674 7.870 7.957 7.729 6.679 6.848 0.9670 10.442 9.812 0.637 10.550 9.925 0.622 0.000
VANMET_231 2018-09-30 19:50:00 231 11739.0 7.612 7.699 7.892 7.787 8.000 93.900 93.900 6.702 6.875 13.270 12.760 11.510 9.910 0.109 0.140 0.191 0.518 0.00 0.00 0.00 0.5970 6.32 0.82 7.632 7.712 7.896 8.030 7.811 6.726 6.897 7.589 7.688 7.884 7.980 7.755 6.679 6.845 0.8430 10.447 9.815 0.637 10.572 9.932 0.645 0.000
VANMET_231 2018-09-30 19:45:00 231 11739.0 7.626 7.707 7.906 7.815 8.020 93.800 93.800 6.702 6.886 13.280 12.750 11.510 9.910 0.109 0.140 0.191 0.518 0.00 0.00 0.00 0.5850 2.51 3.33 7.651 7.719 7.919 8.050 7.827 6.715 6.904 7.602 7.694 7.892 7.994 7.804 6.687 6.866 0.8040 10.457 9.815 0.648 10.593 9.940 0.657 0.000
VANMET_231 2018-09-30 19:40:00 231 11739.0 7.660 7.746 7.943 7.845 8.050 93.600 93.500 6.699 6.872 13.280 12.750 11.510 9.910 0.109 0.140 0.191 0.518 0.00 0.00 0.00 0.5700 0.66 1.59 7.681 7.772 7.968 8.090 7.870 6.715 6.887 7.638 7.721 7.923 8.020 7.824 6.677 6.859 0.7640 10.481 9.813 0.671 10.614 9.930 0.690 0.000
VANMET_231 2018-09-30 19:35:00 231 11739.0 7.666 7.783 7.976 7.877 8.100 93.500 93.300 6.689 6.871 13.290 12.750 11.510 9.910 0.109 0.140 0.191 0.518 0.00 0.00 0.00 0.5930 5.64 1.53 7.687 7.800 7.986 8.130 7.900 6.710 6.885 7.640 7.752 7.963 8.060 7.857 6.663 6.854 0.7910 10.485 9.806 0.682 10.637 9.930 0.713 0.000
VANMET_231 2018-09-30 19:30:00 231 11739.0 7.659 7.767 7.977 7.904 8.110 93.400 93.100 6.664 6.860 13.290 12.750 11.510 9.910 0.109 0.140 0.191 0.518 0.00 0.00 0.00 0.5500 1.73 0.88 7.677 7.782 7.989 8.130 7.932 6.688 6.880 7.647 7.750 7.962 8.080 7.873 6.641 6.831 0.8170 10.480 9.789 0.692 10.657 9.922 0.735 0.000
VANMET_231 2018-09-30 19:25:00 231 11739.0 7.677 7.790 7.996 7.951 8.150 93.200 92.900 6.655 6.878 13.290 12.740 11.510 9.910 0.109 0.140 0.191 0.518 0.00 0.00 0.00 0.5310 354.30 6.90 7.706 7.807 8.010 8.180 7.975 6.673 6.897 7.657 7.776 7.985 8.110 7.913 6.638 6.852 0.7190 10.493 9.783 0.714 10.691 9.934 0.759 0.000
VANMET_231 2018-09-30 19:20:00 231 11739.0 7.698 7.813 8.020 7.994 8.230 93.100 92.700 6.654 6.895 13.300 12.740 11.510 9.910 0.109 0.140 0.191 0.518 0.00 0.00 0.00 0.6410 357.50 10.90 7.719 7.828 8.030 8.300 8.020 6.671 6.933 7.679 7.795 8.000 8.140 7.975 6.630 6.851 0.8360 10.508 9.782 0.725 10.723 9.946 0.783 0.000
VANMET_231 2018-09-30 19:15:00 231 11739.0 7.737 7.836 8.040 8.030 8.260 92.800 92.500 6.653 6.891 13.300 12.740 11.510 9.910 0.109 0.140 0.191 0.518 0.00 0.00 0.00 0.6350 351.60 11.87 7.762 7.862 8.070 8.300 8.080 6.671 6.943 7.716 7.800 8.010 8.210 7.988 6.627 6.864 0.7710 10.536 9.782 0.759 10.749 9.943 0.806 0.000
VANMET_231 2018-09-30 19:10:00 231 11739.0 7.770 7.858 8.070 8.050 8.310 92.700 92.500 6.666 6.910 13.300 12.740 11.510 9.910 0.109 0.140 0.191 0.518 0.00 0.00 0.00 0.5690 333.00 22.14 7.795 7.875 8.090 8.400 8.080 6.688 6.955 7.751 7.832 8.040 8.230 8.020 6.651 6.876 0.7970 10.560 9.791 0.771 10.764 9.956 0.807 0.000
VANMET_231 2018-09-30 19:05:00 231 11739.0 7.816 7.844 8.040 8.060 8.250 92.600 92.300 6.696 6.887 13.300 12.730 11.510 9.910 0.109 0.140 0.191 0.518 0.00 0.00 0.00 0.6380 0.26 13.01 7.853 7.871 8.060 8.320 8.100 6.726 6.920 7.781 7.826 8.030 8.200 8.010 6.664 6.855 0.8560 10.593 9.811 0.784 10.771 9.941 0.829 0.000
VANMET_231 2018-09-30 19:00:00 231 11739.0 7.871 7.905 8.080 8.100 8.320 92.500 92.200 6.743 6.916 13.300 12.730 11.510 9.910 0.109 0.140 0.191 0.518 0.00 0.00 0.00 0.6300 351.00 7.52 7.903 7.946 8.120 8.360 8.130 6.777 6.943 7.837 7.869 8.060 8.280 8.070 6.710 6.881 0.9020 10.633 9.843 0.797 10.800 9.960 0.842 0.000
VANMET_231 2018-09-30 18:55:00 231 11739.0 7.927 7.949 8.110 8.140 8.370 92.500 92.100 6.786 6.948 13.300 12.730 11.510 9.910 0.109 0.140 0.191 0.518 0.00 0.00 0.00 0.6500 348.10 17.29 7.955 7.961 8.120 8.420 8.160 6.815 6.977 7.883 7.939 8.080 8.300 8.120 6.764 6.918 0.9670 10.674 9.872 0.801 10.830 9.982 0.856 0.000
VANMET_231 2018-09-30 18:50:00 231 11739.0 7.995 7.982 8.110 8.170 8.410 92.200 91.900 6.816 6.942 13.300 12.730 11.510 9.910 0.109 0.140 0.191 0.518 0.00 0.00 0.00 0.6880 351.30 13.19 8.040 8.010 8.120 8.440 8.190 6.841 6.959 7.962 7.958 8.100 8.360 8.150 6.791 6.923 1.0260 10.723 9.892 0.836 10.852 9.978 0.879 0.000
VANMET_231 2018-09-30 18:45:00 231 11739.0 8.060 8.040 8.160 8.210 8.440 92.000 91.800 6.852 6.960 13.300 12.720 11.510 9.910 0.109 0.140 0.191 0.518 0.00 0.00 0.00 0.6440 346.70 8.67 8.100 8.080 8.190 8.470 8.230 6.879 6.976 8.030 8.010 8.130 8.400 8.190 6.821 6.942 0.8890 10.771 9.917 0.862 10.881 9.990 0.892 0.000
VANMET_231 2018-09-30 18:40:00 231 11739.0 8.110 8.110 8.230 8.260 8.500 91.800 91.600 6.866 6.975 13.300 12.720 11.510 9.910 0.109 0.140 0.191 0.518 0.00 0.00 0.00 0.5720 346.30 10.63 8.140 8.130 8.260 8.540 8.290 6.908 6.996 8.080 8.090 8.200 8.470 8.230 6.823 6.957 0.7190 10.808 9.926 0.886 10.918 10.001 0.917 0.000
VANMET_231 2018-09-30 18:35:00 231 11739.0 8.170 8.170 8.300 8.300 8.540 91.400 91.200 6.854 6.963 13.300 12.720 11.510 9.910 0.109 0.140 0.191 0.518 0.00 0.00 0.00 0.5820 345.00 6.57 8.200 8.190 8.330 8.560 8.320 6.916 6.977 8.120 8.130 8.270 8.500 8.270 6.820 6.946 0.7910 10.852 9.918 0.933 10.948 9.993 0.963 0.000
VANMET_231 2018-09-30 18:30:00 231 11739.0 8.220 8.230 8.380 8.340 8.600 91.100 91.200 6.872 6.991 13.300 12.710 11.510 9.900 0.109 0.140 0.191 0.518 0.00 0.00 0.00 0.6340 344.80 13.21 8.260 8.260 8.410 8.680 8.360 6.937 7.028 8.200 8.200 8.340 8.510 8.320 6.828 6.962 0.7910 10.889 9.930 0.969 10.978 10.012 0.966 0.000
VANMET_231 2018-09-30 18:25:00 231 11739.0 8.280 8.290 8.440 8.370 8.610 91.500 91.700 6.982 7.105 13.290 12.710 11.510 9.900 0.109 0.140 0.191 0.518 0.00 0.00 0.00 0.6650 3.32 10.60 8.320 8.320 8.470 8.670 8.400 7.084 7.156 8.230 8.260 8.420 8.580 8.340 6.898 7.025 0.8170 10.933 10.006 0.929 11.000 10.090 0.913 0.000
VANMET_231 2018-09-30 18:20:00 231 11739.0 8.340 8.340 8.480 8.420 8.610 91.500 91.700 7.041 7.147 13.290 12.710 11.510 9.900 0.109 0.140 0.191 0.518 0.00 0.00 0.00 0.6530 1.26 1.85 8.380 8.380 8.520 8.650 8.460 7.075 7.187 8.290 8.310 8.460 8.570 8.390 7.023 7.116 0.8230 10.978 10.046 0.933 11.038 10.120 0.916 0.000
VANMET_231 2018-09-30 18:15:00 231 11739.0 8.420 8.410 8.550 8.500 8.640 91.100 91.000 7.053 7.127 13.290 12.710 11.510 9.900 0.109 0.140 0.191 0.518 0.00 0.00 0.00 0.6820 6.16 3.14 8.480 8.450 8.590 8.670 8.550 7.116 7.174 8.380 8.380 8.520 8.610 8.460 6.954 7.075 0.8360 11.038 10.054 0.982 11.098 10.106 0.999 0.000
VANMET_231 2018-09-30 18:10:00 231 11739.0 8.540 8.500 8.640 8.600 8.710 90.700 90.600 7.114 7.155 13.280 12.700 11.510 9.900 0.109 0.140 0.191 0.518 0.00 0.00 0.00 0.6400 359.50 30.68 8.600 8.520 8.670 8.740 8.660 7.208 7.183 8.480 8.460 8.600 8.650 8.540 7.054 7.125 1.1430 11.128 10.097 1.035 11.173 10.125 1.050 0.000
VANMET_231 2018-09-30 18:05:00 231 11739.0 8.700 8.590 8.740 8.750 8.790 89.600 89.700 7.098 7.165 13.280 12.700 11.510 9.900 0.109 0.140 0.191 0.518 0.00 0.00 0.00 0.5450 355.20 12.13 8.790 8.680 8.830 8.870 8.840 7.151 7.215 8.600 8.510 8.670 8.710 8.660 7.046 7.126 0.8560 11.249 10.086 1.170 11.287 10.132 1.163 0.000
VANMET_231 2018-09-30 18:00:00 231 11739.0 8.920 8.820 8.940 8.950 8.960 89.100 89.100 7.235 7.267 13.270 12.700 11.510 9.900 0.109 0.140 0.191 0.518 0.00 0.00 0.00 0.5450 353.00 9.69 9.040 8.940 9.050 9.070 9.060 7.352 7.376 8.810 8.700 8.840 8.880 8.860 7.136 7.200 0.7190 11.418 10.181 1.245 11.441 10.203 1.247 0.000
VANMET_231 2018-09-30 17:55:00 231 11739.0 9.130 9.050 9.170 9.170 9.170 89.100 88.900 7.436 7.444 13.260 12.700 11.510 9.900 0.109 0.140 0.191 0.518 0.08 0.00 0.00 0.6210 342.60 22.28 9.230 9.160 9.290 9.290 9.290 7.506 7.581 9.040 8.950 9.070 9.060 9.060 7.325 7.330 0.9280 11.581 10.322 1.262 11.612 10.328 1.289 0.176
VANMET_231 2018-09-30 17:50:00 231 11739.0 9.340 9.270 9.400 9.410 9.400 88.400 88.100 7.532 7.553 13.260 12.690 11.510 9.900 0.109 0.140 0.191 0.518 1.33 0.00 0.00 0.5970 340.70 11.55 9.420 9.370 9.500 9.490 9.500 7.608 7.619 9.230 9.170 9.310 9.310 9.320 7.407 7.462 0.8300 11.746 10.390 1.363 11.802 10.405 1.404 2.801
VANMET_231 2018-09-30 17:45:00 231 11739.0 9.510 9.480 9.620 9.610 9.610 88.100 87.400 7.646 7.624 13.250 12.690 11.520 9.900 0.109 0.140 0.191 0.518 3.24 0.00 0.00 0.5780 332.30 16.11 9.600 9.590 9.730 9.720 9.690 7.863 7.768 9.430 9.380 9.510 9.520 9.520 7.510 7.497 0.7450 11.881 10.471 1.414 11.962 10.455 1.507 6.804
VANMET_231 2018-09-30 17:40:00 231 11739.0 9.670 9.660 9.810 9.770 9.800 87.100 86.700 7.643 7.668 13.240 12.690 11.520 9.900 0.109 0.140 0.191 0.518 5.47 0.00 0.00 0.5650 308.40 39.67 9.750 9.750 9.910 9.890 9.850 7.758 7.764 9.580 9.590 9.730 9.740 9.700 7.510 7.556 1.5030 12.010 10.469 1.549 12.091 10.487 1.608 11.491
VANMET_231 2018-09-30 17:35:00 231 11739.0 9.830 9.850 10.000 9.920 9.980 86.700 86.400 7.728 7.764 13.240 12.690 11.520 9.900 0.109 0.140 0.191 0.518 8.65 0.00 0.00 0.5540 321.20 18.54 9.900 9.920 10.070 10.060 9.990 7.865 7.872 9.750 9.760 9.930 9.880 9.860 7.545 7.664 0.6790 12.140 10.530 1.615 12.213 10.556 1.661 18.165
VANMET_231 2018-09-30 17:30:00 231 11739.0 9.940 9.980 10.150 10.060 10.180 85.300 84.800 7.593 7.626 13.230 12.680 11.520 9.900 0.109 0.140 0.191 0.518 12.31 0.00 0.00 0.5650 309.90 20.64 9.990 10.020 10.190 10.250 10.100 7.708 7.763 9.890 9.930 10.080 10.070 10.010 7.477 7.496 0.9210 12.229 10.433 1.798 12.328 10.457 1.874 25.851
VANMET_231 2018-09-30 17:25:00 231 11739.0 10.020 10.060 10.220 10.130 10.270 84.900 83.900 7.606 7.532 13.220 12.680 11.520 9.900 0.109 0.140 0.191 0.518 14.92 0.00 0.00 0.4660 293.60 38.26 10.050 10.080 10.240 10.340 10.160 7.801 7.611 9.980 10.030 10.200 10.220 10.080 7.469 7.472 0.9150 12.295 10.443 1.857 12.386 10.390 1.994 31.332
VANMET_231 2018-09-30 17:20:00 231 11739.0 10.110 10.120 10.280 10.200 10.290 85.100 84.100 7.735 7.636 13.210 12.680 11.520 9.900 0.109 0.140 0.191 0.518 19.05 0.00 0.00 0.5110 276.60 38.02 10.170 10.180 10.340 10.340 10.260 7.820 7.715 10.060 10.080 10.250 10.230 10.160 7.591 7.533 0.9930 12.370 10.535 1.843 12.444 10.464 1.979 40.005
VANMET_231 2018-09-30 17:15:00 231 11739.0 10.240 10.240 10.400 10.320 10.400 84.500 83.700 7.751 7.695 13.200 12.680 11.520 9.900 0.109 0.140 0.191 0.518 19.45 0.00 0.00 0.5480 246.60 27.41 10.320 10.300 10.460 10.520 10.360 7.899 7.783 10.190 10.190 10.350 10.330 10.250 7.608 7.543 1.1630 12.478 10.546 1.934 12.545 10.506 2.045 40.845
VANMET_231 2018-09-30 17:10:00 231 11739.0 10.400 10.340 10.490 10.380 10.480 83.800 82.800 7.781 7.592 13.190 12.680 11.520 9.900 0.109 0.140 0.191 0.518 22.34 0.00 0.00 0.6380 272.50 28.54 10.510 10.420 10.550 10.630 10.430 8.080 7.789 10.300 10.300 10.450 10.410 10.330 7.578 7.464 1.0260 12.612 10.568 2.043 12.595 10.433 2.166 46.914
VANMET_231 2018-09-30 17:05:00 231 11739.0 10.600 10.510 10.650 10.530 10.510 84.900 84.600 8.180 8.060 13.180 12.680 11.520 9.900 0.109 0.140 0.191 0.518 28.80 0.00 0.00 0.4330 248.70 33.99 10.700 10.590 10.730 10.550 10.630 8.300 8.200 10.520 10.430 10.550 10.470 10.430 8.040 7.830 0.7640 12.781 10.859 1.930 12.722 10.771 1.959 60.480
VANMET_231 2018-09-30 17:00:00 231 11739.0 10.830 10.710 10.860 10.760 10.690 84.300 84.100 8.290 8.190 13.170 12.670 11.520 9.900 0.109 0.140 0.191 0.518 33.70 0.00 0.00 0.3500 279.00 20.54 10.920 10.820 10.970 10.730 10.870 8.530 8.370 10.700 10.600 10.740 10.580 10.640 8.110 8.040 0.6080 12.979 10.941 2.038 12.918 10.867 2.054 70.770
VANMET_231 2018-09-30 16:55:00 231 11739.0 11.020 10.950 11.100 10.980 10.850 84.500 84.200 8.530 8.430 13.150 12.670 11.520 9.900 0.109 0.140 0.191 0.518 46.55 0.00 0.00 0.2220 269.80 18.89 11.110 11.060 11.190 10.940 11.060 8.630 8.480 10.920 10.820 10.980 10.730 10.880 8.400 8.360 0.5230 13.144 11.120 2.037 13.109 11.045 2.071 97.755
VANMET_231 2018-09-30 16:50:00 231 11739.0 11.140 11.120 11.250 11.090 11.040 83.600 82.100 8.470 8.160 13.140 12.670 11.520 9.900 0.109 0.140 0.191 0.518 60.65 0.00 0.00 0.1330 212.00 13.46 11.160 11.160 11.290 11.090 11.120 8.610 8.400 11.100 11.060 11.200 10.940 11.060 8.400 7.947 0.5490 13.249 11.075 2.173 13.205 10.844 2.364 127.365
VANMET_231 2018-09-30 16:45:00 231 11739.0 11.180 11.200 11.350 11.170 11.080 82.500 81.800 8.330 8.190 13.130 12.670 11.520 9.900 0.109 0.140 0.191 0.518 74.27 0.00 0.00 0.5410 226.20 9.49 11.230 11.270 11.410 11.200 11.210 8.510 8.380 11.150 11.160 11.280 10.990 11.120 8.140 7.955 1.0190 13.284 10.970 2.325 13.275 10.867 2.416 155.967
VANMET_231 2018-09-30 16:40:00 231 11739.0 11.190 11.230 11.370 11.190 11.230 81.300 80.500 8.120 7.975 13.120 12.670 11.520 9.900 0.109 0.140 0.191 0.518 79.84 0.00 0.00 0.1120 308.20 4.12 11.220 11.260 11.400 11.370 11.210 8.280 8.120 11.160 11.200 11.340 11.150 11.160 7.822 7.752 0.4120 13.293 10.815 2.486 13.293 10.709 2.592 167.664
VANMET_231 2018-09-30 16:35:00 231 11739.0 11.210 11.200 11.350 11.190 11.250 81.400 80.400 8.150 7.953 13.100 12.670 11.520 9.900 0.109 0.140 0.191 0.518 74.16 0.00 0.00 0.7850 245.20 32.12 11.270 11.220 11.370 11.360 11.240 8.560 8.390 11.190 11.180 11.330 11.170 11.160 7.481 7.509 1.4570 13.310 10.837 2.476 13.293 10.693 2.605 155.736
VANMET_231 2018-09-30 16:30:00 231 11739.0 11.260 11.240 11.370 11.220 11.190 82.400 81.200 8.380 8.130 13.090 12.670 11.520 9.900 0.109 0.140 0.191 0.518 68.94 0.00 0.00 0.1180 260.00 0.12 11.290 11.280 11.390 11.240 11.250 8.490 8.300 11.240 11.220 11.350 11.130 11.210 8.250 8.020 0.3200 13.355 11.008 2.350 13.319 10.822 2.504 144.774
VANMET_231 2018-09-30 16:25:00 231 11739.0 11.360 11.350 11.450 11.300 11.290 80.500 79.300 8.140 7.858 13.070 12.670 11.520 9.900 0.109 0.140 0.191 0.518 69.57 0.00 0.00 0.4830 250.20 48.55 11.410 11.430 11.520 11.380 11.370 8.460 8.080 11.290 11.280 11.390 11.190 11.250 7.650 7.560 1.0260 13.444 10.830 2.621 13.390 10.624 2.772 146.097
VANMET_231 2018-09-30 16:20:00 231 11739.0 11.490 11.480 11.580 11.410 11.460 78.670 77.180 7.919 7.566 13.060 12.660 11.520 9.900 0.109 0.140 0.191 0.518 78.77 0.00 0.00 0.8150 243.30 23.61 11.570 11.560 11.650 11.550 11.500 8.270 7.877 11.390 11.420 11.520 11.360 11.340 7.302 7.244 1.4050 13.560 10.668 2.892 13.488 10.414 3.078 165.417
VANMET_231 2018-09-30 16:15:00 231 11739.0 11.640 11.620 11.700 11.510 11.590 78.070 77.330 7.957 7.693 13.050 12.660 11.520 9.900 0.109 0.140 0.191 0.518 105.90 0.00 0.00 0.8240 257.20 27.37 11.690 11.670 11.740 11.630 11.570 8.560 8.090 11.590 11.570 11.660 11.560 11.460 7.339 7.377 1.8290 13.695 10.696 3.003 13.578 10.505 3.078 222.390
VANMET_231 2018-09-30 16:10:00 231 11739.0 11.760 11.740 11.820 11.620 11.620 81.000 79.830 8.620 8.260 13.030 12.660 11.520 9.900 0.109 0.140 0.191 0.518 98.80 0.00 0.00 0.6220 259.20 27.75 11.810 11.780 11.860 11.660 11.660 8.870 8.650 11.700 11.670 11.740 11.590 11.570 8.090 7.653 1.4110 13.804 11.188 2.623 13.677 10.918 2.759 207.480
VANMET_231 2018-09-30 16:05:00 231 11739.0 11.820 11.780 11.850 11.640 11.700 80.500 78.360 8.590 8.010 13.020 12.660 11.520 9.900 0.109 0.140 0.191 0.518 106.40 0.00 0.00 0.4920 243.80 28.00 11.830 11.810 11.890 11.760 11.670 8.920 8.520 11.790 11.770 11.840 11.670 11.620 8.100 7.698 1.3330 13.859 11.166 2.702 13.695 10.734 2.964 223.440
VANMET_231 2018-09-30 16:00:00 231 11739.0 11.870 11.830 11.920 11.730 11.710 79.220 78.250 8.400 8.070 13.000 12.660 11.520 9.900 0.109 0.140 0.191 0.518 102.70 0.00 0.00 0.7780 238.60 15.44 11.950 11.930 12.020 11.800 11.790 8.720 8.440 11.810 11.770 11.840 11.660 11.650 8.180 7.711 1.1690 13.905 11.023 2.889 13.777 10.778 2.996 215.670
VANMET_231 2018-09-30 15:55:00 231 11739.0 11.950 11.970 12.050 11.800 11.820 79.900 79.110 8.600 8.310 12.980 12.660 11.520 9.900 0.109 0.140 0.191 0.518 112.80 0.00 0.00 0.6810 229.00 29.20 12.000 12.030 12.110 11.880 11.860 9.050 8.580 11.930 11.930 12.020 11.780 11.770 7.833 7.805 1.1830 13.978 11.173 2.810 13.841 10.956 2.891 236.880
VANMET_231 2018-09-30 15:50:00 231 11739.0 12.000 12.060 12.120 11.860 11.900 78.910 77.510 8.460 8.070 12.970 12.660 11.520 9.900 0.109 0.140 0.191 0.518 137.20 0.00 0.00 0.7850 259.00 20.62 12.040 12.110 12.180 11.960 11.890 8.980 8.380 11.970 12.040 12.090 11.860 11.840 7.862 7.636 1.6270 14.025 11.068 2.958 13.896 10.778 3.125 288.120
VANMET_231 2018-09-30 15:45:00 231 11739.0 12.020 12.060 12.120 11.840 11.870 79.200 77.970 8.540 8.130 12.950 12.660 11.520 9.900 0.109 0.140 0.191 0.518 158.90 0.00 0.00 0.6870 228.80 32.57 12.050 12.090 12.170 11.910 11.880 9.000 8.330 11.990 12.030 12.100 11.780 11.810 8.170 7.954 1.4830 14.043 11.128 2.921 13.877 10.822 3.057 333.690
VANMET_231 2018-09-30 15:40:00 231 11739.0 11.990 12.020 12.080 11.830 11.870 77.400 75.670 8.170 7.679 12.940 12.660 11.520 9.900 0.109 0.140 0.191 0.518 142.60 0.00 0.00 0.4610 253.20 36.63 12.010 12.050 12.110 11.910 11.850 8.410 8.050 11.950 11.990 12.060 11.840 11.800 7.813 7.503 0.9150 14.015 10.852 3.167 13.868 10.495 3.374 299.460
VANMET_231 2018-09-30 15:35:00 231 11739.0 12.030 12.030 12.080 11.880 11.880 76.770 75.550 8.080 7.703 12.920 12.660 11.520 9.900 0.109 0.140 0.191 0.518 144.80 0.00 0.00 0.7530 269.20 30.24 12.120 12.080 12.160 11.930 11.970 8.360 7.913 11.980 11.990 12.050 11.840 11.830 7.523 7.491 2.2020 14.052 10.786 3.264 13.914 10.512 3.402 304.080
VANMET_231 2018-09-30 15:30:00 231 11739.0 12.140 12.180 12.250 12.010 12.010 75.410 74.670 7.934 7.662 12.900 12.660 11.520 9.900 0.109 0.140 0.191 0.518 155.10 0.00 0.00 0.7970 260.80 31.99 12.190 12.280 12.340 12.120 12.070 8.700 8.030 12.120 12.110 12.180 11.880 11.980 7.519 7.461 1.7380 14.154 10.679 3.481 14.034 10.483 3.555 325.710
VANMET_231 2018-09-30 15:25:00 231 11739.0 12.130 12.270 12.300 12.030 12.110 76.320 75.460 8.100 7.831 12.890 12.660 11.520 9.900 0.109 0.140 0.191 0.518 193.10 0.00 0.00 0.7890 256.70 28.08 12.170 12.310 12.350 12.140 12.080 8.470 8.090 12.070 12.170 12.210 12.040 11.960 7.813 7.651 1.2740 14.145 10.800 3.350 14.052 10.604 3.448 405.510
VANMET_231 2018-09-30 15:20:00 231 11739.0 12.050 12.070 12.120 11.930 12.000 75.770 74.960 7.913 7.647 12.870 12.660 11.520 9.900 0.109 0.140 0.191 0.518 200.40 0.00 0.00 0.9550 257.90 42.89 12.120 12.160 12.190 12.120 11.980 8.340 7.883 12.020 12.010 12.070 11.940 11.910 7.389 7.394 1.6460 14.071 10.664 3.409 13.960 10.472 3.496 420.840
VANMET_231 2018-09-30 15:15:00 231 11739.0 12.300 12.170 12.220 12.060 12.010 73.980 73.450 7.802 7.473 12.860 12.660 11.520 9.900 0.109 0.140 0.191 0.518 166.30 0.00 0.00 1.1740 253.90 33.44 12.420 12.280 12.320 12.090 12.160 8.250 7.649 12.120 12.040 12.090 11.920 11.970 7.295 7.189 2.9530 14.304 10.583 3.722 14.080 10.348 3.738 349.230
VANMET_231 2018-09-30 15:10:00 231 11739.0 12.500 12.400 12.410 12.290 12.120 76.050 73.520 8.410 7.707 12.840 12.660 11.530 9.900 0.109 0.140 0.191 0.518 184.40 0.00 0.00 0.8680 268.90 35.50 12.580 12.500 12.530 12.290 12.440 8.940 8.140 12.420 12.300 12.330 12.020 12.160 7.957 7.361 2.0380 14.494 11.030 3.471 14.295 10.515 3.785 387.240
VANMET_231 2018-09-30 15:05:00 231 11739.0 12.890 12.830 12.850 12.680 12.500 73.450 71.410 8.260 7.655 12.820 12.670 11.530 9.900 0.109 0.140 0.191 0.518 166.40 0.00 0.00 1.0560 239.60 44.57 13.110 13.110 13.090 12.710 12.860 8.940 8.140 12.630 12.510 12.540 12.280 12.450 7.340 7.248 2.6330 14.869 10.918 3.948 14.666 10.478 4.193 349.440
VANMET_231 2018-09-30 15:00:00 231 11739.0 13.100 13.170 13.200 12.830 12.770 73.260 71.990 8.430 7.917 12.810 12.670 11.530 9.900 0.109 0.140 0.191 0.518 286.80 0.00 0.00 0.9250 221.90 21.43 13.190 13.300 13.330 12.970 12.960 9.080 8.380 12.980 13.000 13.010 12.590 12.670 7.861 7.309 1.6990 15.075 11.045 4.031 14.811 10.667 4.148 602.280
VANMET_231 2018-09-30 14:55:00 231 11739.0 12.920 12.820 12.860 12.590 12.430 74.110 72.470 8.430 7.782 12.790 12.670 11.530 9.900 0.109 0.140 0.191 0.518 281.70 0.00 0.00 0.8150 231.20 25.75 12.970 12.960 12.990 12.570 12.630 8.940 8.120 12.890 12.760 12.800 12.330 12.560 7.576 7.389 1.8950 14.898 11.045 3.857 14.579 10.569 4.014 591.570
VANMET_231 2018-09-30 14:50:00 231 11739.0 13.070 12.950 12.990 12.770 12.410 74.440 72.610 8.640 7.988 12.780 12.670 11.530 9.900 0.109 0.140 0.191 0.518 207.40 0.00 0.00 0.8160 237.30 28.85 13.200 13.110 13.180 12.590 12.940 9.190 8.470 12.940 12.780 12.840 12.280 12.590 7.959 7.618 1.8420 15.045 11.204 3.846 14.753 10.718 4.041 435.540
VANMET_231 2018-09-30 14:45:00 231 11739.0 13.270 13.310 13.380 13.040 12.830 74.180 71.840 8.780 8.080 12.770 12.670 11.530 9.900 0.109 0.140 0.191 0.518 278.40 0.00 0.00 0.7810 238.40 32.96 13.290 13.370 13.460 13.050 13.100 9.400 8.520 13.230 13.150 13.230 12.610 12.960 8.130 7.732 1.4310 15.243 11.310 3.936 15.016 10.786 4.228 584.640
VANMET_231 2018-09-30 14:40:00 231 11739.0 13.250 13.430 13.490 12.980 12.990 73.170 72.220 8.550 8.110 12.750 12.670 11.530 9.900 0.109 0.140 0.191 0.518 273.20 0.00 0.00 0.8640 246.10 46.59 13.300 13.480 13.560 13.240 13.050 9.650 9.180 13.130 13.340 13.420 12.840 12.860 7.844 7.571 1.3920 15.223 11.135 4.084 14.957 10.808 4.155 573.720
VANMET_231 2018-09-30 14:35:00 231 11739.0 12.630 12.810 12.850 12.440 12.680 74.350 72.300 8.190 7.608 12.740 12.670 11.530 9.900 0.109 0.140 0.191 0.518 524.10 0.00 0.00 1.3530 244.20 18.38 13.080 13.360 13.380 13.190 12.820 9.140 8.320 12.220 12.230 12.270 12.090 12.090 7.329 7.161 2.8620 14.618 10.867 3.749 14.437 10.444 3.999 1100.610
VANMET_231 2018-09-30 14:30:00 231 11739.0 12.250 12.210 12.240 12.090 12.050 74.230 73.680 7.809 7.539 12.730 12.680 11.530 9.900 0.109 0.140 0.191 0.518 253.10 0.00 0.00 1.2210 250.40 32.33 12.400 12.350 12.360 12.180 12.190 8.450 8.100 12.150 12.120 12.160 11.950 12.000 7.373 7.141 1.8880 14.257 10.588 3.674 14.108 10.395 3.713 531.510
VANMET_231 2018-09-30 14:25:00 231 11739.0 12.460 12.440 12.450 12.240 12.220 76.640 75.230 8.480 7.997 12.710 12.680 11.530 9.900 0.109 0.140 0.191 0.518 200.50 0.00 0.00 1.2470 238.90 26.55 12.540 12.480 12.490 12.330 12.270 9.240 8.570 12.380 12.380 12.380 12.150 12.200 7.881 7.588 2.1170 14.456 11.083 3.377 14.248 10.725 3.529 421.050
VANMET_231 2018-09-30 14:20:00 231 11739.0 12.710 12.580 12.620 12.320 12.110 76.610 75.240 8.710 8.070 12.700 12.680 11.530 9.900 0.109 0.140 0.191 0.518 229.30 0.00 0.00 0.7810 158.80 62.08 12.880 12.740 12.820 12.350 12.500 9.410 8.550 12.550 12.470 12.500 12.000 12.210 8.010 7.684 1.7840 14.695 11.257 3.437 14.323 10.778 3.546 481.530
VANMET_231 2018-09-30 14:15:00 231 11739.0 12.920 12.750 12.760 12.470 12.240 73.470 72.450 8.300 7.660 12.690 12.680 11.530 9.900 0.109 0.140 0.191 0.518 358.40 0.00 0.00 0.9830 206.80 50.65 13.080 12.890 12.870 12.390 12.570 8.760 8.050 12.840 12.680 12.680 12.120 12.390 7.746 7.305 2.3060 14.898 10.948 3.953 14.465 10.481 3.985 752.640
VANMET_231 2018-09-30 14:10:00 231 11739.0 13.210 13.030 13.010 12.710 12.480 72.410 71.190 8.370 7.640 12.680 12.680 11.530 9.900 0.109 0.140 0.191 0.518 371.10 0.00 0.00 1.0240 265.00 39.41 13.290 13.130 13.110 12.540 12.760 9.160 8.010 13.100 12.910 12.880 12.350 12.620 7.594 7.286 1.7510 15.183 11.000 4.189 14.695 10.467 4.234 779.310
VANMET_231 2018-09-30 14:05:00 231 11739.0 13.340 13.180 13.170 12.890 12.590 75.100 73.330 9.020 8.240 12.670 12.680 11.530 9.900 0.109 0.140 0.191 0.518 354.50 0.00 0.00 1.0870 238.40 31.09 13.510 13.470 13.440 12.840 13.020 9.980 9.220 13.140 13.000 12.990 12.460 12.760 8.200 7.737 2.4570 15.313 11.495 3.813 14.869 10.904 3.966 744.450
VANMET_231 2018-09-30 14:00:00 231 11739.0 13.490 13.460 13.490 13.080 12.800 71.880 71.270 8.520 8.010 12.650 12.690 11.530 9.900 0.109 0.140 0.191 0.518 352.30 0.00 0.00 0.8330 257.60 19.01 13.630 13.670 13.680 12.980 13.160 9.830 8.790 13.430 13.370 13.370 12.640 13.020 7.482 7.520 1.3980 15.463 11.113 4.348 15.055 10.734 4.325 739.830
VANMET_231 2018-09-30 13:55:00 231 11739.0 13.510 13.660 13.620 13.130 13.070 70.960 69.790 8.350 7.743 12.640 12.690 11.530 9.900 0.109 0.140 0.191 0.518 560.00 0.00 0.00 1.3070 264.90 35.38 13.640 13.750 13.710 13.280 13.220 9.570 8.250 13.230 13.410 13.380 12.800 12.930 7.531 7.293 2.2150 15.483 10.985 4.496 15.104 10.541 4.563 1176.000
VANMET_231 2018-09-30 13:50:00 231 11739.0 12.820 12.850 12.890 12.630 12.310 74.700 73.400 8.450 8.000 12.630 12.690 11.530 9.900 0.109 0.140 0.191 0.518 567.60 0.00 0.00 0.7770 225.40 71.46 13.170 13.310 13.300 13.000 12.860 9.670 8.450 12.690 12.610 12.660 11.960 12.460 7.672 7.528 1.6400 14.801 11.060 3.745 14.618 10.727 3.888 1191.960
VANMET_231 2018-09-30 13:45:00 231 11739.0 13.060 13.090 13.100 12.850 12.450 73.800 72.180 8.500 7.965 12.620 12.690 11.530 9.900 0.109 0.140 0.191 0.518 321.30 0.00 0.00 0.8470 251.30 26.05 13.350 13.300 13.300 12.650 13.030 9.210 8.760 12.860 12.930 12.970 12.150 12.740 7.418 7.299 1.5480 15.035 11.098 3.939 14.830 10.701 4.126 674.730
VANMET_231 2018-09-30 13:40:00 231 11739.0 13.410 13.640 13.660 13.240 12.820 73.900 70.930 8.860 8.090 12.610 12.700 11.530 9.900 0.109 0.140 0.191 0.518 446.60 0.00 0.00 1.2570 238.30 37.27 13.450 13.800 13.880 13.160 13.340 10.200 9.010 13.380 13.430 13.420 12.550 13.080 7.804 7.536 2.2540 15.383 11.372 4.015 15.213 10.793 4.422 937.860
VANMET_231 2018-09-30 13:35:00 231 11739.0 13.130 13.390 13.530 12.990 12.950 75.130 73.360 8.810 8.330 12.600 12.700 11.530 9.900 0.109 0.140 0.191 0.518 747.60 0.00 0.00 1.1640 249.30 23.46 13.340 13.700 13.770 13.160 13.260 10.260 9.100 12.790 13.120 13.250 12.610 12.610 7.550 7.545 2.0970 15.104 11.333 3.756 14.967 10.970 3.987 1569.960
VANMET_231 2018-09-30 13:30:00 231 11739.0 12.360 12.690 12.790 12.260 12.430 80.700 78.910 9.140 8.720 12.590 12.700 11.530 9.900 0.109 0.140 0.191 0.518 535.30 0.00 0.00 0.9910 227.60 43.76 12.720 13.040 13.170 12.890 12.570 9.920 9.490 12.000 12.320 12.380 12.160 11.910 8.550 8.040 2.0060 14.361 11.589 2.772 14.267 11.264 3.009 1124.130
VANMET_231 2018-09-30 13:25:00 231 11739.0 11.690 11.930 11.970 11.630 11.800 79.870 77.920 8.340 7.915 12.580 12.710 11.530 9.900 0.109 0.140 0.191 0.518 471.00 0.00 0.00 1.2320 250.10 22.08 11.970 12.310 12.350 12.150 11.870 9.220 8.540 11.580 11.690 11.720 11.440 11.470 7.397 7.255 2.3720 13.740 10.978 2.766 13.686 10.665 3.022 989.100
VANMET_231 2018-09-30 13:20:00 231 11739.0 11.470 11.570 11.630 11.370 11.420 80.600 78.480 8.260 7.769 12.570 12.710 11.530 9.900 0.109 0.140 0.191 0.518 384.80 0.00 0.00 1.5170 227.20 29.34 11.570 11.700 11.740 11.510 11.470 8.740 8.030 11.400 11.480 11.540 11.270 11.300 7.558 7.271 2.6530 13.542 10.918 2.627 13.452 10.559 2.895 808.080
VANMET_231 2018-09-30 13:15:00 231 11739.0 11.410 11.460 11.520 11.240 11.310 82.000 80.500 8.450 8.020 12.570 12.710 11.540 9.900 0.109 0.140 0.191 0.518 313.10 0.00 0.00 1.0680 235.80 36.83 11.430 11.530 11.620 11.410 11.330 9.200 8.350 11.360 11.380 11.420 11.180 11.180 7.424 7.211 2.2610 13.488 11.060 2.428 13.337 10.742 2.601 657.510
VANMET_231 2018-09-30 13:10:00 231 11739.0 11.300 11.330 11.360 11.120 11.120 80.100 79.300 8.010 7.677 12.560 12.710 11.540 9.900 0.109 0.140 0.191 0.518 338.10 0.00 0.00 1.2800 223.40 32.96 11.370 11.460 11.510 11.340 11.170 8.690 8.100 11.240 11.210 11.260 10.980 11.070 7.124 7.212 2.2210 13.390 10.734 2.665 13.231 10.493 2.739 710.010
VANMET_231 2018-09-30 13:05:00 231 11739.0 11.380 11.440 11.470 11.230 11.230 81.600 80.000 8.350 7.910 12.550 12.720 11.540 9.900 0.109 0.140 0.191 0.518 325.40 0.00 0.00 1.1770 239.20 31.33 11.430 11.550 11.570 11.360 11.270 9.140 8.440 11.340 11.350 11.370 11.080 11.180 7.544 7.359 2.5090 13.461 10.985 2.477 13.328 10.661 2.666 683.340
VANMET_231 2018-09-30 13:00:00 231 11739.0 11.370 11.540 11.580 11.230 11.340 82.800 82.100 8.560 8.290 12.540 12.720 11.540 9.900 0.109 0.140 0.191 0.518 390.30 0.00 0.00 1.0420 257.10 22.72 11.460 11.620 11.680 11.450 11.340 8.950 8.750 11.240 11.340 11.360 11.200 11.050 8.080 7.806 2.3850 13.452 11.143 2.314 13.328 10.941 2.386 819.630
VANMET_231 2018-09-30 12:55:00 231 11739.0 11.030 11.090 11.100 10.810 10.950 85.600 84.100 8.710 8.240 12.540 12.720 11.540 9.900 0.109 0.140 0.191 0.518 450.90 0.00 0.00 0.9390 232.20 26.06 11.220 11.320 11.320 11.200 11.040 9.290 8.720 10.910 10.880 10.910 10.680 10.680 8.270 7.856 1.9080 13.152 11.257 1.894 12.961 10.904 2.061 946.890
VANMET_231 2018-09-30 12:50:00 231 11739.0 11.030 10.940 10.970 10.760 10.680 81.100 81.000 7.926 7.647 12.530 12.730 11.540 9.900 0.109 0.140 0.191 0.518 229.10 0.00 0.00 1.0720 232.30 33.62 11.220 11.080 11.110 10.770 10.860 8.280 7.922 10.880 10.840 10.860 10.600 10.660 7.665 7.422 2.5150 13.152 10.673 2.486 12.918 10.472 2.454 481.110
VANMET_231 2018-09-30 12:45:00 231 11739.0 11.400 11.260 11.330 11.090 10.810 82.000 80.800 8.450 7.926 12.520 12.730 11.540 9.900 0.109 0.140 0.191 0.518 276.40 0.00 0.00 0.7910 184.40 33.34 11.520 11.440 11.540 11.000 11.230 9.150 8.450 11.210 11.060 11.090 10.610 10.910 7.801 7.355 1.5810 13.479 11.060 2.426 13.205 10.673 2.535 580.440
VANMET_231 2018-09-30 12:40:00 231 11739.0 11.540 11.570 11.630 11.320 11.200 85.400 85.300 9.180 8.950 12.520 12.730 11.540 9.900 0.109 0.140 0.191 0.518 307.00 0.00 0.00 0.5110 180.30 41.11 11.590 11.700 11.730 11.540 11.390 10.090 9.530 11.490 11.450 11.560 10.960 11.240 8.660 8.340 0.8100 13.605 11.620 1.986 13.408 11.441 1.971 644.700
VANMET_231 2018-09-30 12:35:00 231 11739.0 11.350 11.420 11.460 11.160 11.120 86.100 86.200 9.120 8.940 12.510 12.740 11.540 9.900 0.109 0.140 0.191 0.518 355.40 0.00 0.00 0.8700 228.10 48.32 11.450 11.590 11.610 11.390 11.250 9.770 9.390 11.290 11.300 11.350 10.900 11.080 7.919 8.180 1.3790 13.435 11.573 1.867 13.266 11.433 1.831 746.340
VANMET_231 2018-09-30 12:30:00 231 11739.0 11.380 11.430 11.460 11.160 11.070 86.500 85.500 9.210 8.820 12.510 12.740 11.540 9.900 0.109 0.140 0.191 0.518 293.50 0.00 0.00 0.7880 261.00 22.42 11.410 11.470 11.520 11.200 11.230 9.590 9.120 11.350 11.360 11.390 10.910 11.120 8.850 8.530 1.4240 13.461 11.644 1.817 13.266 11.341 1.924 616.350
VANMET_231 2018-09-30 12:25:00 231 11739.0 11.380 11.530 11.610 11.280 11.300 87.000 84.700 9.300 8.810 12.500 12.750 11.540 9.900 0.109 0.140 0.191 0.518 302.20 0.00 0.00 1.1160 238.00 28.19 11.430 11.570 11.650 11.410 11.340 9.570 9.330 11.350 11.480 11.520 11.200 11.250 8.940 8.450 2.0190 13.461 11.715 1.750 13.372 11.333 2.046 634.620
VANMET_231 2018-09-30 12:20:00 231 11739.0 11.290 11.460 11.530 11.160 11.230 85.200 83.700 8.900 8.510 12.500 12.750 11.540 9.900 0.109 0.140 0.191 0.518 475.30 0.00 0.00 0.9020 236.00 41.35 11.370 11.530 11.600 11.310 11.250 9.370 9.050 11.190 11.370 11.460 11.150 11.000 8.010 8.010 2.2350 13.381 11.402 1.980 13.266 11.105 2.162 998.130
VANMET_231 2018-09-30 12:15:00 231 11739.0 10.930 11.040 11.070 10.680 10.980 88.400 87.400 9.090 8.690 12.490 12.750 11.540 9.900 0.109 0.140 0.191 0.518 482.60 0.00 0.00 1.0450 249.00 67.17 11.150 11.340 11.420 11.350 10.980 9.810 9.220 10.780 10.760 10.780 10.570 10.450 7.766 7.706 1.8880 13.065 11.550 1.516 12.850 11.242 1.619 1013.460
VANMET_231 2018-09-30 12:10:00 231 11739.0 10.730 10.810 10.840 10.530 10.590 88.000 88.000 8.830 8.630 12.490 12.760 11.540 9.900 0.109 0.140 0.191 0.518 329.50 0.00 0.00 0.7720 223.00 33.91 10.770 10.880 10.930 10.740 10.610 9.150 8.900 10.710 10.780 10.780 10.470 10.480 8.410 8.330 1.5220 12.892 11.349 1.547 12.722 11.196 1.527 691.950
VANMET_231 2018-09-30 12:05:00 231 11739.0 10.770 10.810 10.820 10.470 10.600 88.700 89.200 8.980 8.770 12.490 12.760 11.540 9.900 0.109 0.140 0.191 0.518 303.40 0.00 0.00 1.0490 240.50 35.76 10.820 10.870 10.910 10.710 10.540 9.420 9.080 10.730 10.730 10.730 10.370 10.410 8.330 8.360 2.7570 12.927 11.464 1.461 12.671 11.303 1.368 637.140
VANMET_231 2018-09-30 12:00:00 231 11739.0 10.740 10.730 10.740 10.440 10.400 88.200 88.700 8.870 8.660 12.480 12.770 11.540 9.900 0.109 0.140 0.191 0.518 298.50 0.00 0.00 1.2410 188.10 34.38 10.830 10.940 10.950 10.640 10.580 9.720 9.390 10.660 10.630 10.650 10.290 10.350 8.280 8.280 2.6660 12.901 11.379 1.522 12.645 11.219 1.429 626.850
VANMET_231 2018-09-30 11:55:00 231 11739.0 10.780 10.890 10.930 10.560 10.640 90.100 90.800 9.230 9.120 12.480 12.770 11.540 9.900 0.109 0.140 0.191 0.518 298.90 0.00 0.00 1.3280 210.30 41.51 10.820 11.040 11.130 10.840 10.670 9.730 9.580 10.730 10.770 10.810 10.450 10.490 8.580 8.760 2.9010 12.935 11.659 1.281 12.747 11.573 1.173 627.690
VANMET_231 2018-09-30 11:50:00 231 11739.0 10.680 10.870 10.950 10.470 10.650 92.900 93.100 9.580 9.400 12.480 12.770 11.540 9.900 0.109 0.140 0.191 0.518 348.00 0.00 0.00 0.5530 186.10 40.83 10.810 11.030 11.100 10.840 10.620 9.750 9.490 10.510 10.710 10.780 10.520 10.290 9.390 9.200 1.0130 12.850 11.937 0.912 12.671 11.794 0.874 730.800
VANMET_231 2018-09-30 11:45:00 231 11739.0 10.300 10.450 10.500 10.040 10.310 92.700 92.300 9.180 8.860 12.470 12.780 11.540 9.900 0.109 0.140 0.191 0.518 345.70 0.00 0.00 0.5650 214.20 40.34 10.490 10.680 10.720 10.510 10.240 9.470 9.220 10.140 10.220 10.280 10.120 9.870 8.750 8.520 0.9540 12.528 11.620 0.915 12.312 11.372 0.948 725.970
VANMET_231 2018-09-30 11:40:00 231 11739.0 10.040 10.090 10.150 9.760 9.990 90.900 91.200 8.630 8.400 12.470 12.780 11.540 9.900 0.109 0.140 0.191 0.518 347.10 0.00 0.00 0.8400 267.40 34.16 10.150 10.210 10.270 10.160 9.850 8.890 8.530 9.960 9.950 9.980 9.830 9.650 8.150 8.150 1.8290 12.312 11.196 1.120 12.083 11.023 1.063 728.910
VANMET_231 2018-09-30 11:35:00 231 11739.0 9.850 9.910 9.980 9.600 9.830 91.800 91.600 8.590 8.300 12.470 12.790 11.540 9.900 0.109 0.140 0.191 0.518 315.60 0.00 0.00 1.0620 260.10 27.83 9.970 10.050 10.080 9.930 9.670 8.890 8.370 9.770 9.820 9.900 9.710 9.520 8.260 8.200 1.9210 12.156 11.166 0.997 11.953 10.948 1.004 662.760
VANMET_231 2018-09-30 11:30:00 231 11739.0 9.710 9.740 9.810 9.450 9.620 89.900 91.100 8.150 8.080 12.460 12.790 11.540 9.900 0.109 0.140 0.191 0.518 269.20 0.00 0.00 0.8010 262.80 51.12 9.760 9.820 9.880 9.770 9.510 8.490 8.230 9.690 9.690 9.750 9.490 9.410 7.692 7.867 1.3850 12.042 10.837 1.216 11.833 10.786 1.053 565.320
VANMET_231 2018-09-30 11:25:00 231 11739.0 9.770 9.750 9.800 9.420 9.620 90.500 91.200 8.290 8.070 12.460 12.800 11.540 9.900 0.109 0.140 0.191 0.518 241.00 0.00 0.00 0.9800 259.90 32.36 9.840 9.820 9.900 9.770 9.470 8.520 8.310 9.710 9.700 9.700 9.490 9.350 7.889 7.700 1.9670 12.091 10.941 1.149 11.810 10.778 1.039 506.100
VANMET_231 2018-09-30 11:20:00 231 11739.0 9.890 9.810 9.870 9.490 9.530 89.800 91.300 8.300 8.160 12.460 12.800 11.540 9.900 0.109 0.140 0.191 0.518 252.10 0.00 0.00 0.6950 260.40 22.13 10.010 9.940 9.980 9.640 9.610 8.650 8.280 9.820 9.740 9.820 9.380 9.430 7.917 8.080 1.1760 12.189 10.948 1.243 11.865 10.844 1.032 529.410
VANMET_231 2018-09-30 11:15:00 231 11739.0 10.020 10.080 10.170 9.740 9.780 91.400 93.300 8.700 8.720 12.460 12.800 11.540 9.900 0.109 0.140 0.191 0.518 269.30 0.00 0.00 0.8180 260.80 35.76 10.080 10.230 10.300 9.950 9.830 8.820 8.940 9.980 9.950 10.020 9.630 9.590 8.570 8.330 1.3720 12.295 11.249 1.057 12.066 11.264 0.808 565.530
VANMET_231 2018-09-30 11:10:00 231 11739.0 9.950 10.090 10.160 9.670 9.950 92.400 94.400 8.790 8.820 12.450 12.810 11.540 9.900 0.109 0.140 0.191 0.518 395.30 0.00 0.00 0.7810 236.90 20.16 10.090 10.240 10.320 10.150 9.830 9.020 9.050 9.780 9.860 9.900 9.590 9.430 8.160 8.410 1.2610 12.238 11.318 0.930 12.010 11.341 0.673 830.130
VANMET_231 2018-09-30 11:05:00 231 11739.0 9.730 9.860 9.910 9.440 9.660 93.300 95.400 8.700 8.760 12.450 12.810 11.540 9.900 0.109 0.140 0.191 0.518 429.60 0.00 0.00 1.0600 214.70 25.81 9.840 9.920 9.950 9.740 9.490 8.950 8.960 9.600 9.800 9.860 9.550 9.370 8.480 8.440 1.8550 12.058 11.249 0.808 11.826 11.295 0.544 902.160
VANMET_231 2018-09-30 11:00:00 231 11739.0 9.410 9.520 9.570 9.080 9.420 94.600 96.500 8.590 8.560 12.450 12.820 11.540 9.900 0.109 0.140 0.191 0.518 389.10 0.00 0.00 0.8680 201.00 25.75 9.560 9.770 9.850 9.750 9.350 8.850 8.860 9.260 9.280 9.340 9.150 8.890 8.390 8.360 1.2020 11.802 11.166 0.637 11.542 11.143 0.404 817.110
VANMET_231 2018-09-30 10:55:00 231 11739.0 9.190 9.240 9.270 8.850 9.130 95.200 97.100 8.470 8.420 12.440 12.820 11.540 9.900 0.109 0.140 0.191 0.518 316.60 0.00 0.00 0.8880 219.90 17.18 9.260 9.310 9.320 9.310 8.900 8.640 8.500 9.090 9.160 9.190 8.990 8.740 8.260 8.350 1.8230 11.628 11.075 0.558 11.364 11.038 0.330 664.860
VANMET_231 2018-09-30 10:50:00 231 11739.0 8.950 9.040 9.060 8.590 9.000 96.600 97.500 8.440 8.220 12.440 12.830 11.540 9.900 0.109 0.140 0.191 0.518 289.40 0.00 0.00 1.0810 213.30 14.02 9.090 9.200 9.240 9.210 8.750 8.570 8.370 8.800 8.920 8.930 8.820 8.490 8.370 8.140 2.0320 11.441 11.053 0.389 11.166 10.889 0.279 607.740
VANMET_231 2018-09-30 10:45:00 231 11739.0 8.600 8.690 8.730 8.310 8.690 96.700 97.500 8.110 7.946 12.440 12.830 11.540 9.900 0.109 0.140 0.191 0.518 268.20 0.00 0.00 0.4680 190.10 44.56 8.780 8.890 8.930 9.000 8.480 8.330 8.140 8.440 8.520 8.550 8.500 8.170 7.907 7.783 1.0850 11.173 10.808 0.369 10.956 10.688 0.274 563.220
VANMET_231 2018-09-30 10:40:00 231 11739.0 8.410 8.450 8.500 8.150 8.410 96.100 97.400 7.836 7.768 12.440 12.840 11.540 9.900 0.109 0.140 0.191 0.518 146.10 0.00 0.00 1.0030 234.30 35.28 8.430 8.500 8.550 8.500 8.190 7.881 7.823 8.390 8.420 8.480 8.350 8.120 7.788 7.725 2.3190 11.030 10.608 0.430 10.837 10.559 0.282 306.810
VANMET_231 2018-09-30 10:35:00 231 11739.0 8.410 8.470 8.540 8.210 8.480 96.600 97.500 7.902 7.842 12.430 12.840 11.540 9.900 0.109 0.140 0.191 0.518 102.60 0.00 0.00 0.6430 259.30 27.65 8.450 8.510 8.570 8.530 8.230 7.974 7.874 8.380 8.430 8.490 8.310 8.180 7.833 7.807 0.9670 11.030 10.656 0.375 10.881 10.612 0.272 215.460
VANMET_231 2018-09-30 10:30:00 231 11739.0 8.340 8.420 8.480 8.140 8.490 96.300 97.300 7.803 7.741 12.430 12.850 11.540 9.900 0.109 0.140 0.191 0.518 116.60 0.00 0.00 0.5990 279.50 25.05 8.400 8.500 8.550 8.600 8.210 7.905 7.833 8.290 8.290 8.360 8.280 8.090 7.691 7.657 0.9280 10.978 10.584 0.406 10.830 10.539 0.292 244.860
VANMET_231 2018-09-30 10:25:00 231 11739.0 8.310 8.310 8.380 8.090 8.340 95.700 97.000 7.672 7.645 12.430 12.850 11.540 9.900 0.109 0.140 0.191 0.518 91.40 0.00 0.00 0.7830 244.20 29.49 8.350 8.340 8.400 8.430 8.110 7.711 7.677 8.270 8.300 8.350 8.240 8.070 7.595 7.591 1.8880 10.956 10.490 0.471 10.793 10.470 0.324 191.940
VANMET_231 2018-09-30 10:20:00 231 11739.0 8.450 8.390 8.410 8.150 8.350 95.400 96.600 7.765 7.652 12.430 12.860 11.540 9.900 0.109 0.140 0.191 0.518 86.30 0.00 0.00 0.9770 242.20 21.89 8.550 8.490 8.500 8.420 8.240 7.957 7.770 8.320 8.280 8.330 8.280 8.070 7.541 7.567 1.8750 11.060 10.557 0.509 10.837 10.475 0.368 181.230
VANMET_231 2018-09-30 10:15:00 231 11739.0 8.560 8.540 8.580 8.300 8.490 95.700 96.600 7.922 7.807 12.430 12.870 11.540 9.900 0.109 0.140 0.191 0.518 103.50 0.00 0.00 0.9740 239.20 17.40 8.630 8.600 8.650 8.610 8.370 7.995 7.854 8.530 8.500 8.520 8.400 8.260 7.844 7.778 1.8160 11.143 10.670 0.479 10.948 10.587 0.372 217.350
VANMET_231 2018-09-30 10:10:00 231 11739.0 8.660 8.650 8.690 8.400 8.570 95.200 96.200 7.934 7.840 12.430 12.870 11.540 9.900 0.109 0.140 0.191 0.518 82.00 0.00 0.00 0.5610 244.10 22.36 8.710 8.710 8.750 8.680 8.450 7.986 7.879 8.620 8.620 8.660 8.490 8.360 7.866 7.801 0.8490 11.219 10.679 0.539 11.023 10.611 0.419 172.200
VANMET_231 2018-09-30 10:05:00 231 11739.0 8.720 8.740 8.800 8.480 8.730 95.500 96.000 8.050 7.894 12.430 12.880 11.540 9.900 0.109 0.140 0.191 0.518 84.40 0.00 0.00 0.6410 226.00 38.37 8.760 8.810 8.880 8.890 8.530 8.170 7.972 8.680 8.680 8.720 8.520 8.440 7.914 7.817 1.4630 11.264 10.764 0.507 11.083 10.650 0.443 177.240
VANMET_231 2018-09-30 10:00:00 231 11739.0 8.680 8.660 8.740 8.440 8.650 94.300 95.300 7.827 7.738 12.430 12.880 11.540 9.900 0.109 0.140 0.191 0.518 125.80 0.00 0.00 0.8670 250.60 28.46 8.710 8.690 8.800 8.740 8.490 7.989 7.839 8.660 8.630 8.700 8.540 8.410 7.752 7.661 2.3850 11.234 10.601 0.640 11.053 10.537 0.519 264.180
VANMET_231 2018-09-30 09:55:00 231 11739.0 8.800 8.740 8.790 8.510 8.610 93.700 94.800 7.850 7.736 12.430 12.890 11.540 9.900 0.109 0.140 0.191 0.518 70.75 0.00 0.00 0.6190 261.00 24.98 8.900 8.870 8.900 8.700 8.630 8.030 7.842 8.700 8.650 8.720 8.510 8.430 7.717 7.648 1.3650 11.326 10.618 0.714 11.105 10.536 0.577 148.575
VANMET_231 2018-09-30 09:50:00 231 11739.0 8.980 8.930 8.960 8.700 8.780 93.900 94.700 8.060 7.906 12.430 12.890 11.540 9.900 0.109 0.140 0.191 0.518 75.32 0.00 0.00 0.5050 271.50 16.85 9.070 9.030 9.050 8.860 8.790 8.260 8.030 8.910 8.880 8.910 8.690 8.620 7.998 7.820 1.1890 11.464 10.771 0.699 11.249 10.659 0.596 158.172
VANMET_231 2018-09-30 09:45:00 231 11739.0 9.110 9.110 9.140 8.890 8.960 94.300 94.900 8.240 8.120 12.440 12.900 11.540 9.900 0.109 0.140 0.191 0.518 79.28 0.00 0.00 0.4390 267.00 23.45 9.140 9.150 9.200 9.100 8.920 8.290 8.180 9.060 9.050 9.060 8.810 8.830 8.210 8.030 0.7380 11.565 10.904 0.659 11.395 10.815 0.581 166.488
VANMET_231 2018-09-30 09:40:00 231 11739.0 9.180 9.120 9.160 8.910 9.000 93.100 93.500 8.140 7.920 12.440 12.900 11.540 9.900 0.109 0.140 0.191 0.518 99.90 0.00 0.00 0.3990 235.20 23.37 9.230 9.150 9.190 9.080 8.950 8.270 8.020 9.140 9.100 9.130 8.900 8.880 7.973 7.784 0.6470 11.620 10.830 0.802 11.410 10.669 0.742 209.790
VANMET_231 2018-09-30 09:35:00 231 11739.0 9.380 9.270 9.310 9.070 9.050 90.900 91.800 7.978 7.820 12.440 12.910 11.540 9.900 0.109 0.140 0.191 0.518 122.40 0.00 0.00 0.8670 210.20 36.64 9.490 9.420 9.460 9.170 9.190 8.230 7.944 9.230 9.120 9.170 8.970 8.940 7.703 7.646 1.4900 11.778 10.711 1.072 11.534 10.596 0.946 257.040
VANMET_231 2018-09-30 09:30:00 231 11739.0 9.600 9.580 9.620 9.330 9.380 93.100 93.700 8.550 8.380 12.450 12.910 11.540 9.900 0.109 0.140 0.191 0.518 145.40 0.00 0.00 0.5900 205.60 21.01 9.650 9.660 9.700 9.600 9.370 8.790 8.510 9.510 9.440 9.480 9.090 9.190 8.030 7.971 1.4050 11.953 11.135 0.825 11.738 11.008 0.740 305.340
VANMET_231 2018-09-30 09:25:00 231 11739.0 9.530 9.550 9.590 9.280 9.400 93.000 92.700 8.470 8.170 12.450 12.920 11.540 9.900 0.109 0.140 0.191 0.518 176.00 0.00 0.00 0.6790 206.90 21.13 9.600 9.610 9.650 9.470 9.330 8.720 8.380 9.490 9.480 9.510 9.270 9.220 8.180 7.937 1.3390 11.897 11.075 0.833 11.699 10.852 0.854 369.600
VANMET_231 2018-09-30 09:20:00 231 11739.0 9.510 9.480 9.530 9.250 9.300 90.100 90.900 7.981 7.855 12.450 12.920 11.550 9.900 0.109 0.140 0.191 0.518 189.00 0.00 0.00 0.3830 166.80 53.75 9.550 9.520 9.570 9.400 9.300 8.310 8.030 9.500 9.440 9.490 9.200 9.190 7.700 7.729 0.8230 11.881 10.713 1.176 11.675 10.622 1.062 396.900
VANMET_231 2018-09-30 09:15:00 231 11739.0 9.660 9.620 9.640 9.410 9.370 90.500 90.500 8.190 7.931 12.460 12.930 11.540 9.900 0.109 0.140 0.191 0.518 149.10 0.00 0.00 0.7750 200.40 30.12 9.780 9.780 9.790 9.560 9.530 8.420 8.150 9.550 9.480 9.530 9.230 9.300 7.695 7.688 1.8230 12.002 10.867 1.140 11.802 10.677 1.121 313.110
VANMET_231 2018-09-30 09:10:00 231 11739.0 9.860 9.850 9.870 9.630 9.590 91.200 91.200 8.510 8.270 12.460 12.940 11.550 9.900 0.109 0.140 0.191 0.518 196.80 0.00 0.00 0.7560 206.10 24.68 9.950 9.940 9.950 9.710 9.720 8.720 8.430 9.750 9.780 9.780 9.460 9.530 8.300 8.050 1.3330 12.164 11.105 1.070 11.978 10.926 1.054 413.280
VANMET_231 2018-09-30 09:05:00 231 11739.0 9.970 10.020 10.060 9.790 9.670 91.800 91.500 8.700 8.480 12.470 12.940 11.550 9.890 0.109 0.140 0.191 0.518 269.70 0.00 0.00 0.7690 198.20 16.48 10.010 10.070 10.110 9.800 9.840 8.960 8.600 9.920 9.950 9.970 9.610 9.710 8.410 8.340 1.3790 12.254 11.249 1.005 12.107 11.083 1.029 566.370
VANMET_231 2018-09-30 09:00:00 231 11739.0 9.820 9.890 9.950 9.700 9.680 90.900 89.900 8.420 8.140 12.480 12.950 11.550 9.900 0.109 0.140 0.191 0.518 293.30 0.00 0.00 0.7490 212.20 23.60 9.910 10.020 10.070 9.920 9.770 8.790 8.480 9.770 9.780 9.840 9.530 9.650 8.020 7.840 1.3130 12.131 11.038 1.104 12.034 10.830 1.215 615.930
VANMET_231 2018-09-30 08:55:00 231 11739.0 9.750 9.780 9.850 9.660 9.480 88.800 86.300 8.000 7.492 12.480 12.950 11.550 9.900 0.109 0.140 0.191 0.518 325.50 0.00 0.00 0.8600 205.20 18.26 9.780 9.830 9.890 9.610 9.710 8.220 7.755 9.690 9.710 9.790 9.410 9.610 7.740 7.237 1.6730 12.075 10.727 1.352 12.002 10.361 1.644 683.550
VANMET_231 2018-09-30 08:50:00 231 11739.0 9.620 9.620 9.720 9.470 9.450 86.100 84.800 7.412 7.048 12.490 12.960 11.550 9.890 0.109 0.140 0.191 0.518 353.80 0.00 0.00 1.0390 221.80 7.14 9.700 9.690 9.780 9.560 9.590 7.878 7.236 9.600 9.590 9.680 9.360 9.420 6.924 6.797 1.6270 11.970 10.305 1.664 11.849 10.051 1.801 742.980
VANMET_231 2018-09-30 08:45:00 231 11739.0 9.640 9.670 9.780 9.490 9.410 85.700 84.300 7.361 6.972 12.500 12.960 11.550 9.890 0.109 0.140 0.191 0.518 271.60 0.00 0.00 0.9270 219.60 18.15 9.670 9.790 9.930 9.530 9.600 8.000 7.301 9.580 9.580 9.700 9.360 9.430 6.721 6.690 1.6400 11.986 10.269 1.714 11.865 9.999 1.863 570.360
VANMET_231 2018-09-30 08:40:00 231 11739.0 9.640 9.820 10.060 9.670 9.390 87.900 86.400 7.739 7.525 12.500 12.970 11.550 9.890 0.109 0.140 0.191 0.518 258.40 0.00 0.00 0.6560 210.80 13.12 9.680 9.880 10.190 9.550 9.740 8.100 7.918 9.590 9.770 9.940 9.260 9.590 7.111 7.191 1.4770 11.986 10.538 1.450 12.010 10.385 1.633 542.640
VANMET_231 2018-09-30 08:35:00 231 11739.0 9.530 9.700 10.100 9.580 9.380 88.200 87.100 7.685 7.546 12.510 12.970 11.550 9.890 0.109 0.140 0.191 0.518 347.10 0.00 0.00 0.6610 167.30 35.47 9.600 9.780 10.170 9.510 9.670 7.927 7.749 9.450 9.650 10.050 9.290 9.480 7.422 7.291 1.7440 11.897 10.499 1.404 11.937 10.400 1.540 728.910
VANMET_231 2018-09-30 08:30:00 231 11739.0 9.260 9.510 9.770 9.080 9.310 87.000 89.200 7.222 7.406 12.520 12.980 11.550 9.890 0.109 0.140 0.191 0.518 397.10 0.00 0.00 0.7230 208.40 34.69 9.420 9.650 10.090 9.500 9.440 7.452 7.563 9.170 9.440 9.610 9.140 8.830 7.023 7.270 1.4050 11.683 10.172 1.519 11.542 10.301 1.247 833.910
VANMET_231 2018-09-30 08:25:00 231 11739.0 9.060 9.360 9.500 8.820 9.230 92.200 95.100 7.846 8.080 12.530 12.980 11.550 9.890 0.109 0.140 0.191 0.518 350.50 0.00 0.00 0.7130 221.10 13.91 9.210 9.470 9.630 9.410 8.880 8.460 8.440 8.850 9.160 9.300 8.990 8.670 6.913 7.442 1.0190 11.526 10.615 0.899 11.341 10.786 0.556 736.050
VANMET_231 2018-09-30 08:20:00 231 11739.0 8.640 8.900 9.010 8.470 8.870 96.800 98.000 8.170 8.180 12.530 12.990 11.550 9.890 0.109 0.140 0.191 0.518 252.10 0.00 0.00 0.0300 210.70 9.04 8.820 9.120 9.250 9.110 8.640 8.300 8.300 8.530 8.800 8.890 8.750 8.370 8.100 8.120 0.3660 11.204 10.852 0.359 11.075 10.859 0.222 529.410
VANMET_231 2018-09-30 08:15:00 231 11739.0 8.480 8.730 8.820 8.340 8.690 97.600 98.800 8.120 8.160 12.540 13.000 11.550 9.890 0.109 0.140 0.191 0.518 148.30 0.00 0.00 0.1290 207.50 20.87 8.540 8.810 8.910 9.010 8.380 8.160 8.210 8.450 8.680 8.770 8.460 8.290 8.090 8.130 0.6600 11.083 10.815 0.266 10.978 10.844 0.132 311.430
VANMET_231 2018-09-30 08:10:00 231 11739.0 8.360 8.620 8.740 8.260 8.590 97.900 99.100 8.060 8.140 12.550 13.000 11.550 9.890 0.109 0.140 0.191 0.518 121.60 0.00 0.00 0.0000 0.00 0.00 8.440 8.730 8.840 8.720 8.360 8.130 8.220 8.310 8.540 8.660 8.500 8.190 8.030 8.080 0.0000 10.993 10.771 0.231 10.918 10.830 0.098 255.360
VANMET_231 2018-09-30 08:05:00 231 11739.0 8.310 8.540 8.640 8.190 8.520 98.600 99.400 8.100 8.110 12.550 13.010 11.550 9.890 0.109 0.140 0.191 0.518 128.40 0.00 0.00 0.2960 215.90 23.56 8.350 8.580 8.670 8.630 8.220 8.150 8.150 8.210 8.480 8.570 8.400 8.150 8.030 8.080 0.8560 10.956 10.800 0.153 10.867 10.808 0.065 269.640
VANMET_231 2018-09-30 08:00:00 231 11739.0 8.090 8.340 8.440 7.996 8.400 98.600 99.500 7.891 7.933 12.560 13.010 11.550 9.890 0.109 0.140 0.191 0.518 132.30 0.00 0.00 0.0510 162.00 2.21 8.220 8.460 8.560 8.560 8.130 8.030 8.060 7.983 8.270 8.330 8.250 7.880 7.774 7.816 0.4700 10.793 10.648 0.151 10.724 10.678 0.054 277.830
VANMET_231 2018-09-30 07:55:00 231 11739.0 7.880 8.130 8.210 7.772 8.190 98.500 99.600 7.658 7.719 12.570 13.020 11.550 9.890 0.109 0.140 0.191 0.518 109.90 0.00 0.00 0.0930 45.03 0.15 7.966 8.260 8.320 8.350 7.876 7.751 7.813 7.807 8.030 8.120 8.100 7.694 7.582 7.651 0.2610 10.640 10.480 0.160 10.562 10.523 0.042 230.790
VANMET_231 2018-09-30 07:50:00 231 11739.0 7.809 7.994 8.080 7.658 8.100 98.600 99.800 7.614 7.632 12.580 13.020 11.550 9.890 0.109 0.140 0.191 0.518 96.40 0.00 0.00 0.2120 24.28 18.38 7.847 8.020 8.110 8.270 7.691 7.651 7.666 7.744 7.929 8.020 7.986 7.611 7.563 7.599 0.4180 10.588 10.448 0.148 10.480 10.461 0.021 202.440
VANMET_231 2018-09-30 07:45:00 231 11739.0 7.694 7.843 7.937 7.550 8.010 98.800 100.000 7.521 7.549 12.590 13.030 11.550 9.890 0.109 0.140 0.191 0.518 91.30 0.00 0.00 0.1380 69.04 27.41 7.744 7.908 7.997 8.230 7.608 7.561 7.597 7.658 7.805 7.911 7.886 7.488 7.485 7.491 0.5490 10.505 10.382 0.126 10.403 10.402 0.000 191.730
VANMET_231 2018-09-30 07:40:00 231 11739.0 7.578 7.744 7.837 7.445 7.952 98.900 100.000 7.420 7.451 12.590 13.030 11.550 9.890 0.109 0.140 0.191 0.518 89.00 0.00 0.00 0.4110 314.70 18.87 7.665 7.836 7.935 8.070 7.538 7.508 7.545 7.512 7.659 7.744 7.781 7.359 7.349 7.365 1.0190 10.423 10.311 0.115 10.328 10.332 0.000 186.900
VANMET_231 2018-09-30 07:35:00 231 11739.0 7.442 7.596 7.695 7.359 7.783 98.900 100.000 7.291 7.365 12.600 13.040 11.550 9.890 0.109 0.140 0.191 0.518 86.90 0.00 0.00 0.3450 279.20 20.27 7.505 7.668 7.757 7.913 7.392 7.351 7.398 7.392 7.535 7.651 7.670 7.323 7.246 7.329 0.7640 10.326 10.220 0.114 10.268 10.272 0.000 182.490
VANMET_231 2018-09-30 07:30:00 231 11739.0 7.346 7.447 7.552 7.243 7.583 99.000 100.000 7.200 7.249 12.610 13.050 11.550 9.890 0.109 0.140 0.191 0.518 94.40 0.00 0.00 0.3710 348.80 21.22 7.399 7.527 7.641 7.675 7.310 7.257 7.316 7.306 7.388 7.491 7.513 7.187 7.159 7.192 0.5420 10.258 10.156 0.103 10.186 10.191 0.000 198.240
VANMET_231 2018-09-30 07:25:00 231 11739.0 7.306 7.390 7.485 7.171 7.480 99.000 100.000 7.168 7.177 12.620 13.050 11.550 9.890 0.109 0.140 0.191 0.518 70.59 0.00 0.00 0.4460 4.61 8.91 7.319 7.400 7.495 7.508 7.183 7.187 7.189 7.273 7.383 7.477 7.469 7.160 7.136 7.166 0.5550 10.230 10.134 0.102 10.136 10.140 0.000 148.239
VANMET_231 2018-09-30 07:20:00 231 11739.0 7.233 7.340 7.437 7.125 7.455 99.100 100.000 7.103 7.131 12.630 13.060 11.550 9.890 0.109 0.140 0.191 0.518 81.80 0.00 0.00 0.4940 8.44 0.64 7.273 7.400 7.496 7.531 7.170 7.145 7.176 7.197 7.286 7.387 7.387 7.087 7.066 7.093 0.6270 10.179 10.089 0.092 10.104 10.108 0.000 171.780
VANMET_231 2018-09-30 07:15:00 231 11739.0 7.128 7.236 7.327 7.037 7.378 99.100 100.000 6.997 7.043 12.630 13.060 11.550 9.890 0.109 0.140 0.191 0.518 90.50 0.00 0.00 0.5200 8.54 0.00 7.193 7.281 7.383 7.407 7.100 7.065 7.106 7.060 7.174 7.258 7.338 6.957 6.925 6.963 0.7510 10.106 10.016 0.091 10.043 10.048 0.000 190.050
VANMET_231 2018-09-30 07:10:00 231 11739.0 7.052 7.128 7.199 6.919 7.336 99.100 100.000 6.919 6.924 12.640 13.070 11.550 9.890 0.109 0.140 0.191 0.518 69.82 0.00 0.00 0.5240 8.01 18.71 7.080 7.171 7.254 7.448 6.980 6.947 6.986 7.027 7.087 7.165 7.209 6.861 6.890 6.866 0.7250 10.054 9.962 0.090 9.962 9.966 0.000 146.622
VANMET_231 2018-09-30 07:05:00 231 11739.0 7.045 7.108 7.195 6.904 7.245 99.100 100.000 6.914 6.909 12.650 13.070 11.550 9.890 0.109 0.140 0.191 0.518 58.61 0.00 0.00 0.7420 20.79 14.17 7.077 7.126 7.209 7.326 6.931 6.946 6.936 7.000 7.088 7.168 7.179 6.871 6.869 6.876 0.9600 10.049 9.959 0.090 9.952 9.956 0.000 123.081
VANMET_231 2018-09-30 07:00:00 231 11739.0 6.999 7.078 7.164 6.874 7.239 99.100 100.000 6.866 6.879 12.660 13.080 11.550 9.890 0.109 0.140 0.191 0.518 33.43 0.00 0.00 0.6470 8.44 2.50 7.024 7.094 7.174 7.258 6.891 6.892 6.896 6.974 7.065 7.156 7.219 6.854 6.842 6.860 0.7840 10.017 9.926 0.090 9.932 9.935 0.000 70.203
VANMET_231 2018-09-30 06:55:00 231 11739.0 6.974 7.060 7.147 6.864 7.236 99.000 100.000 6.838 6.870 12.670 13.080 11.550 9.890 0.109 0.140 0.191 0.518 28.22 0.00 0.00 0.5400 6.75 0.03 6.994 7.072 7.165 7.252 6.884 6.859 6.890 6.957 7.049 7.131 7.219 6.844 6.823 6.850 0.7190 10.000 9.907 0.100 9.925 9.929 0.000 59.262
VANMET_231 2018-09-30 06:50:00 231 11739.0 6.964 7.034 7.125 6.845 7.212 99.000 100.000 6.827 6.851 12.680 13.090 11.550 9.890 0.109 0.140 0.191 0.518 23.69 0.00 0.00 0.3950 6.73 0.01 6.984 7.045 7.129 7.277 6.858 6.847 6.863 6.941 7.026 7.120 7.173 6.824 6.804 6.830 0.5030 9.993 9.900 0.100 9.912 9.916 0.000 49.749
VANMET_231 2018-09-30 06:45:00 231 11739.0 6.958 7.031 7.116 6.833 7.203 99.000 100.000 6.822 6.838 12.680 13.090 11.550 9.890 0.109 0.140 0.191 0.518 17.18 0.00 0.00 0.5750 6.73 0.03 6.977 7.040 7.129 7.219 6.854 6.843 6.860 6.938 7.011 7.098 7.171 6.821 6.800 6.827 0.6470 9.989 9.896 0.100 9.904 9.907 0.000 36.078
VANMET_231 2018-09-30 06:40:00 231 11739.0 6.944 7.018 7.102 6.813 7.188 99.000 100.000 6.808 6.819 12.690 13.100 11.550 9.890 0.109 0.140 0.191 0.518 11.25 0.00 0.00 0.5140 6.95 0.20 6.964 7.025 7.105 7.223 6.835 6.827 6.840 6.927 7.009 7.098 7.160 6.798 6.789 6.803 0.7450 9.980 9.887 0.100 9.890 9.894 0.000 23.625
VANMET_231 2018-09-30 06:35:00 231 11739.0 6.896 6.973 7.060 6.787 7.156 99.000 100.000 6.755 6.793 12.700 13.110 11.550 9.890 0.109 0.140 0.191 0.518 6.74 0.00 0.00 0.6840 6.64 0.31 6.941 7.018 7.098 7.191 6.804 6.809 6.810 6.864 6.947 7.041 7.120 6.771 6.717 6.776 0.8300 9.947 9.851 0.099 9.872 9.876 0.000 14.156
VANMET_231 2018-09-30 06:30:00 231 11739.0 6.872 6.950 7.050 6.775 7.116 99.000 100.000 6.727 6.781 12.710 13.110 11.550 9.890 0.109 0.140 0.191 0.518 6.39 0.00 0.00 0.4670 6.38 0.02 6.894 6.956 7.061 7.153 6.801 6.749 6.807 6.851 6.943 7.041 7.102 6.761 6.706 6.767 0.5620 9.930 9.832 0.099 9.864 9.868 0.000 13.425
VANMET_231 2018-09-30 06:25:00 231 11739.0 6.842 6.930 7.034 6.766 7.129 98.900 100.000 6.694 6.771 12.720 13.120 11.550 9.890 0.109 0.140 0.191 0.518 4.11 0.00 0.00 0.4820 6.38 0.00 6.871 6.953 7.059 7.160 6.801 6.722 6.807 6.804 6.907 7.009 7.105 6.728 6.649 6.733 0.5810 9.910 9.809 0.109 9.858 9.862 0.000 8.641
VANMET_231 2018-09-30 06:20:00 231 11739.0 6.816 6.890 6.994 6.728 7.066 98.900 100.000 6.663 6.734 12.730 13.120 11.550 9.890 0.109 0.140 0.191 0.518 4.24 0.00 0.00 0.4080 6.38 0.00 6.831 6.905 7.007 7.110 6.751 6.682 6.757 6.795 6.884 6.988 7.051 6.711 6.638 6.717 0.4770 9.892 9.789 0.109 9.832 9.836 0.000 8.900
VANMET_231 2018-09-30 06:15:00 231 11739.0 6.793 6.883 6.977 6.717 7.085 98.900 100.000 6.636 6.723 12.730 13.130 11.550 9.890 0.109 0.140 0.191 0.518 3.54 0.00 0.00 0.5100 6.38 0.00 6.821 6.895 6.999 7.109 6.735 6.666 6.740 6.771 6.867 6.961 7.045 6.688 6.614 6.694 0.6600 9.876 9.770 0.109 9.825 9.829 0.000 7.440
VANMET_231 2018-09-30 06:10:00 231 11739.0 6.769 6.849 6.960 6.706 7.051 98.800 100.000 6.604 6.711 12.740 13.130 11.550 9.890 0.109 0.140 0.191 0.518 2.05 0.00 0.00 0.5150 6.37 0.00 6.791 6.865 6.972 7.106 6.721 6.623 6.727 6.748 6.838 6.951 7.019 6.681 6.584 6.687 0.6790 9.860 9.749 0.118 9.818 9.821 0.000 4.305
VANMET_231 2018-09-30 06:05:00 231 11739.0 6.792 6.866 6.974 6.721 7.077 98.800 100.000 6.626 6.727 12.750 13.140 11.550 9.890 0.109 0.140 0.191 0.518 0.96 0.00 0.00 0.2930 6.39 0.03 6.821 6.879 6.983 7.095 6.735 6.654 6.740 6.774 6.853 6.967 7.052 6.705 6.608 6.710 0.3990 9.876 9.764 0.119 9.828 9.832 0.000 2.012
VANMET_231 2018-09-30 06:00:00 231 11739.0 6.799 6.882 6.981 6.725 7.084 98.800 100.000 6.633 6.729 12.760 13.140 11.550 9.890 0.109 0.140 0.191 0.518 0.35 0.00 0.00 0.3290 6.45 0.03 6.811 6.887 6.991 7.115 6.751 6.645 6.756 6.788 6.869 6.958 7.050 6.694 6.619 6.696 0.4310 9.881 9.768 0.119 9.830 9.833 0.000 0.745
VANMET_231 2018-09-30 05:55:00 231 11739.0 6.795 6.876 6.970 6.709 7.050 98.800 100.000 6.624 6.709 12.770 13.150 11.550 9.890 0.109 0.140 0.191 0.518 0.02 0.00 0.00 0.5080 6.45 0.03 6.817 6.889 6.984 7.081 6.731 6.648 6.731 6.774 6.864 6.953 7.013 6.681 6.602 6.682 0.6530 9.878 9.762 0.119 9.820 9.820 0.000 0.044
VANMET_231 2018-09-30 05:50:00 231 11739.0 6.804 6.890 6.988 6.735 7.086 98.800 100.000 6.632 6.734 12.780 13.150 11.550 9.890 0.109 0.140 0.191 0.518 0.00 0.00 0.00 0.4330 6.42 0.00 6.821 6.896 6.994 7.101 6.758 6.649 6.754 6.788 6.873 6.976 7.048 6.708 6.612 6.708 0.5160 9.884 9.768 0.119 9.837 9.836 0.000 0.000
VANMET_231 2018-09-30 05:45:00 231 11739.0 6.809 6.892 6.995 6.732 7.084 98.800 99.900 6.634 6.727 12.780 13.160 11.550 9.890 0.109 0.140 0.191 0.518 0.00 0.00 0.00 0.3710 6.43 0.01 6.831 6.900 7.004 7.119 6.745 6.658 6.741 6.785 6.886 6.989 7.054 6.718 6.609 6.713 0.4700 9.887 9.769 0.119 9.835 9.832 0.010 0.000
VANMET_231 2018-09-30 05:40:00 231 11739.0 6.810 6.893 6.983 6.707 7.074 98.800 99.900 6.636 6.699 12.790 13.170 11.550 9.890 0.109 0.140 0.191 0.518 0.00 0.00 0.00 0.5100 6.91 0.27 6.831 6.903 7.001 7.112 6.738 6.656 6.734 6.791 6.881 6.958 7.028 6.671 6.614 6.660 0.6990 9.888 9.770 0.119 9.818 9.813 0.010 0.000
VANMET_231 2018-09-30 05:35:00 231 11739.0 6.795 6.881 6.957 6.677 7.051 98.800 99.900 6.618 6.664 12.800 13.170 11.550 9.890 0.109 0.140 0.191 0.518 0.00 0.00 0.00 0.6870 6.99 0.06 6.811 6.895 6.964 7.075 6.691 6.636 6.678 6.781 6.863 6.949 7.019 6.661 6.601 6.649 0.7450 9.878 9.758 0.119 9.798 9.789 0.010 0.000
VANMET_231 2018-09-30 05:30:00 231 11739.0 6.764 6.856 6.954 6.675 7.050 98.700 99.900 6.579 6.660 12.810 13.180 11.550 9.890 0.109 0.140 0.191 0.518 0.00 0.00 0.00 0.5900 8.23 1.38 6.784 6.874 6.964 7.087 6.698 6.606 6.681 6.741 6.837 6.940 6.991 6.655 6.553 6.639 0.8430 9.857 9.732 0.128 9.797 9.786 0.010 0.000
VANMET_231 2018-09-30 05:25:00 231 11739.0 6.764 6.833 6.931 6.658 7.018 98.700 99.800 6.572 6.640 12.820 13.180 11.550 9.890 0.109 0.140 0.191 0.518 0.00 0.00 0.00 0.7990 8.59 3.57 6.781 6.855 6.957 7.115 6.675 6.590 6.659 6.741 6.813 6.909 6.960 6.635 6.545 6.616 0.9670 9.857 9.727 0.128 9.785 9.773 0.020 0.000
VANMET_231 2018-09-30 05:20:00 231 11739.0 6.785 6.857 6.961 6.687 7.040 98.700 99.800 6.597 6.670 12.830 13.190 11.550 9.890 0.109 0.140 0.191 0.518 0.00 0.00 0.00 0.7430 8.36 4.22 6.804 6.887 6.987 7.101 6.718 6.617 6.701 6.764 6.835 6.937 7.002 6.668 6.575 6.649 0.8820 9.871 9.744 0.128 9.805 9.793 0.020 0.000
VANMET_231 2018-09-30 05:15:00 231 11739.0 6.774 6.871 6.967 6.688 7.066 98.700 99.800 6.586 6.669 12.830 13.190 11.550 9.890 0.109 0.140 0.191 0.518 0.00 0.00 0.00 0.5550 7.82 9.44 6.801 6.882 6.985 7.094 6.725 6.616 6.709 6.738 6.858 6.944 7.033 6.645 6.546 6.624 0.7580 9.864 9.737 0.128 9.805 9.793 0.020 0.000
VANMET_231 2018-09-30 05:10:00 231 11739.0 6.751 6.845 6.942 6.652 7.069 98.700 99.800 6.560 6.633 12.840 13.200 11.550 9.890 0.109 0.140 0.191 0.518 0.00 0.00 0.00 0.4690 326.50 18.55 6.774 6.861 6.950 7.099 6.671 6.583 6.650 6.728 6.827 6.919 7.044 6.638 6.536 6.616 0.7380 9.848 9.719 0.128 9.781 9.768 0.020 0.000
VANMET_231 2018-09-30 05:05:00 231 11739.0 6.757 6.832 6.922 6.646 7.038 98.700 99.800 6.565 6.627 12.850 13.200 11.550 9.890 0.109 0.140 0.191 0.518 0.00 0.00 0.00 0.5480 324.40 25.10 6.774 6.837 6.931 7.056 6.671 6.585 6.655 6.738 6.826 6.908 7.007 6.625 6.542 6.602 0.7580 9.852 9.723 0.128 9.777 9.764 0.020 0.000
VANMET_231 2018-09-30 05:00:00 231 11739.0 6.766 6.860 6.939 6.667 7.034 98.700 99.800 6.579 6.648 12.860 13.210 11.550 9.890 0.109 0.140 0.191 0.518 0.00 0.00 0.00 0.5630 334.70 14.00 6.794 6.877 6.954 7.056 6.691 6.610 6.673 6.738 6.840 6.918 7.005 6.631 6.547 6.611 0.7580 9.858 9.732 0.128 9.791 9.778 0.020 0.000
VANMET_231 2018-09-30 04:55:00 231 11739.0 6.761 6.868 6.955 6.687 7.074 98.700 99.800 6.571 6.668 12.870 13.210 11.550 9.890 0.109 0.140 0.191 0.518 0.00 0.00 0.00 0.5790 0.74 0.40 6.781 6.877 6.959 7.106 6.704 6.596 6.686 6.738 6.856 6.951 7.048 6.668 6.546 6.647 0.6730 9.855 9.727 0.128 9.805 9.792 0.020 0.000
VANMET_231 2018-09-30 04:50:00 231 11739.0 6.762 6.843 6.933 6.667 7.058 98.600 99.800 6.569 6.645 12.880 13.220 11.550 9.890 0.109 0.140 0.191 0.518 0.00 0.00 0.00 0.6990 6.06 12.74 6.804 6.868 6.949 7.111 6.688 6.617 6.667 6.737 6.826 6.918 7.000 6.651 6.545 6.628 1.0190 9.855 9.725 0.138 9.791 9.776 0.020 0.000
VANMET_231 2018-09-30 04:45:00 231 11739.0 6.786 6.881 6.958 6.684 7.090 98.700 99.800 6.601 6.662 12.890 13.220 11.540 9.890 0.109 0.140 0.191 0.518 0.00 0.00 0.00 0.6550 14.08 9.70 6.804 6.906 6.981 7.148 6.718 6.621 6.697 6.751 6.859 6.938 7.033 6.651 6.566 6.629 0.8170 9.872 9.747 0.128 9.803 9.788 0.020 0.000
VANMET_231 2018-09-30 04:40:00 231 11739.0 6.758 6.846 6.927 6.658 7.028 98.600 99.800 6.564 6.635 12.890 13.230 11.540 9.890 0.109 0.140 0.191 0.518 0.00 0.00 0.00 0.6880 17.36 28.36 6.798 6.873 6.952 7.102 6.681 6.602 6.663 6.725 6.822 6.909 6.973 6.632 6.529 6.605 1.0130 9.853 9.722 0.138 9.785 9.770 0.020 0.000
VANMET_231 2018-09-30 04:35:00 231 11739.0 6.775 6.873 6.966 6.693 7.048 98.700 99.800 6.587 6.668 12.900 13.240 11.540 9.890 0.109 0.140 0.191 0.518 0.00 0.00 0.00 0.7150 14.49 8.12 6.811 6.901 6.987 7.103 6.731 6.629 6.707 6.751 6.846 6.954 6.997 6.671 6.558 6.646 0.9150 9.864 9.737 0.128 9.809 9.792 0.020 0.000
VANMET_231 2018-09-30 04:30:00 231 11739.0 6.756 6.853 6.982 6.715 7.069 98.600 99.800 6.563 6.687 12.910 13.240 11.540 9.890 0.109 0.140 0.191 0.518 0.00 0.00 0.00 0.7750 7.41 3.57 6.774 6.860 6.993 7.091 6.751 6.584 6.727 6.741 6.847 6.964 7.031 6.685 6.547 6.656 1.0650 9.851 9.721 0.138 9.824 9.805 0.020 0.000
VANMET_231 2018-09-30 04:25:00 231 11739.0 6.731 6.824 6.943 6.682 7.051 98.600 99.700 6.530 6.648 12.920 13.250 11.540 9.890 0.109 0.140 0.191 0.518 0.00 0.00 0.00 0.6950 10.61 0.15 6.748 6.845 6.962 7.072 6.698 6.553 6.666 6.711 6.801 6.923 7.002 6.664 6.504 6.631 0.7580 9.834 9.699 0.138 9.801 9.778 0.029 0.000
VANMET_231 2018-09-30 04:20:00 231 11739.0 6.750 6.841 6.987 6.742 7.054 98.600 99.700 6.550 6.710 12.930 13.250 11.540 9.890 0.109 0.140 0.191 0.518 0.00 0.00 0.00 0.7470 11.05 0.07 6.768 6.858 7.002 7.108 6.774 6.570 6.743 6.738 6.808 6.934 6.983 6.684 6.529 6.653 0.8100 9.847 9.713 0.138 9.842 9.820 0.030 0.000
VANMET_231 2018-09-30 04:15:00 231 11739.0 6.741 6.824 6.975 6.725 7.050 98.600 99.700 6.538 6.688 12.940 13.260 11.540 9.890 0.109 0.140 0.191 0.518 0.00 0.00 0.00 0.7100 7.76 1.36 6.761 6.842 6.993 7.078 6.758 6.563 6.723 6.718 6.786 6.937 6.987 6.701 6.510 6.663 0.7580 9.841 9.705 0.138 9.830 9.805 0.029 0.000
VANMET_231 2018-09-30 04:10:00 231 11739.0 6.741 6.802 6.917 6.668 6.995 98.500 99.700 6.532 6.623 12.940 13.260 11.540 9.890 0.109 0.140 0.191 0.518 0.00 0.00 0.00 0.6370 6.01 2.15 6.757 6.813 6.934 7.041 6.708 6.550 6.667 6.727 6.786 6.904 6.962 6.644 6.514 6.597 0.8100 9.841 9.701 0.148 9.792 9.762 0.029 0.000
VANMET_231 2018-09-30 04:05:00 231 11739.0 6.740 6.797 6.903 6.659 7.013 98.500 99.600 6.526 6.610 12.950 13.270 11.540 9.890 0.109 0.140 0.191 0.518 0.00 0.00 0.00 0.5820 0.64 0.35 6.761 6.809 6.911 7.046 6.671 6.545 6.620 6.724 6.788 6.897 6.988 6.641 6.511 6.591 0.6860 9.841 9.697 0.148 9.786 9.753 0.039 0.000
VANMET_231 2018-09-30 04:00:00 231 11739.0 6.750 6.811 6.916 6.673 7.010 98.500 99.600 6.530 6.617 12.960 13.270 11.540 9.890 0.109 0.140 0.191 0.518 0.00 0.00 0.00 0.5920 1.70 0.99 6.774 6.817 6.922 7.038 6.694 6.552 6.638 6.734 6.803 6.910 6.996 6.654 6.515 6.599 0.6990 9.847 9.699 0.148 9.795 9.758 0.039 0.000
VANMET_231 2018-09-30 03:55:00 231 11739.0 6.785 6.824 6.919 6.679 7.015 98.400 99.500 6.560 6.619 12.970 13.280 11.540 9.890 0.109 0.140 0.191 0.518 0.00 0.00 0.00 0.6520 6.45 2.95 6.823 6.841 6.947 7.066 6.707 6.605 6.644 6.757 6.817 6.909 6.963 6.660 6.534 6.598 0.8360 9.871 9.719 0.158 9.799 9.759 0.049 0.000
VANMET_231 2018-09-30 03:50:00 231 11739.0 6.822 6.877 6.973 6.728 7.059 98.500 99.500 6.601 6.665 12.980 13.280 11.540 9.890 0.109 0.140 0.191 0.518 0.00 0.00 0.00 0.7340 9.00 8.05 6.843 6.889 6.983 7.087 6.760 6.619 6.698 6.803 6.849 6.956 7.019 6.697 6.578 6.636 0.8820 9.896 9.747 0.148 9.832 9.790 0.049 0.000
VANMET_231 2018-09-30 03:45:00 231 11739.0 6.836 6.891 6.991 6.752 7.061 98.400 99.500 6.608 6.684 12.990 13.290 11.540 9.890 0.109 0.140 0.191 0.518 0.00 0.00 0.00 0.6810 11.16 9.37 6.859 6.917 7.003 7.086 6.777 6.633 6.709 6.810 6.872 6.984 7.049 6.727 6.580 6.658 1.0320 9.906 9.752 0.158 9.849 9.803 0.049 0.000
VANMET_231 2018-09-30 03:40:00 231 11739.0 6.854 6.927 7.019 6.780 7.087 98.400 99.500 6.621 6.709 13.000 13.290 11.540 9.890 0.109 0.140 0.191 0.518 0.00 0.00 0.00 0.5990 5.77 4.50 6.880 6.944 7.056 7.128 6.816 6.647 6.746 6.840 6.915 7.002 7.057 6.750 6.608 6.679 0.8750 9.918 9.760 0.159 9.868 9.820 0.049 0.000
VANMET_231 2018-09-30 03:35:00 231 11739.0 6.931 6.993 7.100 6.866 7.144 98.400 99.500 6.702 6.796 13.000 13.300 11.540 9.890 0.109 0.140 0.191 0.518 0.00 0.00 0.00 0.5320 2.34 0.41 6.973 7.033 7.132 7.194 6.900 6.749 6.832 6.866 6.949 7.059 7.091 6.820 6.633 6.750 0.7380 9.971 9.815 0.160 9.926 9.879 0.050 0.000
VANMET_231 2018-09-30 03:30:00 231 11739.0 7.013 7.071 7.175 6.940 7.228 98.500 99.500 6.794 6.871 13.010 13.310 11.540 9.890 0.109 0.140 0.191 0.518 0.00 0.00 0.00 0.6390 356.30 6.30 7.036 7.101 7.209 7.295 6.969 6.816 6.899 6.969 7.035 7.139 7.155 6.903 6.745 6.833 0.7970 10.027 9.877 0.150 9.977 9.930 0.050 0.000
VANMET_231 2018-09-30 03:25:00 231 11739.0 7.070 7.139 7.247 7.005 7.305 98.500 99.500 6.853 6.935 13.020 13.310 11.540 9.890 0.109 0.140 0.191 0.518 0.00 0.00 0.00 0.5780 9.90 4.48 7.112 7.158 7.261 7.347 7.029 6.898 6.957 7.032 7.107 7.214 7.221 6.973 6.812 6.902 0.8170 10.066 9.917 0.151 10.021 9.973 0.050 0.000
VANMET_231 2018-09-30 03:20:00 231 11739.0 7.098 7.179 7.279 7.046 7.328 98.500 99.500 6.885 6.974 13.030 13.320 11.540 9.890 0.109 0.140 0.191 0.518 0.00 0.00 0.00 0.6860 3.81 1.87 7.128 7.201 7.308 7.373 7.078 6.917 7.005 7.065 7.155 7.257 7.301 7.015 6.848 6.945 0.9080 10.086 9.939 0.151 10.050 10.000 0.050 0.000
VANMET_231 2018-09-30 03:15:00 231 11739.0 7.131 7.217 7.329 7.090 7.401 98.500 99.500 6.920 7.019 13.040 13.320 11.540 9.890 0.109 0.140 0.191 0.518 0.00 0.00 0.00 0.6380 4.02 0.03 7.152 7.228 7.344 7.418 7.115 6.941 7.047 7.115 7.203 7.312 7.384 7.055 6.902 6.982 0.7640 10.108 9.963 0.152 10.080 10.031 0.050 0.000
VANMET_231 2018-09-30 03:10:00 231 11739.0 7.136 7.242 7.358 7.121 7.427 98.500 99.500 6.926 7.055 13.050 13.330 11.540 9.890 0.109 0.140 0.191 0.518 0.00 0.00 0.00 0.7300 356.10 10.81 7.149 7.266 7.376 7.492 7.152 6.940 7.090 7.115 7.226 7.344 7.396 7.099 6.904 7.029 0.8950 10.112 9.967 0.152 10.102 10.056 0.051 0.000
VANMET_231 2018-09-30 03:05:00 231 11739.0 7.118 7.231 7.325 7.102 7.500 98.500 99.600 6.904 7.044 13.060 13.330 11.540 9.890 0.109 0.140 0.191 0.518 0.00 0.00 0.00 0.3420 10.50 14.46 7.142 7.268 7.375 7.589 7.158 6.935 7.096 7.089 7.200 7.285 7.373 7.029 6.872 6.973 0.7510 10.099 9.952 0.151 10.088 10.048 0.040 0.000
VANMET_231 2018-09-30 03:00:00 231 11739.0 7.130 7.221 7.321 7.079 7.411 98.500 99.600 6.918 7.023 13.060 13.340 11.540 9.890 0.109 0.140 0.191 0.518 0.00 0.00 0.00 0.7650 13.94 14.74 7.152 7.241 7.341 7.450 7.099 6.941 7.041 7.108 7.205 7.304 7.380 7.062 6.895 7.003 1.0260 10.108 9.962 0.152 10.072 10.034 0.040 0.000
VANMET_231 2018-09-30 02:55:00 231 11739.0 7.115 7.203 7.300 7.056 7.410 98.500 99.600 6.900 7.000 13.070 13.340 11.540 9.890 0.109 0.140 0.191 0.518 0.00 0.00 0.00 0.6590 4.16 3.93 7.135 7.209 7.306 7.425 7.078 6.922 7.023 7.101 7.196 7.290 7.391 7.035 6.885 6.977 0.7710 10.097 9.949 0.151 10.057 10.018 0.040 0.000
VANMET_231 2018-09-30 02:50:00 231 11739.0 7.112 7.192 7.278 7.031 7.413 98.500 99.600 6.894 6.972 13.080 13.350 11.540 9.890 0.109 0.140 0.191 0.518 0.00 0.00 0.00 0.4120 348.80 33.69 7.131 7.215 7.296 7.454 7.052 6.912 6.992 7.085 7.174 7.262 7.379 7.012 6.859 6.951 0.9470 10.095 9.945 0.151 10.039 9.999 0.040 0.000
VANMET_231 2018-09-30 02:45:00 231 11739.0 7.081 7.172 7.278 7.040 7.380 98.400 99.500 6.854 6.977 13.090 13.350 11.540 9.890 0.109 0.140 0.191 0.518 0.00 0.00 0.00 0.5480 6.21 6.97 7.098 7.181 7.287 7.405 7.059 6.875 6.995 7.062 7.164 7.267 7.348 7.015 6.830 6.956 0.8690 10.074 9.918 0.161 10.046 10.002 0.050 0.000
VANMET_231 2018-09-30 02:40:00 231 11739.0 7.083 7.160 7.264 7.029 7.366 98.400 99.500 6.851 6.962 13.100 13.360 11.540 9.890 0.109 0.140 0.191 0.518 0.00 0.00 0.00 0.4750 19.70 7.45 7.118 7.169 7.271 7.388 7.059 6.891 6.993 7.049 7.153 7.259 7.331 7.015 6.818 6.946 0.7770 10.075 9.916 0.161 10.038 9.992 0.050 0.000
VANMET_231 2018-09-30 02:35:00 231 11739.0 7.110 7.183 7.282 7.039 7.389 98.400 99.500 6.879 6.969 13.110 13.360 11.540 9.890 0.109 0.140 0.191 0.517 0.00 0.00 0.00 0.4600 28.72 18.06 7.131 7.204 7.299 7.421 7.052 6.905 6.986 7.088 7.171 7.272 7.346 7.019 6.853 6.951 0.8040 10.094 9.935 0.162 10.045 9.997 0.050 0.000
VANMET_231 2018-09-30 02:30:00 231 11739.0 7.103 7.179 7.281 7.042 7.374 98.400 99.400 6.868 6.967 13.120 13.370 11.540 9.890 0.109 0.140 0.191 0.517 0.00 0.00 0.00 0.7750 13.08 12.24 7.121 7.190 7.287 7.413 7.058 6.892 6.982 7.078 7.165 7.269 7.331 7.022 6.842 6.945 1.1560 10.089 9.928 0.161 10.047 9.995 0.060 0.000
VANMET_231 2018-09-30 02:25:00 231 11739.0 7.113 7.196 7.306 7.069 7.391 98.300 99.400 6.876 6.992 13.130 13.370 11.540 9.890 0.109 0.140 0.191 0.517 0.00 0.00 0.00 0.5630 7.94 16.33 7.135 7.215 7.323 7.455 7.105 6.897 7.027 7.092 7.180 7.287 7.344 7.048 6.852 6.971 1.0130 10.096 9.933 0.172 10.066 10.012 0.060 0.000
VANMET_231 2018-09-30 02:20:00 231 11739.0 7.112 7.178 7.291 7.057 7.392 98.300 99.400 6.867 6.972 13.130 13.380 11.540 9.890 0.109 0.140 0.191 0.517 0.00 0.00 0.00 0.0000 0.00 0.00 7.128 7.186 7.295 7.415 7.071 6.883 6.990 7.094 7.171 7.286 7.361 7.041 6.849 6.954 0.0000 10.095 9.927 0.172 10.057 9.999 0.060 0.000
VANMET_231 2018-09-30 02:15:00 231 11739.0 7.110 7.167 7.291 7.069 7.382 98.300 99.300 6.859 6.979 13.140 13.380 11.540 9.890 0.109 0.140 0.191 0.517 0.00 0.00 0.00 0.0000 0.00 0.00 7.135 7.175 7.303 7.412 7.088 6.880 7.000 7.088 7.158 7.277 7.340 7.035 6.835 6.945 0.0000 10.094 9.921 0.172 10.066 10.004 0.070 0.000
VANMET_231 2018-09-30 02:10:00 231 11739.0 7.122 7.177 7.292 7.064 7.376 98.200 99.300 6.867 6.966 13.150 13.390 11.540 9.890 0.109 0.140 0.191 0.517 0.00 0.00 0.00 0.0000 0.00 0.00 7.135 7.188 7.296 7.397 7.082 6.881 6.984 7.095 7.166 7.288 7.358 7.048 6.839 6.949 0.0000 10.102 9.927 0.182 10.062 9.995 0.070 0.000
VANMET_231 2018-09-30 02:05:00 231 11739.0 7.134 7.199 7.296 7.065 7.392 98.200 99.300 6.877 6.961 13.160 13.390 11.540 9.890 0.109 0.140 0.191 0.517 0.00 0.00 0.00 0.0000 0.00 0.00 7.155 7.203 7.301 7.429 7.081 6.898 6.975 7.108 7.190 7.292 7.369 7.052 6.855 6.951 0.0000 10.111 9.934 0.182 10.063 9.991 0.070 0.000
VANMET_231 2018-09-30 02:00:00 231 11739.0 7.145 7.201 7.297 7.077 7.391 98.200 99.200 6.880 6.966 13.170 13.400 11.540 9.890 0.109 0.140 0.191 0.517 0.00 0.00 0.00 0.0000 0.00 0.00 7.161 7.210 7.308 7.429 7.098 6.896 6.990 7.128 7.189 7.287 7.360 7.051 6.862 6.942 0.0000 10.118 9.936 0.182 10.071 9.995 0.081 0.000
VANMET_231 2018-09-30 01:55:00 231 11739.0 7.177 7.234 7.337 7.123 7.406 98.200 99.200 6.912 7.010 13.180 13.410 11.540 9.890 0.109 0.140 0.191 0.517 0.00 0.00 0.00 0.0000 0.00 0.00 7.204 7.256 7.364 7.488 7.158 6.940 7.046 7.141 7.210 7.309 7.363 7.088 6.874 6.976 0.0000 10.140 9.958 0.183 10.103 10.025 0.081 0.000
VANMET_231 2018-09-30 01:50:00 231 11739.0 7.196 7.261 7.374 7.160 7.447 98.100 99.100 6.927 7.041 13.190 13.410 11.540 9.890 0.109 0.140 0.191 0.517 0.00 0.00 0.00 0.0000 0.00 0.00 7.211 7.273 7.391 7.489 7.174 6.942 7.058 7.178 7.255 7.364 7.416 7.138 6.911 7.019 0.0000 10.154 9.968 0.193 10.129 10.046 0.091 0.000
VANMET_231 2018-09-30 01:45:00 231 11739.0 7.202 7.264 7.379 7.169 7.445 98.100 99.100 6.922 7.039 13.200 13.420 11.540 9.890 0.109 0.140 0.191 0.517 0.00 0.00 0.00 0.0000 0.00 0.00 7.221 7.274 7.392 7.485 7.188 6.947 7.055 7.181 7.253 7.369 7.400 7.154 6.903 7.020 0.0000 10.158 9.964 0.193 10.135 10.045 0.091 0.000
VANMET_231 2018-09-30 01:40:00 231 11739.0 7.214 7.283 7.399 7.186 7.428 98.000 99.000 6.923 7.045 13.210 13.420 11.540 9.890 0.109 0.140 0.191 0.517 0.00 0.00 0.00 0.0000 0.00 0.00 7.234 7.296 7.410 7.466 7.201 6.941 7.061 7.201 7.268 7.381 7.403 7.167 6.909 7.032 0.0000 10.166 9.965 0.203 10.147 10.049 0.101 0.000
VANMET_231 2018-09-30 01:35:00 231 11739.0 7.230 7.291 7.405 7.191 7.428 97.900 98.900 6.923 7.028 13.220 13.430 11.540 9.890 0.109 0.140 0.191 0.517 0.00 0.00 0.00 0.0000 0.00 0.00 7.254 7.296 7.412 7.462 7.221 6.940 7.047 7.218 7.284 7.400 7.391 7.174 6.903 7.014 0.0000 10.177 9.965 0.214 10.150 10.037 0.112 0.000
VANMET_231 2018-09-30 01:30:00 231 11739.0 7.240 7.300 7.421 7.208 7.413 97.700 98.700 6.912 7.023 13.230 13.430 11.540 9.890 0.109 0.140 0.191 0.517 0.00 0.00 0.00 0.0000 0.00 0.00 7.258 7.305 7.426 7.431 7.228 6.931 7.040 7.221 7.297 7.413 7.403 7.191 6.891 7.003 0.0000 10.184 9.958 0.234 10.162 10.034 0.132 0.000
VANMET_231 2018-09-30 01:25:00 231 11739.0 7.248 7.309 7.428 7.211 7.424 97.600 98.600 6.900 7.005 13.230 13.440 11.540 9.890 0.109 0.140 0.191 0.517 0.00 0.00 0.00 0.0000 0.00 0.00 7.268 7.314 7.433 7.440 7.231 6.926 7.022 7.228 7.305 7.424 7.405 7.198 6.877 6.986 0.0000 10.190 9.949 0.245 10.164 10.021 0.142 0.000
VANMET_231 2018-09-30 01:20:00 231 11739.0 7.263 7.320 7.441 7.217 7.443 97.500 98.400 6.897 6.990 13.240 13.440 11.540 9.890 0.109 0.140 0.191 0.517 0.00 0.00 0.00 0.0170 279.00 6.73 7.287 7.331 7.450 7.475 7.244 6.915 7.018 7.241 7.314 7.431 7.422 7.198 6.881 6.964 0.2160 10.200 9.947 0.255 10.168 10.011 0.163 0.000
VANMET_231 2018-09-30 01:15:00 231 11739.0 7.296 7.354 7.477 7.250 7.496 97.300 98.300 6.902 7.002 13.250 13.450 11.540 9.890 0.109 0.140 0.191 0.517 0.00 0.00 0.00 0.3730 241.60 38.39 7.330 7.377 7.503 7.556 7.271 6.936 7.017 7.261 7.331 7.452 7.472 7.221 6.867 6.978 0.5880 10.223 9.951 0.276 10.191 10.019 0.173 0.000
VANMET_231 2018-09-30 01:10:00 231 11739.0 7.360 7.413 7.517 7.287 7.587 97.400 98.200 6.976 7.033 13.260 13.450 11.540 9.890 0.109 0.140 0.191 0.517 0.00 0.00 0.00 0.3310 316.00 43.23 7.397 7.452 7.539 7.676 7.324 7.018 7.076 7.327 7.373 7.492 7.522 7.264 6.935 7.008 0.5880 10.268 10.001 0.267 10.217 10.041 0.184 0.000
VANMET_231 2018-09-30 01:05:00 231 11739.0 7.416 7.482 7.584 7.352 7.650 97.400 98.300 7.042 7.113 13.270 13.460 11.540 9.890 0.109 0.140 0.191 0.517 0.00 0.00 0.00 0.4140 325.10 20.61 7.447 7.502 7.616 7.709 7.377 7.073 7.140 7.390 7.453 7.534 7.558 7.301 7.013 7.060 0.8950 10.308 10.047 0.268 10.263 10.096 0.174 0.000
VANMET_231 2018-09-30 01:00:00 231 11739.0 7.423 7.504 7.619 7.383 7.689 97.400 98.200 7.037 7.127 13.280 13.460 11.540 9.890 0.109 0.140 0.191 0.517 0.00 0.00 0.00 0.4790 3.29 9.27 7.437 7.509 7.622 7.701 7.403 7.058 7.149 7.410 7.497 7.614 7.676 7.370 7.012 7.111 0.6530 10.313 10.043 0.268 10.284 10.106 0.185 0.000
VANMET_231 2018-09-30 00:55:00 231 11739.0 7.415 7.494 7.616 7.378 7.682 97.100 98.000 6.998 7.091 13.290 13.470 11.540 9.890 0.109 0.140 0.191 0.517 0.00 0.00 0.00 0.4880 6.88 0.03 7.433 7.506 7.622 7.701 7.400 7.017 7.124 7.400 7.488 7.612 7.672 7.357 6.977 7.060 0.6010 10.307 10.017 0.299 10.281 10.081 0.206 0.000
VANMET_231 2018-09-30 00:50:00 231 11739.0 7.409 7.500 7.619 7.383 7.712 96.900 97.900 6.956 7.074 13.300 13.470 11.540 9.890 0.109 0.140 0.191 0.517 0.00 0.00 0.00 0.5480 7.64 1.20 7.427 7.511 7.628 7.750 7.410 6.989 7.107 7.380 7.492 7.611 7.683 7.367 6.916 7.052 0.6660 10.303 9.988 0.319 10.284 10.069 0.216 0.000
VANMET_231 2018-09-30 00:45:00 231 11739.0 7.418 7.514 7.628 7.383 7.719 96.700 97.800 6.937 7.068 13.310 13.480 11.540 9.890 0.109 0.140 0.191 0.517 0.00 0.00 0.00 0.6380 8.96 1.23 7.440 7.522 7.634 7.749 7.404 6.957 7.092 7.400 7.493 7.621 7.673 7.364 6.910 7.046 0.7770 10.309 9.975 0.340 10.284 10.065 0.226 0.000
VANMET_231 2018-09-30 00:40:00 231 11739.0 7.411 7.527 7.633 7.392 7.775 96.900 97.900 6.956 7.087 13.320 13.480 11.540 9.890 0.109 0.140 0.191 0.517 0.00 0.00 0.00 0.6240 6.99 1.84 7.437 7.541 7.647 7.829 7.407 6.987 7.106 7.387 7.516 7.621 7.727 7.380 6.930 7.068 0.7250 10.304 9.988 0.319 10.291 10.078 0.216 0.000
VANMET_231 2018-09-30 00:35:00 231 11739.0 7.382 7.505 7.612 7.377 7.751 96.900 97.900 6.930 7.075 13.330 13.490 11.540 9.890 0.109 0.140 0.191 0.517 0.00 0.00 0.00 0.5860 5.29 1.47 7.397 7.522 7.635 7.822 7.400 6.947 7.099 7.370 7.496 7.604 7.726 7.364 6.912 7.058 0.8360 10.284 9.970 0.319 10.280 10.070 0.216 0.000
VANMET_231 2018-09-30 00:30:00 231 11739.0 7.352 7.487 7.592 7.369 7.741 96.900 97.900 6.902 7.061 13.340 13.490 11.530 9.890 0.109 0.140 0.191 0.517 0.00 0.00 0.00 0.6280 12.32 1.83 7.377 7.497 7.607 7.766 7.391 6.934 7.087 7.321 7.475 7.582 7.725 7.357 6.867 7.044 0.9080 10.263 9.951 0.318 10.275 10.060 0.216 0.000
VANMET_231 2018-09-30 00:25:00 231 11739.0 7.327 7.442 7.556 7.346 7.693 96.800 97.900 6.865 7.038 13.350 13.500 11.530 9.890 0.109 0.140 0.191 0.517 0.00 0.00 0.00 0.5160 33.65 18.62 7.361 7.474 7.577 7.761 7.364 6.899 7.068 7.307 7.423 7.540 7.646 7.324 6.844 7.014 0.7250 10.245 9.925 0.328 10.258 10.044 0.215 0.000
VANMET_231 2018-09-30 00:20:00 231 11739.0 7.346 7.453 7.569 7.348 7.709 96.900 98.000 6.895 7.052 13.360 13.500 11.530 9.880 0.109 0.140 0.191 0.517 0.00 0.00 0.00 0.3590 12.25 18.13 7.367 7.463 7.584 7.730 7.367 6.916 7.076 7.317 7.446 7.555 7.674 7.334 6.867 7.034 0.6140 10.258 9.946 0.318 10.260 10.054 0.205 0.000
VANMET_231 2018-09-30 00:15:00 231 11739.0 7.354 7.465 7.573 7.363 7.712 96.900 98.000 6.904 7.070 13.370 13.510 11.530 9.880 0.109 0.140 0.191 0.517 0.00 0.00 0.00 0.3950 4.62 0.01 7.377 7.474 7.586 7.736 7.391 6.926 7.099 7.334 7.451 7.555 7.696 7.344 6.884 7.045 0.4510 10.264 9.952 0.318 10.270 10.066 0.205 0.000
VANMET_231 2018-09-30 00:10:00 231 11739.0 7.366 7.481 7.590 7.381 7.728 97.000 98.000 6.921 7.090 13.380 13.510 11.530 9.880 0.109 0.140 0.191 0.517 0.00 0.00 0.00 0.1800 4.62 0.01 7.381 7.487 7.593 7.748 7.404 6.937 7.117 7.344 7.475 7.584 7.707 7.357 6.896 7.067 0.5620 10.273 9.964 0.308 10.283 10.080 0.206 0.000
VANMET_231 2018-09-30 00:05:00 231 11739.0 7.378 7.480 7.594 7.380 7.735 97.000 98.000 6.934 7.090 13.390 13.520 11.530 9.880 0.109 0.140 0.191 0.517 0.00 0.00 0.00 0.0160 334.70 0.97 7.387 7.487 7.599 7.776 7.398 6.946 7.110 7.357 7.470 7.580 7.705 7.361 6.906 7.067 0.2160 10.281 9.973 0.308 10.282 10.080 0.206 0.000
VANMET_231 2018-09-30 00:00:00 231 11739.0 7.373 7.468 7.571 7.356 7.752 97.100 98.100 6.945 7.076 13.390 13.520 11.530 9.880 0.109 0.140 0.191 0.517 0.00 0.00 0.00 0.3230 321.30 10.21 7.384 7.478 7.582 7.785 7.377 6.979 7.107 7.357 7.462 7.563 7.714 7.341 6.918 7.058 0.4570 10.277 9.980 0.298 10.265 10.070 0.195 0.000
VANMET_231 2018-09-29 23:55:00 231 11739.0 7.373 7.473 7.588 7.376 7.709 97.200 98.100 6.969 7.103 13.400 13.520 11.530 9.880 0.109 0.140 0.191 0.517 0.00 0.00 0.00 0.1490 10.16 1.56 7.394 7.482 7.594 7.727 7.407 6.997 7.138 7.347 7.460 7.582 7.683 7.351 6.932 7.079 0.4380 10.277 9.997 0.288 10.280 10.089 0.195 0.000
VANMET_231 2018-09-29 23:50:00 231 11739.0 7.366 7.463 7.581 7.375 7.728 97.200 98.000 6.953 7.093 13.410 13.530 11.530 9.880 0.109 0.140 0.191 0.517 0.00 0.00 0.00 0.0710 2.43 3.46 7.384 7.468 7.585 7.749 7.384 6.969 7.101 7.341 7.460 7.577 7.686 7.361 6.924 7.076 0.2680 10.273 9.986 0.288 10.279 10.082 0.206 0.000
VANMET_231 2018-09-29 23:45:00 231 11739.0 7.363 7.479 7.592 7.390 7.744 97.300 98.100 6.962 7.111 13.420 13.530 11.530 9.880 0.109 0.140 0.191 0.517 0.00 0.00 0.00 0.3020 3.59 0.00 7.390 7.484 7.595 7.762 7.407 6.986 7.129 7.347 7.469 7.584 7.725 7.367 6.945 7.087 0.3790 10.270 9.992 0.277 10.289 10.095 0.195 0.000
VANMET_231 2018-09-29 23:40:00 231 11739.0 7.338 7.445 7.571 7.370 7.722 97.200 98.000 6.929 7.083 13.430 13.540 11.530 9.880 0.109 0.140 0.191 0.517 0.00 0.00 0.00 0.1070 322.60 15.44 7.361 7.471 7.586 7.750 7.390 6.960 7.106 7.317 7.433 7.565 7.693 7.357 6.905 7.067 0.5160 10.253 9.969 0.287 10.275 10.075 0.206 0.000
VANMET_231 2018-09-29 23:35:00 231 11739.0 7.326 7.418 7.546 7.357 7.668 97.100 97.900 6.898 7.057 13.440 13.540 11.530 9.880 0.109 0.140 0.191 0.517 0.00 0.00 0.00 0.1260 267.80 9.52 7.347 7.430 7.562 7.692 7.377 6.928 7.077 7.310 7.413 7.537 7.654 7.343 6.879 7.040 0.5550 10.244 9.948 0.297 10.266 10.057 0.216 0.000
VANMET_231 2018-09-29 23:30:00 231 11739.0 7.332 7.409 7.536 7.354 7.684 97.000 97.900 6.896 7.050 13.450 13.550 11.530 9.880 0.109 0.140 0.191 0.517 0.00 0.00 0.00 0.0390 251.00 5.90 7.347 7.418 7.545 7.740 7.367 6.910 7.064 7.320 7.400 7.524 7.648 7.340 6.887 7.030 0.4830 10.249 9.947 0.307 10.264 10.052 0.216 0.000
VANMET_231 2018-09-29 23:25:00 231 11739.0 7.351 7.407 7.527 7.344 7.629 97.000 97.800 6.906 7.025 13.460 13.550 11.530 9.880 0.109 0.140 0.191 0.517 0.00 0.00 0.00 0.0000 0.00 0.00 7.371 7.412 7.535 7.662 7.364 6.922 7.043 7.331 7.403 7.521 7.601 7.324 6.891 6.999 0.0000 10.262 9.953 0.308 10.257 10.035 0.226 0.000
VANMET_231 2018-09-29 23:20:00 231 11739.0 7.379 7.441 7.558 7.369 7.600 97.000 97.700 6.936 7.034 13.470 13.560 11.530 9.880 0.109 0.140 0.191 0.517 0.00 0.00 0.00 0.0000 0.00 0.00 7.401 7.469 7.588 7.615 7.387 6.959 7.047 7.361 7.416 7.532 7.590 7.351 6.912 7.021 0.0000 10.282 9.974 0.308 10.275 10.041 0.236 0.000
VANMET_231 2018-09-29 23:15:00 231 11739.0 7.407 7.489 7.614 7.427 7.631 96.900 97.400 6.952 7.047 13.480 13.560 11.530 9.880 0.109 0.140 0.191 0.517 0.00 0.00 0.00 0.0880 62.35 0.14 7.437 7.500 7.629 7.673 7.450 6.973 7.063 7.391 7.472 7.592 7.604 7.384 6.928 7.017 0.5490 10.301 9.985 0.319 10.316 10.050 0.268 0.000
VANMET_231 2018-09-29 23:10:00 231 11739.0 7.408 7.505 7.641 7.454 7.673 96.700 97.000 6.920 7.019 13.490 13.570 11.530 9.880 0.109 0.140 0.191 0.517 0.00 0.00 0.00 0.2510 213.10 6.36 7.420 7.511 7.652 7.700 7.474 6.937 7.052 7.397 7.500 7.633 7.653 7.434 6.894 6.998 0.4570 10.302 9.963 0.340 10.335 10.031 0.310 0.000
VANMET_231 2018-09-29 23:05:00 231 11739.0 7.386 7.504 7.651 7.469 7.730 96.400 96.700 6.862 6.985 13.500 13.570 11.530 9.880 0.109 0.140 0.191 0.517 0.00 0.00 0.00 0.4010 221.00 24.71 7.401 7.514 7.656 7.740 7.480 6.898 7.018 7.351 7.495 7.648 7.708 7.447 6.826 6.955 0.9150 10.287 9.923 0.370 10.345 10.008 0.341 0.000
VANMET_231 2018-09-29 23:00:00 231 11739.0 7.373 7.484 7.643 7.475 7.751 96.200 96.400 6.816 6.939 13.510 13.580 11.530 9.880 0.109 0.140 0.191 0.517 0.00 0.00 0.00 0.1000 249.50 2.54 7.394 7.493 7.648 7.773 7.493 6.852 6.974 7.347 7.476 7.635 7.735 7.460 6.777 6.916 0.8820 10.277 9.892 0.391 10.349 9.976 0.373 0.000
VANMET_231 2018-09-29 22:55:00 231 11739.0 7.352 7.472 7.636 7.481 7.749 96.100 96.000 6.773 6.897 13.520 13.580 11.530 9.880 0.109 0.140 0.191 0.517 0.00 0.00 0.00 0.3340 251.50 21.88 7.367 7.479 7.643 7.775 7.497 6.794 6.928 7.338 7.463 7.629 7.728 7.464 6.753 6.871 0.7250 10.263 9.863 0.400 10.354 9.947 0.414 0.000
VANMET_231 2018-09-29 22:50:00 231 11739.0 7.331 7.461 7.639 7.504 7.760 96.000 95.700 6.740 6.868 13.530 13.580 11.530 9.880 0.109 0.140 0.191 0.517 0.00 0.00 0.00 0.3690 287.80 12.04 7.361 7.468 7.642 7.786 7.520 6.775 6.887 7.311 7.452 7.637 7.743 7.474 6.711 6.841 0.6210 10.248 9.841 0.410 10.370 9.928 0.446 0.000
VANMET_231 2018-09-29 22:45:00 231 11739.0 7.282 7.434 7.633 7.506 7.826 95.800 95.600 6.666 6.854 13.540 13.590 11.530 9.880 0.109 0.140 0.191 0.517 0.00 0.00 0.00 0.0550 305.50 0.24 7.308 7.448 7.639 7.929 7.520 6.708 6.871 7.254 7.412 7.617 7.784 7.487 6.618 6.844 0.3660 10.214 9.791 0.429 10.371 9.918 0.456 0.000
VANMET_231 2018-09-29 22:40:00 231 11739.0 7.210 7.365 7.559 7.390 7.871 95.700 95.900 6.569 6.791 13.550 13.590 11.530 9.880 0.109 0.140 0.191 0.517 0.00 0.00 0.00 0.0100 304.20 0.00 7.261 7.408 7.612 8.010 7.490 6.626 6.860 7.175 7.332 7.511 7.743 7.321 6.526 6.744 0.1960 10.163 9.725 0.437 10.289 9.875 0.422 0.000
VANMET_231 2018-09-29 22:35:00 231 11739.0 7.178 7.314 7.441 7.229 7.911 95.700 96.300 6.539 6.689 13.560 13.600 11.530 9.880 0.109 0.140 0.191 0.517 0.00 0.00 0.00 0.0000 0.00 0.00 7.205 7.342 7.510 8.040 7.314 6.578 6.756 7.158 7.266 7.355 7.682 7.135 6.519 6.605 0.0000 10.141 9.705 0.436 10.177 9.806 0.377 0.000
VANMET_231 2018-09-29 22:30:00 231 11739.0 7.175 7.215 7.295 7.039 7.530 95.800 96.800 6.550 6.566 13.570 13.600 11.530 9.880 0.109 0.140 0.191 0.517 0.00 0.00 0.00 0.3270 251.50 14.80 7.191 7.259 7.340 7.697 7.102 6.574 6.642 7.158 7.204 7.282 7.492 7.005 6.516 6.518 0.6600 10.139 9.713 0.426 10.045 9.723 0.321 0.000
VANMET_231 2018-09-29 22:25:00 231 11739.0 7.225 7.273 7.331 7.065 7.452 96.600 97.800 6.723 6.746 13.580 13.610 11.520 9.880 0.109 0.140 0.191 0.517 0.00 0.00 0.00 0.3180 311.40 12.35 7.264 7.302 7.362 7.509 7.118 6.786 6.821 7.194 7.220 7.283 7.408 7.008 6.599 6.645 0.6340 10.174 9.829 0.346 10.063 9.845 0.221 0.000
VANMET_231 2018-09-29 22:20:00 231 11739.0 7.234 7.313 7.368 7.116 7.490 96.900 98.000 6.778 6.835 13.590 13.610 11.520 9.880 0.109 0.140 0.191 0.517 0.00 0.00 0.00 0.5420 352.90 13.12 7.248 7.319 7.383 7.520 7.134 6.795 6.857 7.214 7.306 7.355 7.449 7.095 6.760 6.802 0.8230 10.180 9.866 0.316 10.098 9.905 0.202 0.000
VANMET_231 2018-09-29 22:15:00 231 11739.0 7.219 7.288 7.358 7.095 7.489 96.800 98.000 6.750 6.804 13.600 13.610 11.520 9.880 0.109 0.140 0.191 0.517 0.00 0.00 0.00 0.6950 5.38 3.94 7.241 7.303 7.375 7.528 7.128 6.789 6.846 7.194 7.263 7.339 7.440 7.071 6.701 6.779 0.9540 10.170 9.847 0.325 10.084 9.884 0.202 0.000
VANMET_231 2018-09-29 22:10:00 231 11739.0 7.229 7.268 7.332 7.074 7.428 96.700 98.000 6.741 6.787 13.610 13.620 11.520 9.880 0.109 0.140 0.191 0.517 0.00 0.00 0.00 0.7520 6.38 4.13 7.280 7.305 7.373 7.462 7.124 6.820 6.855 7.181 7.254 7.315 7.394 7.048 6.683 6.749 1.0130 10.177 9.841 0.336 10.069 9.872 0.201 0.000
VANMET_231 2018-09-29 22:05:00 231 11739.0 7.280 7.335 7.416 7.174 7.511 97.000 98.200 6.836 6.908 13.620 13.620 11.520 9.880 0.109 0.140 0.191 0.517 0.00 0.00 0.00 0.7910 3.29 5.36 7.297 7.347 7.428 7.528 7.194 6.852 6.925 7.254 7.320 7.393 7.473 7.144 6.809 6.881 1.0000 10.212 9.906 0.306 10.138 9.955 0.182 0.000
VANMET_231 2018-09-29 22:00:00 231 11739.0 7.290 7.363 7.429 7.178 7.536 96.900 98.100 6.838 6.898 13.630 13.630 11.520 9.880 0.109 0.140 0.191 0.517 0.00 0.00 0.00 0.7390 0.01 8.10 7.317 7.378 7.437 7.548 7.191 6.868 6.915 7.264 7.347 7.426 7.519 7.164 6.811 6.880 0.8950 10.219 9.907 0.317 10.141 9.948 0.193 0.000
VANMET_231 2018-09-29 21:55:00 231 11739.0 7.311 7.397 7.451 7.196 7.546 96.900 98.000 6.857 6.906 13.640 13.630 11.520 9.880 0.109 0.140 0.191 0.517 0.00 0.00 0.00 0.7930 1.13 11.74 7.327 7.416 7.466 7.559 7.217 6.881 6.925 7.287 7.382 7.441 7.528 7.184 6.831 6.892 1.0390 10.234 9.920 0.317 10.154 9.953 0.203 0.000
VANMET_231 2018-09-29 21:50:00 231 11739.0 7.336 7.419 7.481 7.249 7.588 96.900 98.000 6.887 6.965 13.650 13.630 11.520 9.880 0.109 0.140 0.191 0.517 0.00 0.00 0.00 0.7500 8.66 3.97 7.370 7.428 7.494 7.640 7.287 6.916 7.005 7.314 7.411 7.465 7.537 7.207 6.869 6.920 0.9150 10.251 9.941 0.318 10.191 9.994 0.204 0.000
VANMET_231 2018-09-29 21:45:00 231 11739.0 7.396 7.481 7.555 7.335 7.605 97.100 98.100 6.977 7.060 13.660 13.640 11.520 9.880 0.109 0.140 0.191 0.517 0.00 0.00 0.00 0.7050 8.67 2.51 7.433 7.517 7.611 7.737 7.396 7.030 7.126 7.363 7.426 7.482 7.522 7.270 6.914 6.983 0.9340 10.294 10.002 0.299 10.251 10.059 0.195 0.000
VANMET_231 2018-09-29 21:40:00 231 11739.0 7.448 7.524 7.628 7.421 7.689 97.100 98.000 7.029 7.136 13.670 13.640 11.520 9.880 0.109 0.140 0.191 0.517 0.00 0.00 0.00 0.4360 18.08 6.37 7.479 7.560 7.667 7.750 7.462 7.066 7.173 7.419 7.504 7.607 7.618 7.386 6.996 7.108 0.7320 10.330 10.038 0.300 10.311 10.112 0.206 0.000
VANMET_231 2018-09-29 21:35:00 231 11739.0 7.496 7.574 7.672 7.471 7.746 97.100 97.900 7.074 7.172 13.680 13.650 11.520 9.880 0.109 0.140 0.191 0.517 0.00 0.00 0.00 0.5470 3.52 9.66 7.543 7.588 7.689 7.775 7.493 7.126 7.193 7.472 7.562 7.655 7.700 7.449 7.048 7.151 0.7250 10.364 10.069 0.301 10.347 10.137 0.217 0.000
VANMET_231 2018-09-29 21:30:00 231 11739.0 7.537 7.627 7.734 7.524 7.827 97.200 97.900 7.127 7.225 13.700 13.650 11.520 9.880 0.109 0.140 0.191 0.517 0.00 0.00 0.00 0.5620 17.72 12.10 7.563 7.646 7.756 7.883 7.550 7.157 7.256 7.516 7.592 7.685 7.734 7.470 7.103 7.174 0.7910 10.393 10.106 0.291 10.384 10.174 0.218 0.000
VANMET_231 2018-09-29 21:25:00 231 11739.0 7.542 7.630 7.739 7.546 7.827 97.000 97.800 7.104 7.225 13.710 13.650 11.520 9.880 0.109 0.140 0.191 0.517 0.00 0.00 0.00 0.4380 9.11 4.44 7.562 7.642 7.752 7.849 7.569 7.127 7.246 7.526 7.617 7.720 7.797 7.526 7.082 7.204 0.6080 10.397 10.090 0.312 10.400 10.174 0.229 0.000
VANMET_231 2018-09-29 21:20:00 231 11739.0 7.558 7.631 7.736 7.537 7.811 96.700 97.500 7.074 7.170 13.720 13.660 11.520 9.880 0.109 0.140 0.191 0.517 0.00 0.00 0.00 0.4190 14.97 14.83 7.583 7.641 7.746 7.843 7.559 7.100 7.216 7.532 7.626 7.728 7.768 7.506 7.047 7.133 0.7320 10.408 10.069 0.343 10.393 10.136 0.260 0.000
VANMET_231 2018-09-29 21:15:00 231 11739.0 7.611 7.664 7.778 7.592 7.818 96.400 97.200 7.078 7.186 13.730 13.660 11.520 9.880 0.109 0.140 0.191 0.517 0.00 0.00 0.00 0.4520 25.34 21.44 7.643 7.694 7.805 7.864 7.613 7.102 7.205 7.579 7.633 7.742 7.763 7.559 7.055 7.161 0.7120 10.446 10.072 0.376 10.433 10.147 0.292 0.000
VANMET_231 2018-09-29 21:10:00 231 11739.0 7.667 7.725 7.839 7.639 7.865 96.400 97.100 7.131 7.221 13.740 13.670 11.520 9.880 0.109 0.140 0.191 0.517 0.00 0.00 0.00 0.5330 9.95 6.23 7.702 7.762 7.881 7.933 7.692 7.176 7.279 7.632 7.695 7.808 7.795 7.606 7.089 7.183 0.9930 10.486 10.108 0.378 10.466 10.171 0.304 0.000
VANMET_231 2018-09-29 21:05:00 231 11739.0 7.709 7.770 7.880 7.683 7.930 96.200 97.000 7.153 7.237 13.750 13.670 11.520 9.880 0.109 0.140 0.191 0.517 0.00 0.00 0.00 0.6930 4.02 5.55 7.732 7.779 7.885 7.954 7.696 7.169 7.269 7.679 7.760 7.871 7.913 7.662 7.130 7.216 1.1500 10.516 10.124 0.400 10.498 10.182 0.315 0.000
VANMET_231 2018-09-29 21:00:00 231 11739.0 7.752 7.794 7.902 7.702 7.934 95.800 96.600 7.128 7.195 13.760 13.670 11.520 9.880 0.109 0.140 0.191 0.517 0.00 0.00 0.00 0.4630 16.05 11.97 7.792 7.820 7.925 7.962 7.736 7.170 7.226 7.696 7.778 7.885 7.887 7.676 7.105 7.164 0.7250 10.547 10.106 0.443 10.511 10.153 0.357 0.000
VANMET_231 2018-09-29 20:55:00 231 11739.0 7.812 7.843 7.941 7.728 7.958 95.100 95.900 7.083 7.120 13.770 13.680 11.520 9.880 0.109 0.140 0.191 0.517 0.00 0.00 0.00 0.5730 9.19 1.30 7.849 7.870 7.968 8.000 7.762 7.121 7.163 7.779 7.820 7.922 7.923 7.702 7.029 7.084 0.8040 10.590 10.075 0.519 10.530 10.101 0.432 0.000
VANMET_231 2018-09-29 20:50:00 231 11739.0 7.878 7.908 8.000 7.784 7.997 94.100 95.100 6.991 7.054 13.780 13.680 11.520 9.880 0.109 0.140 0.191 0.517 0.00 0.00 0.00 0.6430 7.97 0.09 7.935 7.958 8.060 8.050 7.832 7.021 7.088 7.829 7.875 7.973 7.942 7.752 6.962 7.031 0.8170 10.638 10.012 0.628 10.570 10.055 0.518 0.000
VANMET_231 2018-09-29 20:45:00 231 11739.0 7.923 7.984 8.080 7.854 8.140 93.400 94.500 6.924 7.026 13.790 13.680 11.520 9.880 0.109 0.140 0.191 0.517 0.00 0.00 0.00 0.6510 358.40 6.46 7.948 7.994 8.090 8.240 7.865 6.977 7.056 7.905 7.963 8.060 8.050 7.828 6.874 7.003 0.8300 10.671 9.966 0.704 10.621 10.036 0.584 0.000
VANMET_231 2018-09-29 20:40:00 231 11739.0 7.906 7.978 8.070 7.842 8.230 92.800 94.200 6.825 6.969 13.800 13.690 11.520 9.880 0.109 0.140 0.191 0.517 0.00 0.00 0.00 0.6680 5.91 4.18 7.932 7.994 8.090 8.260 7.862 6.869 7.014 7.878 7.962 8.060 8.220 7.829 6.792 6.939 0.7970 10.659 9.898 0.767 10.612 9.997 0.616 0.000
VANMET_231 2018-09-29 20:35:00 231 11739.0 7.878 7.955 8.060 7.824 8.200 92.800 94.300 6.792 6.975 13.810 13.690 11.510 9.880 0.109 0.140 0.191 0.517 0.00 0.00 0.00 0.5160 0.09 0.02 7.892 7.960 8.070 8.220 7.848 6.836 7.032 7.858 7.945 8.050 8.180 7.812 6.729 6.921 0.6790 10.638 9.876 0.766 10.599 10.001 0.604 0.000
VANMET_231 2018-09-29 20:30:00 231 11739.0 7.853 7.963 8.070 7.844 8.210 93.100 94.600 6.821 7.041 13.820 13.690 11.510 9.880 0.109 0.140 0.191 0.517 0.00 0.00 0.00 0.5260 3.97 2.26 7.875 7.969 8.070 8.220 7.862 6.839 7.060 7.832 7.959 8.060 8.200 7.828 6.805 7.015 0.5810 10.620 9.896 0.733 10.614 10.046 0.573 0.000
VANMET_231 2018-09-29 20:25:00 231 11739.0 7.799 7.939 8.040 7.816 8.200 93.400 94.800 6.808 7.039 13.830 13.700 11.510 9.880 0.109 0.140 0.191 0.517 0.00 0.00 0.00 0.6200 5.36 0.26 7.832 7.960 8.060 8.240 7.855 6.826 7.069 7.768 7.914 8.010 8.170 7.782 6.785 7.007 0.7450 10.581 9.887 0.698 10.593 10.045 0.551 0.000
VANMET_231 2018-09-29 20:20:00 231 11739.0 7.746 7.891 7.996 7.771 8.160 93.600 94.800 6.781 7.003 13.840 13.700 11.510 9.880 0.109 0.140 0.191 0.517 0.00 0.00 0.00 0.5960 12.02 8.55 7.778 7.912 8.010 8.180 7.795 6.802 7.026 7.698 7.875 7.968 8.150 7.742 6.749 6.977 0.8690 10.543 9.868 0.675 10.561 10.020 0.549 0.000
VANMET_231 2018-09-29 20:15:00 231 11739.0 7.661 7.830 7.925 7.712 8.120 94.000 95.000 6.759 6.971 13.850 13.700 11.510 9.880 0.109 0.140 0.191 0.517 0.00 0.00 0.00 0.6000 28.06 22.33 7.712 7.873 7.967 8.160 7.755 6.778 7.003 7.612 7.790 7.884 8.060 7.668 6.734 6.929 0.8820 10.482 9.853 0.629 10.518 9.998 0.526 0.000
VANMET_231 2018-09-29 20:10:00 231 11739.0 7.595 7.760 7.856 7.664 8.060 94.200 95.200 6.735 6.947 13.860 13.710 11.510 9.880 0.109 0.140 0.191 0.517 0.00 0.00 0.00 0.6480 12.10 0.14 7.632 7.788 7.883 8.090 7.702 6.767 6.975 7.569 7.725 7.822 8.010 7.642 6.710 6.929 0.7640 10.435 9.837 0.605 10.484 9.982 0.503 0.000
VANMET_231 2018-09-29 20:05:00 231 11739.0 7.552 7.689 7.803 7.622 7.973 94.300 95.200 6.701 6.916 13.870 13.710 11.510 9.880 0.109 0.140 0.191 0.517 0.00 0.00 0.00 0.6540 13.71 0.37 7.579 7.720 7.821 8.010 7.645 6.728 6.936 7.532 7.655 7.771 7.947 7.598 6.672 6.888 0.7320 10.404 9.814 0.593 10.454 9.960 0.502 0.000
VANMET_231 2018-09-29 20:00:00 231 11739.0 7.553 7.641 7.746 7.585 7.926 94.200 95.100 6.689 6.864 13.870 13.710 11.510 9.880 0.109 0.140 0.191 0.517 0.00 0.00 0.00 0.5890 13.86 0.23 7.578 7.653 7.766 7.937 7.608 6.715 6.892 7.529 7.625 7.732 7.917 7.565 6.670 6.839 0.6600 10.405 9.806 0.603 10.428 9.925 0.511 0.000
VANMET_231 2018-09-29 19:55:00 231 11739.0 7.553 7.609 7.723 7.590 7.882 94.200 95.100 6.687 6.859 13.880 13.720 11.510 9.880 0.109 0.140 0.191 0.517 0.00 0.00 0.00 0.3160 31.97 12.67 7.592 7.627 7.733 7.927 7.609 6.708 6.889 7.532 7.601 7.717 7.845 7.579 6.671 6.841 0.5810 10.405 9.805 0.603 10.431 9.921 0.511 0.000
VANMET_231 2018-09-29 19:50:00 231 11739.0 7.616 7.616 7.722 7.612 7.897 93.800 95.000 6.695 6.876 13.890 13.720 11.510 9.880 0.109 0.140 0.191 0.517 0.00 0.00 0.00 0.0240 330.70 0.01 7.638 7.621 7.726 7.942 7.638 6.720 6.899 7.572 7.603 7.717 7.845 7.592 6.678 6.862 0.1960 10.450 9.810 0.648 10.447 9.933 0.522 0.000
VANMET_231 2018-09-29 19:45:00 231 11739.0 7.642 7.645 7.740 7.639 7.960 93.800 94.900 6.715 6.888 13.900 13.720 11.510 9.880 0.109 0.140 0.191 0.517 0.00 0.00 0.00 0.3020 330.00 1.76 7.658 7.659 7.757 7.986 7.655 6.741 6.902 7.625 7.624 7.719 7.935 7.615 6.688 6.868 0.5750 10.468 9.824 0.649 10.466 9.941 0.534 0.000
VANMET_231 2018-09-29 19:40:00 231 11739.0 7.685 7.678 7.781 7.694 7.954 93.700 94.900 6.733 6.934 13.910 13.730 11.510 9.880 0.109 0.140 0.191 0.517 0.00 0.00 0.00 0.0300 329.90 0.59 7.711 7.710 7.815 8.010 7.721 6.756 6.960 7.648 7.657 7.760 7.925 7.665 6.712 6.915 0.4050 10.499 9.836 0.661 10.505 9.973 0.536 0.000
VANMET_231 2018-09-29 19:35:00 231 11739.0 7.733 7.747 7.854 7.746 8.020 93.600 94.800 6.768 6.975 13.920 13.730 11.510 9.880 0.109 0.140 0.191 0.517 0.00 0.00 0.00 0.0000 0.00 0.00 7.778 7.783 7.891 8.040 7.775 6.799 7.001 7.698 7.714 7.818 7.990 7.718 6.737 6.949 0.0000 10.533 9.860 0.674 10.543 10.001 0.548 0.000
VANMET_231 2018-09-29 19:30:00 231 11739.0 7.803 7.828 7.936 7.805 8.110 93.500 94.800 6.824 7.025 13.930 13.730 11.510 9.880 0.109 0.140 0.191 0.517 0.00 0.00 0.00 0.0000 0.00 0.00 7.831 7.860 7.971 8.170 7.831 6.857 7.053 7.765 7.789 7.898 8.000 7.768 6.788 6.992 0.0000 10.584 9.898 0.688 10.585 10.035 0.550 0.000
VANMET_231 2018-09-29 19:25:00 231 11739.0 7.838 7.877 7.995 7.852 8.160 93.600 94.800 6.872 7.084 13.930 13.740 11.510 9.880 0.109 0.140 0.191 0.517 0.00 0.00 0.00 0.2200 19.39 4.54 7.867 7.896 8.010 8.170 7.881 6.901 7.119 7.818 7.859 7.973 8.160 7.831 6.840 7.052 0.4900 10.609 9.930 0.679 10.619 10.076 0.552 0.000
VANMET_231 2018-09-29 19:20:00 231 11739.0 7.854 7.892 7.999 7.842 8.200 93.500 94.900 6.880 7.085 13.940 13.740 11.510 9.880 0.109 0.140 0.191 0.517 0.00 0.00 0.00 0.3050 19.50 14.52 7.871 7.900 8.020 8.240 7.874 6.906 7.119 7.841 7.884 7.985 8.170 7.817 6.859 7.060 0.5360 10.621 9.936 0.690 10.612 10.077 0.541 0.000
VANMET_231 2018-09-29 19:15:00 231 11739.0 7.856 7.890 7.990 7.823 8.180 93.400 94.900 6.868 7.063 13.950 13.740 11.510 9.880 0.109 0.140 0.191 0.517 0.00 0.00 0.00 0.2210 332.00 9.62 7.874 7.895 7.999 8.200 7.837 6.890 7.075 7.844 7.885 7.986 8.160 7.807 6.853 7.048 0.4640 10.622 9.928 0.701 10.598 10.061 0.541 0.000
VANMET_231 2018-09-29 19:10:00 231 11739.0 7.855 7.904 8.010 7.837 8.190 93.500 94.900 6.874 7.078 13.960 13.750 11.510 9.880 0.109 0.140 0.191 0.517 0.00 0.00 0.00 0.3750 327.20 7.83 7.884 7.913 8.020 8.200 7.851 6.903 7.094 7.834 7.895 8.000 8.180 7.824 6.853 7.064 0.5490 10.622 9.932 0.690 10.608 10.072 0.541 0.000
VANMET_231 2018-09-29 19:05:00 231 11739.0 7.838 7.904 8.020 7.835 8.190 93.600 94.900 6.872 7.080 13.960 13.750 11.500 9.880 0.109 0.140 0.191 0.517 0.00 0.00 0.00 0.4270 339.00 9.72 7.854 7.909 8.020 8.210 7.854 6.886 7.096 7.817 7.900 8.010 8.180 7.820 6.857 7.064 0.6140 10.609 9.930 0.679 10.607 10.073 0.541 0.000
VANMET_231 2018-09-29 19:00:00 231 11739.0 7.815 7.888 8.000 7.827 8.180 93.700 94.900 6.868 7.074 13.970 13.750 11.500 9.880 0.109 0.140 0.191 0.517 0.00 0.00 0.00 0.5240 342.40 18.38 7.830 7.898 8.010 8.190 7.854 6.879 7.101 7.794 7.866 7.977 8.160 7.807 6.850 7.052 0.7640 10.593 9.928 0.667 10.601 10.069 0.541 0.000
VANMET_231 2018-09-29 18:55:00 231 11739.0 7.787 7.860 7.981 7.817 8.160 93.700 94.900 6.846 7.064 13.980 13.760 11.500 9.880 0.109 0.140 0.191 0.517 0.00 0.00 0.00 0.4720 349.80 12.14 7.810 7.865 7.987 8.170 7.836 6.876 7.087 7.757 7.854 7.974 8.140 7.800 6.812 7.047 0.7320 10.572 9.913 0.666 10.594 10.062 0.540 0.000
VANMET_231 2018-09-29 18:50:00 231 11739.0 7.764 7.857 7.979 7.802 8.190 93.800 95.000 6.829 7.061 13.990 13.760 11.500 9.880 0.109 0.140 0.191 0.517 0.00 0.00 0.00 0.3930 351.80 32.99 7.790 7.874 7.991 8.290 7.820 6.844 7.076 7.740 7.826 7.956 8.150 7.773 6.809 7.039 0.6790 10.556 9.901 0.654 10.583 10.060 0.529 0.000
VANMET_231 2018-09-29 18:45:00 231 11739.0 7.722 7.803 7.925 7.749 8.140 93.800 95.000 6.795 7.012 13.990 13.760 11.500 9.880 0.109 0.140 0.191 0.517 0.00 0.00 0.00 0.3100 346.80 11.37 7.750 7.822 7.951 8.210 7.773 6.821 7.041 7.690 7.793 7.912 8.130 7.726 6.760 6.984 0.5950 10.526 9.878 0.653 10.545 10.026 0.527 0.000
VANMET_231 2018-09-29 18:40:00 231 11739.0 7.662 7.759 7.884 7.694 8.130 93.800 95.000 6.726 6.948 14.000 13.770 11.500 9.880 0.109 0.140 0.191 0.517 0.00 0.00 0.00 0.3990 7.83 17.59 7.687 7.789 7.911 8.140 7.716 6.751 6.974 7.626 7.728 7.852 8.100 7.663 6.685 6.910 0.6530 10.483 9.831 0.650 10.505 9.982 0.525 0.000
VANMET_231 2018-09-29 18:35:00 231 11739.0 7.611 7.696 7.826 7.632 8.050 93.700 94.900 6.666 6.871 14.000 13.770 11.500 9.880 0.109 0.140 0.191 0.517 0.00 0.00 0.00 0.4590 1.46 10.13 7.640 7.725 7.851 8.100 7.663 6.696 6.910 7.589 7.669 7.803 8.020 7.603 6.641 6.836 0.6930 10.446 9.791 0.658 10.461 9.930 0.534 0.000
VANMET_231 2018-09-29 18:30:00 231 11739.0 7.557 7.649 7.781 7.602 7.982 93.700 94.800 6.618 6.827 14.010 13.770 11.500 9.880 0.109 0.140 0.191 0.517 0.00 0.00 0.00 0.4590 359.30 7.82 7.589 7.669 7.801 8.020 7.623 6.650 6.848 7.536 7.633 7.765 7.959 7.583 6.600 6.804 0.5490 10.408 9.758 0.656 10.440 9.900 0.543 0.000
VANMET_231 2018-09-29 18:25:00 231 11739.0 7.511 7.604 7.739 7.562 7.970 93.800 94.800 6.577 6.782 14.010 13.780 11.500 9.880 0.109 0.140 0.191 0.517 0.00 0.00 0.00 0.4130 351.40 15.25 7.549 7.630 7.765 7.990 7.596 6.619 6.822 7.479 7.575 7.713 7.956 7.532 6.548 6.746 0.6530 10.375 9.731 0.643 10.411 9.869 0.541 0.000
VANMET_231 2018-09-29 18:20:00 231 11739.0 7.452 7.549 7.686 7.512 7.899 93.800 94.600 6.521 6.714 14.020 13.780 11.500 9.880 0.109 0.140 0.191 0.517 0.00 0.00 0.00 0.4820 359.20 13.70 7.482 7.568 7.710 7.962 7.542 6.553 6.760 7.412 7.540 7.674 7.854 7.475 6.478 6.664 0.5680 10.333 9.693 0.641 10.376 9.823 0.560 0.000
VANMET_231 2018-09-29 18:15:00 231 11739.0 7.404 7.535 7.659 7.486 7.837 93.800 94.500 6.477 6.666 14.020 13.780 11.500 9.880 0.109 0.140 0.191 0.517 0.00 0.00 0.00 0.5160 4.18 0.42 7.435 7.544 7.673 7.857 7.508 6.504 6.692 7.369 7.520 7.646 7.802 7.462 6.442 6.638 0.7320 10.299 9.664 0.639 10.357 9.791 0.570 0.000
VANMET_231 2018-09-29 18:10:00 231 11739.0 7.362 7.502 7.622 7.462 7.812 93.800 94.400 6.435 6.628 14.020 13.790 11.500 9.880 0.109 0.140 0.191 0.517 0.00 0.00 0.00 0.5550 1.89 0.41 7.388 7.517 7.643 7.821 7.481 6.457 6.656 7.345 7.476 7.596 7.791 7.435 6.409 6.590 0.6990 10.270 9.636 0.637 10.340 9.765 0.579 0.000
VANMET_231 2018-09-29 18:05:00 231 11739.0 7.340 7.467 7.583 7.441 7.787 93.900 94.300 6.428 6.590 14.030 13.790 11.500 9.880 0.109 0.140 0.191 0.517 0.00 0.00 0.00 0.5960 10.59 4.17 7.358 7.477 7.596 7.817 7.461 6.453 6.617 7.318 7.452 7.560 7.763 7.428 6.395 6.572 0.6990 10.254 9.631 0.626 10.325 9.739 0.589 0.000
VANMET_231 2018-09-29 18:00:00 231 11739.0 7.334 7.431 7.542 7.442 7.726 93.700 94.100 6.398 6.567 14.030 13.790 11.500 9.880 0.109 0.140 0.191 0.517 0.00 0.00 0.00 0.6280 16.32 4.83 7.348 7.448 7.558 7.762 7.464 6.418 6.591 7.308 7.409 7.532 7.691 7.418 6.371 6.538 0.7320 10.250 9.611 0.646 10.326 9.724 0.609 0.008
VANMET_231 2018-09-29 17:55:00 231 11739.0 7.359 7.417 7.533 7.457 7.711 93.600 94.000 6.395 6.566 14.040 13.800 11.490 9.880 0.109 0.140 0.191 0.517 0.69 0.00 0.00 0.5850 15.38 1.39 7.374 7.433 7.544 7.751 7.473 6.428 6.582 7.337 7.400 7.524 7.674 7.437 6.366 6.544 0.7380 10.268 9.609 0.657 10.337 9.723 0.620 1.439
VANMET_231 2018-09-29 17:50:00 231 11739.0 7.381 7.397 7.543 7.499 7.654 93.500 93.900 6.403 6.582 14.040 13.800 11.490 9.880 0.109 0.140 0.191 0.517 1.87 0.00 0.00 0.4930 17.02 13.10 7.446 7.416 7.567 7.755 7.556 6.422 6.605 7.347 7.380 7.535 7.568 7.467 6.389 6.559 0.6930 10.283 9.615 0.668 10.366 9.734 0.632 3.929
VANMET_231 2018-09-29 17:45:00 231 11739.0 7.522 7.484 7.624 7.599 7.725 92.800 93.400 6.432 6.613 14.040 13.800 11.490 9.880 0.109 0.140 0.191 0.517 3.56 0.00 0.00 0.4310 355.70 12.37 7.576 7.531 7.665 7.794 7.649 6.451 6.649 7.453 7.425 7.576 7.612 7.556 6.409 6.585 0.6140 10.383 9.634 0.748 10.438 9.755 0.689 7.482
VANMET_231 2018-09-29 17:40:00 231 11739.0 7.642 7.592 7.727 7.681 7.795 92.300 93.200 6.486 6.662 14.050 13.810 11.490 9.880 0.109 0.140 0.191 0.517 4.36 0.00 0.00 0.1940 341.60 29.31 7.712 7.666 7.797 7.878 7.765 6.541 6.735 7.573 7.533 7.669 7.754 7.629 6.440 6.615 0.5750 10.468 9.670 0.806 10.496 9.788 0.714 9.156
VANMET_231 2018-09-29 17:35:00 231 11739.0 7.770 7.742 7.874 7.827 7.934 92.200 93.000 6.591 6.779 14.050 13.810 11.490 9.880 0.109 0.140 0.191 0.517 5.81 0.00 0.00 0.2890 307.80 10.34 7.838 7.813 7.939 7.979 7.878 6.630 6.811 7.715 7.674 7.805 7.887 7.762 6.551 6.728 0.7060 10.560 9.740 0.824 10.601 9.867 0.742 12.207
VANMET_231 2018-09-29 17:30:00 231 11739.0 7.937 7.905 8.030 7.941 8.010 92.100 92.900 6.739 6.868 14.050 13.810 11.490 9.880 0.109 0.140 0.191 0.517 7.48 0.00 0.00 0.5240 21.49 28.28 8.020 7.990 8.110 8.050 8.020 6.828 6.915 7.848 7.820 7.948 7.971 7.881 6.628 6.814 0.9080 10.681 9.840 0.844 10.684 9.928 0.759 15.716
VANMET_231 2018-09-29 17:25:00 231 11739.0 8.110 8.090 8.220 8.130 8.180 91.300 92.000 6.792 6.914 14.050 13.820 11.490 9.880 0.109 0.140 0.191 0.517 10.77 0.00 0.00 0.4700 56.37 8.72 8.190 8.150 8.290 8.240 8.240 6.827 6.928 8.030 8.000 8.130 8.070 8.040 6.725 6.895 0.7320 10.808 9.876 0.940 10.822 9.959 0.866 22.617
VANMET_231 2018-09-29 17:20:00 231 11739.0 8.260 8.250 8.380 8.320 8.400 90.100 90.900 6.748 6.926 14.060 13.820 11.490 9.880 0.109 0.140 0.191 0.517 14.48 0.00 0.00 0.1570 163.50 39.47 8.330 8.310 8.440 8.470 8.380 6.782 6.955 8.180 8.170 8.310 8.250 8.260 6.710 6.896 0.5810 10.918 9.846 1.081 10.963 9.967 0.998 30.408
VANMET_231 2018-09-29 17:15:00 231 11739.0 8.380 8.360 8.500 8.440 8.490 89.900 90.700 6.825 7.014 14.060 13.830 11.490 9.880 0.109 0.140 0.191 0.517 18.73 0.00 0.00 0.0000 0.00 0.00 8.480 8.410 8.570 8.580 8.510 6.978 7.115 8.320 8.320 8.440 8.430 8.380 6.676 6.928 0.0000 11.008 9.898 1.112 11.053 10.028 1.028 39.333
VANMET_231 2018-09-29 17:10:00 231 11739.0 8.590 8.500 8.650 8.590 8.520 89.600 90.300 6.980 7.103 14.060 13.830 11.490 9.880 0.109 0.140 0.191 0.517 24.48 0.00 0.00 0.0000 0.00 0.00 8.700 8.600 8.760 8.600 8.700 7.005 7.138 8.480 8.420 8.570 8.470 8.500 6.949 7.077 0.0000 11.166 10.004 1.161 11.166 10.089 1.083 51.408
VANMET_231 2018-09-29 17:05:00 231 11739.0 8.790 8.720 8.880 8.790 8.710 88.300 89.200 6.972 7.121 14.070 13.830 11.490 9.880 0.109 0.140 0.191 0.517 23.03 0.00 0.00 0.0000 0.00 0.00 8.870 8.810 8.950 8.800 8.850 7.022 7.135 8.700 8.620 8.770 8.600 8.720 6.926 7.105 0.0000 11.318 9.999 1.324 11.318 10.102 1.222 48.363
VANMET_231 2018-09-29 17:00:00 231 11739.0 8.950 8.910 9.030 8.880 8.900 87.100 88.500 6.933 7.094 14.070 13.840 11.490 9.880 0.109 0.140 0.191 0.517 20.02 0.00 0.00 0.0000 0.00 0.00 8.990 8.980 9.100 9.030 8.950 6.973 7.116 8.890 8.820 8.960 8.800 8.840 6.865 7.065 0.0000 11.441 9.972 1.476 11.387 10.083 1.310 42.042
VANMET_231 2018-09-29 16:55:00 231 11739.0 9.050 9.060 9.160 8.960 9.110 85.900 87.700 6.819 7.028 14.070 13.840 11.490 9.880 0.109 0.140 0.191 0.517 20.90 0.00 0.00 0.0000 0.00 0.00 9.090 9.140 9.230 9.180 9.000 6.932 7.123 9.000 8.990 9.100 9.040 8.920 6.749 6.956 0.0000 11.519 9.894 1.624 11.449 10.037 1.408 43.890
VANMET_231 2018-09-29 16:50:00 231 11739.0 9.070 9.140 9.220 8.980 9.230 86.400 87.700 6.920 7.050 14.080 13.840 11.490 9.880 0.109 0.140 0.191 0.517 23.76 0.00 0.00 0.2450 97.90 28.29 9.100 9.150 9.230 9.280 9.000 7.059 7.179 9.040 9.120 9.200 9.190 8.950 6.786 6.916 0.7710 11.534 9.963 1.569 11.464 10.052 1.410 49.896
VANMET_231 2018-09-29 16:45:00 231 11739.0 9.060 9.120 9.200 8.980 9.190 85.700 87.600 6.800 7.036 14.080 13.850 11.480 9.880 0.109 0.140 0.191 0.517 33.47 0.00 0.00 0.1880 98.00 50.72 9.080 9.130 9.210 9.240 8.990 6.888 7.108 9.030 9.110 9.190 9.160 8.960 6.727 6.951 0.6860 11.526 9.881 1.648 11.464 10.043 1.422 70.287
VANMET_231 2018-09-29 16:40:00 231 11739.0 9.080 9.090 9.170 8.970 9.170 85.400 87.400 6.771 7.001 14.080 13.850 11.480 9.880 0.109 0.140 0.191 0.517 46.39 0.00 0.00 0.2810 282.20 40.24 9.160 9.150 9.210 9.250 9.010 6.888 7.102 9.030 9.060 9.150 9.110 8.950 6.694 6.911 0.6340 11.542 9.862 1.685 11.457 10.019 1.444 97.419
VANMET_231 2018-09-29 16:35:00 231 11739.0 9.140 9.170 9.240 9.010 9.230 86.500 88.300 7.008 7.193 14.090 13.850 11.480 9.880 0.109 0.140 0.191 0.517 61.51 0.00 0.00 0.4650 137.20 62.77 9.170 9.210 9.270 9.340 9.030 7.142 7.249 9.120 9.140 9.210 9.160 8.990 6.840 7.146 1.2280 11.589 10.023 1.564 11.488 10.152 1.344 129.171
VANMET_231 2018-09-29 16:30:00 231 11739.0 9.110 9.130 9.200 8.990 9.180 86.100 87.600 6.912 7.046 14.090 13.860 11.480 9.880 0.109 0.140 0.191 0.517 53.79 0.00 0.00 0.3060 165.60 24.85 9.150 9.200 9.260 9.350 9.020 7.189 7.261 9.080 9.090 9.170 9.040 8.970 6.627 6.858 0.7640 11.565 9.958 1.608 11.472 10.050 1.423 112.959
VANMET_231 2018-09-29 16:25:00 231 11739.0 9.220 9.170 9.250 9.090 9.190 84.700 87.200 6.787 7.078 14.090 13.860 11.480 9.880 0.109 0.140 0.191 0.517 60.44 0.00 0.00 0.3590 270.60 34.28 9.320 9.280 9.320 9.270 9.150 6.973 7.226 9.150 9.100 9.200 9.060 9.010 6.629 6.881 1.7380 11.652 9.872 1.783 11.550 10.072 1.478 126.924
VANMET_231 2018-09-29 16:20:00 231 11739.0 9.360 9.350 9.440 9.230 9.340 86.900 88.600 7.287 7.456 14.100 13.870 11.480 9.880 0.109 0.140 0.191 0.517 58.64 0.00 0.00 0.7410 214.20 52.00 9.390 9.400 9.520 9.460 9.310 7.497 7.564 9.320 9.300 9.340 9.210 9.180 7.037 7.321 1.2740 11.762 10.217 1.541 11.659 10.336 1.329 123.144
VANMET_231 2018-09-29 16:15:00 231 11739.0 9.410 9.410 9.520 9.320 9.350 86.300 88.300 7.250 7.495 14.100 13.870 11.480 9.880 0.109 0.140 0.191 0.517 56.67 0.00 0.00 0.2650 197.80 14.63 9.520 9.500 9.570 9.440 9.370 7.391 7.545 9.370 9.380 9.510 9.300 9.290 7.153 7.462 0.5620 11.802 10.191 1.617 11.730 10.364 1.372 119.007
VANMET_231 2018-09-29 16:10:00 231 11739.0 9.530 9.570 9.630 9.370 9.460 86.100 88.100 7.333 7.505 14.100 13.870 11.480 9.880 0.109 0.140 0.191 0.517 67.19 0.00 0.00 0.1720 188.00 13.30 9.560 9.600 9.660 9.510 9.400 7.446 7.577 9.510 9.520 9.590 9.380 9.340 7.227 7.399 0.8360 11.897 10.249 1.654 11.770 10.371 1.401 141.099
VANMET_231 2018-09-29 16:05:00 231 11739.0 9.520 9.590 9.650 9.360 9.490 86.400 88.200 7.367 7.508 14.110 13.880 11.480 9.880 0.109 0.140 0.191 0.517 67.88 0.00 0.00 0.2530 182.00 11.91 9.550 9.610 9.670 9.560 9.380 7.465 7.552 9.490 9.580 9.630 9.400 9.340 7.249 7.440 0.7120 11.889 10.273 1.617 11.762 10.373 1.388 142.548
VANMET_231 2018-09-29 16:00:00 231 11739.0 9.480 9.580 9.650 9.330 9.480 85.600 87.800 7.204 7.417 14.110 13.880 11.480 9.870 0.109 0.140 0.191 0.517 65.95 0.00 0.00 0.0480 172.00 4.96 9.510 9.600 9.650 9.490 9.350 7.333 7.466 9.450 9.570 9.630 9.450 9.300 7.143 7.380 0.5490 11.857 10.159 1.707 11.738 10.308 1.432 138.495
VANMET_231 2018-09-29 15:55:00 231 11739.0 9.410 9.490 9.550 9.240 9.430 86.000 87.800 7.202 7.326 14.110 13.890 11.480 9.880 0.109 0.140 0.191 0.517 82.70 0.00 0.00 0.2400 129.20 5.32 9.440 9.560 9.630 9.590 9.290 7.359 7.469 9.380 9.440 9.500 9.270 9.200 7.038 7.212 0.7710 11.802 10.158 1.652 11.667 10.244 1.423 173.670
VANMET_231 2018-09-29 15:50:00 231 11739.0 9.490 9.530 9.600 9.290 9.300 84.500 87.000 7.007 7.253 14.120 13.890 11.480 9.880 0.109 0.140 0.191 0.517 98.10 0.00 0.00 0.3230 133.80 49.59 9.560 9.680 9.720 9.470 9.390 7.117 7.468 9.400 9.440 9.500 9.210 9.200 6.950 7.138 0.7190 11.865 10.023 1.839 11.707 10.193 1.522 206.010
VANMET_231 2018-09-29 15:45:00 231 11739.0 9.490 9.640 9.700 9.340 9.510 86.000 88.100 7.269 7.480 14.120 13.900 11.480 9.880 0.109 0.140 0.191 0.517 102.30 0.00 0.00 0.4970 197.00 40.60 9.560 9.710 9.750 9.600 9.390 7.340 7.521 9.410 9.570 9.640 9.450 9.280 7.217 7.432 1.0520 11.865 10.205 1.661 11.746 10.353 1.398 214.830
VANMET_231 2018-09-29 15:40:00 231 11739.0 9.390 9.500 9.570 9.210 9.430 86.000 88.300 7.172 7.393 14.120 13.900 11.480 9.880 0.109 0.140 0.191 0.517 122.70 0.00 0.00 0.4130 149.80 50.65 9.430 9.560 9.630 9.530 9.270 7.256 7.472 9.370 9.460 9.520 9.360 9.180 7.112 7.335 1.1960 11.786 10.137 1.650 11.644 10.292 1.362 257.670
VANMET_231 2018-09-29 15:35:00 231 11739.0 9.330 9.470 9.540 9.130 9.420 87.400 89.800 7.341 7.550 14.120 13.900 11.480 9.880 0.109 0.140 0.191 0.517 189.50 0.00 0.00 0.7370 131.00 47.39 9.430 9.550 9.630 9.590 9.190 7.608 7.665 9.180 9.310 9.400 9.160 9.030 7.125 7.392 1.5420 11.738 10.255 1.479 11.581 10.403 1.181 397.950
VANMET_231 2018-09-29 15:30:00 231 11739.0 9.160 9.310 9.390 8.970 9.220 88.400 91.400 7.351 7.649 14.130 13.910 11.470 9.880 0.109 0.140 0.191 0.517 211.30 0.00 0.00 0.3700 236.90 16.59 9.210 9.380 9.460 9.500 9.020 7.571 7.820 9.030 9.190 9.260 8.980 8.820 7.152 7.501 0.7450 11.604 10.262 1.346 11.457 10.473 0.985 443.730
VANMET_231 2018-09-29 15:25:00 231 11739.0 8.880 8.970 9.020 8.650 8.870 89.800 92.500 7.308 7.500 14.130 13.910 11.470 9.880 0.109 0.140 0.191 0.517 171.90 0.00 0.00 0.0590 193.20 6.27 9.020 9.160 9.220 9.080 8.800 7.414 7.615 8.760 8.790 8.840 8.590 8.530 7.169 7.365 0.5290 11.387 10.232 1.161 11.211 10.367 0.841 360.990
VANMET_231 2018-09-29 15:20:00 231 11739.0 8.700 8.770 8.820 8.490 8.770 90.500 92.900 7.241 7.422 14.130 13.920 11.470 9.880 0.109 0.140 0.191 0.517 105.00 0.00 0.00 0.3110 183.20 18.49 8.770 8.830 8.870 8.950 8.540 7.324 7.458 8.630 8.700 8.760 8.610 8.430 7.155 7.383 0.5490 11.249 10.185 1.069 11.090 10.312 0.787 220.500
VANMET_231 2018-09-29 15:15:00 231 11739.0 8.560 8.600 8.660 8.360 8.710 91.200 93.500 7.208 7.383 14.140 13.920 11.470 9.880 0.109 0.140 0.191 0.517 82.30 0.00 0.00 0.4320 199.30 22.38 8.620 8.680 8.750 8.820 8.430 7.263 7.415 8.520 8.540 8.600 8.600 8.300 7.156 7.328 0.8230 11.143 10.162 0.981 10.993 10.284 0.715 172.830
VANMET_231 2018-09-29 15:10:00 231 11739.0 8.490 8.490 8.550 8.300 8.490 91.300 93.400 7.162 7.304 14.140 13.930 11.470 9.880 0.109 0.140 0.191 0.517 60.16 0.00 0.00 0.5020 210.40 17.77 8.520 8.530 8.590 8.600 8.320 7.265 7.347 8.460 8.450 8.510 8.350 8.290 7.057 7.247 0.8490 11.090 10.130 0.965 10.948 10.229 0.723 126.336
VANMET_231 2018-09-29 15:05:00 231 11739.0 8.570 8.580 8.640 8.390 8.540 90.600 92.900 7.129 7.315 14.140 13.930 11.470 9.880 0.109 0.140 0.191 0.517 47.46 0.00 0.00 0.7120 202.80 17.81 8.610 8.650 8.720 8.760 8.430 7.226 7.376 8.500 8.480 8.530 8.350 8.310 7.051 7.246 1.2940 11.151 10.107 1.048 11.015 10.237 0.782 99.666
VANMET_231 2018-09-29 15:00:00 231 11739.0 8.650 8.700 8.760 8.480 8.660 90.400 93.000 7.181 7.427 14.140 13.930 11.470 9.870 0.109 0.140 0.191 0.517 54.72 0.00 0.00 0.6900 223.60 14.25 8.690 8.750 8.830 8.760 8.520 7.241 7.493 8.590 8.620 8.660 8.550 8.420 7.113 7.318 0.9410 11.211 10.143 1.076 11.083 10.316 0.776 114.912
VANMET_231 2018-09-29 14:55:00 231 11739.0 8.640 8.750 8.800 8.450 8.820 91.400 93.700 7.324 7.499 14.150 13.940 11.470 9.870 0.109 0.140 0.191 0.517 66.92 0.00 0.00 0.5560 216.80 11.24 8.720 8.810 8.850 8.920 8.520 7.357 7.549 8.580 8.700 8.750 8.700 8.380 7.161 7.450 0.7910 11.204 10.243 0.964 11.060 10.366 0.697 140.532
VANMET_231 2018-09-29 14:50:00 231 11739.0 8.510 8.600 8.660 8.310 8.720 91.500 94.000 7.215 7.409 14.150 13.940 11.470 9.870 0.109 0.140 0.191 0.517 58.44 0.00 0.00 0.2970 182.20 19.12 8.570 8.690 8.740 8.890 8.370 7.313 7.462 8.460 8.540 8.580 8.620 8.240 7.166 7.352 0.5750 11.105 10.167 0.944 10.956 10.303 0.657 122.724
VANMET_231 2018-09-29 14:45:00 231 11739.0 8.410 8.470 8.510 8.190 8.580 92.000 94.100 7.189 7.302 14.150 13.950 11.470 9.870 0.109 0.140 0.191 0.517 47.92 0.00 0.00 0.5220 217.60 19.73 8.480 8.540 8.570 8.720 8.270 7.270 7.389 8.380 8.420 8.470 8.470 8.160 7.120 7.254 0.8750 11.030 10.149 0.882 10.867 10.228 0.641 100.632
VANMET_231 2018-09-29 14:40:00 231 11739.0 8.380 8.380 8.430 8.170 8.400 91.500 93.800 7.091 7.233 14.150 13.950 11.470 9.870 0.109 0.140 0.191 0.517 47.28 0.00 0.00 0.5370 220.90 17.46 8.410 8.410 8.480 8.520 8.200 7.153 7.270 8.370 8.360 8.410 8.320 8.140 7.021 7.198 0.9280 11.008 10.081 0.936 10.852 10.179 0.673 99.288
VANMET_231 2018-09-29 14:35:00 231 11739.0 8.440 8.420 8.460 8.200 8.410 91.200 93.500 7.098 7.228 14.160 13.960 11.470 9.870 0.109 0.140 0.191 0.517 39.64 0.00 0.00 0.6290 232.40 14.42 8.470 8.460 8.500 8.510 8.240 7.166 7.256 8.400 8.400 8.440 8.330 8.170 7.061 7.208 0.9800 11.053 10.086 0.973 10.874 10.176 0.707 83.244
VANMET_231 2018-09-29 14:30:00 231 11739.0 8.480 8.460 8.520 8.270 8.450 90.900 93.100 7.091 7.222 14.160 13.960 11.460 9.870 0.109 0.140 0.191 0.517 47.58 0.00 0.00 0.7470 239.10 10.82 8.540 8.500 8.560 8.570 8.320 7.131 7.246 8.450 8.440 8.490 8.390 8.230 7.032 7.208 1.0780 11.083 10.081 1.009 10.926 10.172 0.754 99.918
VANMET_231 2018-09-29 14:25:00 231 11739.0 8.600 8.620 8.690 8.410 8.570 90.500 92.700 7.135 7.310 14.160 13.970 11.460 9.870 0.109 0.140 0.191 0.517 53.16 0.00 0.00 0.7450 235.40 18.03 8.640 8.700 8.770 8.770 8.460 7.276 7.387 8.540 8.510 8.570 8.390 8.340 7.028 7.218 1.1500 11.173 10.111 1.061 11.030 10.233 0.805 111.636
VANMET_231 2018-09-29 14:20:00 231 11739.0 8.610 8.620 8.690 8.410 8.590 90.400 92.700 7.130 7.304 14.160 13.970 11.460 9.870 0.109 0.140 0.191 0.517 53.19 0.00 0.00 0.1130 221.50 17.20 8.660 8.690 8.760 8.810 8.440 7.267 7.376 8.580 8.590 8.670 8.500 8.400 7.066 7.253 0.4310 11.181 10.108 1.073 11.030 10.229 0.805 111.699
VANMET_231 2018-09-29 14:15:00 231 11739.0 8.740 8.710 8.770 8.520 8.630 89.700 92.000 7.154 7.305 14.170 13.980 11.460 9.870 0.109 0.140 0.191 0.517 61.30 0.00 0.00 0.8400 237.70 16.69 8.810 8.840 8.890 8.880 8.600 7.314 7.424 8.660 8.600 8.680 8.440 8.420 7.032 7.217 1.6270 11.280 10.124 1.162 11.113 10.230 0.889 128.730
VANMET_231 2018-09-29 14:10:00 231 11739.0 8.830 8.820 8.870 8.600 8.700 89.300 91.800 7.178 7.348 14.170 13.980 11.460 9.870 0.109 0.140 0.191 0.517 63.01 0.00 0.00 0.4970 193.70 36.67 8.910 8.880 8.930 8.850 8.650 7.268 7.399 8.760 8.750 8.810 8.530 8.570 7.071 7.304 0.6990 11.349 10.141 1.214 11.173 10.260 0.916 132.321
VANMET_231 2018-09-29 14:05:00 231 11739.0 8.940 8.900 8.940 8.660 8.830 88.600 91.400 7.163 7.340 14.170 13.990 11.460 9.870 0.109 0.140 0.191 0.517 70.01 0.00 0.00 0.6880 187.20 30.25 8.980 8.960 9.000 8.980 8.720 7.284 7.398 8.890 8.840 8.890 8.640 8.630 7.078 7.282 1.2150 11.433 10.131 1.303 11.219 10.254 0.965 147.021
VANMET_231 2018-09-29 14:00:00 231 11739.0 8.980 8.960 9.020 8.720 8.930 88.700 91.300 7.226 7.386 14.180 13.990 11.460 9.870 0.109 0.140 0.191 0.517 74.47 0.00 0.00 0.7940 215.00 20.44 9.000 8.990 9.060 9.040 8.740 7.334 7.434 8.960 8.930 8.990 8.790 8.700 7.152 7.337 1.1560 11.464 10.174 1.295 11.264 10.287 0.980 156.387
VANMET_231 2018-09-29 13:55:00 231 11739.0 8.990 9.020 9.090 8.750 8.960 88.500 91.300 7.202 7.424 14.180 14.000 11.460 9.870 0.109 0.140 0.191 0.517 83.90 0.00 0.00 0.5760 210.80 24.45 9.010 9.110 9.180 9.280 8.780 7.361 7.527 8.970 8.970 9.030 8.730 8.690 7.090 7.354 1.3920 11.472 10.158 1.319 11.287 10.313 0.982 176.190
VANMET_231 2018-09-29 13:50:00 231 11739.0 8.880 8.930 8.960 8.600 8.930 89.300 91.900 7.230 7.358 14.190 14.000 11.460 9.870 0.109 0.140 0.191 0.517 113.20 0.00 0.00 0.6050 252.20 32.65 8.990 9.040 9.090 9.120 8.680 7.353 7.437 8.820 8.830 8.870 8.680 8.540 7.084 7.310 0.8890 11.387 10.177 1.218 11.173 10.267 0.905 237.720
VANMET_231 2018-09-29 13:45:00 231 11739.0 8.760 8.820 8.830 8.480 8.840 89.600 92.300 7.145 7.314 14.190 14.010 11.460 9.870 0.109 0.140 0.191 0.517 106.40 0.00 0.00 0.5610 217.20 36.00 8.820 8.880 8.910 9.020 8.550 7.251 7.354 8.680 8.750 8.750 8.760 8.400 7.084 7.272 1.3000 11.295 10.118 1.175 11.083 10.236 0.853 223.440
VANMET_231 2018-09-29 13:40:00 231 11739.0 8.590 8.560 8.580 8.330 8.560 89.900 92.400 7.033 7.175 14.190 14.010 11.460 9.870 0.109 0.140 0.191 0.517 126.10 0.00 0.00 0.6150 202.40 26.78 8.650 8.730 8.750 8.940 8.380 7.174 7.253 8.570 8.460 8.500 8.390 8.280 6.939 7.107 0.9210 11.166 10.041 1.128 10.970 10.139 0.834 264.810
VANMET_231 2018-09-29 13:35:00 231 11739.0 8.660 8.500 8.520 8.390 8.370 88.700 91.300 6.907 7.064 14.200 14.020 11.460 9.870 0.109 0.140 0.191 0.517 96.00 0.00 0.00 0.7300 216.10 20.57 8.830 8.660 8.690 8.520 8.550 6.992 7.136 8.550 8.420 8.450 8.250 8.290 6.841 7.007 1.4630 11.219 9.954 1.268 11.015 10.062 0.958 201.600
VANMET_231 2018-09-29 13:30:00 231 11739.0 8.990 8.850 8.870 8.690 8.710 87.500 90.200 7.035 7.183 14.200 14.020 11.450 9.870 0.109 0.140 0.191 0.517 105.10 0.00 0.00 1.0220 237.70 21.75 9.090 9.000 9.060 9.060 8.820 7.155 7.297 8.840 8.680 8.710 8.460 8.560 6.939 7.125 1.5550 11.472 10.042 1.434 11.242 10.145 1.102 220.710
VANMET_231 2018-09-29 13:25:00 231 11739.0 9.080 9.020 9.050 8.840 8.950 87.900 90.000 7.185 7.299 14.210 14.030 11.450 9.870 0.109 0.140 0.191 0.517 102.30 0.00 0.00 0.7380 231.90 25.01 9.100 9.050 9.100 9.070 8.870 7.281 7.342 9.050 8.980 8.980 8.770 8.800 7.110 7.265 1.2670 11.542 10.146 1.397 11.356 10.226 1.136 214.830
VANMET_231 2018-09-29 13:20:00 231 11739.0 9.250 9.120 9.180 8.980 8.970 86.600 89.100 7.129 7.285 14.210 14.030 11.450 9.870 0.109 0.140 0.191 0.517 75.68 0.00 0.00 0.6810 227.60 31.77 9.360 9.220 9.280 9.120 9.090 7.296 7.360 9.090 9.010 9.070 8.850 8.870 7.014 7.221 1.0910 11.675 10.107 1.564 11.464 10.216 1.250 158.928
VANMET_231 2018-09-29 13:15:00 231 11739.0 9.440 9.420 9.480 9.170 9.260 86.400 88.900 7.289 7.438 14.220 14.040 11.450 9.870 0.109 0.140 0.191 0.517 117.30 0.00 0.00 0.4820 195.00 23.84 9.500 9.540 9.570 9.730 9.200 7.596 7.542 9.390 9.240 9.300 8.920 9.120 7.076 7.299 0.9150 11.826 10.219 1.608 11.612 10.323 1.289 246.330
VANMET_231 2018-09-29 13:10:00 231 11739.0 9.380 9.380 9.420 9.090 9.290 86.500 88.900 7.239 7.364 14.220 14.040 11.450 9.870 0.109 0.140 0.191 0.517 172.00 0.00 0.00 0.4730 190.20 35.53 9.440 9.460 9.490 9.450 9.170 7.405 7.436 9.280 9.280 9.330 9.100 9.010 7.078 7.234 0.9540 11.778 10.184 1.590 11.550 10.271 1.282 361.200
VANMET_231 2018-09-29 13:05:00 231 11739.0 9.310 9.220 9.260 9.000 9.000 85.300 88.100 6.977 7.147 14.230 14.050 11.450 9.870 0.109 0.140 0.191 0.517 178.10 0.00 0.00 0.5050 174.40 17.88 9.440 9.320 9.340 9.190 9.050 7.238 7.255 9.250 9.140 9.200 8.830 8.970 6.768 7.044 0.8950 11.722 10.002 1.723 11.480 10.120 1.366 374.010
VANMET_231 2018-09-29 13:00:00 231 11739.0 9.430 9.370 9.390 9.050 9.150 85.900 88.800 7.195 7.309 14.230 14.050 11.450 9.870 0.109 0.140 0.191 0.517 182.30 0.00 0.00 0.4720 175.60 21.41 9.460 9.430 9.450 9.360 9.070 7.396 7.448 9.390 9.310 9.330 9.020 9.020 6.992 7.222 0.7640 11.818 10.153 1.666 11.519 10.233 1.290 382.830
VANMET_231 2018-09-29 12:55:00 231 11739.0 9.260 9.380 9.380 8.940 9.220 87.300 89.800 7.265 7.361 14.230 14.060 11.450 9.870 0.109 0.140 0.191 0.517 172.30 0.00 0.00 0.3800 176.60 30.93 9.370 9.440 9.420 9.350 9.010 7.417 7.417 9.120 9.300 9.300 9.100 8.850 7.139 7.293 0.6210 11.683 10.202 1.484 11.433 10.269 1.166 361.830
VANMET_231 2018-09-29 12:50:00 231 11739.0 9.000 9.180 9.200 8.750 8.940 87.300 90.600 7.019 7.309 14.240 14.070 11.450 9.870 0.109 0.140 0.191 0.517 196.80 0.00 0.00 0.4210 172.90 47.06 9.100 9.270 9.290 9.170 8.840 7.287 7.447 8.920 9.110 9.120 8.690 8.690 6.836 7.207 0.6140 11.480 10.031 1.458 11.287 10.233 1.061 413.280
VANMET_231 2018-09-29 12:45:00 231 11739.0 8.710 8.940 9.010 8.500 8.950 89.200 92.100 7.049 7.302 14.240 14.070 11.450 9.870 0.109 0.140 0.191 0.517 204.30 0.00 0.00 0.3780 182.20 40.93 8.870 9.120 9.160 9.100 8.680 7.204 7.414 8.550 8.780 8.850 8.780 8.360 6.869 7.241 0.9210 11.257 10.052 1.216 11.098 10.228 0.877 429.030
VANMET_231 2018-09-29 12:40:00 231 11739.0 8.400 8.560 8.620 8.160 8.450 89.700 93.100 6.822 7.116 14.250 14.080 11.450 9.870 0.109 0.140 0.191 0.517 217.40 0.00 0.00 0.2980 11.42 26.41 8.530 8.740 8.820 8.890 8.310 7.001 7.234 8.300 8.460 8.500 8.220 8.020 6.738 7.055 0.8490 11.023 9.896 1.135 10.844 10.098 0.748 456.540
VANMET_231 2018-09-29 12:35:00 231 11739.0 8.130 8.300 8.360 7.904 8.260 91.600 94.200 6.850 7.034 14.250 14.080 11.450 9.870 0.109 0.140 0.191 0.516 157.40 0.00 0.00 0.0690 179.50 4.72 8.310 8.450 8.500 8.460 8.030 7.015 7.138 8.000 8.170 8.250 8.100 7.799 6.708 6.960 0.3200 10.822 9.915 0.909 10.657 10.041 0.618 330.540
VANMET_231 2018-09-29 12:30:00 231 11739.0 7.906 8.080 8.170 7.703 8.000 91.800 94.800 6.664 6.928 14.260 14.090 11.440 9.870 0.109 0.140 0.191 0.516 115.70 0.00 0.00 0.4400 199.80 14.45 7.995 8.180 8.250 8.220 7.789 6.755 6.964 7.832 7.949 8.050 7.683 7.616 6.541 6.870 0.7840 10.659 9.789 0.874 10.512 9.969 0.547 242.970
VANMET_231 2018-09-29 12:25:00 231 11739.0 7.805 7.914 7.992 7.583 7.785 91.900 95.300 6.584 6.884 14.260 14.090 11.440 9.870 0.109 0.140 0.191 0.516 118.40 0.00 0.00 0.0590 255.20 3.87 7.835 7.938 8.040 7.929 7.623 6.670 6.928 7.769 7.850 7.914 7.623 7.526 6.513 6.840 0.3330 10.585 9.735 0.857 10.426 9.938 0.490 248.640
VANMET_231 2018-09-29 12:20:00 231 11739.0 7.816 7.820 7.861 7.514 7.684 91.800 95.300 6.569 6.813 14.260 14.100 11.440 9.870 0.109 0.140 0.191 0.516 118.50 0.00 0.00 0.3240 222.00 11.73 7.928 7.932 7.950 7.785 7.580 6.667 6.894 7.749 7.769 7.814 7.615 7.470 6.511 6.759 0.8690 10.593 9.725 0.869 10.377 9.890 0.488 248.850
VANMET_231 2018-09-29 12:15:00 231 11739.0 7.898 7.989 8.050 7.629 7.871 93.000 96.100 6.840 7.056 14.270 14.110 11.440 9.870 0.109 0.140 0.191 0.516 125.80 0.00 0.00 0.4940 159.10 48.49 7.952 8.040 8.100 8.190 7.659 6.956 7.117 7.822 7.937 7.956 7.757 7.573 6.660 6.897 1.1370 10.653 9.908 0.746 10.459 10.057 0.408 264.180
VANMET_231 2018-09-29 12:10:00 231 11739.0 7.726 7.776 7.881 7.496 7.824 93.600 96.600 6.765 6.992 14.270 14.110 11.440 9.870 0.109 0.140 0.191 0.516 108.10 0.00 0.00 0.3260 175.00 35.71 7.796 7.925 8.020 8.170 7.583 6.892 7.070 7.676 7.659 7.773 7.574 7.423 6.690 6.917 0.7320 10.528 9.857 0.674 10.364 10.012 0.352 227.010
VANMET_231 2018-09-29 12:05:00 231 11739.0 7.700 7.737 7.811 7.435 7.707 94.200 96.800 6.827 6.961 14.270 14.120 11.440 9.870 0.109 0.140 0.191 0.516 103.20 0.00 0.00 0.5770 210.50 18.59 7.726 7.793 7.859 7.836 7.450 6.963 6.993 7.666 7.672 7.778 7.571 7.416 6.726 6.921 1.0190 10.510 9.900 0.610 10.321 9.991 0.330 216.720
VANMET_231 2018-09-29 12:00:00 231 11739.0 7.539 7.612 7.710 7.319 7.579 94.300 96.800 6.683 6.848 14.280 14.120 11.440 9.870 0.109 0.140 0.191 0.516 101.80 0.00 0.00 0.2880 207.30 14.45 7.626 7.765 7.850 7.850 7.433 6.881 6.987 7.483 7.505 7.598 7.338 7.250 6.545 6.761 1.2610 10.395 9.802 0.593 10.240 9.914 0.328 213.780
VANMET_231 2018-09-29 11:55:00 231 11739.0 7.557 7.577 7.655 7.306 7.387 93.700 96.800 6.620 6.843 14.280 14.130 11.440 9.870 0.109 0.140 0.191 0.516 94.00 0.00 0.00 0.2040 215.40 19.47 7.599 7.603 7.686 7.505 7.330 6.666 6.886 7.532 7.537 7.618 7.294 7.283 6.567 6.808 0.9670 10.408 9.760 0.656 10.230 9.910 0.327 197.400
VANMET_231 2018-09-29 11:50:00 231 11739.0 7.571 7.673 7.722 7.348 7.716 94.400 97.200 6.740 6.939 14.290 14.140 11.440 9.870 0.109 0.140 0.191 0.516 84.20 0.00 0.00 0.5680 202.90 21.35 7.616 7.716 7.754 7.862 7.377 6.780 6.977 7.513 7.614 7.689 7.567 7.310 6.664 6.902 1.1500 10.418 9.841 0.583 10.260 9.976 0.287 176.820
VANMET_231 2018-09-29 11:45:00 231 11739.0 7.465 7.589 7.668 7.297 7.597 95.000 97.500 6.725 6.940 14.290 14.140 11.440 9.870 0.109 0.140 0.191 0.516 84.50 0.00 0.00 0.5800 209.50 27.77 7.506 7.620 7.709 7.777 7.330 6.773 6.972 7.406 7.558 7.638 7.446 7.253 6.695 6.914 0.7970 10.342 9.830 0.517 10.224 9.977 0.256 177.450
VANMET_231 2018-09-29 11:40:00 231 11739.0 7.316 7.399 7.477 7.115 7.500 95.100 97.500 6.589 6.753 14.290 14.150 11.440 9.870 0.109 0.140 0.191 0.516 74.18 0.00 0.00 0.3300 217.10 18.24 7.416 7.555 7.643 7.793 7.253 6.759 6.916 7.253 7.266 7.341 7.177 7.034 6.432 6.655 0.4900 10.237 9.739 0.502 10.097 9.849 0.252 155.778
VANMET_231 2018-09-29 11:35:00 231 11739.0 7.348 7.322 7.379 7.089 7.217 94.300 97.200 6.501 6.686 14.290 14.160 11.430 9.870 0.109 0.140 0.191 0.516 79.20 0.00 0.00 0.7040 221.40 21.66 7.439 7.444 7.504 7.356 7.183 6.569 6.791 7.273 7.241 7.324 7.148 7.037 6.439 6.637 1.9270 10.260 9.680 0.585 10.079 9.804 0.282 166.320
VANMET_231 2018-09-29 11:30:00 231 11739.0 7.452 7.533 7.607 7.261 7.412 94.500 97.700 6.626 6.923 14.300 14.160 11.430 9.870 0.109 0.140 0.191 0.516 75.82 0.00 0.00 0.3060 178.90 39.73 7.481 7.599 7.670 7.783 7.322 6.741 7.038 7.425 7.466 7.520 7.240 7.180 6.576 6.792 0.7970 10.333 9.764 0.568 10.199 9.965 0.235 159.222
VANMET_231 2018-09-29 11:25:00 231 11739.0 7.393 7.550 7.608 7.226 7.752 96.100 98.200 6.818 6.960 14.300 14.170 11.430 9.870 0.109 0.140 0.191 0.516 74.09 0.00 0.00 0.4290 214.60 10.31 7.485 7.613 7.676 7.895 7.309 6.901 7.036 7.282 7.381 7.448 7.534 7.093 6.719 6.816 0.6270 10.292 9.893 0.401 10.174 9.990 0.183 155.589
VANMET_231 2018-09-29 11:20:00 231 11739.0 7.233 7.304 7.382 7.079 7.358 96.300 98.100 6.685 6.803 14.300 14.180 11.430 9.870 0.109 0.140 0.191 0.516 72.48 0.00 0.00 0.6390 219.70 23.35 7.273 7.364 7.426 7.535 7.106 6.729 6.831 7.169 7.250 7.346 7.257 7.046 6.606 6.769 1.1560 10.179 9.803 0.377 10.072 9.883 0.191 152.208
VANMET_231 2018-09-29 11:15:00 231 11739.0 7.190 7.258 7.362 7.085 7.336 96.400 98.100 6.658 6.810 14.300 14.180 11.430 9.870 0.109 0.140 0.191 0.516 72.01 0.00 0.00 0.8540 224.20 15.96 7.239 7.314 7.402 7.451 7.113 6.734 6.842 7.149 7.195 7.296 7.162 7.043 6.612 6.760 1.5090 10.149 9.785 0.365 10.077 9.888 0.191 151.221
VANMET_231 2018-09-29 11:10:00 231 11739.0 7.160 7.186 7.294 7.019 7.193 96.000 97.900 6.578 6.716 14.310 14.190 11.430 9.870 0.109 0.140 0.191 0.516 72.52 0.00 0.00 0.5220 185.50 41.80 7.189 7.242 7.358 7.378 7.079 6.625 6.795 7.142 7.118 7.217 7.019 6.936 6.501 6.614 1.0130 10.129 9.731 0.405 10.031 9.824 0.211 152.292
VANMET_231 2018-09-29 11:05:00 231 11739.0 7.216 7.218 7.307 7.034 7.142 95.700 97.700 6.581 6.695 14.310 14.200 11.430 9.870 0.109 0.140 0.191 0.516 77.75 0.00 0.00 0.4910 175.70 57.90 7.259 7.320 7.402 7.345 7.096 6.651 6.760 7.175 7.134 7.235 6.942 6.966 6.511 6.618 0.8430 10.168 9.733 0.437 10.041 9.810 0.231 163.275
VANMET_231 2018-09-29 11:00:00 231 11739.0 7.215 7.294 7.395 7.106 7.216 95.600 97.800 6.571 6.781 14.310 14.200 11.430 9.870 0.109 0.140 0.191 0.516 71.26 0.00 0.00 0.4430 201.60 19.26 7.242 7.313 7.434 7.365 7.132 6.631 6.821 7.195 7.278 7.360 7.089 7.089 6.530 6.759 0.9540 10.167 9.727 0.447 10.091 9.868 0.222 149.646
VANMET_231 2018-09-29 10:55:00 231 11739.0 7.219 7.294 7.382 7.089 7.302 95.700 97.900 6.580 6.782 14.310 14.210 11.430 9.870 0.109 0.140 0.191 0.516 69.22 0.00 0.00 0.3640 169.20 19.08 7.238 7.319 7.413 7.408 7.112 6.608 6.808 7.198 7.265 7.350 7.196 7.065 6.535 6.762 0.5810 10.170 9.733 0.437 10.079 9.869 0.212 145.362
VANMET_231 2018-09-29 10:50:00 231 11739.0 7.208 7.276 7.369 7.072 7.309 95.800 98.000 6.587 6.788 14.320 14.220 11.430 9.870 0.109 0.140 0.191 0.516 59.26 0.00 0.00 0.5220 201.60 18.35 7.228 7.298 7.390 7.484 7.105 6.636 6.819 7.185 7.254 7.344 7.131 7.042 6.530 6.761 0.8690 10.162 9.737 0.427 10.068 9.873 0.201 124.446
VANMET_231 2018-09-29 10:45:00 231 11739.0 7.163 7.204 7.277 6.980 7.247 96.000 97.900 6.578 6.681 14.320 14.230 11.420 9.870 0.109 0.140 0.190 0.516 59.26 0.00 0.00 0.6090 195.50 47.76 7.194 7.268 7.360 7.428 7.028 6.643 6.746 7.131 7.156 7.215 7.084 6.948 6.532 6.640 1.2940 10.131 9.731 0.405 10.004 9.801 0.210 124.446
VANMET_231 2018-09-29 10:40:00 231 11739.0 7.137 7.196 7.279 6.995 7.249 96.100 97.900 6.569 6.687 14.320 14.230 11.420 9.870 0.109 0.140 0.190 0.516 59.86 0.00 0.00 0.6780 245.20 23.57 7.160 7.279 7.345 7.487 7.024 6.637 6.719 7.117 7.158 7.247 7.166 6.971 6.528 6.664 1.3000 10.113 9.725 0.394 10.015 9.805 0.210 125.706
VANMET_231 2018-09-29 10:35:00 231 11739.0 7.067 7.141 7.214 6.951 7.199 96.300 97.700 6.521 6.614 14.330 14.240 11.420 9.870 0.109 0.140 0.190 0.516 55.79 0.00 0.00 0.9210 217.40 17.20 7.120 7.248 7.324 7.444 6.991 6.608 6.678 7.027 7.065 7.132 7.001 6.904 6.455 6.559 1.2350 10.064 9.693 0.372 9.984 9.756 0.230 117.159
VANMET_231 2018-09-29 10:30:00 231 11739.0 7.035 7.086 7.172 6.933 7.117 95.900 97.300 6.428 6.546 14.330 14.250 11.420 9.870 0.109 0.140 0.190 0.516 51.42 0.00 0.00 0.7040 234.90 28.70 7.063 7.177 7.254 7.321 6.967 6.495 6.613 7.007 7.061 7.148 7.020 6.904 6.390 6.474 1.0190 10.042 9.631 0.412 9.972 9.710 0.269 107.982
VANMET_231 2018-09-29 10:25:00 231 11739.0 7.137 7.095 7.156 6.955 7.030 94.900 96.600 6.383 6.456 14.330 14.250 11.420 9.870 0.109 0.140 0.190 0.516 47.91 0.00 0.00 0.9620 241.60 24.50 7.226 7.211 7.278 7.174 7.046 6.424 6.501 7.060 7.036 7.103 6.941 6.877 6.352 6.426 1.4770 10.113 9.601 0.516 9.987 9.650 0.340 100.611
VANMET_231 2018-09-29 10:20:00 231 11739.0 7.398 7.354 7.405 7.171 7.252 93.400 95.900 6.414 6.563 14.340 14.260 11.420 9.870 0.109 0.140 0.190 0.516 46.65 0.00 0.00 0.8560 234.50 18.47 7.531 7.563 7.571 7.479 7.282 6.521 6.651 7.236 7.195 7.272 7.076 7.063 6.335 6.488 1.4570 10.295 9.622 0.679 10.136 9.721 0.416 97.965
VANMET_231 2018-09-29 10:15:00 231 11739.0 7.559 7.621 7.653 7.339 7.636 93.100 95.700 6.528 6.699 14.340 14.270 11.420 9.870 0.109 0.140 0.190 0.516 43.51 0.00 0.00 0.9590 236.00 29.30 7.604 7.655 7.701 7.809 7.375 6.560 6.744 7.528 7.577 7.598 7.442 7.295 6.489 6.638 1.9340 10.409 9.698 0.718 10.254 9.813 0.441 91.371
VANMET_231 2018-09-29 10:10:00 231 11739.0 7.585 7.601 7.649 7.346 7.709 93.000 95.800 6.527 6.727 14.350 14.280 11.420 9.870 0.109 0.140 0.190 0.516 50.31 0.00 0.00 0.6490 228.20 24.12 7.617 7.651 7.715 7.828 7.375 6.567 6.776 7.568 7.568 7.576 7.558 7.312 6.501 6.681 1.0520 10.428 9.697 0.730 10.258 9.832 0.431 105.651
VANMET_231 2018-09-29 10:05:00 231 11739.0 7.696 7.630 7.611 7.377 7.533 92.700 95.400 6.589 6.693 14.360 14.280 11.420 9.870 0.109 0.140 0.190 0.516 53.29 0.00 0.00 0.9450 238.80 27.21 7.787 7.762 7.742 7.714 7.468 6.676 6.774 7.604 7.563 7.529 7.418 7.308 6.530 6.635 1.8690 10.507 9.739 0.767 10.280 9.809 0.473 111.909
VANMET_231 2018-09-29 10:00:00 231 11739.0 7.827 7.746 7.726 7.494 7.631 92.200 94.800 6.647 6.726 14.360 14.290 11.420 9.870 0.109 0.140 0.190 0.516 52.34 0.00 0.00 0.9550 227.10 28.91 7.953 7.872 7.817 7.799 7.594 6.725 6.793 7.767 7.658 7.647 7.466 7.441 6.593 6.682 1.5940 10.601 9.778 0.827 10.363 9.831 0.539 109.914
VANMET_231 2018-09-29 09:55:00 231 11739.0 8.080 8.000 7.994 7.774 7.889 91.000 93.600 6.711 6.818 14.370 14.300 11.410 9.870 0.109 0.140 0.190 0.516 61.61 0.00 0.00 1.2370 229.90 20.53 8.220 8.220 8.250 8.290 7.933 6.828 6.926 7.970 7.865 7.812 7.705 7.611 6.674 6.736 1.8420 10.786 9.821 0.971 10.563 9.893 0.676 129.381
VANMET_231 2018-09-29 09:50:00 231 11739.0 8.210 8.180 8.200 7.930 8.150 90.400 93.100 6.737 6.883 14.380 14.310 11.410 9.870 0.109 0.140 0.190 0.516 74.52 0.00 0.00 0.8390 231.00 31.22 8.250 8.220 8.260 8.270 7.963 6.793 6.948 8.180 8.140 8.150 7.979 7.886 6.678 6.798 1.4500 10.881 9.838 1.045 10.676 9.938 0.737 156.492
VANMET_231 2018-09-29 09:45:00 231 11739.0 8.400 8.360 8.340 8.110 8.180 89.200 91.900 6.730 6.884 14.390 14.310 11.410 9.870 0.109 0.140 0.190 0.516 97.20 0.00 0.00 1.1680 240.40 22.68 8.460 8.460 8.450 8.380 8.210 6.800 6.949 8.250 8.160 8.150 7.951 7.950 6.650 6.796 1.4180 11.023 9.834 1.190 10.808 9.938 0.875 204.120
VANMET_231 2018-09-29 09:40:00 231 11739.0 8.530 8.580 8.580 8.260 8.430 88.600 91.600 6.769 6.976 14.400 14.320 11.410 9.870 0.109 0.140 0.190 0.516 121.30 0.00 0.00 0.8760 227.10 22.26 8.590 8.690 8.710 8.740 8.310 6.882 7.057 8.470 8.490 8.470 8.270 8.210 6.716 6.928 1.4050 11.120 9.860 1.268 10.918 10.001 0.917 254.730
VANMET_231 2018-09-29 09:35:00 231 11739.0 8.460 8.540 8.560 8.190 8.600 89.600 92.500 6.864 7.058 14.410 14.330 11.410 9.870 0.109 0.140 0.190 0.516 161.60 0.00 0.00 0.6020 187.80 39.76 8.600 8.710 8.730 8.750 8.310 6.995 7.111 8.300 8.300 8.340 8.380 8.010 6.779 6.988 1.2670 11.068 9.925 1.151 10.867 10.058 0.815 339.360
VANMET_231 2018-09-29 09:30:00 231 11739.0 8.320 8.260 8.270 8.000 8.150 89.600 92.500 6.726 6.867 14.420 14.340 11.410 9.870 0.109 0.140 0.190 0.516 161.30 0.00 0.00 0.9950 217.70 27.71 8.400 8.380 8.370 8.350 8.060 6.803 6.967 8.240 8.130 8.140 7.939 7.930 6.601 6.800 1.3650 10.963 9.831 1.140 10.727 9.927 0.805 338.730
VANMET_231 2018-09-29 09:25:00 231 11739.0 8.370 8.360 8.410 8.130 8.280 89.400 91.900 6.739 6.891 14.430 14.340 11.410 9.870 0.109 0.140 0.190 0.516 193.00 0.00 0.00 1.2350 240.10 15.62 8.410 8.410 8.460 8.370 8.190 6.810 6.946 8.330 8.300 8.310 8.150 8.060 6.650 6.833 2.1100 11.000 9.840 1.166 10.822 9.943 0.877 405.300
VANMET_231 2018-09-29 09:20:00 231 11739.0 8.420 8.370 8.430 8.160 8.150 88.800 91.400 6.680 6.848 14.440 14.350 11.410 9.870 0.109 0.140 0.190 0.516 201.00 0.00 0.00 1.0340 247.60 22.61 8.530 8.470 8.510 8.310 8.230 6.802 6.905 8.360 8.300 8.370 7.943 8.110 6.546 6.774 1.8360 11.038 9.800 1.236 10.844 9.914 0.933 422.100
VANMET_231 2018-09-29 09:15:00 231 11739.0 8.650 8.620 8.610 8.330 8.190 87.600 90.500 6.715 6.873 14.450 14.360 11.410 9.870 0.109 0.140 0.190 0.516 214.40 0.00 0.00 0.9590 233.00 18.06 8.720 8.710 8.720 8.530 8.450 6.872 6.972 8.540 8.490 8.500 8.050 8.220 6.612 6.801 1.8950 11.211 9.824 1.390 10.970 9.931 1.042 450.240
VANMET_231 2018-09-29 09:10:00 231 11739.0 8.670 8.620 8.650 8.430 8.360 87.900 90.400 6.786 6.960 14.470 14.370 11.410 9.870 0.109 0.140 0.190 0.516 254.70 0.00 0.00 1.0550 233.50 22.76 8.700 8.670 8.690 8.560 8.460 6.951 7.035 8.630 8.560 8.580 8.150 8.390 6.678 6.873 1.7440 11.226 9.872 1.358 11.045 9.990 1.060 534.870
VANMET_231 2018-09-29 09:05:00 231 11739.0 8.790 8.680 8.710 8.580 8.360 86.900 89.100 6.730 6.889 14.480 14.380 11.410 9.870 0.109 0.140 0.190 0.516 261.60 0.00 0.00 1.1470 226.80 23.24 8.890 8.820 8.860 8.570 8.740 6.870 6.963 8.630 8.510 8.530 8.160 8.410 6.667 6.835 1.5810 11.318 9.834 1.483 11.158 9.942 1.216 549.360
VANMET_231 2018-09-29 09:00:00 231 11739.0 9.100 9.060 9.180 9.150 8.780 85.500 86.600 6.807 7.034 14.490 14.380 11.400 9.870 0.109 0.140 0.190 0.516 338.80 0.00 0.00 1.4060 225.40 21.06 9.180 9.210 9.400 9.130 9.370 7.003 7.227 8.920 8.790 8.850 8.300 8.780 6.654 6.839 2.1490 11.558 9.886 1.676 11.597 10.041 1.554 711.480
VANMET_231 2018-09-29 08:55:00 231 11739.0 8.820 8.920 9.130 9.070 8.820 87.300 87.900 6.840 7.177 14.500 14.390 11.400 9.870 0.109 0.140 0.190 0.516 488.60 0.00 0.00 0.7850 200.00 24.27 9.110 9.190 9.450 9.110 9.350 7.008 7.301 8.590 8.650 8.810 8.520 8.830 6.716 7.081 1.2670 11.341 9.908 1.440 11.534 10.140 1.396 1026.060
VANMET_231 2018-09-29 08:50:00 231 11739.0 8.490 8.550 8.730 8.690 8.400 88.300 89.100 6.666 6.997 14.520 14.400 11.400 9.870 0.109 0.140 0.190 0.516 422.70 0.00 0.00 0.6630 188.50 39.63 8.550 8.650 8.830 8.580 8.830 6.771 7.145 8.440 8.430 8.630 8.100 8.530 6.506 6.885 1.5090 11.090 9.791 1.298 11.242 10.016 1.225 887.670
VANMET_231 2018-09-29 08:45:00 231 11739.0 8.360 8.340 8.530 8.430 8.230 88.100 89.500 6.510 6.801 14.530 14.400 11.400 9.870 0.109 0.140 0.190 0.516 369.90 0.00 0.00 0.7920 198.50 34.66 8.410 8.500 8.670 8.420 8.520 6.626 6.935 8.310 8.220 8.450 8.040 8.380 6.416 6.710 1.6660 10.993 9.686 1.308 11.045 9.882 1.160 776.790
VANMET_231 2018-09-29 08:40:00 231 11739.0 8.330 8.230 8.500 8.470 8.020 87.300 88.200 6.351 6.637 14.540 14.410 11.400 9.870 0.109 0.140 0.190 0.516 355.60 0.00 0.00 0.8980 205.60 29.65 8.440 8.330 8.610 8.180 8.620 6.457 6.771 8.250 8.110 8.380 7.865 8.360 6.230 6.545 1.6330 10.970 9.580 1.393 11.075 9.771 1.307 746.760
VANMET_231 2018-09-29 08:35:00 231 11739.0 8.590 8.530 8.820 8.680 8.210 85.300 87.100 6.273 6.664 14.560 14.420 11.400 9.870 0.109 0.140 0.190 0.516 343.30 0.00 0.00 0.7920 204.00 20.10 8.670 8.600 8.900 8.310 8.740 6.353 6.735 8.450 8.340 8.630 8.010 8.620 6.199 6.584 1.3650 11.166 9.529 1.641 11.234 9.789 1.449 720.930
VANMET_231 2018-09-29 08:30:00 231 11739.0 8.680 8.590 8.830 8.580 8.180 84.600 87.600 6.241 6.651 14.570 14.430 11.400 9.870 0.109 0.140 0.190 0.516 332.40 0.00 0.00 0.7580 204.50 25.12 8.730 8.650 8.880 8.240 8.620 6.299 6.755 8.560 8.540 8.740 8.120 8.430 6.142 6.577 1.1630 11.234 9.508 1.730 11.158 9.780 1.384 698.040
VANMET_231 2018-09-29 08:25:00 231 11739.0 8.390 8.260 8.450 8.260 7.942 85.800 88.700 6.156 6.504 14.590 14.430 11.400 9.870 0.109 0.140 0.190 0.516 322.10 0.00 0.00 0.7260 198.30 20.23 8.510 8.490 8.680 8.160 8.380 6.260 6.643 8.320 8.150 8.360 7.790 8.210 6.071 6.423 1.1300 11.015 9.452 1.564 10.918 9.682 1.234 676.410
VANMET_231 2018-09-29 08:20:00 231 11739.0 8.430 8.270 8.480 8.330 7.826 85.000 87.900 6.065 6.445 14.600 14.440 11.400 9.870 0.109 0.140 0.190 0.516 308.50 0.00 0.00 0.8970 206.80 15.94 8.610 8.490 8.710 7.912 8.450 6.162 6.579 8.330 8.150 8.350 7.776 8.220 6.019 6.390 1.2540 11.045 9.393 1.657 10.970 9.643 1.327 647.850
VANMET_231 2018-09-29 08:15:00 231 11739.0 8.580 8.500 8.700 8.420 7.936 84.800 88.000 6.172 6.551 14.610 14.450 11.400 9.870 0.109 0.140 0.190 0.516 291.00 0.00 0.00 0.6550 206.70 15.48 8.660 8.620 8.810 7.977 8.470 6.220 6.615 8.530 8.460 8.660 7.902 8.390 6.109 6.500 1.3980 11.158 9.462 1.696 11.038 9.713 1.325 611.100
VANMET_231 2018-09-29 08:10:00 231 11739.0 8.410 8.510 8.690 8.260 7.969 86.100 89.600 6.229 6.655 14.630 14.460 11.400 9.870 0.109 0.140 0.190 0.516 276.10 0.00 0.00 0.3160 171.30 16.44 8.640 8.690 8.860 8.080 8.480 6.295 6.703 8.090 8.190 8.380 7.855 7.965 6.114 6.540 0.7320 11.030 9.500 1.533 10.918 9.783 1.136 579.810
VANMET_231 2018-09-29 08:05:00 231 11739.0 7.946 7.912 8.100 7.777 7.585 87.700 91.100 6.045 6.421 14.650 14.470 11.400 9.870 0.109 0.140 0.190 0.516 270.00 0.00 0.00 0.5540 198.20 14.32 8.100 8.140 8.350 7.828 7.945 6.124 6.532 7.841 7.796 7.959 7.470 7.685 5.994 6.362 0.7250 10.688 9.380 1.315 10.565 9.627 0.940 567.000
VANMET_231 2018-09-29 08:00:00 231 11739.0 7.693 7.699 7.847 7.529 7.478 89.500 92.000 6.077 6.327 14.660 14.470 11.390 9.870 0.109 0.140 0.190 0.516 242.60 0.00 0.00 0.4670 199.40 17.40 7.835 7.784 7.948 7.628 7.659 6.147 6.402 7.595 7.661 7.807 7.377 7.399 6.026 6.242 0.7190 10.505 9.401 1.103 10.388 9.564 0.831 509.460
VANMET_231 2018-09-29 07:55:00 231 11739.0 7.485 7.574 7.775 7.355 7.293 90.500 92.700 6.031 6.256 14.670 14.480 11.390 9.870 0.109 0.140 0.190 0.516 156.00 0.00 0.00 0.3550 155.50 21.47 7.579 7.658 7.819 7.524 7.389 6.063 6.297 7.379 7.452 7.684 7.207 7.312 6.006 6.223 0.6990 10.357 9.371 0.984 10.265 9.518 0.749 327.600
VANMET_231 2018-09-29 07:50:00 231 11739.0 7.278 7.346 7.590 7.276 6.976 91.400 93.100 5.974 6.241 14.690 14.490 11.390 9.870 0.109 0.140 0.190 0.516 227.90 0.00 0.00 0.4850 217.90 22.40 7.352 7.421 7.663 7.164 7.326 6.032 6.289 7.159 7.313 7.522 6.858 7.182 5.908 6.171 0.7450 10.211 9.334 0.878 10.209 9.508 0.704 478.590
VANMET_231 2018-09-29 07:45:00 231 11739.0 7.022 7.114 7.321 7.039 6.973 92.300 93.600 5.862 6.087 14.700 14.490 11.390 9.870 0.109 0.140 0.190 0.516 178.40 0.00 0.00 0.3470 195.10 21.60 7.152 7.293 7.492 7.100 7.146 5.975 6.200 6.936 6.950 7.210 6.770 6.943 5.726 5.938 0.6340 10.033 9.262 0.773 10.045 9.407 0.643 374.640
VANMET_231 2018-09-29 07:40:00 231 11739.0 6.954 6.982 7.222 6.950 6.839 92.200 93.400 5.783 5.961 14.720 14.500 11.390 9.870 0.109 0.140 0.190 0.516 134.80 0.00 0.00 0.5230 203.70 31.14 7.023 7.064 7.331 6.997 7.003 5.869 6.019 6.896 6.924 7.117 6.661 6.893 5.707 5.889 1.1430 9.986 9.211 0.779 9.984 9.325 0.659 283.080
VANMET_231 2018-09-29 07:35:00 231 11739.0 6.907 6.895 7.135 6.890 6.567 91.700 93.000 5.654 5.841 14.740 14.510 11.390 9.870 0.109 0.140 0.190 0.516 147.40 0.00 0.00 0.3210 186.90 16.05 6.952 6.992 7.254 6.723 6.919 5.704 5.903 6.876 6.833 7.073 6.491 6.866 5.613 5.807 0.8490 9.954 9.129 0.826 9.943 9.248 0.696 309.540
VANMET_231 2018-09-29 07:30:00 231 11739.0 6.925 6.924 7.153 6.929 6.724 91.100 92.400 5.585 5.782 14.750 14.520 11.390 9.870 0.109 0.140 0.190 0.516 143.80 0.00 0.00 0.3440 173.10 16.71 6.942 7.007 7.272 6.812 6.958 5.650 5.806 6.912 6.889 7.083 6.650 6.899 5.522 5.731 0.6140 9.966 9.085 0.887 9.969 9.210 0.758 301.980
VANMET_231 2018-09-29 07:25:00 231 11739.0 7.016 7.027 7.235 7.103 6.823 90.100 91.100 5.517 5.748 14.770 14.520 11.390 9.870 0.109 0.140 0.190 0.516 127.20 0.00 0.00 0.6050 200.50 27.77 7.088 7.113 7.340 6.992 7.207 5.546 5.818 6.905 6.876 7.071 6.653 6.982 5.489 5.715 0.9930 10.029 9.042 0.993 10.089 9.189 0.898 267.120
VANMET_231 2018-09-29 07:20:00 231 11739.0 6.995 6.999 7.190 7.125 6.975 90.400 91.400 5.543 5.824 14.780 14.530 11.390 9.870 0.109 0.140 0.190 0.516 141.00 0.00 0.00 0.3080 185.20 10.10 7.071 7.114 7.340 7.039 7.214 5.581 5.883 6.928 6.858 7.030 6.897 7.027 5.495 5.729 0.5360 10.015 9.059 0.961 10.104 9.237 0.869 296.100
VANMET_231 2018-09-29 07:15:00 231 11739.0 6.971 6.837 6.989 7.017 6.781 90.100 91.100 5.458 5.677 14.800 14.540 11.380 9.870 0.109 0.140 0.190 0.516 124.60 0.00 0.00 0.2130 177.40 12.57 7.044 6.873 7.021 6.890 7.044 5.486 5.726 6.921 6.821 6.975 6.741 6.994 5.433 5.622 0.4380 9.998 9.005 0.990 10.030 9.144 0.893 261.660
VANMET_231 2018-09-29 07:10:00 231 11739.0 7.248 7.091 7.221 7.201 6.997 88.300 89.600 5.445 5.618 14.810 14.550 11.380 9.870 0.109 0.140 0.190 0.516 68.63 0.00 0.00 0.6110 211.80 15.51 7.395 7.259 7.388 7.351 7.326 5.465 5.653 7.067 6.885 7.022 6.750 7.051 5.425 5.572 0.8560 10.190 8.997 1.192 10.157 9.106 1.056 144.123
VANMET_231 2018-09-29 07:05:00 231 11739.0 7.499 7.346 7.472 7.410 7.309 86.800 88.500 5.453 5.633 14.830 14.550 11.380 9.870 0.109 0.140 0.190 0.516 53.97 0.00 0.00 0.4060 192.40 19.28 7.627 7.473 7.582 7.362 7.517 5.487 5.653 7.395 7.265 7.395 7.251 7.342 5.417 5.610 0.5490 10.366 9.002 1.368 10.304 9.116 1.185 113.337
VANMET_231 2018-09-29 07:00:00 231 11739.0 7.712 7.553 7.651 7.559 7.574 85.800 87.400 5.488 5.613 14.850 14.560 11.380 9.870 0.109 0.140 0.190 0.516 60.09 0.00 0.00 0.2010 220.50 10.74 7.763 7.577 7.670 7.688 7.584 5.528 5.647 7.630 7.483 7.598 7.354 7.511 5.449 5.572 0.5290 10.518 9.024 1.494 10.409 9.103 1.312 126.189
VANMET_231 2018-09-29 06:55:00 231 11739.0 7.807 7.618 7.713 7.674 7.428 84.900 86.300 5.428 5.545 14.860 14.570 11.380 9.870 0.109 0.140 0.190 0.516 70.52 0.00 0.00 0.1600 166.00 22.73 7.883 7.697 7.803 7.510 7.806 5.498 5.590 7.760 7.573 7.658 7.369 7.580 5.346 5.491 0.5030 10.587 8.987 1.599 10.491 9.060 1.437 148.092
VANMET_231 2018-09-29 06:50:00 231 11739.0 8.050 7.868 7.979 7.973 7.789 83.100 84.100 5.360 5.460 14.880 14.570 11.380 9.870 0.109 0.140 0.190 0.516 66.39 0.00 0.00 0.6470 212.00 11.09 8.150 7.968 8.090 8.010 8.080 5.394 5.503 7.926 7.715 7.821 7.492 7.823 5.310 5.386 0.8170 10.764 8.944 1.819 10.707 9.007 1.702 139.419
VANMET_231 2018-09-29 06:45:00 231 11739.0 8.190 7.995 8.130 8.150 7.963 81.600 82.400 5.236 5.337 14.900 14.580 11.380 9.870 0.109 0.140 0.190 0.516 55.02 0.00 0.00 0.3590 201.00 7.15 8.260 8.050 8.190 8.000 8.250 5.309 5.396 8.140 7.967 8.090 7.916 8.090 5.170 5.266 0.5490 10.867 8.867 1.999 10.837 8.930 1.907 115.542
VANMET_231 2018-09-29 06:40:00 231 11739.0 8.480 8.220 8.350 8.430 8.080 79.270 80.200 5.106 5.215 14.910 14.590 11.380 9.870 0.109 0.140 0.190 0.516 41.88 0.00 0.00 0.3330 211.10 19.02 8.670 8.410 8.520 8.230 8.600 5.170 5.268 8.280 8.070 8.200 7.959 8.250 5.018 5.150 0.5950 11.083 8.787 2.297 11.045 8.854 2.187 87.948
VANMET_231 2018-09-29 06:35:00 231 11739.0 8.870 8.590 8.710 8.800 8.390 76.740 77.590 5.013 5.109 14.930 14.590 11.380 9.870 0.109 0.140 0.190 0.516 38.37 0.00 0.00 0.0880 186.30 0.60 9.010 8.730 8.870 8.560 8.980 5.068 5.172 8.710 8.420 8.540 8.220 8.630 4.950 5.052 0.4510 11.379 8.731 2.647 11.326 8.789 2.538 80.577
VANMET_231 2018-09-29 06:30:00 231 11739.0 9.320 9.060 9.190 9.310 8.910 73.980 74.640 4.926 5.050 14.950 14.600 11.380 9.870 0.109 0.140 0.190 0.516 35.70 0.00 0.00 0.6070 208.10 18.20 9.560 9.310 9.440 9.190 9.550 4.998 5.091 9.050 8.750 8.890 8.510 9.030 4.865 4.995 0.9210 11.730 8.678 3.052 11.722 8.753 2.973 74.970
VANMET_231 2018-09-29 06:25:00 231 11739.0 9.800 9.560 9.680 9.770 9.540 70.940 71.450 4.785 4.862 14.960 14.610 11.380 9.870 0.109 0.140 0.190 0.516 25.71 0.00 0.00 0.3030 211.50 5.59 9.960 9.730 9.840 9.860 9.900 4.883 4.985 9.600 9.340 9.470 9.220 9.580 4.693 4.746 0.7380 12.115 8.593 3.521 12.091 8.639 3.452 53.991
VANMET_231 2018-09-29 06:20:00 231 11739.0 10.060 9.830 9.940 10.010 9.820 69.020 69.490 4.642 4.692 14.980 14.620 11.370 9.870 0.109 0.140 0.190 0.516 15.63 0.00 0.00 0.1550 100.50 31.73 10.190 9.970 10.090 9.870 10.200 4.794 4.762 9.960 9.730 9.840 9.780 9.900 4.508 4.634 0.4970 12.328 8.507 3.819 12.287 8.537 3.749 32.823
VANMET_231 2018-09-29 06:15:00 231 11739.0 10.360 10.170 10.280 10.400 10.180 66.950 67.250 4.501 4.601 15.000 14.620 11.370 9.870 0.109 0.140 0.190 0.516 7.28 0.00 0.00 0.3820 206.40 11.43 10.500 10.320 10.450 10.420 10.570 4.542 4.634 10.200 9.990 10.100 9.880 10.210 4.459 4.583 0.7320 12.578 8.423 4.157 12.612 8.483 4.130 15.288
VANMET_231 2018-09-29 06:10:00 231 11739.0 10.620 10.460 10.580 10.700 10.550 65.360 65.260 4.406 4.457 15.020 14.630 11.370 9.870 0.109 0.140 0.190 0.516 1.15 0.00 0.00 0.0000 0.00 0.00 10.740 10.590 10.720 10.670 10.820 4.497 4.585 10.520 10.340 10.460 10.440 10.600 4.218 4.287 0.0000 12.798 8.368 4.433 12.867 8.398 4.470 2.425
VANMET_231 2018-09-29 06:05:00 231 11739.0 10.840 10.730 10.870 10.990 10.850 62.800 62.680 4.038 4.151 15.030 14.640 11.370 9.870 0.109 0.140 0.190 0.516 0.00 0.00 0.00 0.0000 0.00 0.00 10.910 10.870 11.020 11.070 11.170 4.269 4.298 10.730 10.600 10.730 10.680 10.840 3.686 4.050 0.0000 12.987 8.154 4.831 13.117 8.219 4.895 0.000
VANMET_231 2018-09-29 06:00:00 231 11739.0 11.000 10.990 11.150 11.260 11.180 60.630 59.960 3.693 3.775 15.050 14.640 11.370 9.870 0.109 0.140 0.190 0.516 0.00 0.00 0.00 0.2640 193.40 32.60 11.060 11.090 11.260 11.360 11.370 3.905 4.011 10.910 10.880 11.040 11.090 11.160 3.522 3.566 0.7770 13.126 7.958 5.168 13.355 8.004 5.347 0.000
VANMET_231 2018-09-29 05:55:00 231 11739.0 11.100 11.170 11.370 11.470 11.520 61.350 58.140 3.952 3.538 15.070 14.650 11.370 9.870 0.109 0.140 0.190 0.516 0.00 0.00 0.00 0.2260 249.60 75.45 11.120 11.210 11.420 11.630 11.520 4.657 4.062 11.070 11.100 11.280 11.240 11.400 3.438 3.124 0.8100 13.214 8.105 5.107 13.542 7.872 5.669 0.000
VANMET_231 2018-09-29 05:50:00 231 11739.0 11.110 11.210 11.440 11.560 11.680 61.680 57.120 4.034 3.369 15.090 14.660 11.370 9.870 0.109 0.140 0.190 0.516 0.00 0.00 0.00 0.3850 314.90 77.29 11.130 11.240 11.450 11.780 11.600 4.759 3.773 11.080 11.180 11.420 11.590 11.520 3.457 3.174 0.7710 13.222 8.152 5.067 13.623 7.778 5.841 0.000
VANMET_231 2018-09-29 05:45:00 231 11739.0 11.130 11.210 11.420 11.500 11.640 60.850 56.730 3.862 3.208 15.100 14.660 11.370 9.870 0.109 0.140 0.190 0.516 0.00 0.00 0.00 0.4830 15.22 32.82 11.160 11.250 11.510 11.790 11.580 4.594 4.335 11.090 11.130 11.300 11.420 11.360 3.198 2.400 1.6200 13.240 8.054 5.183 13.569 7.690 5.871 0.000
VANMET_231 2018-09-29 05:40:00 231 11739.0 11.210 11.230 11.400 11.490 11.590 59.100 56.490 3.524 3.149 15.120 14.670 11.370 9.870 0.109 0.140 0.190 0.516 0.00 0.00 0.00 0.2840 27.23 30.83 11.260 11.280 11.450 11.710 11.530 4.256 3.666 11.170 11.160 11.330 11.440 11.400 2.771 2.879 0.6080 13.310 7.864 5.444 13.560 7.658 5.900 0.000
VANMET_231 2018-09-29 05:35:00 231 11739.0 11.290 11.340 11.510 11.610 11.640 57.870 55.630 3.302 3.046 15.140 14.680 11.370 9.870 0.109 0.140 0.190 0.516 0.00 0.00 0.00 0.3450 75.08 14.43 11.340 11.390 11.580 11.710 11.700 4.273 3.637 11.250 11.290 11.450 11.610 11.530 3.000 2.849 0.6140 13.381 7.741 5.638 13.668 7.602 6.064 0.000
VANMET_231 2018-09-29 05:30:00 231 11739.0 11.380 11.490 11.680 11.830 11.810 58.510 54.570 3.543 2.978 15.160 14.680 11.360 9.870 0.109 0.140 0.190 0.516 0.00 0.00 0.00 0.0890 33.37 26.21 11.440 11.550 11.760 11.990 11.950 4.502 3.468 11.340 11.410 11.600 11.700 11.720 2.883 2.793 0.5100 13.461 7.874 5.585 13.868 7.565 6.300 0.000
VANMET_231 2018-09-29 05:25:00 231 11739.0 11.460 11.590 11.800 11.990 12.070 57.330 52.520 3.329 2.590 15.180 14.690 11.360 9.870 0.109 0.140 0.190 0.516 0.00 0.00 0.00 0.0570 255.10 28.57 11.490 11.640 11.840 12.150 12.040 3.948 3.408 11.430 11.560 11.770 11.970 11.950 2.867 2.260 0.4250 13.533 7.756 5.774 14.015 7.360 6.654 0.000
VANMET_231 2018-09-29 05:20:00 231 11739.0 11.440 11.630 11.830 12.040 12.130 56.740 52.040 3.160 2.504 15.200 14.690 11.360 9.870 0.109 0.140 0.190 0.516 0.00 0.00 0.00 0.3880 37.51 28.37 11.490 11.650 11.860 12.230 12.070 3.858 2.836 11.390 11.610 11.810 12.030 12.000 2.753 2.187 0.7450 13.515 7.664 5.847 14.062 7.315 6.744 0.000
VANMET_231 2018-09-29 05:15:00 231 11739.0 11.330 11.490 11.670 11.860 12.210 57.230 52.660 3.180 2.503 15.220 14.700 11.360 9.870 0.109 0.140 0.190 0.516 0.00 0.00 0.00 0.3300 304.20 40.51 11.400 11.610 11.820 12.450 12.030 4.055 2.792 11.240 11.310 11.450 12.000 11.660 2.557 2.290 0.8040 13.417 7.675 5.738 13.896 7.314 6.578 0.000
VANMET_231 2018-09-29 05:10:00 231 11739.0 11.200 11.260 11.410 11.560 11.840 58.490 54.260 3.364 2.646 15.240 14.710 11.360 9.870 0.109 0.140 0.190 0.516 0.00 0.00 0.00 0.4490 326.70 15.79 11.230 11.300 11.440 12.050 11.650 4.286 3.191 11.180 11.240 11.390 11.660 11.510 2.576 2.252 0.7840 13.302 7.775 5.522 13.623 7.389 6.231 0.000
VANMET_231 2018-09-29 05:05:00 231 11739.0 11.190 11.240 11.390 11.500 11.710 61.330 57.290 4.039 3.359 15.250 14.710 11.360 9.870 0.109 0.140 0.190 0.516 0.00 0.00 0.00 0.4320 355.20 23.93 11.210 11.250 11.400 11.780 11.530 4.529 3.853 11.170 11.230 11.380 11.660 11.480 3.605 2.908 0.8950 13.293 8.155 5.140 13.569 7.773 5.795 0.000
VANMET_231 2018-09-29 05:00:00 231 11739.0 11.200 11.240 11.370 11.460 11.660 61.180 57.940 4.008 3.482 15.270 14.720 11.360 9.870 0.109 0.140 0.190 0.516 0.00 0.00 0.00 0.4330 356.20 20.74 11.220 11.250 11.390 11.780 11.490 4.481 3.883 11.180 11.220 11.350 11.610 11.450 3.556 2.941 0.8620 13.302 8.137 5.164 13.533 7.840 5.692 0.000
VANMET_231 2018-09-29 04:55:00 231 11739.0 11.250 11.250 11.410 11.500 11.610 61.430 60.130 4.109 4.043 15.290 14.730 11.360 9.870 0.109 0.140 0.190 0.516 0.00 0.00 0.00 0.5150 23.72 26.14 11.290 11.300 11.470 11.660 11.570 4.604 4.617 11.200 11.230 11.370 11.540 11.460 3.658 3.690 0.8300 13.346 8.195 5.147 13.569 8.157 5.410 0.000
VANMET_231 2018-09-29 04:50:00 231 11739.0 11.310 11.330 11.500 11.580 11.720 60.260 58.760 3.893 3.793 15.310 14.730 11.360 9.870 0.109 0.140 0.190 0.516 0.00 0.00 0.00 0.4350 59.44 22.69 11.340 11.350 11.510 11.770 11.620 4.255 3.991 11.280 11.300 11.480 11.670 11.550 3.687 3.689 0.8430 13.399 8.071 5.325 13.641 8.014 5.625 0.000
VANMET_231 2018-09-29 04:45:00 231 11739.0 11.350 11.390 11.560 11.700 11.840 59.060 57.210 3.646 3.524 15.330 14.740 11.360 9.870 0.109 0.140 0.190 0.516 0.00 0.00 0.00 0.0000 0.00 0.00 11.370 11.410 11.590 11.920 11.760 3.932 3.636 11.330 11.350 11.520 11.740 11.630 3.410 3.425 0.0000 13.435 7.932 5.500 13.749 7.864 5.883 0.000
VANMET_231 2018-09-29 04:40:00 231 11739.0 11.400 11.450 11.650 11.800 11.860 60.430 56.550 4.020 3.459 15.350 14.740 11.360 9.870 0.109 0.140 0.190 0.516 0.00 0.00 0.00 0.0000 0.00 0.00 11.460 11.510 11.710 11.930 11.860 4.746 4.207 11.370 11.400 11.590 11.760 11.760 3.475 3.246 0.0000 13.479 8.144 5.334 13.841 7.828 6.014 0.000
VANMET_231 2018-09-29 04:35:00 231 11739.0 11.450 11.560 11.760 11.890 11.990 61.580 55.990 4.340 3.394 15.370 14.750 11.350 9.870 0.109 0.140 0.190 0.516 0.00 0.00 0.00 0.0920 67.86 3.87 11.470 11.590 11.800 12.110 11.910 4.886 4.201 11.430 11.520 11.720 11.930 11.870 3.702 3.011 0.3790 13.524 8.329 5.196 13.923 7.792 6.128 0.000
VANMET_231 2018-09-29 04:30:00 231 11739.0 11.420 11.550 11.750 11.870 12.040 59.410 54.640 3.794 3.039 15.390 14.750 11.350 9.870 0.109 0.140 0.190 0.516 0.00 0.00 0.00 0.1220 350.50 36.56 11.450 11.600 11.800 12.190 11.920 4.697 3.269 11.400 11.520 11.730 11.900 11.840 2.988 2.812 0.4970 13.497 8.015 5.478 13.905 7.598 6.307 0.000
VANMET_231 2018-09-29 04:25:00 231 11739.0 11.430 11.520 11.710 11.830 12.000 60.010 54.530 3.952 2.967 15.410 14.760 11.350 9.870 0.109 0.140 0.190 0.516 0.00 0.00 0.00 0.1570 316.00 4.51 11.470 11.540 11.730 12.090 11.850 4.602 3.172 11.400 11.510 11.700 11.940 11.810 3.613 2.804 0.4380 13.506 8.105 5.401 13.868 7.560 6.306 0.000
VANMET_231 2018-09-29 04:20:00 231 11739.0 11.470 11.580 11.780 11.870 11.970 61.540 55.750 4.346 3.314 15.430 14.770 11.350 9.870 0.109 0.140 0.190 0.516 0.00 0.00 0.00 0.2770 23.43 26.77 11.490 11.610 11.800 12.030 11.900 5.023 3.781 11.450 11.530 11.740 11.900 11.840 3.672 3.051 0.6860 13.542 8.332 5.208 13.905 7.748 6.153 0.000
VANMET_231 2018-09-29 04:15:00 231 11739.0 11.490 11.600 11.800 11.890 12.000 60.010 56.270 4.010 3.468 15.450 14.770 11.350 9.870 0.109 0.140 0.190 0.516 0.00 0.00 0.00 0.4750 41.87 26.68 11.510 11.610 11.830 12.070 11.920 4.599 3.762 11.480 11.570 11.780 11.910 11.860 3.685 3.209 0.6340 13.560 8.138 5.423 13.923 7.833 6.089 0.000
VANMET_231 2018-09-29 04:10:00 231 11739.0 11.490 11.610 11.800 11.890 12.030 60.030 56.140 4.013 3.436 15.470 14.780 11.350 9.870 0.109 0.140 0.190 0.516 0.00 0.00 0.00 0.3750 25.53 42.45 11.520 11.650 11.870 12.160 11.930 4.551 3.601 11.460 11.580 11.750 11.930 11.860 3.476 3.353 0.7250 13.560 8.140 5.420 13.923 7.815 6.107 0.000
VANMET_231 2018-09-29 04:05:00 231 11739.0 11.480 11.620 11.780 11.910 12.080 59.320 55.720 3.834 3.345 15.490 14.780 11.350 9.870 0.109 0.140 0.190 0.516 0.00 0.00 0.00 0.2810 5.43 2.30 11.520 11.640 11.800 12.140 11.920 4.653 3.547 11.460 11.580 11.760 11.950 11.880 3.290 3.213 0.6530 13.551 8.038 5.512 13.941 7.765 6.173 0.000
VANMET_231 2018-09-29 04:00:00 231 11739.0 11.500 11.550 11.730 11.900 12.110 58.830 55.700 3.731 3.339 15.520 14.790 11.350 9.870 0.109 0.140 0.190 0.516 0.00 0.00 0.00 0.0450 71.00 0.09 11.530 11.580 11.760 12.170 11.920 4.275 3.505 11.460 11.540 11.720 11.960 11.880 3.392 3.217 0.2940 13.569 7.980 5.586 13.932 7.762 6.172 0.000
VANMET_231 2018-09-29 03:55:00 231 11739.0 11.590 11.610 11.800 11.950 11.980 61.380 56.090 4.420 3.481 15.540 14.790 11.350 9.870 0.109 0.140 0.190 0.516 0.00 0.00 0.00 0.4430 19.89 20.48 11.630 11.690 11.870 12.090 12.020 4.978 3.796 11.540 11.550 11.730 11.870 11.890 3.842 3.319 0.6790 13.650 8.376 5.272 13.978 7.840 6.138 0.000
VANMET_231 2018-09-29 03:50:00 231 11739.0 11.650 11.720 11.900 12.060 12.130 59.290 54.990 3.990 3.308 15.560 14.800 11.350 9.870 0.109 0.140 0.190 0.516 0.00 0.00 0.00 0.2220 15.84 1.04 11.690 11.760 11.950 12.180 12.120 4.509 3.424 11.620 11.690 11.870 12.100 12.010 3.600 3.249 0.7640 13.704 8.126 5.579 14.080 7.745 6.337 0.000
VANMET_231 2018-09-29 03:45:00 231 11739.0 11.750 11.800 11.990 12.170 12.240 59.300 54.290 4.082 3.224 15.580 14.800 11.350 9.870 0.109 0.140 0.190 0.516 0.00 0.00 0.00 0.0000 0.00 0.00 11.790 11.840 12.030 12.310 12.210 4.470 3.401 11.700 11.770 11.950 12.180 12.120 3.515 3.052 0.0000 13.795 8.179 5.615 14.182 7.699 6.483 0.000
VANMET_231 2018-09-29 03:40:00 231 11739.0 11.820 11.870 12.080 12.270 12.270 59.200 54.550 4.125 3.387 15.600 14.810 11.350 9.870 0.109 0.140 0.190 0.516 0.00 0.00 0.00 0.1230 68.45 22.50 11.880 11.920 12.160 12.340 12.350 4.863 3.884 11.770 11.800 12.020 12.170 12.210 3.475 3.249 0.3590 13.859 8.204 5.654 14.276 7.788 6.489 0.000
VANMET_231 2018-09-29 03:35:00 231 11739.0 11.900 11.980 12.230 12.450 12.490 58.080 53.710 3.926 3.329 15.620 14.810 11.340 9.870 0.109 0.140 0.190 0.516 0.00 0.00 0.00 0.3480 31.00 15.45 11.950 12.010 12.280 12.590 12.500 4.502 3.834 11.870 11.940 12.170 12.300 12.350 3.295 3.131 0.8620 13.932 8.090 5.840 14.446 7.756 6.687 0.000
VANMET_231 2018-09-29 03:30:00 231 11739.0 11.990 12.080 12.340 12.560 12.530 59.020 53.640 4.244 3.418 15.640 14.820 11.340 9.870 0.109 0.140 0.190 0.516 0.00 0.00 0.00 0.0680 65.63 1.55 12.040 12.140 12.400 12.620 12.630 4.701 4.039 11.950 12.010 12.290 12.440 12.480 3.823 3.196 0.5360 14.015 8.273 5.743 14.551 7.805 6.746 0.000
VANMET_231 2018-09-29 03:25:00 231 11739.0 12.030 12.170 12.410 12.640 12.710 58.740 53.290 4.208 3.401 15.660 14.820 11.340 9.870 0.109 0.140 0.190 0.516 0.00 0.00 0.00 0.1410 38.20 6.68 12.050 12.210 12.450 12.880 12.680 4.963 3.757 12.010 12.140 12.390 12.570 12.610 3.544 3.107 0.6140 14.052 8.252 5.798 14.627 7.796 6.832 0.000
VANMET_231 2018-09-29 03:20:00 231 11739.0 12.060 12.200 12.440 12.650 12.690 59.520 53.960 4.427 3.580 15.680 14.830 11.340 9.870 0.109 0.140 0.190 0.516 0.00 0.00 0.00 0.2520 4.06 31.91 12.090 12.230 12.470 12.750 12.670 5.034 3.711 12.030 12.150 12.390 12.570 12.610 4.026 3.416 0.4900 14.080 8.380 5.700 14.637 7.895 6.739 0.000
VANMET_231 2018-09-29 03:15:00 231 11739.0 12.090 12.250 12.510 12.700 12.750 58.730 53.840 4.262 3.599 15.700 14.830 11.340 9.870 0.109 0.140 0.190 0.516 0.00 0.00 0.00 0.2510 45.84 36.41 12.100 12.270 12.520 12.840 12.730 4.875 4.002 12.070 12.220 12.470 12.620 12.660 3.752 3.303 0.4310 14.108 8.283 5.822 14.685 7.906 6.779 0.000
VANMET_231 2018-09-29 03:10:00 231 11739.0 12.030 12.260 12.520 12.690 12.870 58.560 53.460 4.168 3.491 15.730 14.830 11.340 9.870 0.109 0.140 0.190 0.516 0.00 0.00 0.00 0.5400 5.45 42.68 12.090 12.290 12.560 13.010 12.740 4.785 3.723 11.950 12.190 12.470 12.710 12.560 3.670 3.302 1.0580 14.052 8.229 5.823 14.675 7.845 6.830 0.000
VANMET_231 2018-09-29 03:05:00 231 11739.0 11.900 12.060 12.250 12.410 12.710 60.360 54.820 4.469 3.588 15.750 14.840 11.340 9.870 0.109 0.140 0.190 0.516 0.00 0.00 0.00 0.5040 352.40 49.21 11.940 12.190 12.470 13.030 12.540 5.134 3.848 11.870 11.990 12.170 12.550 12.350 3.842 3.178 1.0000 13.932 8.405 5.523 14.408 7.899 6.510 0.000
VANMET_231 2018-09-29 03:00:00 231 11739.0 11.890 11.940 12.150 12.340 12.460 61.790 56.040 4.802 3.830 15.770 14.840 11.340 9.870 0.109 0.140 0.190 0.516 0.00 0.00 0.00 0.6400 3.77 18.80 11.940 11.980 12.180 12.600 12.360 5.356 4.331 11.860 11.920 12.130 12.350 12.310 4.132 3.551 0.8950 13.923 8.603 5.320 14.342 8.035 6.305 0.000
VANMET_231 2018-09-29 02:55:00 231 11739.0 11.970 11.990 12.230 12.410 12.440 60.750 55.150 4.631 3.673 15.790 14.850 11.340 9.870 0.109 0.140 0.190 0.516 0.00 0.00 0.00 0.5510 11.37 14.27 12.020 12.070 12.290 12.500 12.480 5.417 4.128 11.920 11.940 12.170 12.390 12.350 4.023 3.471 0.7910 13.997 8.501 5.494 14.408 7.947 6.462 0.000
VANMET_231 2018-09-29 02:50:00 231 11739.0 12.040 12.140 12.360 12.530 12.500 59.300 53.990 4.357 3.480 15.810 14.850 11.340 9.870 0.109 0.140 0.190 0.516 0.00 0.00 0.00 0.3460 46.90 24.96 12.070 12.180 12.410 12.560 12.590 5.016 3.701 12.020 12.080 12.310 12.410 12.490 3.589 3.292 0.6660 14.062 8.339 5.723 14.522 7.839 6.682 0.000
VANMET_231 2018-09-29 02:45:00 231 11739.0 12.080 12.220 12.440 12.610 12.660 58.820 54.180 4.276 3.609 15.830 14.850 11.340 9.870 0.109 0.140 0.190 0.516 0.00 0.00 0.00 0.2660 48.96 15.02 12.110 12.260 12.490 12.760 12.650 4.854 3.966 12.060 12.190 12.420 12.530 12.580 3.775 3.483 0.7380 14.099 8.292 5.806 14.599 7.911 6.689 0.000
VANMET_231 2018-09-29 02:40:00 231 11739.0 12.120 12.330 12.550 12.710 12.810 58.720 54.170 4.293 3.691 15.850 14.860 11.340 9.870 0.109 0.140 0.190 0.516 0.00 0.00 0.00 0.1290 36.91 17.82 12.150 12.350 12.570 12.920 12.740 4.986 4.075 12.080 12.260 12.490 12.610 12.640 3.869 3.611 0.6270 14.136 8.301 5.835 14.695 7.957 6.735 0.000
VANMET_231 2018-09-29 02:35:00 231 11739.0 12.140 12.350 12.570 12.700 12.860 58.090 54.160 4.149 3.688 15.880 14.860 11.330 9.870 0.109 0.140 0.190 0.516 0.00 0.00 0.00 0.3650 6.54 6.68 12.160 12.400 12.620 12.920 12.730 4.861 3.748 12.120 12.310 12.540 12.780 12.680 3.779 3.632 0.6730 14.154 8.218 5.932 14.685 7.955 6.732 0.000
VANMET_231 2018-09-29 02:30:00 231 11739.0 12.070 12.380 12.580 12.650 12.830 57.880 54.330 4.041 3.685 15.900 14.860 11.330 9.870 0.109 0.140 0.190 0.516 0.00 0.00 0.00 0.2410 34.65 26.21 12.120 12.430 12.610 12.880 12.690 4.397 3.712 12.040 12.330 12.540 12.770 12.610 3.772 3.646 0.4700 14.089 8.156 5.934 14.637 7.954 6.685 0.000
VANMET_231 2018-09-29 02:25:00 231 11739.0 12.070 12.300 12.500 12.570 12.750 58.770 54.800 4.254 3.724 15.920 14.870 11.330 9.870 0.109 0.140 0.190 0.516 0.00 0.00 0.00 0.5500 30.54 18.64 12.110 12.340 12.550 12.820 12.610 4.769 3.871 12.040 12.280 12.460 12.710 12.530 3.758 3.666 0.6930 14.089 8.279 5.809 14.560 7.976 6.581 0.000
VANMET_231 2018-09-29 02:20:00 231 11739.0 12.080 12.220 12.380 12.490 12.660 59.000 55.820 4.317 3.917 15.940 14.870 11.330 9.870 0.109 0.140 0.190 0.516 0.00 0.00 0.00 0.6470 18.03 15.42 12.100 12.300 12.450 12.740 12.520 4.860 4.102 12.040 12.160 12.310 12.630 12.460 4.049 3.831 0.8750 14.099 8.315 5.780 14.484 8.085 6.399 0.000
VANMET_231 2018-09-29 02:15:00 231 11739.0 12.090 12.090 12.270 12.480 12.570 60.370 57.020 4.657 4.210 15.960 14.870 11.330 9.870 0.109 0.140 0.190 0.516 0.00 0.00 0.00 0.5160 346.70 17.47 12.140 12.150 12.310 12.650 12.510 5.062 4.363 12.040 12.070 12.260 12.490 12.460 4.216 4.065 0.7770 14.108 8.516 5.591 14.475 8.253 6.221 0.000
VANMET_231 2018-09-29 02:10:00 231 11739.0 12.200 12.170 12.410 12.580 12.570 61.920 58.100 5.126 4.574 15.980 14.880 11.330 9.870 0.109 0.140 0.190 0.516 0.00 0.00 0.00 0.5360 11.19 13.07 12.250 12.260 12.490 12.680 12.660 5.693 5.249 12.130 12.090 12.320 12.390 12.490 4.632 4.378 0.7450 14.211 8.800 5.411 14.570 8.467 6.105 0.000
VANMET_231 2018-09-29 02:05:00 231 11739.0 12.310 12.260 12.530 12.730 12.680 60.400 56.670 4.874 4.356 16.010 14.880 11.330 9.870 0.109 0.140 0.190 0.516 0.00 0.00 0.00 0.6220 12.30 5.06 12.430 12.340 12.610 12.730 12.810 5.472 4.405 12.240 12.230 12.490 12.650 12.660 4.400 4.316 0.8040 14.314 8.646 5.668 14.714 8.338 6.376 0.000
VANMET_231 2018-09-29 02:00:00 231 11739.0 12.510 12.540 12.740 12.930 12.860 59.090 55.950 4.745 4.361 16.030 14.880 11.330 9.870 0.109 0.140 0.190 0.516 0.00 0.00 0.00 0.3110 35.80 13.51 12.550 12.670 12.860 13.090 13.040 5.304 4.472 12.430 12.360 12.630 12.670 12.810 4.302 4.323 0.5950 14.503 8.569 5.933 14.908 8.341 6.567 0.000
VANMET_231 2018-09-29 01:55:00 231 11739.0 12.520 12.670 12.870 13.060 13.200 57.580 55.370 4.385 4.330 16.050 14.880 11.330 9.870 0.109 0.140 0.190 0.516 0.00 0.00 0.00 0.0000 0.00 0.00 12.570 12.680 12.890 13.330 13.090 4.766 4.365 12.490 12.640 12.840 13.100 13.020 4.270 4.234 0.0000 14.513 8.355 6.156 15.035 8.323 6.710 0.000
VANMET_231 2018-09-29 01:50:00 231 11739.0 12.590 12.790 12.950 13.090 13.120 57.830 54.560 4.514 4.155 16.070 14.890 11.330 9.870 0.109 0.140 0.190 0.516 0.00 0.00 0.00 0.4030 8.41 5.43 12.610 12.880 13.030 13.290 13.160 5.263 4.228 12.550 12.660 12.850 12.910 13.020 4.158 4.105 0.6990 14.579 8.431 6.148 15.065 8.221 6.845 0.000
VANMET_231 2018-09-29 01:45:00 231 11739.0 12.580 12.890 13.040 13.170 13.380 56.710 54.240 4.232 4.141 16.090 14.890 11.330 9.870 0.109 0.140 0.190 0.516 0.00 0.00 0.00 0.5340 358.80 6.03 12.610 12.910 13.080 13.470 13.180 4.406 4.187 12.560 12.870 13.030 13.300 13.160 4.122 4.097 0.7060 14.570 8.266 6.307 15.144 8.213 6.930 0.000
VANMET_231 2018-09-29 01:40:00 231 11739.0 12.550 12.880 13.050 13.140 13.300 57.080 54.150 4.293 4.092 16.120 14.890 11.330 9.870 0.109 0.140 0.190 0.516 0.00 0.00 0.00 0.3520 13.35 7.02 12.600 12.920 13.080 13.330 13.180 4.493 4.133 12.510 12.810 13.020 13.280 13.110 4.036 4.060 0.6400 14.541 8.301 6.241 15.114 8.185 6.930 0.000
VANMET_231 2018-09-29 01:35:00 231 11739.0 12.590 12.860 13.040 13.120 13.310 58.430 54.370 4.658 4.131 16.140 14.890 11.320 9.870 0.109 0.140 0.190 0.516 0.00 0.00 0.00 0.6130 345.10 11.52 12.620 12.910 13.070 13.390 13.130 4.905 4.212 12.540 12.810 13.020 13.240 13.100 4.417 4.050 0.8490 14.579 8.517 6.061 15.094 8.207 6.888 0.000
VANMET_231 2018-09-29 01:30:00 231 11739.0 12.610 12.870 13.040 13.100 13.240 58.470 54.680 4.695 4.189 16.160 14.890 11.320 9.870 0.109 0.140 0.190 0.516 0.00 0.00 0.00 0.6680 2.50 2.64 12.660 12.890 13.060 13.260 13.130 4.951 4.252 12.580 12.840 13.010 13.200 13.070 4.294 4.142 0.8890 14.599 8.539 6.063 15.075 8.241 6.832 0.000
VANMET_231 2018-09-29 01:25:00 231 11739.0 12.580 12.800 12.970 13.060 13.200 58.280 55.070 4.611 4.260 16.180 14.900 11.320 9.870 0.109 0.140 0.190 0.516 0.00 0.00 0.00 0.7370 7.26 0.18 12.600 12.840 13.010 13.250 13.090 4.929 4.318 12.550 12.770 12.950 13.170 13.040 4.241 4.179 0.8360 14.570 8.489 6.079 15.035 8.282 6.755 0.000
VANMET_231 2018-09-29 01:20:00 231 11739.0 12.610 12.760 12.940 13.080 13.140 58.970 55.490 4.813 4.381 16.200 14.900 11.320 9.870 0.109 0.140 0.190 0.516 0.00 0.00 0.00 0.5180 6.93 3.17 12.650 12.780 12.960 13.170 13.110 5.007 4.482 12.570 12.740 12.930 13.120 13.060 4.588 4.313 0.6730 14.599 8.609 5.990 15.055 8.353 6.701 0.000
VANMET_231 2018-09-29 01:15:00 231 11739.0 12.710 12.790 12.980 13.120 13.200 59.410 56.270 5.013 4.621 16.230 14.900 11.320 9.870 0.109 0.140 0.190 0.516 0.00 0.00 0.00 0.6240 0.46 3.38 12.770 12.840 13.030 13.260 13.180 5.235 4.742 12.640 12.770 12.960 13.160 13.080 4.660 4.508 0.8230 14.695 8.731 5.965 15.094 8.495 6.601 0.000
VANMET_231 2018-09-29 01:10:00 231 11739.0 12.820 12.860 13.070 13.220 13.250 59.340 56.570 5.102 4.785 16.250 14.900 11.320 9.870 0.109 0.140 0.190 0.516 0.00 0.00 0.00 0.6880 5.74 2.90 12.900 12.900 13.100 13.280 13.260 5.414 4.870 12.760 12.840 13.040 13.220 13.190 4.841 4.718 0.8230 14.801 8.785 6.018 15.193 8.593 6.598 0.000
VANMET_231 2018-09-29 01:05:00 231 11739.0 12.970 12.970 13.180 13.340 13.350 58.750 56.640 5.096 4.921 16.270 14.900 11.320 9.870 0.109 0.140 0.190 0.516 0.00 0.00 0.00 0.5190 4.34 6.06 13.020 13.040 13.260 13.470 13.430 5.394 5.004 12.910 12.910 13.110 13.280 13.260 4.942 4.828 0.6470 14.947 8.781 6.166 15.313 8.675 6.640 0.000
VANMET_231 2018-09-29 01:00:00 231 11739.0 13.060 13.120 13.290 13.460 13.530 58.450 56.010 5.104 4.876 16.290 14.900 11.320 9.870 0.109 0.140 0.190 0.516 0.00 0.00 0.00 0.6370 7.16 3.20 13.100 13.170 13.330 13.600 13.510 5.318 4.923 13.020 13.050 13.270 13.480 13.430 4.920 4.792 0.7510 15.035 8.786 6.247 15.433 8.647 6.789 0.000
VANMET_231 2018-09-29 00:55:00 231 11739.0 13.130 13.210 13.380 13.570 13.730 57.580 55.340 4.960 4.804 16.320 14.900 11.320 9.870 0.109 0.140 0.190 0.516 0.00 0.00 0.00 0.3110 344.30 31.80 13.210 13.250 13.430 13.900 13.610 5.148 4.929 13.090 13.180 13.340 13.570 13.520 4.840 4.648 0.5810 15.104 8.698 6.407 15.544 8.604 6.942 0.000
VANMET_231 2018-09-29 00:50:00 231 11739.0 13.260 13.370 13.520 13.650 13.730 57.090 54.850 4.956 4.751 16.340 14.900 11.320 9.870 0.109 0.140 0.190 0.516 0.00 0.00 0.00 0.3090 340.40 47.19 13.280 13.450 13.580 13.800 13.690 5.399 4.784 13.210 13.250 13.430 13.650 13.610 4.706 4.669 0.7190 15.233 8.696 6.537 15.625 8.572 7.055 0.000
VANMET_231 2018-09-29 00:45:00 231 11739.0 13.190 13.400 13.560 13.670 13.760 56.660 54.770 4.785 4.750 16.360 14.900 11.320 9.870 0.109 0.140 0.190 0.516 0.00 0.00 0.00 0.8660 6.25 0.97 13.240 13.440 13.580 13.790 13.690 5.076 4.788 13.160 13.330 13.540 13.700 13.650 4.727 4.727 0.9280 15.164 8.593 6.572 15.646 8.572 7.076 0.000
VANMET_231 2018-09-29 00:40:00 231 11739.0 13.280 13.370 13.570 13.690 13.660 57.810 54.990 5.154 4.825 16.380 14.900 11.320 9.870 0.109 0.140 0.190 0.516 0.00 0.00 0.00 0.6780 4.48 26.82 13.370 13.430 13.610 13.690 13.730 5.201 4.882 13.180 13.330 13.540 13.650 13.660 5.091 4.757 0.8100 15.253 8.817 6.435 15.666 8.617 7.051 0.000
VANMET_231 2018-09-29 00:35:00 231 11739.0 13.380 13.540 13.710 13.780 13.810 56.950 54.870 5.039 4.877 16.410 14.900 11.320 9.870 0.109 0.140 0.190 0.516 0.00 0.00 0.00 0.7620 7.53 7.34 13.410 13.590 13.740 13.900 13.820 5.260 4.995 13.360 13.440 13.620 13.670 13.730 4.833 4.737 0.9540 15.353 8.746 6.609 15.758 8.648 7.112 0.000
VANMET_231 2018-09-29 00:30:00 231 11739.0 13.260 13.570 13.750 13.820 13.920 56.020 53.890 4.691 4.656 16.430 14.900 11.320 9.870 0.109 0.140 0.190 0.516 0.00 0.00 0.00 0.8440 8.63 0.36 13.350 13.590 13.750 13.940 13.840 4.829 4.748 13.180 13.540 13.740 13.900 13.800 4.617 4.596 0.9540 15.233 8.536 6.699 15.799 8.515 7.285 0.000
VANMET_231 2018-09-29 00:25:00 231 11739.0 13.210 13.540 13.770 13.850 13.940 57.090 53.420 4.911 4.561 16.450 14.900 11.310 9.870 0.109 0.140 0.190 0.516 0.00 0.00 0.00 0.6910 4.08 3.36 13.250 13.570 13.790 13.990 13.890 5.267 4.612 13.160 13.510 13.750 13.900 13.820 4.580 4.513 0.8950 15.183 8.669 6.515 15.830 8.459 7.373 0.000
VANMET_231 2018-09-29 00:20:00 231 11739.0 13.280 13.550 13.790 13.870 13.990 55.990 52.980 4.695 4.459 16.470 14.900 11.310 9.870 0.109 0.140 0.190 0.516 0.00 0.00 0.00 0.7090 4.86 1.96 13.300 13.570 13.800 14.010 13.880 5.097 4.517 13.250 13.530 13.780 13.940 13.860 4.459 4.406 0.9280 15.253 8.539 6.713 15.850 8.399 7.453 0.000
VANMET_231 2018-09-29 00:15:00 231 11739.0 13.320 13.560 13.800 13.900 13.980 55.980 52.750 4.730 4.419 16.500 14.900 11.310 9.870 0.109 0.140 0.190 0.516 0.00 0.00 0.00 0.6630 3.84 0.07 13.350 13.590 13.830 14.010 13.920 4.825 4.446 13.290 13.540 13.790 13.960 13.870 4.624 4.393 0.7710 15.293 8.560 6.732 15.881 8.375 7.504 0.000
VANMET_231 2018-09-29 00:10:00 231 11739.0 13.360 13.650 13.890 13.940 14.050 55.730 52.680 4.707 4.438 16.520 14.900 11.310 9.870 0.109 0.140 0.190 0.516 0.00 0.00 0.00 0.5870 3.74 1.26 13.390 13.700 13.930 14.100 13.960 4.825 4.455 13.340 13.590 13.840 13.980 13.910 4.593 4.416 0.7910 15.333 8.546 6.788 15.923 8.386 7.535 0.000
VANMET_231 2018-09-29 00:05:00 231 11739.0 13.420 13.720 13.940 13.960 14.130 55.800 52.770 4.778 4.482 16.540 14.900 11.310 9.860 0.109 0.140 0.190 0.516 0.00 0.00 0.00 0.7390 5.83 0.98 13.450 13.740 13.950 14.170 13.970 4.950 4.511 13.380 13.690 13.930 14.080 13.940 4.627 4.448 0.9280 15.393 8.588 6.804 15.943 8.412 7.530 0.000
VANMET_231 2018-09-29 00:00:00 231 11739.0 13.430 13.670 13.890 13.930 14.140 55.210 53.000 4.638 4.518 16.560 14.900 11.310 9.860 0.109 0.140 0.190 0.516 0.00 0.00 0.00 0.7630 7.99 1.71 13.460 13.730 13.940 14.170 13.970 4.793 4.594 13.410 13.590 13.820 14.100 13.900 4.443 4.494 0.9280 15.403 8.505 6.899 15.912 8.433 7.479 0.000
VANMET_231 2018-09-28 23:55:00 231 11739.0 13.440 13.590 13.810 13.900 14.050 55.440 53.290 4.702 4.571 16.590 14.900 11.310 9.870 0.109 0.140 0.190 0.516 0.00 0.00 0.00 0.6170 3.34 1.08 13.480 13.630 13.830 14.080 13.920 4.793 4.591 13.410 13.570 13.790 14.000 13.890 4.584 4.546 0.7910 15.413 8.543 6.868 15.881 8.465 7.418 0.000
VANMET_231 2018-09-28 23:50:00 231 11739.0 13.560 13.700 13.870 13.940 14.020 55.120 52.840 4.735 4.485 16.610 14.900 11.310 9.860 0.109 0.140 0.190 0.516 0.00 0.00 0.00 0.7560 9.12 2.40 13.610 13.760 13.900 14.070 13.960 5.089 4.589 13.500 13.630 13.830 13.980 13.920 4.344 4.392 0.9470 15.534 8.563 6.972 15.923 8.414 7.509 0.000
VANMET_231 2018-09-28 23:45:00 231 11739.0 13.530 13.800 13.940 13.990 14.080 54.020 52.400 4.423 4.409 16.630 14.900 11.310 9.860 0.109 0.140 0.190 0.516 0.00 0.00 0.00 0.8900 11.75 0.94 13.580 13.820 13.980 14.130 14.030 4.467 4.439 13.470 13.760 13.900 14.050 13.950 4.361 4.372 0.9540 15.504 8.378 7.129 15.974 8.369 7.604 0.000
VANMET_231 2018-09-28 23:40:00 231 11739.0 13.470 13.820 14.000 14.050 14.170 55.190 52.230 4.668 4.418 16.650 14.890 11.310 9.860 0.109 0.140 0.190 0.516 0.00 0.00 0.00 0.7820 8.74 3.60 13.500 13.840 14.010 14.200 14.080 4.933 4.471 13.420 13.800 13.980 14.130 14.000 4.388 4.367 0.9800 15.443 8.523 6.920 16.037 8.375 7.661 0.000
VANMET_231 2018-09-28 23:35:00 231 11739.0 13.500 13.830 14.000 14.060 14.240 54.990 52.620 4.648 4.534 16.680 14.890 11.310 9.860 0.109 0.140 0.190 0.516 0.00 0.00 0.00 0.3820 348.30 15.40 13.520 13.860 14.020 14.250 14.080 4.835 4.609 13.470 13.800 13.980 14.200 14.040 4.481 4.484 0.4900 15.473 8.511 6.965 16.047 8.443 7.603 0.000
VANMET_231 2018-09-28 23:30:00 231 11739.0 13.510 13.740 13.950 14.020 14.200 55.250 52.950 4.724 4.590 16.700 14.890 11.310 9.860 0.109 0.140 0.190 0.516 0.00 0.00 0.00 0.3660 319.90 21.20 13.550 13.800 13.980 14.260 14.040 4.909 4.631 13.490 13.700 13.940 14.170 14.000 4.568 4.550 0.5230 15.483 8.556 6.929 16.005 8.476 7.531 0.000
VANMET_231 2018-09-28 23:25:00 231 11739.0 13.640 13.770 13.960 14.040 14.160 55.680 52.930 4.958 4.599 16.720 14.890 11.310 9.860 0.109 0.140 0.190 0.516 0.00 0.00 0.00 0.6860 352.40 15.93 13.750 13.830 13.980 14.260 14.060 5.410 4.634 13.540 13.720 13.940 14.070 14.010 4.814 4.559 0.9730 15.615 8.697 6.921 16.026 8.481 7.544 0.000
VANMET_231 2018-09-28 23:20:00 231 11739.0 13.780 13.880 14.020 14.090 14.180 54.190 52.860 4.694 4.626 16.750 14.880 11.310 9.870 0.109 0.140 0.190 0.516 0.00 0.00 0.00 0.7530 16.24 4.04 13.810 13.900 14.040 14.240 14.110 5.208 4.656 13.750 13.830 13.990 14.120 14.040 4.490 4.595 0.9150 15.758 8.538 7.219 16.078 8.498 7.579 0.000
VANMET_231 2018-09-28 23:15:00 231 11739.0 13.650 13.860 14.020 14.110 14.250 53.270 52.410 4.328 4.525 16.770 14.880 11.300 9.860 0.109 0.140 0.190 0.516 0.00 0.00 0.00 0.6200 17.63 5.02 13.750 13.890 14.040 14.270 14.120 4.498 4.596 13.570 13.810 14.000 14.230 14.090 4.210 4.413 0.8560 15.625 8.322 7.302 16.099 8.438 7.662 0.000
VANMET_231 2018-09-28 23:10:00 231 11739.0 13.550 13.750 13.960 14.090 14.250 52.940 51.870 4.148 4.357 16.790 14.880 11.300 9.860 0.109 0.140 0.190 0.516 0.00 0.00 0.00 0.6350 2.28 9.37 13.580 13.800 14.000 14.270 14.100 4.311 4.507 13.530 13.700 13.930 14.240 14.070 3.976 3.973 0.8560 15.524 8.217 7.306 16.078 8.339 7.738 0.000
VANMET_231 2018-09-28 23:05:00 231 11739.0 13.670 13.740 13.970 14.120 14.320 52.180 50.240 4.059 3.934 16.810 14.870 11.300 9.860 0.109 0.140 0.190 0.516 0.00 0.00 0.00 0.5110 344.10 6.07 13.800 13.810 14.020 14.370 14.160 4.382 4.028 13.580 13.700 13.930 14.260 14.090 3.917 3.814 0.5880 15.646 8.166 7.482 16.110 8.095 8.016 0.000
VANMET_231 2018-09-28 23:00:00 231 11739.0 13.940 13.960 14.120 14.230 14.270 51.770 49.980 4.188 3.954 16.830 14.870 11.300 9.870 0.109 0.140 0.190 0.516 0.00 0.00 0.00 0.6290 2.84 5.45 14.030 14.080 14.210 14.340 14.300 4.556 4.051 13.820 13.820 14.030 14.200 14.160 3.681 3.752 0.7450 15.923 8.240 7.679 16.225 8.106 8.116 0.000
VANMET_231 2018-09-28 22:55:00 231 11739.0 14.020 14.120 14.260 14.360 14.400 49.710 48.830 3.686 3.748 16.860 14.870 11.300 9.870 0.109 0.140 0.190 0.516 0.00 0.00 0.00 0.7600 9.03 0.02 14.030 14.160 14.300 14.430 14.410 3.726 3.785 14.000 14.080 14.220 14.350 14.290 3.615 3.682 0.8430 16.005 7.954 8.049 16.362 7.989 8.372 0.000
VANMET_231 2018-09-28 22:50:00 231 11739.0 14.050 14.210 14.370 14.490 14.480 49.710 48.240 3.713 3.695 16.880 14.860 11.300 9.860 0.109 0.140 0.190 0.516 0.00 0.00 0.00 0.8130 9.28 0.38 14.080 14.270 14.430 14.540 14.560 3.829 3.778 14.010 14.160 14.310 14.430 14.420 3.638 3.624 0.9080 16.037 7.969 8.065 16.500 7.959 8.540 0.000
VANMET_231 2018-09-28 22:45:00 231 11739.0 14.090 14.330 14.490 14.610 14.670 49.020 47.800 3.558 3.674 16.900 14.860 11.300 9.860 0.109 0.140 0.190 0.516 0.00 0.00 0.00 0.4900 17.13 9.98 14.130 14.360 14.530 14.740 14.640 3.896 3.788 14.050 14.280 14.440 14.560 14.560 3.328 3.454 0.6990 16.078 7.883 8.197 16.628 7.948 8.680 0.000
VANMET_231 2018-09-28 22:40:00 231 11739.0 14.040 14.370 14.540 14.660 14.790 48.890 47.420 3.470 3.605 16.920 14.850 11.300 9.870 0.109 0.140 0.190 0.516 0.00 0.00 0.00 0.4650 10.74 8.13 14.060 14.400 14.550 14.870 14.690 3.757 4.195 14.010 14.350 14.520 14.730 14.630 3.274 3.364 0.8230 16.026 7.834 8.191 16.682 7.909 8.772 0.000
VANMET_231 2018-09-28 22:35:00 231 11739.0 14.000 14.300 14.500 14.620 14.830 49.010 47.380 3.466 3.560 16.940 14.850 11.300 9.860 0.109 0.140 0.190 0.516 0.00 0.00 0.00 0.1180 355.50 6.45 14.030 14.340 14.510 14.910 14.650 3.768 3.956 13.970 14.270 14.480 14.730 14.590 3.353 3.316 0.5680 15.985 7.832 8.151 16.639 7.884 8.756 0.000
VANMET_231 2018-09-28 22:30:00 231 11739.0 14.030 14.330 14.560 14.680 14.780 50.610 46.740 3.951 3.420 16.970 14.840 11.300 9.860 0.109 0.140 0.190 0.516 0.00 0.00 0.00 0.3110 3.19 1.69 14.060 14.380 14.600 14.850 14.720 4.172 3.572 13.970 14.270 14.510 14.730 14.630 3.586 3.312 0.5490 16.016 8.104 7.910 16.704 7.806 8.896 0.000
VANMET_231 2018-09-28 22:25:00 231 11739.0 14.040 14.340 14.580 14.720 14.870 51.230 47.840 4.132 3.787 16.990 14.840 11.300 9.860 0.109 0.140 0.190 0.516 0.00 0.00 0.00 0.6530 4.04 2.53 14.050 14.380 14.600 15.030 14.740 4.314 3.950 14.020 14.330 14.570 14.830 14.700 3.862 3.602 0.7910 16.026 8.208 7.816 16.747 8.011 8.735 0.000
VANMET_231 2018-09-28 22:20:00 231 11739.0 14.090 14.370 14.600 14.740 14.860 51.660 48.230 4.299 3.917 17.010 14.830 11.300 9.860 0.109 0.140 0.190 0.516 0.00 0.00 0.00 0.6480 356.30 6.74 14.130 14.440 14.650 15.020 14.780 4.532 3.980 14.040 14.330 14.570 14.780 14.700 4.209 3.809 0.7580 16.078 8.305 7.772 16.769 8.085 8.681 0.000
VANMET_231 2018-09-28 22:15:00 231 11739.0 14.090 14.450 14.650 14.750 14.850 51.390 48.270 4.227 3.945 17.030 14.830 11.300 9.860 0.109 0.140 0.190 0.516 0.00 0.00 0.00 0.7030 5.83 4.26 14.130 14.480 14.670 14.890 14.790 4.332 3.975 14.040 14.410 14.590 14.830 14.690 4.144 3.925 0.8300 16.078 8.263 7.816 16.779 8.101 8.680 0.000
VANMET_231 2018-09-28 22:10:00 231 11739.0 13.990 14.320 14.530 14.640 14.690 52.060 48.900 4.315 4.028 17.050 14.820 11.290 9.860 0.109 0.140 0.190 0.516 0.00 0.00 0.00 0.8520 7.31 2.13 14.030 14.400 14.580 14.820 14.690 4.676 4.182 13.970 14.290 14.510 14.610 14.610 3.987 3.949 1.0000 15.974 8.314 7.658 16.661 8.148 8.514 0.000
VANMET_231 2018-09-28 22:05:00 231 11739.0 14.010 14.350 14.560 14.660 14.730 53.280 49.390 4.670 4.189 17.070 14.820 11.290 9.860 0.109 0.140 0.190 0.516 0.00 0.00 0.00 0.9100 6.87 0.70 14.050 14.380 14.570 14.780 14.680 4.914 4.243 13.980 14.320 14.530 14.620 14.630 4.282 4.092 1.0390 15.995 8.524 7.473 16.682 8.241 8.443 0.000
VANMET_231 2018-09-28 22:00:00 231 11739.0 14.010 14.310 14.540 14.650 14.710 54.620 50.220 5.021 4.417 17.090 14.810 11.290 9.860 0.109 0.140 0.190 0.516 0.00 0.00 0.00 0.7250 4.54 0.71 14.050 14.330 14.550 14.730 14.670 5.243 4.503 13.980 14.310 14.540 14.690 14.630 4.794 4.256 0.9470 15.995 8.735 7.259 16.671 8.374 8.299 0.000
VANMET_231 2018-09-28 21:55:00 231 11739.0 14.100 14.310 14.530 14.650 14.740 54.880 50.950 5.180 4.617 17.110 14.800 11.290 9.860 0.109 0.140 0.190 0.516 0.00 0.00 0.00 0.6970 4.40 1.09 14.160 14.320 14.550 14.750 14.680 5.232 4.845 14.050 14.290 14.520 14.710 14.630 5.134 4.496 0.9080 16.089 8.833 7.259 16.671 8.492 8.177 0.000
VANMET_231 2018-09-28 21:50:00 231 11739.0 14.250 14.390 14.580 14.690 14.720 54.640 51.670 5.250 4.857 17.130 14.800 11.290 9.860 0.109 0.140 0.190 0.516 0.00 0.00 0.00 0.6480 5.37 8.67 14.350 14.490 14.660 14.790 14.730 5.374 4.921 14.160 14.300 14.520 14.690 14.640 5.189 4.772 0.7120 16.246 8.876 7.369 16.715 8.636 8.078 0.000
VANMET_231 2018-09-28 21:45:00 231 11739.0 14.330 14.520 14.680 14.770 14.850 53.090 51.200 4.918 4.801 17.150 14.790 11.290 9.860 0.109 0.140 0.190 0.516 0.00 0.00 0.00 0.8830 8.51 1.23 14.370 14.520 14.690 14.870 14.800 5.203 4.833 14.300 14.500 14.660 14.810 14.750 4.797 4.757 1.0190 16.330 8.673 7.660 16.801 8.602 8.199 0.000
VANMET_231 2018-09-28 21:40:00 231 11739.0 14.340 14.510 14.700 14.790 14.840 53.590 51.110 5.055 4.799 17.170 14.780 11.290 9.860 0.109 0.140 0.190 0.516 0.00 0.00 0.00 0.9370 8.45 0.82 14.400 14.560 14.730 14.890 14.820 5.291 4.819 14.280 14.480 14.680 14.790 14.770 4.797 4.784 1.0580 16.341 8.756 7.584 16.823 8.601 8.225 0.000
VANMET_231 2018-09-28 21:35:00 231 11739.0 14.400 14.580 14.740 14.820 14.900 52.760 50.940 4.889 4.779 17.190 14.770 11.290 9.860 0.109 0.140 0.190 0.516 0.00 0.00 0.00 0.9160 8.68 1.16 14.410 14.600 14.760 14.920 14.840 5.065 4.817 14.390 14.550 14.730 14.870 14.810 4.777 4.729 1.0780 16.404 8.655 7.749 16.855 8.589 8.269 0.000
VANMET_231 2018-09-28 21:30:00 231 11739.0 14.410 14.620 14.780 14.850 14.940 52.140 50.360 4.735 4.641 17.210 14.760 11.290 9.860 0.109 0.140 0.190 0.516 0.00 0.00 0.00 0.9510 6.46 0.83 14.440 14.640 14.800 14.970 14.880 4.981 4.722 14.400 14.600 14.760 14.900 14.830 4.591 4.559 1.0650 16.415 8.563 7.856 16.888 8.506 8.383 0.000
VANMET_231 2018-09-28 21:25:00 231 11739.0 14.420 14.630 14.810 14.890 14.960 52.320 49.690 4.783 4.485 17.230 14.760 11.290 9.860 0.109 0.140 0.190 0.516 0.00 0.00 0.00 0.8130 4.87 1.69 14.500 14.660 14.820 15.010 14.910 5.278 4.560 14.370 14.600 14.790 14.900 14.860 4.462 4.360 0.9930 16.426 8.591 7.832 16.932 8.414 8.518 0.000
VANMET_231 2018-09-28 21:20:00 231 11739.0 14.510 14.710 14.850 14.920 15.020 50.610 48.650 4.390 4.210 17.250 14.750 11.290 9.860 0.109 0.140 0.190 0.516 0.00 0.00 0.00 0.9440 7.14 3.12 14.540 14.730 14.860 15.060 14.940 5.244 4.344 14.450 14.670 14.830 14.970 14.900 4.080 4.058 1.1110 16.521 8.358 8.160 16.964 8.253 8.711 0.000
VANMET_231 2018-09-28 21:15:00 231 11739.0 14.370 14.660 14.850 14.960 15.090 50.050 47.680 4.108 3.957 17.270 14.740 11.290 9.860 0.109 0.140 0.190 0.516 0.00 0.00 0.00 0.7990 6.39 3.28 14.450 14.710 14.870 15.120 14.970 4.400 4.064 14.320 14.580 14.820 15.060 14.940 3.940 3.903 0.9670 16.372 8.194 8.178 17.008 8.108 8.899 0.000
VANMET_231 2018-09-28 21:10:00 231 11739.0 14.350 14.570 14.820 14.970 15.120 50.120 47.210 4.106 3.828 17.290 14.730 11.290 9.860 0.109 0.140 0.190 0.516 0.00 0.00 0.00 0.7060 0.06 4.10 14.370 14.630 14.870 15.170 15.000 4.242 3.940 14.330 14.540 14.800 15.090 14.940 3.935 3.701 0.9080 16.351 8.193 8.156 17.019 8.034 8.984 0.000
VANMET_231 2018-09-28 21:05:00 231 11739.0 14.350 14.680 14.900 15.020 15.090 49.980 46.670 4.069 3.712 17.300 14.720 11.280 9.860 0.109 0.140 0.190 0.516 0.00 0.00 0.00 0.7390 4.73 4.72 14.380 14.730 14.930 15.180 15.040 4.337 3.811 14.320 14.640 14.870 15.010 15.000 3.732 3.643 0.8620 16.351 8.172 8.179 17.074 7.969 9.105 0.000
VANMET_231 2018-09-28 21:00:00 231 11739.0 14.400 14.680 14.920 15.040 15.130 50.670 46.160 4.309 3.576 17.320 14.710 11.280 9.860 0.109 0.140 0.190 0.516 0.00 0.00 0.00 0.7540 3.90 2.01 14.480 14.700 14.930 15.180 15.070 4.625 3.621 14.330 14.660 14.900 15.060 15.020 4.117 3.536 1.0060 16.404 8.311 8.092 17.096 7.893 9.204 0.000
VANMET_231 2018-09-28 20:55:00 231 11739.0 14.490 14.720 14.960 15.090 15.280 48.880 45.830 3.883 3.516 17.340 14.700 11.280 9.860 0.109 0.140 0.190 0.516 0.00 0.00 0.00 0.7530 358.70 7.19 14.530 14.750 15.000 15.400 15.110 4.152 3.570 14.460 14.680 14.940 15.210 15.060 3.737 3.465 0.9540 16.500 8.065 8.435 17.151 7.859 9.291 0.000
VANMET_231 2018-09-28 20:50:00 231 11739.0 14.650 14.830 15.050 15.150 15.240 49.300 45.410 4.147 3.445 17.360 14.690 11.280 9.860 0.109 0.140 0.190 0.516 0.00 0.00 0.00 0.7120 358.40 4.21 14.740 14.940 15.110 15.300 15.210 4.627 3.520 14.520 14.760 15.000 15.190 15.100 3.778 3.360 0.8690 16.671 8.217 8.452 17.217 7.820 9.399 0.000
VANMET_231 2018-09-28 20:45:00 231 11739.0 14.800 14.980 15.140 15.230 15.310 47.430 44.760 3.736 3.309 17.370 14.680 11.280 9.860 0.109 0.140 0.190 0.516 0.00 0.00 0.00 0.7180 2.31 7.62 14.850 15.050 15.190 15.340 15.270 3.926 3.373 14.730 14.940 15.120 15.290 15.190 3.417 3.230 0.8230 16.834 7.982 8.849 17.306 7.745 9.560 0.000
VANMET_231 2018-09-28 20:40:00 231 11739.0 14.840 15.090 15.250 15.340 15.400 46.770 44.260 3.574 3.249 17.390 14.670 11.280 9.860 0.109 0.140 0.190 0.516 0.00 0.00 0.00 0.8410 8.13 4.05 14.870 15.130 15.300 15.470 15.410 4.309 3.363 14.810 15.060 15.200 15.350 15.280 3.302 3.176 0.9600 16.877 7.892 8.984 17.429 7.712 9.715 0.000
VANMET_231 2018-09-28 20:35:00 231 11739.0 14.870 15.160 15.350 15.470 15.500 46.170 43.330 3.424 3.068 17.400 14.660 11.280 9.860 0.109 0.140 0.190 0.516 0.00 0.00 0.00 0.7970 1.80 9.90 14.910 15.220 15.420 15.560 15.550 3.976 3.154 14.840 15.110 15.300 15.470 15.410 3.138 2.994 1.0910 16.910 7.808 9.102 17.575 7.614 9.960 0.000
VANMET_231 2018-09-28 20:30:00 231 11739.0 14.950 15.250 15.450 15.590 15.640 45.300 42.550 3.226 2.917 17.420 14.650 11.280 9.860 0.109 0.140 0.190 0.516 0.00 0.00 0.00 0.7730 3.92 9.48 14.980 15.280 15.470 15.700 15.610 3.512 3.022 14.900 15.220 15.420 15.570 15.550 2.944 2.800 0.9600 16.997 7.700 9.297 17.710 7.533 10.175 0.000
VANMET_231 2018-09-28 20:25:00 231 11739.0 15.020 15.280 15.510 15.650 15.750 44.420 41.710 3.013 2.696 17.440 14.640 11.280 9.860 0.109 0.140 0.190 0.516 0.00 0.00 0.00 0.7210 358.90 8.30 15.070 15.340 15.560 15.830 15.720 3.270 2.864 14.970 15.230 15.450 15.700 15.610 2.800 2.554 0.8490 17.074 7.584 9.490 17.779 7.415 10.363 0.000
VANMET_231 2018-09-28 20:20:00 231 11739.0 15.050 15.320 15.540 15.710 15.870 43.950 40.920 2.886 2.479 17.450 14.630 11.280 9.860 0.109 0.140 0.190 0.516 0.00 0.00 0.00 0.6830 350.50 16.46 15.070 15.390 15.580 15.940 15.730 3.150 2.558 15.020 15.260 15.510 15.790 15.680 2.655 2.405 0.9210 17.107 7.516 9.588 17.847 7.302 10.544 0.000
VANMET_231 2018-09-28 20:15:00 231 11739.0 15.060 15.290 15.530 15.700 15.880 43.480 40.730 2.744 2.401 17.460 14.620 11.280 9.860 0.109 0.140 0.190 0.516 0.00 0.00 0.00 0.6140 352.50 14.63 15.080 15.330 15.540 15.930 15.720 3.083 2.531 15.040 15.260 15.510 15.840 15.680 2.567 2.310 0.8490 17.118 7.441 9.675 17.836 7.261 10.571 0.000
VANMET_231 2018-09-28 20:10:00 231 11739.0 15.080 15.320 15.560 15.720 15.870 43.470 40.260 2.756 2.258 17.480 14.610 11.280 9.860 0.109 0.140 0.190 0.516 0.00 0.00 0.00 0.6060 3.02 5.56 15.100 15.360 15.590 16.030 15.740 2.939 2.322 15.050 15.300 15.530 15.770 15.690 2.494 2.184 0.8950 17.140 7.447 9.689 17.859 7.187 10.669 0.000
VANMET_231 2018-09-28 20:05:00 231 11739.0 15.140 15.370 15.590 15.780 15.990 43.180 40.090 2.724 2.255 17.490 14.590 11.270 9.860 0.109 0.140 0.190 0.516 0.00 0.00 0.00 0.6650 357.60 5.38 15.170 15.380 15.590 16.060 15.820 3.237 2.328 15.110 15.360 15.580 15.880 15.740 2.514 2.186 0.8560 17.206 7.430 9.777 17.927 7.186 10.740 0.000
VANMET_231 2018-09-28 20:00:00 231 11739.0 15.220 15.400 15.630 15.830 16.070 42.740 39.980 2.652 2.255 17.500 14.580 11.270 9.860 0.109 0.140 0.190 0.516 0.00 0.00 0.00 0.6400 6.79 11.71 15.270 15.440 15.670 16.170 15.850 2.770 2.294 15.160 15.370 15.600 15.950 15.800 2.463 2.191 0.7510 17.295 7.392 9.903 17.985 7.186 10.794 0.000
VANMET_231 2018-09-28 19:55:00 231 11739.0 15.330 15.480 15.720 15.890 15.990 42.370 39.310 2.626 2.074 17.510 14.570 11.270 9.860 0.109 0.140 0.190 0.516 0.00 0.00 0.00 0.5810 0.28 0.36 15.400 15.580 15.810 16.120 15.960 2.813 2.189 15.250 15.420 15.670 15.910 15.840 2.416 1.972 0.6990 17.418 7.379 10.038 18.054 7.094 10.957 0.000
VANMET_231 2018-09-28 19:50:00 231 11739.0 15.470 15.690 15.880 16.010 16.060 41.990 38.620 2.621 1.933 17.520 14.560 11.270 9.860 0.109 0.140 0.190 0.516 0.00 0.00 0.00 0.7490 5.84 3.90 15.500 15.740 15.930 16.130 16.070 3.178 2.024 15.420 15.590 15.820 16.010 15.950 2.219 1.846 1.0910 17.575 7.376 10.195 18.193 7.022 11.167 0.000
VANMET_231 2018-09-28 19:45:00 231 11739.0 15.460 15.740 15.920 16.090 16.200 41.640 38.640 2.499 2.014 17.540 14.540 11.270 9.860 0.109 0.140 0.190 0.516 0.00 0.00 0.00 0.6820 3.98 9.83 15.510 15.760 15.930 16.240 16.120 2.786 2.094 15.440 15.710 15.900 16.150 16.050 2.166 1.962 1.0130 17.563 7.312 10.250 18.286 7.063 11.220 0.000
VANMET_231 2018-09-28 19:40:00 231 11739.0 15.470 15.720 15.930 16.140 16.250 42.040 38.600 2.646 2.048 17.550 14.530 11.270 9.860 0.109 0.140 0.190 0.516 0.00 0.00 0.00 0.5750 356.10 9.69 15.530 15.780 16.000 16.290 16.190 2.875 2.106 15.420 15.680 15.900 16.210 16.090 2.321 1.966 0.8750 17.575 7.389 10.186 18.344 7.080 11.263 0.000
VANMET_231 2018-09-28 19:35:00 231 11739.0 15.600 15.840 16.030 16.240 16.340 41.960 38.550 2.730 2.117 17.550 14.520 11.270 9.860 0.109 0.140 0.190 0.516 0.00 0.00 0.00 0.5500 337.30 23.72 15.620 15.870 16.060 16.420 16.280 3.472 2.192 15.560 15.790 16.000 16.250 16.180 2.399 2.066 0.8040 17.722 7.433 10.286 18.462 7.115 11.345 0.000
VANMET_231 2018-09-28 19:30:00 231 11739.0 15.640 15.870 16.060 16.260 16.430 41.500 38.540 2.611 2.136 17.560 14.500 11.270 9.860 0.109 0.140 0.190 0.516 0.00 0.00 0.00 0.5810 350.70 15.45 15.670 15.890 16.090 16.530 16.290 2.924 2.183 15.600 15.830 16.040 16.350 16.240 2.398 2.109 0.8490 17.767 7.371 10.394 18.485 7.125 11.361 0.000
VANMET_231 2018-09-28 19:25:00 231 11739.0 15.690 15.900 16.120 16.310 16.390 41.280 38.380 2.582 2.117 17.570 14.490 11.270 9.860 0.109 0.140 0.190 0.516 0.00 0.00 0.00 0.6040 354.10 13.76 15.710 15.940 16.150 16.440 16.340 2.911 2.192 15.650 15.880 16.090 16.350 16.270 2.312 2.084 0.8430 17.824 7.355 10.466 18.544 7.115 11.427 0.000
VANMET_231 2018-09-28 19:20:00 231 11739.0 15.710 15.930 16.160 16.390 16.510 40.880 37.920 2.462 2.018 17.580 14.480 11.270 9.860 0.109 0.140 0.190 0.516 0.00 0.00 0.00 0.5720 357.90 9.31 15.730 15.950 16.170 16.610 16.420 2.708 2.122 15.690 15.920 16.150 16.440 16.340 2.287 1.906 0.7640 17.847 7.293 10.551 18.639 7.065 11.571 0.000
VANMET_231 2018-09-28 19:15:00 231 11739.0 15.660 15.900 16.130 16.390 16.480 40.950 37.600 2.443 1.901 17.580 14.460 11.270 9.860 0.109 0.140 0.190 0.516 0.00 0.00 0.00 0.6160 337.00 37.98 15.690 15.960 16.180 16.650 16.440 2.847 1.979 15.630 15.850 16.090 16.380 16.350 2.129 1.798 0.9730 17.790 7.283 10.505 18.639 7.006 11.631 0.000
VANMET_231 2018-09-28 19:10:00 231 11739.0 15.740 15.930 16.170 16.480 16.450 40.660 36.700 2.413 1.642 17.590 14.450 11.260 9.860 0.109 0.140 0.190 0.516 0.00 0.00 0.00 0.6210 355.70 8.39 15.820 16.030 16.250 16.620 16.550 2.907 1.760 15.650 15.860 16.110 16.390 16.420 2.018 1.536 0.9410 17.881 7.267 10.611 18.746 6.877 11.866 0.000
VANMET_231 2018-09-28 19:05:00 231 11739.0 15.910 16.100 16.310 16.620 16.630 39.530 35.820 2.176 1.431 17.590 14.430 11.260 9.860 0.109 0.140 0.190 0.516 0.00 0.00 0.00 0.5870 349.40 5.69 16.000 16.180 16.380 16.680 16.690 2.560 1.610 15.830 16.030 16.250 16.560 16.550 1.857 1.350 0.7770 18.077 7.145 10.931 18.914 6.774 12.139 0.000
VANMET_231 2018-09-28 19:00:00 231 11739.0 16.050 16.270 16.460 16.750 16.780 38.780 35.280 2.032 1.332 17.590 14.420 11.260 9.860 0.109 0.140 0.190 0.516 0.00 0.00 0.00 0.6400 339.80 20.66 16.080 16.310 16.490 16.900 16.790 2.697 1.501 16.000 16.180 16.390 16.540 16.680 1.593 1.213 0.8750 18.239 7.072 11.166 19.071 6.726 12.342 0.000
VANMET_231 2018-09-28 18:55:00 231 11739.0 16.070 16.290 16.480 16.790 16.840 38.890 35.030 2.087 1.267 17.600 14.410 11.260 9.860 0.109 0.140 0.190 0.516 0.00 0.00 0.00 0.7690 340.00 19.67 16.110 16.330 16.530 16.910 16.840 2.762 1.419 16.040 16.260 16.450 16.770 16.750 1.616 1.121 1.0580 18.263 7.100 11.160 19.119 6.694 12.422 0.000
VANMET_231 2018-09-28 18:50:00 231 11739.0 16.110 16.370 16.610 16.900 16.870 39.820 35.350 2.456 1.491 17.600 14.390 11.260 9.860 0.109 0.140 0.190 0.516 0.00 0.00 0.00 0.7180 337.40 16.13 16.170 16.460 16.710 17.040 16.980 2.987 1.775 16.070 16.310 16.520 16.750 16.820 1.895 1.072 0.8890 18.309 7.290 11.019 19.253 6.803 12.447 0.000
VANMET_231 2018-09-28 18:45:00 231 11739.0 16.210 16.520 16.750 16.970 17.060 40.130 35.080 2.649 1.446 17.600 14.380 11.260 9.860 0.109 0.140 0.190 0.516 0.00 0.00 0.00 0.6690 319.50 34.16 16.250 16.570 16.800 17.230 17.010 3.208 1.962 16.180 16.470 16.710 16.980 16.930 2.050 0.800 0.9730 18.426 7.391 11.032 19.339 6.781 12.555 0.000
VANMET_231 2018-09-28 18:40:00 231 11739.0 16.350 16.610 16.850 17.040 17.050 41.630 36.150 3.298 1.929 17.600 14.360 11.260 9.860 0.109 0.140 0.190 0.516 0.00 0.00 0.00 0.5930 343.30 13.19 16.470 16.670 16.910 17.190 17.130 3.966 2.092 16.260 16.570 16.790 16.950 16.980 2.647 1.636 0.7910 18.592 7.739 10.852 19.425 7.020 12.403 0.000
VANMET_231 2018-09-28 18:35:00 231 11739.0 16.590 16.780 16.990 17.160 17.200 40.490 35.890 3.120 1.938 17.590 14.350 11.260 9.860 0.109 0.140 0.190 0.516 0.00 0.00 0.00 0.5760 333.40 35.55 16.690 16.870 17.050 17.260 17.220 3.794 2.057 16.460 16.680 16.920 17.140 17.100 2.602 1.729 0.9540 18.878 7.642 11.234 19.573 7.025 12.548 0.000
VANMET_231 2018-09-28 18:30:00 231 11739.0 16.730 16.940 17.120 17.300 17.350 38.570 35.710 2.564 1.984 17.590 14.330 11.260 9.860 0.109 0.140 0.190 0.516 0.00 0.00 0.00 0.5230 358.90 16.82 16.750 16.970 17.160 17.400 17.360 2.888 2.029 16.700 16.890 17.060 17.270 17.230 2.203 1.934 0.8170 19.046 7.346 11.700 19.747 7.048 12.695 0.000
VANMET_231 2018-09-28 18:25:00 231 11739.0 16.840 17.050 17.250 17.470 17.450 38.640 35.230 2.681 1.951 17.590 14.320 11.260 9.860 0.109 0.140 0.190 0.516 0.00 0.00 0.00 0.6010 357.40 9.80 16.930 17.150 17.340 17.560 17.570 3.134 2.025 16.760 16.980 17.170 17.360 17.370 2.240 1.864 0.7450 19.180 7.407 11.769 19.960 7.031 12.928 0.000
VANMET_231 2018-09-28 18:20:00 231 11739.0 16.980 17.210 17.400 17.670 17.640 37.790 34.560 2.502 1.858 17.580 14.300 11.250 9.860 0.109 0.140 0.190 0.516 0.00 0.00 0.00 0.3970 343.40 19.55 17.070 17.250 17.460 17.710 17.780 2.795 1.913 16.930 17.160 17.350 17.580 17.580 2.180 1.802 0.6010 19.351 7.314 12.038 20.213 6.985 13.228 0.000
VANMET_231 2018-09-28 18:15:00 231 11739.0 17.190 17.360 17.560 17.910 17.800 37.570 33.710 2.603 1.721 17.570 14.290 11.250 9.860 0.109 0.140 0.190 0.515 0.00 0.00 0.00 0.5500 352.30 20.86 17.290 17.460 17.650 17.900 18.040 3.260 1.861 17.090 17.270 17.470 17.690 17.790 2.269 1.636 0.8490 19.610 7.366 12.242 20.521 6.916 13.604 0.000
VANMET_231 2018-09-28 18:10:00 231 11739.0 17.340 17.530 17.750 18.180 18.100 36.130 32.930 2.189 1.632 17.570 14.270 11.250 9.860 0.109 0.140 0.190 0.515 0.00 0.00 0.00 0.5350 335.30 16.83 17.390 17.610 17.870 18.180 18.290 2.599 1.699 17.280 17.470 17.660 17.970 18.060 1.979 1.583 0.7380 19.797 7.152 12.644 20.872 6.872 13.999 0.000
VANMET_231 2018-09-28 18:05:00 231 11739.0 17.470 17.700 17.970 18.430 18.240 36.290 32.380 2.366 1.612 17.560 14.260 11.250 9.860 0.109 0.140 0.190 0.515 0.00 0.00 0.00 0.6810 318.00 36.66 17.600 17.830 18.090 18.380 18.580 2.816 1.700 17.380 17.610 17.880 18.140 18.300 2.014 1.532 1.3520 19.960 7.243 12.717 21.202 6.863 14.337 0.000
VANMET_231 2018-09-28 18:00:00 231 11739.0 17.710 17.920 18.230 18.710 18.450 35.040 31.550 2.085 1.497 17.550 14.240 11.250 9.860 0.109 0.140 0.190 0.515 0.00 0.00 0.00 0.5190 316.30 20.71 17.840 18.060 18.380 18.500 18.880 2.392 1.598 17.580 17.830 18.100 18.400 18.580 1.756 1.433 0.9870 20.264 7.099 13.164 21.577 6.806 14.770 0.000
VANMET_231 2018-09-28 17:55:00 231 11739.0 18.040 18.290 18.640 19.110 18.640 34.530 30.770 2.167 1.490 17.530 14.230 11.250 9.860 0.109 0.140 0.190 0.515 0.01 0.00 0.00 0.7230 319.60 15.32 18.230 18.500 18.860 18.910 19.320 3.052 1.557 17.850 18.070 18.400 18.330 18.890 1.707 1.393 1.2670 20.690 7.141 13.546 22.123 6.803 15.316 0.015
VANMET_231 2018-09-28 17:50:00 231 11739.0 18.430 18.700 19.090 19.500 19.140 32.730 29.610 1.767 1.301 17.520 14.210 11.250 9.860 0.109 0.140 0.190 0.515 2.30 0.00 0.00 0.5560 313.20 21.83 18.640 18.910 19.290 19.500 19.650 2.432 1.397 18.250 18.510 18.880 18.910 19.340 1.515 1.181 1.0580 21.202 6.939 14.263 22.666 6.711 15.955 4.826
VANMET_231 2018-09-28 17:45:00 231 11739.0 18.860 19.090 19.460 19.820 19.540 31.900 28.650 1.776 1.112 17.510 14.200 11.250 9.860 0.109 0.140 0.190 0.515 6.67 0.00 0.00 0.9370 277.40 39.53 19.110 19.340 19.660 19.790 19.990 2.562 1.519 18.630 18.920 19.300 19.320 19.670 1.206 0.726 1.6660 21.780 6.944 14.832 23.121 6.620 16.497 14.013
VANMET_231 2018-09-28 17:40:00 231 11739.0 19.300 19.540 19.840 20.180 19.930 30.410 27.900 1.491 1.052 17.490 14.180 11.250 9.860 0.109 0.140 0.190 0.515 12.42 0.00 0.00 0.6730 247.60 32.91 19.470 19.680 19.970 20.270 20.330 2.241 1.270 19.110 19.350 19.670 19.750 20.020 0.722 0.640 1.2540 22.386 6.803 15.579 23.642 6.592 17.046 26.082
VANMET_231 2018-09-28 17:35:00 231 11739.0 19.580 19.890 20.200 20.500 20.240 29.780 26.720 1.437 0.734 17.470 14.170 11.240 9.860 0.109 0.140 0.190 0.515 19.91 0.00 0.00 0.9470 232.40 38.15 19.660 20.030 20.360 20.500 20.630 2.405 1.445 19.470 19.730 20.020 19.990 20.350 0.696 0.411 2.0650 22.779 6.777 15.996 24.114 6.442 17.671 41.811
VANMET_231 2018-09-28 17:30:00 231 11739.0 19.640 20.040 20.460 20.760 20.560 28.850 25.390 1.050 0.247 17.450 14.150 11.240 9.860 0.109 0.140 0.190 0.515 26.10 0.00 0.00 1.0700 233.30 24.25 19.690 20.110 20.560 20.690 20.870 2.021 0.862 19.590 19.960 20.360 20.450 20.660 0.466 -0.010 1.7710 22.864 6.591 16.268 24.503 6.218 18.282 54.810
VANMET_231 2018-09-28 17:25:00 231 11739.0 19.870 20.280 20.700 21.010 20.670 28.990 24.520 1.313 -0.019 17.430 14.140 11.240 9.860 0.109 0.140 0.190 0.515 31.54 0.00 0.00 0.7740 232.70 42.62 19.950 20.420 20.830 20.900 21.140 2.567 0.337 19.730 20.130 20.580 20.460 20.900 0.321 -0.360 2.2740 23.193 6.717 16.469 24.882 6.099 18.781 66.234
VANMET_231 2018-09-28 17:20:00 231 11739.0 20.010 20.490 20.940 21.250 20.950 27.180 22.990 0.538 -0.709 17.410 14.120 11.240 9.860 0.109 0.140 0.190 0.515 37.09 0.00 0.00 1.1740 253.20 32.69 20.210 20.690 21.090 21.120 21.390 1.854 -0.238 19.910 20.400 20.840 20.800 21.140 -0.344 -1.277 2.8220 23.395 6.351 17.036 25.252 5.800 19.446 77.889
VANMET_231 2018-09-28 17:15:00 231 11739.0 20.350 20.780 21.200 21.510 21.310 25.900 21.830 0.163 -1.197 17.380 14.110 11.240 9.850 0.109 0.140 0.190 0.515 45.09 0.00 0.00 0.6070 249.20 46.74 20.590 20.900 21.300 21.440 21.630 1.807 -0.657 20.220 20.720 21.110 21.200 21.430 -0.838 -1.612 1.6590 23.892 6.181 17.704 25.657 5.596 20.056 94.689
VANMET_231 2018-09-28 17:10:00 231 11739.0 20.730 21.090 21.410 21.710 21.500 24.880 20.890 -0.083 -1.632 17.360 14.100 11.240 9.850 0.109 0.140 0.190 0.515 48.92 0.00 0.00 0.9240 246.50 32.58 20.770 21.160 21.480 21.580 21.770 1.669 -1.106 20.620 20.990 21.320 21.420 21.610 -1.417 -2.309 1.6790 24.458 6.071 18.373 25.973 5.419 20.547 102.732
VANMET_231 2018-09-28 17:05:00 231 11739.0 20.730 21.100 21.470 21.750 21.590 23.880 20.010 -0.660 -2.181 17.330 14.080 11.240 9.850 0.109 0.140 0.190 0.515 75.82 0.00 0.00 1.3140 222.10 20.32 20.810 21.190 21.520 21.770 21.780 2.367 -0.815 20.680 20.990 21.400 21.250 21.710 -1.840 -2.686 2.5020 24.458 5.821 18.617 26.036 5.204 20.826 159.222
VANMET_231 2018-09-28 17:00:00 231 11739.0 20.910 21.210 21.570 21.860 21.610 24.360 19.750 -0.221 -2.265 17.300 14.070 11.240 9.850 0.109 0.140 0.190 0.515 117.90 0.00 0.00 0.9980 244.00 41.15 21.020 21.330 21.660 21.820 21.960 1.880 -1.443 20.820 21.090 21.460 21.410 21.760 -1.704 -3.043 2.1230 24.730 6.010 18.706 26.211 5.171 21.035 247.590
VANMET_231 2018-09-28 16:55:00 231 11739.0 21.010 21.360 21.720 22.000 21.760 22.950 18.840 -0.970 -2.807 17.270 14.050 11.240 9.850 0.109 0.140 0.190 0.515 135.30 0.00 0.00 1.1780 255.20 31.08 21.050 21.420 21.780 21.930 22.100 1.409 -1.083 20.940 21.270 21.680 21.500 21.950 -3.275 -4.064 2.3190 24.882 5.690 19.172 26.436 4.967 21.456 284.130
VANMET_231 2018-09-28 16:50:00 231 11739.0 21.310 21.630 22.000 22.290 21.920 24.010 19.120 -0.169 -2.393 17.240 14.040 11.230 9.850 0.109 0.140 0.190 0.515 153.70 0.00 0.00 0.7790 243.30 43.66 21.410 21.800 22.110 22.300 22.390 2.415 -0.518 21.100 21.300 21.760 21.340 22.120 -3.367 -4.287 1.3980 25.345 6.033 19.259 26.907 5.123 21.762 322.770
VANMET_231 2018-09-28 16:45:00 231 11739.0 21.280 21.620 22.150 22.570 22.050 22.600 18.410 -0.957 -2.649 17.210 14.030 11.230 9.850 0.109 0.140 0.190 0.515 118.20 0.00 0.00 1.2610 229.70 27.48 21.320 21.720 22.240 22.240 22.760 0.881 -1.125 21.220 21.530 22.050 21.850 22.400 -3.679 -4.338 2.4370 25.298 5.695 19.581 27.369 5.026 22.330 248.220
VANMET_231 2018-09-28 16:40:00 231 11739.0 21.640 21.870 22.560 23.060 21.920 24.670 18.150 0.570 -2.435 17.170 14.010 11.230 9.850 0.109 0.140 0.190 0.515 134.90 0.00 0.00 1.0060 243.30 28.37 22.040 22.130 22.860 22.180 23.380 2.225 -0.462 21.290 21.560 22.230 21.610 22.790 -1.730 -3.144 1.6010 25.862 6.366 19.482 28.193 5.107 23.076 283.290
VANMET_231 2018-09-28 16:35:00 231 11739.0 22.510 22.690 23.290 23.680 22.610 23.870 18.320 0.781 -1.836 17.140 14.000 11.230 9.850 0.109 0.140 0.190 0.515 198.90 0.00 0.00 0.9630 245.20 47.07 22.780 23.030 23.610 22.920 23.820 2.829 1.064 22.090 22.240 22.950 22.200 23.410 -1.807 -3.534 1.6860 27.269 6.464 20.760 29.267 5.338 23.905 417.690
VANMET_231 2018-09-28 16:30:00 231 11739.0 22.910 23.180 23.640 23.750 22.910 18.530 16.240 -2.278 -3.373 17.100 13.990 11.230 9.850 0.109 0.140 0.190 0.515 207.70 0.00 0.00 0.9160 210.20 40.76 22.980 23.230 23.700 23.050 23.870 -1.035 -2.255 22.780 23.060 23.570 22.800 23.680 -3.814 -4.696 2.8420 27.938 5.166 22.761 29.391 4.762 24.618 436.170
VANMET_231 2018-09-28 16:25:00 231 11739.0 23.130 23.390 23.910 24.000 23.270 19.040 17.270 -1.735 -2.348 17.060 13.970 11.230 9.850 0.109 0.140 0.190 0.515 240.20 0.00 0.00 1.3520 219.20 29.90 23.200 23.520 24.020 23.540 24.060 -0.275 -0.624 23.030 23.220 23.640 22.930 23.890 -2.812 -4.127 3.2010 28.313 5.378 22.922 29.835 5.140 24.683 504.420
VANMET_231 2018-09-28 16:20:00 231 11739.0 23.290 23.410 23.720 23.990 23.320 18.240 16.210 -2.180 -3.213 17.020 13.960 11.230 9.850 0.109 0.140 0.190 0.515 249.20 0.00 0.00 1.0630 227.70 46.38 23.490 23.590 23.950 23.510 24.050 -0.114 -1.373 23.160 23.340 23.600 23.160 23.940 -3.153 -4.989 3.0900 28.587 5.204 23.373 29.818 4.819 24.984 523.320
VANMET_231 2018-09-28 16:15:00 231 11739.0 23.650 23.820 23.770 24.150 23.490 18.140 15.690 -1.975 -3.505 16.980 13.950 11.230 9.850 0.109 0.140 0.190 0.516 278.10 0.00 0.00 1.2360 187.90 45.48 23.830 24.100 24.010 23.600 24.280 -0.316 -2.782 23.490 23.620 23.650 23.440 24.040 -3.539 -4.796 2.6660 29.214 5.284 23.915 30.105 4.715 25.382 584.010
VANMET_231 2018-09-28 16:10:00 231 11739.0 24.130 24.500 24.420 24.470 23.630 17.380 15.050 -2.181 -3.830 16.940 13.940 11.230 9.850 0.109 0.140 0.190 0.516 290.70 0.00 0.00 1.6400 222.80 47.55 24.340 24.780 24.780 23.690 24.700 0.632 -1.051 23.860 24.140 24.060 23.550 24.290 -4.250 -5.180 3.2270 30.069 5.204 24.843 30.688 4.601 26.069 610.470
VANMET_231 2018-09-28 16:05:00 231 11739.0 24.610 24.870 25.010 24.880 23.790 17.800 15.930 -1.451 -2.736 16.900 13.930 11.230 9.850 0.109 0.140 0.190 0.516 303.40 0.00 0.00 1.2590 237.90 30.79 24.870 25.110 25.310 23.990 25.020 0.776 0.096 24.370 24.730 24.780 23.610 24.710 -2.982 -4.197 2.3980 30.945 5.492 25.437 31.448 4.994 26.438 637.140
VANMET_231 2018-09-28 16:00:00 231 11739.0 25.010 25.110 25.170 24.900 23.990 18.900 17.540 -0.303 -1.407 16.860 13.920 11.220 9.850 0.109 0.140 0.190 0.516 340.50 0.00 0.00 0.8840 236.70 37.04 25.090 25.250 25.320 24.110 24.960 1.919 0.999 24.900 24.970 24.990 23.760 24.820 -1.826 -2.742 1.5880 31.693 5.974 25.703 31.486 5.510 25.963 715.050
VANMET_231 2018-09-28 15:55:00 231 11739.0 25.210 25.070 25.070 24.920 24.250 17.280 15.420 -1.372 -3.136 16.820 13.900 11.220 9.850 0.109 0.140 0.190 0.516 350.30 0.00 0.00 1.6500 234.20 22.74 25.350 25.200 25.130 24.380 24.990 0.326 -0.864 24.990 24.910 24.950 24.110 24.810 -3.304 -4.063 3.9200 32.072 5.524 26.530 31.523 4.847 26.662 735.630
VANMET_231 2018-09-28 15:50:00 231 11739.0 25.410 25.280 25.250 25.130 24.120 18.510 16.320 -0.366 -2.273 16.770 13.890 11.220 9.850 0.109 0.140 0.190 0.516 337.40 0.00 0.00 1.1170 202.00 34.20 25.570 25.510 25.530 24.240 25.300 2.811 1.138 25.290 25.090 25.070 23.970 24.980 -3.894 -4.322 2.2670 32.455 5.947 26.448 31.920 5.168 26.710 708.540
VANMET_231 2018-09-28 15:45:00 231 11739.0 25.480 25.420 25.510 25.360 24.480 19.230 18.100 0.294 -0.668 16.730 13.880 11.220 9.850 0.109 0.140 0.190 0.516 351.70 0.00 0.00 1.2430 215.90 40.51 25.540 25.490 25.540 24.780 25.440 3.052 2.080 25.450 25.370 25.470 24.160 25.270 -1.758 -2.669 1.8820 32.591 6.240 26.323 32.359 5.817 26.502 738.570
VANMET_231 2018-09-28 15:40:00 231 11739.0 25.850 25.720 25.770 25.590 24.920 16.710 15.430 -1.324 -2.592 16.680 13.870 11.220 9.850 0.109 0.140 0.190 0.516 377.70 0.00 0.00 1.4100 232.00 23.71 26.070 25.990 25.950 25.130 25.660 1.145 -0.693 25.550 25.390 25.490 24.730 25.460 -3.282 -3.681 3.2010 33.313 5.544 27.747 32.804 5.047 27.742 793.170
VANMET_231 2018-09-28 15:35:00 231 11739.0 26.110 25.940 25.920 25.670 24.720 18.640 16.360 0.417 -1.747 16.630 13.860 11.220 9.850 0.109 0.140 0.190 0.516 431.50 0.00 0.00 1.7080 226.50 39.76 26.250 26.160 26.140 24.950 25.750 1.787 0.853 25.910 25.700 25.690 24.370 25.570 -1.043 -3.546 4.1680 33.829 6.296 27.523 32.960 5.374 27.568 906.150
VANMET_231 2018-09-28 15:30:00 231 11739.0 26.280 26.060 26.010 25.620 24.570 20.350 18.740 1.749 0.070 16.590 13.860 11.220 9.850 0.109 0.140 0.190 0.516 427.70 0.00 0.00 0.9750 220.70 28.62 26.400 26.130 26.070 24.760 25.710 4.772 3.101 26.110 25.950 25.860 24.210 25.500 -0.074 -1.950 1.3460 34.170 6.930 27.217 32.862 6.139 26.704 898.170
VANMET_231 2018-09-28 15:25:00 231 11739.0 26.320 25.950 25.850 25.540 24.650 19.220 18.600 0.935 -0.113 16.540 13.850 11.220 9.850 0.109 0.140 0.190 0.516 450.50 0.00 0.00 0.9040 206.80 60.97 26.400 26.120 26.020 24.880 25.650 3.513 2.221 26.120 25.690 25.570 24.240 25.450 -2.231 -2.577 1.7440 34.251 6.536 27.668 32.707 6.058 26.623 946.050
VANMET_231 2018-09-28 15:20:00 231 11739.0 26.240 25.730 25.590 25.480 24.670 20.320 17.970 1.650 -0.639 16.490 13.840 11.220 9.850 0.109 0.140 0.190 0.516 380.40 0.00 0.00 1.0980 217.50 37.12 26.460 25.960 25.790 24.870 25.660 4.858 2.602 26.100 25.660 25.510 24.440 25.410 -1.366 -2.602 1.6990 34.090 6.881 27.163 32.591 5.830 26.734 798.840
VANMET_231 2018-09-28 15:15:00 231 11739.0 26.550 26.170 26.010 25.740 24.960 18.320 16.920 0.542 -1.213 16.440 13.830 11.220 9.850 0.109 0.140 0.190 0.516 446.50 0.00 0.00 1.2030 192.10 39.19 26.660 26.340 26.180 25.110 25.850 1.859 0.538 26.460 25.960 25.810 24.750 25.640 -1.132 -2.371 2.1690 34.718 6.353 28.358 33.097 5.589 27.497 937.650
VANMET_231 2018-09-28 15:10:00 231 11739.0 26.420 25.930 25.790 25.670 24.910 17.940 16.420 0.119 -1.674 16.390 13.820 11.220 9.850 0.109 0.140 0.190 0.516 428.20 0.00 0.00 1.0580 193.30 40.54 26.590 26.110 25.970 25.000 25.770 1.731 0.040 26.290 25.760 25.650 24.820 25.610 -2.497 -2.892 2.3190 34.453 6.161 28.273 32.960 5.403 27.548 899.220
VANMET_231 2018-09-28 15:05:00 231 11739.0 27.160 26.480 26.340 26.090 25.080 19.040 17.260 1.528 -0.669 16.330 13.820 11.210 9.850 0.109 0.140 0.190 0.516 412.70 0.00 0.00 1.3390 193.40 46.41 27.350 26.800 26.650 25.310 26.340 3.692 1.022 26.680 25.890 25.800 24.900 25.810 -2.009 -2.522 3.2010 35.985 6.821 29.133 33.789 5.817 27.957 866.670
VANMET_231 2018-09-28 15:00:00 231 11739.0 27.360 26.860 26.670 26.400 25.610 16.930 15.900 0.077 -1.522 16.280 13.810 11.210 9.850 0.109 0.140 0.190 0.516 495.50 0.00 0.00 1.0300 188.80 42.37 27.460 26.930 26.770 25.860 26.480 2.263 0.041 27.300 26.710 26.550 25.370 26.320 -2.070 -2.911 2.1170 36.408 6.142 30.244 34.413 5.464 28.941 1040.550
VANMET_231 2018-09-28 14:55:00 231 11739.0 27.480 26.900 26.750 26.510 25.870 17.240 15.880 0.427 -1.454 16.230 13.800 11.210 9.850 0.109 0.140 0.190 0.516 523.00 0.00 0.00 1.5240 208.20 40.06 27.540 27.070 26.970 26.210 26.660 2.753 0.912 27.410 26.760 26.590 25.500 26.380 -1.278 -3.140 3.1560 36.665 6.300 30.344 34.637 5.491 29.136 1098.300
VANMET_231 2018-09-28 14:50:00 231 11739.0 27.360 26.980 26.950 26.680 26.060 18.760 17.010 1.494 -0.367 16.180 13.800 11.210 9.850 0.109 0.140 0.190 0.516 529.90 0.00 0.00 1.0790 210.10 28.33 27.520 27.090 27.030 26.270 26.730 4.002 0.600 27.180 26.850 26.850 25.810 26.630 -0.658 -1.545 2.0840 36.408 6.805 29.578 34.985 5.947 29.034 1112.790
VANMET_231 2018-09-28 14:45:00 231 11739.0 27.110 26.790 26.690 26.400 25.870 18.190 17.130 0.861 -0.511 16.120 13.790 11.210 9.850 0.109 0.140 0.190 0.516 548.10 0.00 0.00 1.1370 203.70 44.64 27.180 26.940 26.890 26.130 26.600 3.239 0.813 27.060 26.680 26.540 25.720 26.210 -1.126 -1.445 2.0250 35.879 6.501 29.353 34.413 5.884 28.518 1151.010
VANMET_231 2018-09-28 14:40:00 231 11739.0 26.790 26.530 26.400 26.120 25.780 17.730 16.680 0.253 -1.105 16.070 13.780 11.210 9.850 0.109 0.140 0.190 0.516 565.70 0.00 0.00 1.4570 218.30 23.81 27.030 26.750 26.620 26.000 26.300 2.851 0.761 26.570 26.230 26.150 25.500 25.920 -2.017 -2.480 2.1760 35.212 6.221 28.969 33.849 5.634 28.203 1187.970
VANMET_231 2018-09-28 14:35:00 231 11739.0 26.710 26.200 26.130 25.990 25.280 19.110 17.270 1.232 -0.738 16.010 13.780 11.210 9.850 0.109 0.140 0.190 0.516 560.60 0.00 0.00 1.2580 169.80 44.64 26.920 26.400 26.330 25.470 26.170 3.024 0.965 26.520 26.040 25.970 25.040 25.900 -1.252 -2.334 3.5410 35.047 6.678 28.349 33.590 5.787 27.789 1177.260
VANMET_231 2018-09-28 14:30:00 231 11739.0 27.100 26.580 26.490 26.260 25.530 19.830 17.700 2.069 -0.177 15.950 13.780 11.210 9.850 0.109 0.140 0.190 0.516 520.30 0.00 0.00 0.8320 196.90 52.39 27.210 26.780 26.720 25.810 26.540 4.477 1.512 26.930 26.340 26.240 25.250 26.050 0.376 -1.658 1.7970 35.858 7.091 28.748 34.130 6.030 28.089 1092.630
VANMET_231 2018-09-28 14:25:00 231 11739.0 27.350 26.860 26.750 26.590 25.750 18.150 16.480 1.049 -0.879 15.900 13.770 11.210 9.850 0.109 0.140 0.190 0.516 574.20 0.00 0.00 0.9400 185.80 47.11 27.460 27.080 26.940 26.040 26.720 3.536 0.362 27.180 26.670 26.560 25.530 26.460 -1.320 -2.114 2.5610 36.387 6.590 29.783 34.800 5.728 29.065 1205.820
VANMET_231 2018-09-28 14:20:00 231 11739.0 27.330 26.830 26.720 26.610 25.930 18.980 16.320 1.613 -1.012 15.840 13.770 11.210 9.850 0.109 0.140 0.190 0.516 600.80 0.00 0.00 1.0000 203.00 37.29 27.380 26.970 26.830 26.280 26.660 4.229 0.859 27.230 26.730 26.650 25.710 26.540 -1.608 -2.335 1.8620 36.345 6.863 29.446 34.841 5.672 29.155 1261.680
VANMET_231 2018-09-28 14:15:00 231 11739.0 27.260 26.760 26.660 26.530 26.040 17.640 16.750 0.569 -0.709 15.780 13.760 11.210 9.850 0.109 0.140 0.190 0.516 580.50 0.00 0.00 1.4000 212.90 31.94 27.300 26.940 26.820 26.350 26.590 2.919 0.567 27.210 26.620 26.540 25.770 26.430 -1.124 -2.023 2.8350 36.196 6.365 29.811 34.677 5.800 28.869 1219.050
VANMET_231 2018-09-28 14:10:00 231 11739.0 27.300 26.930 26.870 26.690 26.030 20.270 18.420 2.541 0.698 15.720 13.760 11.210 9.850 0.109 0.140 0.190 0.516 587.10 0.00 0.00 1.1020 206.90 46.74 27.450 27.140 27.080 26.360 26.850 4.293 2.938 27.120 26.620 26.550 25.740 26.420 -0.610 -1.502 2.4700 36.281 7.334 28.927 35.005 6.425 28.557 1232.910
VANMET_231 2018-09-28 14:05:00 231 11739.0 26.950 26.700 26.720 26.500 25.880 20.820 18.930 2.585 0.916 15.670 13.760 11.210 9.850 0.109 0.140 0.190 0.516 557.30 0.00 0.00 0.9150 211.00 27.87 27.100 26.830 26.870 26.050 26.690 4.750 3.804 26.710 26.470 26.480 25.690 26.210 -0.882 -0.575 1.6140 35.544 7.357 28.144 34.616 6.527 28.063 1170.330
VANMET_231 2018-09-28 14:00:00 231 11739.0 26.790 26.420 26.360 26.200 25.810 17.920 16.960 0.390 -0.816 15.610 13.760 11.210 9.850 0.109 0.140 0.190 0.516 579.00 0.00 0.00 1.5130 214.50 54.31 27.040 26.800 26.720 26.090 26.480 2.136 0.947 26.620 26.220 26.190 25.600 26.040 -1.899 -2.265 2.9470 35.212 6.283 28.902 34.009 5.754 28.241 1215.900
VANMET_231 2018-09-28 13:55:00 231 11739.0 26.970 26.780 26.820 26.600 25.800 17.260 16.640 0.065 -0.743 15.550 13.750 11.210 9.850 0.109 0.140 0.190 0.516 638.00 0.00 0.00 0.7350 206.50 42.98 27.030 26.920 26.940 26.070 26.680 1.047 0.758 26.820 26.700 26.630 25.640 26.490 -0.676 -1.992 1.9860 35.586 6.137 29.444 34.821 5.785 29.026 1339.800
VANMET_231 2018-09-28 13:50:00 231 11739.0 26.590 26.330 26.380 26.150 25.800 18.510 17.630 0.699 -0.307 15.490 13.750 11.210 9.850 0.109 0.140 0.190 0.516 638.30 0.00 0.00 0.9020 182.90 47.25 26.810 26.710 26.790 26.150 26.500 3.201 2.196 26.390 26.050 26.090 25.420 25.950 -0.897 -1.355 1.9600 34.800 6.426 28.359 33.909 5.973 27.931 1340.430
VANMET_231 2018-09-28 13:45:00 231 11739.0 26.520 26.150 26.170 26.090 25.650 18.240 16.860 0.414 -0.977 15.440 13.750 11.200 9.850 0.109 0.140 0.190 0.516 628.00 0.00 0.00 1.3400 209.70 44.08 26.620 26.350 26.380 26.020 26.210 3.304 0.988 26.400 25.970 26.020 25.390 25.960 -1.952 -2.375 2.8620 34.657 6.294 28.336 33.789 5.687 28.092 1318.800
VANMET_231 2018-09-28 13:40:00 231 11739.0 26.630 26.130 26.220 26.150 25.360 18.150 17.330 0.412 -0.560 15.380 13.750 11.200 9.850 0.109 0.140 0.190 0.516 663.90 0.00 0.00 1.3890 188.50 54.84 26.770 26.300 26.380 25.570 26.280 3.893 1.644 26.430 26.020 26.050 25.150 26.060 -1.326 -2.046 2.8290 34.882 6.293 28.551 33.909 5.863 28.033 1394.190
VANMET_231 2018-09-28 13:35:00 231 11739.0 26.750 26.380 26.580 26.420 25.470 18.030 16.770 0.462 -0.794 15.330 13.750 11.200 9.850 0.109 0.140 0.190 0.516 662.50 0.00 0.00 0.9110 179.90 47.48 26.810 26.470 26.640 25.660 26.470 2.945 1.001 26.670 26.300 26.500 25.210 26.330 -1.304 -2.115 1.7440 35.129 6.316 28.795 34.453 5.764 28.676 1391.250
VANMET_231 2018-09-28 13:30:00 231 11739.0 26.810 26.400 26.620 26.510 25.490 17.790 16.250 0.305 -1.139 15.270 13.750 11.200 9.850 0.109 0.140 0.190 0.516 685.40 0.00 0.00 0.9160 161.30 38.36 27.100 26.800 26.900 26.120 26.770 3.361 0.783 26.670 26.240 26.480 25.160 26.400 -1.919 -2.287 1.8950 35.253 6.245 28.982 34.637 5.620 29.008 1439.340
VANMET_231 2018-09-28 13:25:00 231 11739.0 27.080 26.780 26.940 26.720 26.100 18.290 16.730 0.895 -0.561 15.220 13.750 11.200 9.850 0.109 0.140 0.190 0.516 694.30 0.00 0.00 0.9430 180.60 37.16 27.120 26.880 27.070 26.510 26.850 4.265 1.241 27.040 26.690 26.800 25.790 26.630 -1.159 -1.443 1.5420 35.816 6.517 29.265 35.067 5.863 29.200 1458.030
VANMET_231 2018-09-28 13:20:00 231 11739.0 26.960 26.720 26.690 26.440 26.040 17.770 17.050 0.391 -0.559 15.160 13.750 11.200 9.850 0.109 0.140 0.190 0.516 702.90 0.00 0.00 1.1440 203.50 20.40 27.110 26.870 26.910 26.460 26.640 3.779 1.677 26.760 26.450 26.290 25.590 26.190 -1.602 -2.761 2.0510 35.565 6.284 29.245 34.494 5.864 28.613 1476.090
VANMET_231 2018-09-28 13:15:00 231 11739.0 26.630 26.530 26.470 26.340 25.970 17.000 15.950 -0.478 -1.557 15.110 13.750 11.200 9.850 0.109 0.140 0.190 0.516 711.60 0.00 0.00 1.3670 213.40 37.58 26.750 26.780 26.780 26.640 26.510 2.764 0.989 26.340 26.400 26.250 25.530 26.180 -2.131 -2.861 2.3780 34.882 5.899 28.952 34.291 5.449 28.822 1494.360
VANMET_231 2018-09-28 13:10:00 231 11739.0 25.600 25.860 25.930 25.760 25.890 19.950 17.620 0.926 -0.655 15.050 13.760 11.200 9.850 0.109 0.140 0.190 0.516 705.30 0.00 0.00 1.3020 235.20 19.55 26.270 26.590 26.610 26.630 26.270 2.890 1.217 25.060 25.140 25.280 24.830 25.400 -0.903 -2.114 2.1100 32.823 6.532 26.275 33.136 5.823 27.298 1481.130
VANMET_231 2018-09-28 13:05:00 231 11739.0 25.170 25.340 25.540 25.580 24.940 19.370 17.380 0.169 -0.984 15.000 13.760 11.200 9.850 0.109 0.140 0.190 0.516 708.00 0.00 0.00 1.0400 170.70 39.83 25.280 25.470 25.720 25.190 25.720 1.467 0.892 25.050 25.120 25.290 24.730 25.430 -1.953 -2.770 1.9010 31.996 6.183 25.798 32.785 5.684 27.087 1486.800
VANMET_231 2018-09-28 13:00:00 231 11739.0 25.290 25.400 25.770 25.830 25.310 19.400 17.250 0.301 -0.869 14.950 13.760 11.200 9.850 0.109 0.140 0.190 0.516 667.20 0.00 0.00 1.0370 198.30 58.81 25.320 25.630 25.900 25.640 25.950 2.004 0.352 25.240 25.090 25.570 24.810 25.630 -0.853 -1.895 1.9210 32.225 6.243 25.973 33.274 5.732 27.534 1401.120
VANMET_231 2018-09-28 12:55:00 231 11739.0 25.440 25.250 25.560 25.620 24.940 20.370 18.310 1.070 -0.238 14.900 13.760 11.200 9.850 0.109 0.140 0.190 0.516 704.40 0.00 0.00 0.7180 180.90 47.30 25.590 25.620 25.770 25.550 25.760 2.863 1.376 25.220 24.990 25.350 24.420 25.440 -1.162 -2.009 1.3920 32.513 6.600 25.890 32.862 6.003 26.845 1479.240
VANMET_231 2018-09-28 12:50:00 231 11739.0 25.810 25.600 25.700 25.800 25.230 19.610 17.620 0.860 -0.609 14.850 13.770 11.200 9.850 0.109 0.140 0.190 0.516 665.20 0.00 0.00 1.2430 210.90 50.86 26.090 25.730 25.780 25.610 25.890 3.815 0.741 25.580 25.450 25.530 25.020 25.690 -1.287 -2.730 2.2210 33.234 6.501 26.717 33.215 5.842 27.362 1396.920
VANMET_231 2018-09-28 12:45:00 231 11739.0 26.200 25.960 25.920 25.960 25.530 19.400 18.040 1.014 -0.162 14.800 13.770 11.200 9.850 0.109 0.140 0.190 0.516 694.20 0.00 0.00 1.0940 212.60 41.04 26.340 26.200 26.160 25.920 26.080 3.046 1.493 26.090 25.750 25.690 25.000 25.820 -1.338 -1.634 1.6990 34.009 6.573 27.412 33.531 6.036 27.482 1457.820
VANMET_231 2018-09-28 12:40:00 231 11739.0 25.910 25.670 25.690 25.660 25.340 20.070 19.380 1.255 0.569 14.760 13.770 11.200 9.860 0.109 0.140 0.190 0.516 720.40 0.00 0.00 1.1500 229.20 34.77 26.140 26.020 26.050 25.910 25.960 3.237 2.839 25.720 25.350 25.340 25.010 25.500 -1.049 -1.445 3.1880 33.432 6.689 26.722 32.940 6.365 26.557 1512.840
VANMET_231 2018-09-28 12:35:00 231 11739.0 25.760 25.510 25.560 25.620 24.940 19.460 18.350 0.726 -0.191 14.710 13.780 11.200 9.860 0.109 0.140 0.190 0.516 683.10 0.00 0.00 1.1050 210.20 35.81 25.830 25.610 25.640 25.160 25.650 2.079 1.020 25.710 25.440 25.440 24.520 25.550 -0.728 -1.345 2.3260 33.136 6.438 26.688 32.862 6.023 26.832 1434.510
VANMET_231 2018-09-28 12:30:00 231 11739.0 25.690 25.640 25.710 25.760 25.370 19.590 17.880 0.743 -0.431 14.670 13.780 11.200 9.860 0.109 0.140 0.190 0.516 661.30 0.00 0.00 1.2770 243.00 44.69 25.750 25.730 25.960 25.850 25.950 2.934 1.108 25.560 25.530 25.550 24.930 25.600 -0.814 -1.203 3.6130 32.999 6.446 26.534 33.136 5.919 27.211 1388.730
VANMET_231 2018-09-28 12:25:00 231 11739.0 25.410 25.430 25.750 25.740 25.430 20.270 18.940 0.995 0.336 14.620 13.790 11.200 9.860 0.109 0.140 0.190 0.516 685.70 0.00 0.00 1.1700 237.60 25.46 25.550 25.720 26.000 25.760 25.960 2.896 1.758 25.340 25.280 25.450 24.950 25.480 -0.974 -1.433 2.4630 32.455 6.564 25.877 33.097 6.259 26.828 1439.970
VANMET_231 2018-09-28 12:20:00 231 11739.0 25.680 25.350 25.420 25.570 24.620 19.010 17.870 0.341 -0.604 14.580 13.790 11.190 9.860 0.109 0.140 0.190 0.516 655.30 0.00 0.00 0.8490 167.60 30.68 25.880 25.500 25.560 24.830 25.790 1.742 0.503 25.440 25.190 25.300 24.350 25.420 -1.037 -1.585 1.4240 32.979 6.261 26.710 32.765 5.844 26.910 1376.130
VANMET_231 2018-09-28 12:15:00 231 11739.0 25.930 25.610 25.760 25.870 24.960 20.270 18.390 1.403 0.028 14.540 13.800 11.190 9.860 0.109 0.140 0.190 0.516 696.10 0.00 0.00 1.0520 192.40 37.84 25.990 25.710 25.840 25.430 25.910 3.834 1.819 25.870 25.500 25.570 24.570 25.740 -1.359 -1.656 2.1170 33.471 6.760 26.687 33.353 6.120 27.219 1461.810
VANMET_231 2018-09-28 12:10:00 231 11739.0 25.820 25.400 25.500 25.460 24.880 19.320 18.130 0.672 -0.490 14.500 13.800 11.190 9.860 0.109 0.140 0.190 0.516 713.90 0.00 0.00 0.8940 181.90 56.05 25.950 25.640 25.760 25.410 25.700 2.058 0.874 25.640 25.270 25.390 24.590 25.340 -1.044 -1.625 1.4700 33.254 6.413 26.829 32.552 5.893 26.650 1499.190
VANMET_231 2018-09-28 12:05:00 231 11739.0 25.710 25.270 25.390 25.470 24.640 17.860 16.460 -0.536 -1.821 14.470 13.810 11.190 9.860 0.109 0.140 0.190 0.516 742.90 0.00 0.00 0.8600 174.30 43.32 25.910 25.540 25.650 25.090 25.680 1.595 0.101 25.500 25.000 25.160 24.200 25.320 -3.131 -3.871 2.3980 33.038 5.874 27.138 32.571 5.344 27.210 1560.090
VANMET_231 2018-09-28 12:00:00 231 11739.0 25.740 25.430 25.480 25.450 24.720 18.600 16.350 0.077 -1.914 14.430 13.810 11.190 9.860 0.109 0.140 0.190 0.516 743.10 0.00 0.00 0.8990 187.10 26.94 25.880 25.560 25.610 24.910 25.590 1.787 0.289 25.630 25.320 25.340 24.420 25.320 -2.147 -3.205 1.6590 33.097 6.142 26.941 32.533 5.308 27.214 1560.510
VANMET_231 2018-09-28 11:55:00 231 11739.0 25.550 25.230 25.300 25.350 24.500 19.130 17.710 0.289 -0.940 14.400 13.820 11.190 9.860 0.109 0.140 0.190 0.516 750.60 0.00 0.00 1.0310 161.40 28.79 25.610 25.300 25.380 24.660 25.400 3.335 1.431 25.510 25.190 25.250 24.080 25.300 -1.737 -3.183 1.6400 32.726 6.237 26.466 32.340 5.702 26.613 1576.260
VANMET_231 2018-09-28 11:50:00 231 11739.0 25.410 25.170 25.320 25.410 24.390 21.070 19.390 1.534 0.403 14.360 13.820 11.190 9.860 0.109 0.140 0.190 0.516 732.00 0.00 0.00 0.8700 190.10 35.31 25.510 25.250 25.370 24.800 25.480 2.781 1.059 25.310 25.090 25.240 24.000 25.340 -0.262 -0.582 1.7380 32.455 6.824 25.617 32.455 6.289 26.162 1537.200
VANMET_231 2018-09-28 11:45:00 231 11739.0 25.080 25.150 25.290 25.300 24.660 21.530 19.650 1.560 0.489 14.330 13.830 11.190 9.860 0.109 0.140 0.190 0.516 745.80 0.00 0.00 0.8360 165.50 36.68 25.300 25.290 25.460 24.980 25.420 2.984 1.552 24.790 24.970 25.150 24.260 25.210 -0.168 -0.462 1.6140 31.825 6.837 24.973 32.244 6.329 25.908 1566.180
VANMET_231 2018-09-28 11:40:00 231 11739.0 24.650 24.770 25.070 25.170 24.300 22.750 20.790 1.979 1.154 14.300 13.840 11.190 9.860 0.109 0.140 0.190 0.516 742.70 0.00 0.00 1.0430 171.70 28.29 24.770 24.930 25.120 24.580 25.260 3.358 3.156 24.550 24.610 25.030 23.910 25.080 0.423 0.105 2.1040 31.019 7.046 23.962 31.996 6.640 25.344 1559.670
VANMET_231 2018-09-28 11:35:00 231 11739.0 24.470 24.520 24.900 25.070 24.240 21.260 19.810 0.894 0.412 14.280 13.840 11.190 9.860 0.109 0.140 0.190 0.516 737.80 0.00 0.00 0.8640 176.40 29.89 24.550 24.610 25.040 24.460 25.240 2.451 1.598 24.380 24.390 24.710 23.920 24.920 -0.873 -1.385 1.4180 30.688 6.517 24.163 31.806 6.293 25.505 1549.380
VANMET_231 2018-09-28 11:30:00 231 11739.0 24.550 24.470 24.720 24.730 24.090 21.750 20.190 1.277 0.395 14.250 13.850 11.190 9.860 0.109 0.140 0.190 0.516 735.50 0.00 0.00 0.9880 154.30 33.54 24.730 24.590 24.850 24.310 24.930 2.526 1.651 24.440 24.390 24.630 23.920 24.580 0.043 -0.536 2.2080 30.835 6.699 24.128 31.168 6.286 24.875 1544.550
VANMET_231 2018-09-28 11:25:00 231 11739.0 24.800 24.520 24.730 24.770 23.940 19.960 18.940 0.304 -0.442 14.230 13.860 11.190 9.860 0.109 0.140 0.190 0.516 732.00 0.00 0.00 1.0040 169.70 41.24 24.900 24.660 24.920 24.190 24.920 1.556 0.134 24.680 24.450 24.650 23.740 24.670 -0.913 -1.155 2.0840 31.298 6.244 25.051 31.242 5.914 25.325 1537.200
VANMET_231 2018-09-28 11:20:00 231 11739.0 24.970 24.550 24.670 24.780 23.830 20.380 19.310 0.722 -0.174 14.210 13.860 11.190 9.860 0.109 0.140 0.190 0.516 726.10 0.00 0.00 0.9210 188.80 42.60 25.050 24.720 24.830 24.070 24.890 1.844 0.860 24.840 24.360 24.560 23.600 24.660 -0.494 -0.976 2.3720 31.617 6.436 25.174 31.261 6.031 25.225 1524.810
VANMET_231 2018-09-28 11:15:00 231 11739.0 24.640 24.490 24.720 24.870 23.690 20.360 19.330 0.405 -0.103 14.190 13.870 11.190 9.860 0.109 0.140 0.190 0.516 720.70 0.00 0.00 0.8310 178.50 28.86 24.940 24.660 24.820 23.860 24.950 3.260 1.498 24.410 24.340 24.640 23.460 24.780 -0.974 -1.282 1.2740 31.001 6.290 24.689 31.429 6.062 25.354 1513.470
VANMET_231 2018-09-28 11:10:00 231 11739.0 24.120 24.160 24.470 24.550 23.730 23.050 20.890 1.700 0.711 14.170 13.880 11.190 9.860 0.109 0.140 0.190 0.516 717.20 0.00 0.00 0.6770 198.10 32.29 24.380 24.420 24.730 23.870 24.770 3.623 2.151 23.930 23.980 24.300 23.510 24.420 -0.177 -0.932 1.1500 30.051 6.906 23.124 30.835 6.431 24.393 1506.120
VANMET_231 2018-09-28 11:05:00 231 11739.0 24.130 24.100 24.390 24.450 23.950 22.680 20.870 1.464 0.612 14.150 13.890 11.190 9.860 0.109 0.140 0.190 0.516 713.00 0.00 0.00 1.3820 217.70 16.44 24.230 24.240 24.540 24.210 24.530 3.824 1.711 23.950 23.960 24.260 23.680 24.370 -1.213 -1.270 2.1630 30.069 6.790 23.249 30.651 6.385 24.254 1497.300
VANMET_231 2018-09-28 11:00:00 231 11739.0 24.240 23.960 24.140 24.130 23.570 23.010 22.230 1.786 1.228 14.140 13.900 11.190 9.860 0.109 0.140 0.190 0.516 702.80 0.00 0.00 0.9490 202.70 21.28 24.370 24.100 24.380 23.900 24.380 3.399 2.739 24.180 23.840 23.990 23.400 23.920 -0.309 -0.057 1.8690 30.268 6.949 23.303 30.069 6.676 23.385 1475.880
VANMET_231 2018-09-28 10:55:00 231 11739.0 24.440 23.900 23.950 23.890 23.330 24.260 24.310 2.678 2.252 14.130 13.900 11.190 9.860 0.109 0.140 0.190 0.516 696.90 0.00 0.00 1.1860 208.50 31.82 24.600 24.050 24.120 23.550 23.970 4.712 4.485 24.270 23.790 23.810 23.050 23.840 0.441 0.299 2.3060 30.632 7.406 23.201 29.639 7.184 22.434 1463.490
VANMET_231 2018-09-28 10:50:00 231 11739.0 24.280 23.820 23.860 23.720 23.090 25.620 24.460 3.349 2.233 14.120 13.910 11.190 9.860 0.109 0.140 0.190 0.516 689.40 0.00 0.00 1.0640 217.20 24.65 24.480 23.960 23.960 23.370 23.870 4.786 3.404 23.970 23.600 23.660 22.840 23.510 2.167 1.755 1.7310 30.341 7.767 22.567 29.338 7.175 22.162 1447.740
VANMET_231 2018-09-28 10:45:00 231 11739.0 23.810 23.370 23.500 23.430 22.710 24.920 25.140 2.562 2.368 14.110 13.920 11.190 9.860 0.109 0.140 0.190 0.516 681.00 0.00 0.00 0.8390 204.60 36.56 23.940 23.540 23.610 22.860 23.510 3.802 3.968 23.660 23.180 23.360 22.510 23.330 1.332 1.539 1.6140 29.497 7.345 22.146 28.830 7.244 21.582 1430.100
VANMET_231 2018-09-28 10:40:00 231 11739.0 23.840 23.360 23.480 23.400 22.650 23.150 23.520 1.564 1.410 14.100 13.930 11.190 9.860 0.109 0.140 0.190 0.516 672.40 0.00 0.00 0.7500 211.20 54.40 23.970 23.510 23.620 22.880 23.450 2.483 2.908 23.750 23.220 23.350 22.400 23.370 0.479 0.073 1.7120 29.550 6.839 22.709 28.778 6.764 22.009 1412.040
VANMET_231 2018-09-28 10:35:00 231 11739.0 24.000 23.410 23.430 23.310 22.590 24.360 24.460 2.399 1.875 14.090 13.930 11.190 9.860 0.109 0.140 0.190 0.516 661.60 0.00 0.00 0.9710 196.10 40.94 24.130 23.540 23.570 22.910 23.440 4.379 3.344 23.810 23.280 23.300 22.200 23.190 0.817 0.883 2.2340 29.835 7.260 22.568 28.622 6.993 21.621 1389.360
VANMET_231 2018-09-28 10:30:00 231 11739.0 23.690 23.100 23.110 23.040 22.110 23.390 23.680 1.569 1.206 14.090 13.940 11.190 9.860 0.109 0.140 0.190 0.516 655.10 0.00 0.00 0.5740 183.60 36.79 23.800 23.250 23.240 22.250 23.160 2.629 2.495 23.540 22.890 22.920 21.990 22.770 0.350 0.432 1.0320 29.285 6.841 22.435 28.159 6.665 21.491 1375.710
VANMET_231 2018-09-28 10:25:00 231 11739.0 23.380 22.860 22.950 22.880 21.970 23.540 23.230 1.404 0.809 14.090 13.950 11.190 9.860 0.109 0.140 0.190 0.516 646.60 0.00 0.00 0.7350 150.10 39.20 23.540 22.940 23.030 22.010 22.950 2.696 1.897 23.280 22.730 22.830 21.890 22.810 0.139 0.073 1.8360 28.743 6.761 21.977 27.888 6.477 21.409 1357.860
VANMET_231 2018-09-28 10:20:00 231 11739.0 23.340 22.930 22.930 22.820 21.850 23.830 23.520 1.529 0.924 14.090 13.960 11.180 9.860 0.109 0.140 0.190 0.516 635.90 0.00 0.00 0.7420 180.00 44.67 23.450 23.000 23.020 22.040 22.870 3.046 2.035 23.150 22.840 22.830 21.580 22.690 -0.219 -0.241 1.2810 28.674 6.822 21.841 27.787 6.531 21.251 1335.390
VANMET_231 2018-09-28 10:15:00 231 11739.0 22.690 22.440 22.520 22.300 21.580 24.500 24.510 1.371 1.045 14.090 13.970 11.180 9.860 0.109 0.140 0.190 0.516 632.50 0.00 0.00 0.5550 164.40 31.02 23.110 22.830 22.840 21.640 22.650 2.533 2.400 22.270 22.050 22.150 21.520 21.980 0.184 -0.026 1.0910 27.569 6.745 20.814 26.923 6.588 20.325 1328.250
VANMET_231 2018-09-28 10:10:00 231 11739.0 22.130 21.710 21.770 21.800 21.480 24.280 24.660 0.783 0.720 14.090 13.980 11.180 9.860 0.109 0.140 0.190 0.516 628.50 0.00 0.00 1.0090 196.20 28.38 22.220 21.990 22.080 21.640 21.930 1.632 1.946 22.070 21.600 21.650 21.410 21.740 -0.383 0.153 1.9270 26.646 6.465 20.177 26.116 6.435 19.676 1319.850
VANMET_231 2018-09-28 10:05:00 231 11739.0 22.350 21.980 22.050 22.060 21.540 24.350 24.490 1.012 0.850 14.100 13.980 11.180 9.860 0.109 0.140 0.190 0.516 616.80 0.00 0.00 1.5120 219.80 12.57 22.490 22.270 22.400 21.720 22.270 2.391 1.705 22.190 21.730 21.780 21.400 21.840 0.416 0.158 1.9530 27.005 6.573 20.430 26.533 6.496 20.035 1295.280
VANMET_231 2018-09-28 10:00:00 231 11739.0 22.130 21.970 22.120 22.030 21.520 26.530 26.140 2.025 1.734 14.110 13.990 11.180 9.860 0.109 0.140 0.190 0.516 603.60 0.00 0.00 0.6830 199.80 42.59 22.370 22.280 22.430 21.700 22.230 2.784 2.460 22.040 21.820 21.950 21.390 21.950 1.191 1.251 1.6460 26.646 7.069 19.577 26.485 6.923 19.562 1267.560
VANMET_231 2018-09-28 09:55:00 231 11739.0 21.980 21.810 21.950 22.030 21.340 26.780 26.510 2.033 1.927 14.110 14.000 11.180 9.860 0.109 0.140 0.190 0.516 593.00 0.00 0.00 1.0040 209.50 28.64 22.060 21.930 22.150 21.440 22.170 2.650 2.775 21.860 21.700 21.810 21.250 21.910 1.459 1.446 1.7510 26.404 7.073 19.333 26.485 7.019 19.464 1245.300
VANMET_231 2018-09-28 09:50:00 231 11739.0 21.740 21.720 21.930 22.020 21.190 26.860 26.280 1.860 1.793 14.120 14.010 11.180 9.860 0.109 0.140 0.190 0.516 582.50 0.00 0.00 0.7840 189.80 28.80 21.860 21.800 22.020 21.280 22.080 2.727 2.387 21.600 21.660 21.850 21.130 21.950 1.110 1.212 1.3070 26.020 6.986 19.031 26.468 6.952 19.513 1223.250
VANMET_231 2018-09-28 09:45:00 231 11739.0 21.430 21.750 21.960 22.120 21.140 27.280 25.670 1.806 1.542 14.130 14.020 11.180 9.870 0.109 0.140 0.190 0.516 572.30 0.00 0.00 0.7480 207.10 29.09 21.630 21.830 22.040 21.250 22.190 2.845 2.884 21.140 21.560 21.780 21.070 21.950 0.816 0.799 1.3460 25.532 6.959 18.567 26.630 6.828 19.794 1201.830
VANMET_231 2018-09-28 09:40:00 231 11739.0 20.920 21.220 21.480 21.810 21.090 28.940 26.890 2.202 1.943 14.150 14.030 11.180 9.870 0.109 0.140 0.190 0.516 563.30 0.00 0.00 0.8240 200.30 21.22 21.120 21.500 21.720 21.190 21.920 3.279 2.439 20.740 20.970 21.310 20.960 21.740 1.215 1.290 1.2350 24.745 7.159 17.584 26.132 7.027 19.105 1182.930
VANMET_231 2018-09-28 09:35:00 231 11739.0 20.600 20.820 21.120 21.530 21.010 29.210 27.140 2.053 1.822 14.160 14.040 11.180 9.870 0.109 0.140 0.190 0.516 555.90 0.00 0.00 0.7630 206.00 41.77 20.780 20.960 21.310 21.230 21.740 2.697 3.154 20.410 20.720 20.890 20.740 21.310 1.364 1.141 1.3790 24.263 7.083 17.176 25.688 6.967 18.717 1167.390
VANMET_231 2018-09-28 09:30:00 231 11739.0 20.240 20.540 20.730 21.190 20.610 30.680 27.480 2.413 1.684 14.170 14.040 11.180 9.870 0.109 0.140 0.190 0.516 543.50 0.00 0.00 0.9940 214.30 27.59 20.380 20.690 20.840 20.990 21.300 3.494 2.773 20.120 20.380 20.570 20.090 21.020 0.642 0.211 2.0060 23.730 7.267 16.450 25.159 6.898 18.245 1141.350
VANMET_231 2018-09-28 09:25:00 231 11739.0 19.950 20.280 20.500 21.040 20.260 31.020 27.620 2.311 1.646 14.190 14.050 11.180 9.870 0.109 0.140 0.190 0.516 533.80 0.00 0.00 0.4210 186.50 29.75 20.100 20.370 20.560 20.390 21.100 4.421 2.584 19.790 20.230 20.460 20.040 20.990 1.039 1.027 0.9410 23.308 7.215 16.078 24.928 6.879 18.043 1120.980
VANMET_231 2018-09-28 09:20:00 231 11739.0 19.630 20.080 20.350 21.030 20.070 31.880 28.130 2.417 1.891 14.200 14.060 11.180 9.870 0.109 0.140 0.190 0.516 523.90 0.00 0.00 0.7580 128.70 47.43 19.770 20.190 20.450 20.250 21.150 3.992 2.972 19.520 19.920 20.220 19.900 20.850 0.924 0.604 1.5160 22.850 7.269 15.565 24.913 7.001 17.905 1100.190
VANMET_231 2018-09-28 09:15:00 231 11739.0 19.520 19.730 20.110 20.680 19.710 35.920 30.170 3.971 2.565 14.210 14.070 11.180 9.870 0.109 0.140 0.190 0.516 511.70 0.00 0.00 0.4230 122.50 64.44 19.560 19.890 20.220 19.970 20.850 6.429 4.759 19.430 19.590 19.950 19.450 20.400 1.934 1.660 1.2150 22.695 8.116 14.543 24.383 7.347 17.026 1074.570
VANMET_231 2018-09-28 09:10:00 231 11739.0 19.380 19.600 19.850 20.300 19.510 35.820 31.490 3.833 2.832 14.230 14.080 11.180 9.870 0.109 0.140 0.190 0.516 499.80 0.00 0.00 0.6770 120.40 60.90 19.440 19.730 19.940 19.800 20.460 5.515 4.654 19.260 19.540 19.790 19.300 20.220 1.719 1.509 1.6920 22.498 8.037 14.439 23.818 7.487 16.318 1049.580
VANMET_231 2018-09-28 09:05:00 231 11739.0 19.140 19.550 19.820 20.360 19.360 36.030 31.460 3.730 2.888 14.250 14.080 11.180 9.870 0.109 0.140 0.190 0.516 486.50 0.00 0.00 0.3390 159.80 45.81 19.270 19.680 19.910 19.630 20.500 5.020 3.504 19.060 19.350 19.700 19.190 20.140 2.626 2.262 1.0190 22.164 7.979 14.178 23.906 7.517 16.385 1021.650
VANMET_231 2018-09-28 09:00:00 231 11739.0 18.980 19.180 19.560 19.950 19.270 33.400 29.430 2.503 1.600 14.260 14.090 11.180 9.870 0.109 0.140 0.190 0.516 463.00 0.00 0.00 0.5600 144.90 61.00 19.050 19.320 19.670 19.340 20.120 4.700 2.188 18.910 19.060 19.460 19.130 19.810 1.337 1.143 1.4240 21.944 7.314 14.615 23.308 6.857 16.448 972.300
VANMET_231 2018-09-28 08:55:00 231 11739.0 18.780 19.040 19.360 19.680 19.250 32.830 30.040 2.100 1.648 14.280 14.100 11.180 9.870 0.109 0.140 0.190 0.516 463.30 0.00 0.00 0.7120 104.20 43.80 18.920 19.140 19.570 19.390 19.910 3.645 2.517 18.630 18.890 19.060 19.060 19.330 1.111 0.940 2.1170 21.672 7.107 14.557 22.921 6.880 16.036 972.930
VANMET_231 2018-09-28 08:50:00 231 11739.0 18.480 18.850 19.090 19.340 18.940 32.510 29.610 1.695 1.162 14.290 14.110 11.170 9.870 0.109 0.140 0.190 0.516 449.90 0.00 0.00 1.4190 61.94 27.03 18.630 18.920 19.240 19.100 19.490 4.102 2.092 18.340 18.770 19.000 18.800 19.270 1.030 0.653 2.3980 21.269 6.904 14.354 22.442 6.644 15.797 944.790
VANMET_231 2018-09-28 08:45:00 231 11739.0 18.230 18.850 19.510 19.750 18.850 37.250 30.970 3.351 2.121 14.310 14.110 11.170 9.870 0.109 0.140 0.190 0.516 433.70 0.00 0.00 0.7330 104.40 58.94 18.320 18.880 19.680 18.940 19.840 5.367 4.343 18.150 18.810 19.280 18.790 19.540 0.977 0.509 1.7640 20.938 7.768 13.139 23.021 7.117 15.891 910.770
VANMET_231 2018-09-28 08:40:00 231 11739.0 17.890 18.760 19.840 20.010 18.700 38.780 30.760 3.614 2.265 14.330 14.120 11.170 9.870 0.109 0.140 0.190 0.516 418.50 0.00 0.00 0.4720 47.47 78.02 18.150 18.870 19.950 18.860 20.140 6.560 3.292 17.710 18.610 19.690 18.430 19.870 1.835 1.336 1.3330 20.495 7.914 12.547 23.395 7.191 16.198 878.850
VANMET_231 2018-09-28 08:35:00 231 11739.0 17.760 18.720 20.010 20.210 18.390 41.880 32.190 4.618 3.080 14.340 14.130 11.170 9.870 0.109 0.140 0.190 0.516 403.00 0.00 0.00 0.2320 113.80 28.58 17.790 18.870 20.140 18.830 20.410 6.157 4.651 17.710 18.560 19.880 18.040 20.030 2.499 1.873 1.2670 20.328 8.493 11.815 23.686 7.620 16.061 846.300
VANMET_231 2018-09-28 08:30:00 231 11739.0 17.850 18.760 19.820 19.880 18.320 43.750 32.780 5.361 3.047 14.360 14.140 11.170 9.870 0.109 0.140 0.190 0.516 389.40 0.00 0.00 0.0830 214.50 10.72 17.940 18.900 19.990 18.690 20.110 5.945 4.412 17.790 18.620 19.700 17.860 19.720 4.548 2.175 0.4120 20.444 8.945 11.500 23.207 7.603 15.600 817.740
VANMET_231 2018-09-28 08:25:00 231 11739.0 17.940 18.740 19.650 19.650 18.010 43.030 33.380 5.198 3.101 14.380 14.140 11.170 9.870 0.109 0.140 0.190 0.516 376.00 0.00 0.00 0.1210 192.90 17.96 18.030 18.930 19.730 18.360 19.820 6.042 4.284 17.840 18.600 19.620 17.830 19.410 4.116 1.895 0.5030 20.560 8.844 11.713 22.878 7.632 15.242 789.600
VANMET_231 2018-09-28 08:20:00 231 11739.0 17.720 18.700 19.450 19.320 18.020 40.020 32.340 3.955 2.376 14.390 14.150 11.170 9.870 0.109 0.140 0.190 0.516 362.00 0.00 0.00 0.3280 196.20 36.03 18.020 18.880 19.610 18.270 19.400 4.891 3.321 17.310 18.360 19.210 17.760 19.170 2.184 1.737 0.7710 20.277 8.106 12.162 22.414 7.248 15.165 760.200
VANMET_231 2018-09-28 08:15:00 231 11739.0 16.890 17.880 18.790 18.830 17.660 42.090 33.540 3.916 2.447 14.410 14.160 11.170 9.870 0.109 0.140 0.190 0.516 347.00 0.00 0.00 0.1250 219.70 10.64 17.280 18.330 19.180 18.140 19.150 4.995 3.533 16.690 17.520 18.460 17.030 18.510 2.209 1.402 0.6270 19.241 8.084 11.142 21.740 7.285 14.448 728.700
VANMET_231 2018-09-28 08:10:00 231 11739.0 16.550 17.630 18.550 18.500 17.580 42.810 33.520 3.864 2.150 14.430 14.160 11.170 9.870 0.109 0.140 0.190 0.516 332.10 0.00 0.00 0.1930 285.10 68.96 16.720 17.770 18.660 17.930 18.610 5.185 2.865 16.370 17.390 18.450 17.240 18.400 2.305 1.433 0.5490 18.830 8.055 10.769 21.296 7.132 14.157 697.410
VANMET_231 2018-09-28 08:05:00 231 11739.0 16.340 17.450 18.510 18.410 17.390 42.390 33.370 3.534 2.014 14.450 14.170 11.170 9.870 0.109 0.140 0.190 0.516 317.30 0.00 0.00 0.1430 123.20 63.10 16.420 17.620 18.670 17.660 18.570 5.051 3.000 16.140 17.240 18.260 16.990 18.200 2.354 1.498 0.6340 18.580 7.869 10.704 21.176 7.063 14.109 666.330
VANMET_231 2018-09-28 08:00:00 231 11739.0 15.920 16.950 17.950 17.930 17.310 41.810 32.580 2.961 1.261 14.470 14.180 11.170 9.870 0.109 0.140 0.190 0.516 303.50 0.00 0.00 0.1650 77.93 38.45 16.140 17.190 18.210 17.680 18.210 3.769 1.853 15.700 16.690 17.590 17.020 17.610 1.928 0.679 0.4970 18.088 7.556 10.526 20.547 6.692 13.853 637.350
VANMET_231 2018-09-28 07:55:00 231 11739.0 15.440 16.420 17.310 17.390 16.800 43.510 34.290 3.083 1.489 14.480 14.190 11.170 9.870 0.109 0.140 0.190 0.516 263.20 0.00 0.00 0.5790 32.77 51.33 15.670 16.670 17.540 17.080 17.550 4.296 2.481 15.200 16.260 17.070 16.480 17.240 0.823 0.415 1.3330 17.541 7.622 9.909 19.859 6.802 13.050 552.720
VANMET_231 2018-09-28 07:50:00 231 11739.0 14.880 15.820 16.550 16.760 16.540 44.710 34.430 2.956 0.992 14.500 14.190 11.170 9.870 0.109 0.140 0.190 0.516 253.90 0.00 0.00 0.5480 18.33 40.12 15.160 16.220 17.030 17.180 17.160 4.129 1.983 14.630 15.350 16.020 15.810 16.300 0.637 -0.063 1.1110 16.921 7.554 9.355 19.083 6.563 12.512 533.190
VANMET_231 2018-09-28 07:45:00 231 11739.0 14.360 15.240 15.800 16.010 16.000 45.510 36.120 2.739 0.991 14.520 14.200 11.160 9.870 0.109 0.140 0.190 0.516 82.80 0.00 0.00 0.7750 11.03 26.05 14.610 15.420 16.030 16.440 16.300 3.915 2.456 14.160 15.010 15.590 15.580 15.640 1.390 0.172 1.9080 16.362 7.438 8.916 18.193 6.563 11.622 173.880
VANMET_231 2018-09-28 07:40:00 231 11739.0 13.880 14.710 15.430 15.490 15.480 45.920 37.440 2.427 1.035 14.540 14.210 11.160 9.870 0.109 0.140 0.190 0.516 54.81 0.00 0.00 0.9070 17.02 46.44 14.150 15.030 15.620 15.960 15.630 3.933 2.617 13.750 14.500 15.180 14.990 15.300 1.507 0.243 1.8750 15.861 7.275 8.577 17.597 6.583 11.009 115.101
VANMET_231 2018-09-28 07:35:00 231 11739.0 13.780 14.720 15.410 15.370 15.120 47.190 37.690 2.730 1.024 14.560 14.210 11.160 9.870 0.109 0.140 0.190 0.516 142.30 0.00 0.00 0.6620 5.69 23.06 13.800 14.840 15.530 15.360 15.420 3.676 1.699 13.760 14.530 15.210 14.950 15.300 1.965 0.269 1.0850 15.758 7.433 8.322 17.462 6.578 10.881 298.830
VANMET_231 2018-09-28 07:30:00 231 11739.0 13.720 14.580 15.160 15.240 14.840 47.580 38.610 2.788 1.234 14.570 14.220 11.160 9.870 0.109 0.140 0.190 0.516 138.30 0.00 0.00 0.6500 10.45 29.68 13.820 14.780 15.410 15.230 15.330 3.442 2.364 13.600 14.420 14.960 14.480 15.170 1.678 0.272 1.6070 15.697 7.464 8.228 17.317 6.679 10.631 290.430
VANMET_231 2018-09-28 07:25:00 231 11739.0 13.660 14.410 15.030 15.270 14.650 48.130 38.600 2.892 1.260 14.590 14.230 11.160 9.870 0.109 0.140 0.190 0.516 175.80 0.00 0.00 0.7330 1.76 47.66 13.700 14.470 15.090 14.850 15.340 3.991 2.377 13.590 14.310 14.930 14.430 15.150 2.173 0.476 1.4770 15.635 7.519 8.110 17.351 6.691 10.653 369.180
VANMET_231 2018-09-28 07:20:00 231 11739.0 13.380 14.060 14.620 15.060 14.760 47.180 38.340 2.352 0.985 14.610 14.240 11.160 9.870 0.109 0.140 0.190 0.516 160.30 0.00 0.00 0.8950 15.31 28.80 13.620 14.340 14.940 15.020 15.230 3.257 1.728 13.170 13.730 14.300 14.520 14.870 1.502 0.357 1.8750 15.353 7.236 8.109 17.118 6.560 10.555 336.630
VANMET_231 2018-09-28 07:15:00 231 11739.0 13.060 13.500 14.040 14.460 14.380 48.370 39.550 2.410 0.876 14.630 14.240 11.160 9.870 0.109 0.140 0.190 0.516 160.80 0.00 0.00 0.6170 12.54 45.38 13.170 13.690 14.260 14.730 14.850 3.160 1.552 12.960 13.300 13.770 13.870 14.160 1.313 0.077 2.0970 15.035 7.266 7.763 16.468 6.508 9.955 337.680
VANMET_231 2018-09-28 07:10:00 231 11739.0 12.860 13.220 13.670 14.000 13.870 48.940 40.920 2.396 0.938 14.650 14.250 11.160 9.870 0.109 0.140 0.190 0.516 77.94 0.00 0.00 0.7450 11.21 43.23 12.970 13.310 13.760 14.130 14.140 3.239 1.578 12.740 13.100 13.570 13.570 13.900 1.313 -0.062 1.3130 14.840 7.259 7.577 15.985 6.538 9.444 163.674
VANMET_231 2018-09-28 07:05:00 231 11739.0 12.770 13.060 13.490 13.820 13.600 49.020 40.900 2.339 0.771 14.660 14.260 11.160 9.870 0.109 0.140 0.190 0.516 21.47 0.00 0.00 0.8360 20.83 40.33 12.830 13.140 13.560 13.870 13.890 3.147 1.367 12.730 13.000 13.440 13.470 13.770 1.138 0.199 1.5030 14.753 7.229 7.521 15.799 6.459 9.337 45.087
VANMET_231 2018-09-28 07:00:00 231 11739.0 12.870 13.240 13.640 13.850 13.770 48.540 40.540 2.292 0.670 14.680 14.260 11.160 9.870 0.109 0.140 0.190 0.516 19.12 0.00 0.00 0.8570 357.50 40.61 12.900 13.320 13.760 13.990 13.910 2.991 1.312 12.800 13.150 13.570 13.610 13.790 1.328 0.157 1.1560 14.850 7.205 7.642 15.830 6.412 9.412 40.152
VANMET_231 2018-09-28 06:55:00 231 11739.0 12.770 13.040 13.400 13.640 13.610 48.250 40.930 2.105 0.618 14.700 14.270 11.160 9.870 0.109 0.140 0.190 0.516 17.26 0.00 0.00 0.9570 5.51 47.04 12.790 13.270 13.620 13.910 13.760 2.869 1.319 12.730 12.960 13.340 13.450 13.610 0.727 0.129 1.7970 14.753 7.109 7.634 15.615 6.388 9.224 36.246
VANMET_231 2018-09-28 06:50:00 231 11739.0 12.790 13.060 13.420 13.690 13.550 47.320 40.110 1.855 0.378 14.720 14.270 11.150 9.870 0.109 0.140 0.190 0.516 15.83 0.00 0.00 0.8270 1.37 30.07 12.810 13.130 13.500 13.700 13.740 2.804 1.475 12.770 12.960 13.330 13.350 13.640 0.822 -0.157 1.2740 14.772 6.983 7.782 15.666 6.278 9.382 33.243
VANMET_231 2018-09-28 06:45:00 231 11739.0 12.800 13.110 13.470 13.710 13.690 47.010 39.310 1.776 0.115 14.740 14.280 11.150 9.870 0.109 0.140 0.190 0.516 14.33 0.00 0.00 0.8700 1.35 31.33 12.840 13.190 13.530 13.910 13.740 2.598 0.603 12.770 13.070 13.430 13.550 13.670 1.032 -0.666 1.4700 14.782 6.944 7.833 15.686 6.159 9.520 30.093
VANMET_231 2018-09-28 06:40:00 231 11739.0 12.760 13.060 13.390 13.630 13.600 46.350 39.380 1.545 0.069 14.760 14.290 11.150 9.870 0.109 0.140 0.190 0.516 12.70 0.00 0.00 0.7580 2.33 43.05 12.800 13.200 13.530 13.800 13.720 2.252 0.614 12.720 12.980 13.300 13.490 13.590 0.897 -0.738 1.1830 14.743 6.830 7.910 15.605 6.139 9.460 26.670
VANMET_231 2018-09-28 06:35:00 231 11739.0 12.820 13.030 13.390 13.710 13.500 46.450 39.450 1.630 0.165 14.780 14.290 11.150 9.870 0.109 0.140 0.190 0.516 10.93 0.00 0.00 0.8580 3.17 33.47 12.880 13.110 13.500 13.710 13.790 2.307 0.734 12.780 12.980 13.320 13.340 13.620 0.208 -0.396 1.7710 14.801 6.871 7.926 15.686 6.182 9.498 22.953
VANMET_231 2018-09-28 06:30:00 231 11739.0 12.930 13.150 13.560 13.880 13.700 45.780 38.310 1.521 -0.088 14.790 14.300 11.150 9.870 0.109 0.140 0.190 0.516 9.20 0.00 0.00 0.5950 7.24 34.75 13.000 13.240 13.680 13.900 13.980 2.566 0.697 12.870 13.100 13.490 13.520 13.790 0.635 -0.661 0.9800 14.908 6.818 8.083 15.861 6.069 9.784 19.320
VANMET_231 2018-09-28 06:25:00 231 11739.0 13.030 13.290 13.710 13.990 13.890 44.510 37.050 1.225 -0.445 14.810 14.310 11.150 9.870 0.109 0.140 0.190 0.516 7.39 0.00 0.00 0.8340 19.17 37.02 13.060 13.350 13.750 14.040 14.030 1.836 0.256 12.990 13.230 13.640 13.690 13.930 0.175 -0.969 1.3260 15.006 6.674 8.327 15.974 5.913 10.056 15.515
VANMET_231 2018-09-28 06:20:00 231 11739.0 13.050 13.310 13.710 14.010 13.940 43.830 36.370 1.010 -0.685 14.830 14.310 11.150 9.870 0.109 0.140 0.190 0.516 5.45 0.00 0.00 0.8790 8.82 25.98 13.100 13.350 13.760 14.290 14.070 1.836 -0.129 12.970 13.240 13.650 13.730 13.960 -1.168 -1.663 1.7970 15.025 6.572 8.440 15.995 5.810 10.178 11.439
VANMET_231 2018-09-28 06:15:00 231 11739.0 13.080 13.280 13.670 14.000 13.790 46.030 37.290 1.740 -0.351 14.850 14.320 11.150 9.870 0.109 0.140 0.190 0.516 3.48 0.00 0.00 0.8950 11.82 31.40 13.210 13.440 13.810 14.000 14.110 2.497 0.957 12.960 13.190 13.560 13.580 13.900 0.515 -1.007 1.5220 15.055 6.926 8.125 15.985 5.954 10.024 7.312
VANMET_231 2018-09-28 06:10:00 231 11739.0 13.300 13.510 13.920 14.230 13.950 46.070 37.600 1.946 -0.031 14.870 14.320 11.150 9.870 0.109 0.140 0.190 0.516 1.33 0.00 0.00 0.9250 6.47 34.57 13.420 13.660 14.070 14.140 14.370 2.728 0.397 13.200 13.410 13.810 13.830 14.100 0.969 -0.686 1.4700 15.273 7.029 8.237 16.225 6.094 10.124 2.787
VANMET_231 2018-09-28 06:05:00 231 11739.0 13.570 13.800 14.240 14.560 14.290 43.510 35.290 1.365 -0.627 14.890 14.330 11.150 9.870 0.109 0.140 0.190 0.516 0.09 0.00 0.00 0.7230 357.70 27.44 13.670 13.960 14.400 14.740 14.680 2.563 0.412 13.420 13.630 14.050 13.980 14.390 -0.808 -1.773 1.5160 15.544 6.742 8.781 16.575 5.835 10.726 0.199
VANMET_231 2018-09-28 06:00:00 231 11739.0 13.710 14.010 14.450 14.760 14.390 40.860 33.830 0.642 -1.004 14.910 14.340 11.150 9.870 0.109 0.140 0.190 0.516 0.00 0.00 0.00 0.7380 13.94 29.92 13.850 14.220 14.650 14.620 14.930 1.787 -0.453 13.630 13.880 14.340 14.150 14.660 -1.161 -1.655 1.2670 15.686 6.399 9.277 16.790 5.676 11.110 0.000
VANMET_231 2018-09-28 05:55:00 231 11739.0 13.700 14.290 14.700 14.920 15.190 37.730 31.650 -0.481 -1.773 14.930 14.340 11.140 9.870 0.109 0.140 0.190 0.516 0.00 0.00 0.00 0.9890 33.26 46.73 13.850 14.400 14.790 15.460 15.010 2.485 -0.852 13.450 14.010 14.410 14.690 14.640 -1.579 -2.069 2.1170 15.676 5.897 9.762 16.964 5.363 11.595 0.000
VANMET_231 2018-09-28 05:50:00 231 11739.0 13.240 13.620 14.020 14.320 14.490 41.210 34.160 0.333 -1.267 14.950 14.350 11.140 9.870 0.109 0.140 0.190 0.516 0.00 0.00 0.00 1.1690 29.15 36.53 13.400 13.970 14.370 15.120 14.620 1.548 -0.736 13.160 13.390 13.820 13.940 14.140 -0.940 -1.928 2.0380 15.213 6.257 8.944 16.320 5.567 10.745 0.000
VANMET_231 2018-09-28 05:45:00 231 11739.0 13.320 13.580 14.000 14.290 14.040 45.650 36.840 1.830 -0.257 14.970 14.350 11.140 9.870 0.109 0.140 0.190 0.516 0.00 0.00 0.00 0.7140 26.78 24.43 13.420 13.750 14.140 14.420 14.390 3.004 0.488 13.180 13.400 13.830 13.710 14.150 0.186 -0.967 1.4180 15.293 6.971 8.312 16.288 5.995 10.287 0.000
VANMET_231 2018-09-28 05:40:00 231 11739.0 13.370 13.730 14.090 14.330 14.380 43.460 36.570 1.187 -0.327 14.990 14.360 11.140 9.870 0.109 0.140 0.190 0.516 0.00 0.00 0.00 0.8690 8.78 32.11 13.430 13.800 14.160 14.830 14.380 2.284 0.569 13.330 13.650 14.010 14.150 14.280 -0.109 -1.328 1.3590 15.343 6.656 8.675 16.330 5.964 10.358 0.000
VANMET_231 2018-09-28 05:35:00 231 11739.0 13.180 13.560 13.890 14.140 14.270 44.000 36.380 1.185 -0.569 15.000 14.360 11.140 9.870 0.109 0.140 0.190 0.516 0.00 0.00 0.00 0.9850 4.12 25.96 13.330 13.760 14.090 14.530 14.350 2.665 0.465 13.070 13.410 13.740 14.020 14.010 -0.576 -1.385 1.6990 15.154 6.655 8.486 16.130 5.859 10.262 0.000
VANMET_231 2018-09-28 05:30:00 231 11739.0 13.060 13.370 13.670 13.920 13.950 45.730 38.300 1.624 -0.060 15.020 14.370 11.140 9.870 0.109 0.140 0.190 0.516 0.00 0.00 0.00 0.7430 22.51 30.44 13.100 13.440 13.760 14.200 14.030 2.469 0.884 13.030 13.310 13.600 13.720 13.860 0.498 -0.935 1.2610 15.035 6.869 8.160 15.902 6.081 9.811 0.000
VANMET_231 2018-09-28 05:25:00 231 11739.0 13.130 13.400 13.790 14.050 13.910 49.160 40.550 2.698 0.844 15.040 14.370 11.140 9.870 0.109 0.140 0.190 0.516 0.00 0.00 0.00 0.7830 20.37 23.66 13.180 13.500 13.900 14.360 14.140 3.599 2.086 13.050 13.270 13.630 13.600 13.920 1.117 -0.428 1.3070 15.104 7.416 7.679 16.037 6.493 9.534 0.000
VANMET_231 2018-09-28 05:20:00 231 11739.0 13.140 13.410 13.800 14.020 14.160 45.390 37.190 1.584 -0.372 15.060 14.380 11.140 9.870 0.109 0.140 0.190 0.516 0.00 0.00 0.00 0.5550 23.52 41.82 13.170 13.490 13.900 14.460 14.130 2.869 0.768 13.110 13.360 13.720 13.890 13.970 0.472 -1.098 1.2810 15.114 6.849 8.254 16.005 5.944 10.053 0.000
VANMET_231 2018-09-28 05:15:00 231 11739.0 13.210 13.450 13.800 14.020 13.990 47.970 40.500 2.427 0.807 15.080 14.390 11.140 9.870 0.109 0.140 0.190 0.516 0.00 0.00 0.00 0.7400 13.14 27.74 13.290 13.530 13.870 14.160 14.080 3.618 1.661 13.140 13.390 13.760 13.870 13.970 0.847 -0.022 1.1040 15.183 7.275 7.900 16.005 6.476 9.523 0.000
VANMET_231 2018-09-28 05:10:00 231 11739.0 13.320 13.610 13.960 14.140 14.190 46.280 39.710 2.019 0.648 15.100 14.390 11.140 9.870 0.109 0.140 0.190 0.516 0.00 0.00 0.00 0.6910 25.71 48.90 13.370 13.730 14.090 14.530 14.240 3.211 1.526 13.290 13.530 13.880 13.900 14.060 0.459 -0.012 1.4500 15.293 7.066 8.215 16.130 6.402 9.725 0.000
VANMET_231 2018-09-28 05:05:00 231 11739.0 13.270 13.520 13.860 14.110 14.160 47.040 39.370 2.196 0.491 15.120 14.400 11.130 9.870 0.109 0.140 0.190 0.516 0.00 0.00 0.00 0.8620 21.53 36.05 13.340 13.620 13.980 14.500 14.190 3.282 1.442 13.210 13.400 13.730 13.920 14.010 -0.291 -0.893 1.4310 15.243 7.156 8.073 16.099 6.330 9.761 0.000
VANMET_231 2018-09-28 05:00:00 231 11739.0 13.240 13.420 13.760 14.040 13.950 47.820 40.510 2.416 0.825 15.140 14.400 11.130 9.870 0.109 0.140 0.190 0.516 0.00 0.00 0.00 0.9270 8.54 15.45 13.270 13.510 13.850 14.110 14.110 3.369 1.634 13.210 13.370 13.710 13.880 13.990 1.007 -0.085 2.0710 15.213 7.269 7.938 16.026 6.484 9.534 0.000
VANMET_231 2018-09-28 04:55:00 231 11739.0 13.330 13.530 13.880 14.190 14.100 48.470 40.170 2.685 0.848 15.160 14.410 11.130 9.870 0.109 0.140 0.190 0.516 0.00 0.00 0.00 0.7600 4.52 25.01 13.370 13.600 13.940 14.220 14.250 3.710 1.393 13.270 13.440 13.790 13.900 14.090 1.662 0.325 1.2150 15.303 7.410 7.886 16.183 6.495 9.682 0.000
VANMET_231 2018-09-28 04:50:00 231 11739.0 13.320 13.560 13.920 14.210 14.220 46.660 38.590 2.135 0.310 15.180 14.410 11.130 9.870 0.109 0.140 0.190 0.516 0.00 0.00 0.00 0.8290 352.70 28.55 13.350 13.630 13.990 14.510 14.260 3.142 1.191 13.280 13.520 13.880 14.050 14.180 0.601 -0.555 1.4050 15.293 7.125 8.157 16.204 6.247 9.951 0.000
VANMET_231 2018-09-28 04:45:00 231 11739.0 13.440 13.620 13.970 14.250 14.180 47.570 38.990 2.515 0.485 15.200 14.420 11.130 9.870 0.109 0.140 0.190 0.516 0.00 0.00 0.00 1.0180 9.62 26.66 13.490 13.720 14.060 14.510 14.320 3.593 1.648 13.320 13.510 13.890 13.910 14.180 1.372 -0.686 1.7120 15.413 7.320 8.081 16.246 6.327 9.912 0.000
VANMET_231 2018-09-28 04:40:00 231 11739.0 13.620 13.760 14.090 14.410 14.120 48.650 40.750 2.986 1.241 15.220 14.420 11.130 9.870 0.109 0.140 0.190 0.516 0.00 0.00 0.00 0.8070 16.35 31.59 13.720 13.930 14.280 14.360 14.610 4.027 1.891 13.500 13.630 13.950 13.960 14.240 0.639 0.209 1.3920 15.595 7.570 8.008 16.415 6.682 9.726 0.000
VANMET_231 2018-09-28 04:35:00 231 11739.0 13.850 14.060 14.510 14.840 14.600 45.640 35.730 2.301 -0.212 15.240 14.420 11.130 9.870 0.109 0.140 0.190 0.516 0.00 0.00 0.00 0.8390 7.19 26.71 13.940 14.200 14.680 14.910 14.940 3.842 1.170 13.750 13.880 14.280 14.220 14.620 1.043 -1.321 1.4310 15.830 7.210 8.605 16.877 6.014 10.847 0.000
VANMET_231 2018-09-28 04:30:00 231 11739.0 13.930 14.190 14.590 14.880 14.820 42.540 34.490 1.379 -0.648 15.260 14.430 11.130 9.870 0.109 0.140 0.190 0.516 0.00 0.00 0.00 1.0200 7.61 38.74 13.990 14.260 14.690 15.130 14.940 3.528 0.446 13.850 14.120 14.510 14.570 14.800 -0.686 -1.488 1.7250 15.912 6.749 9.143 16.921 5.826 11.085 0.000
VANMET_231 2018-09-28 04:25:00 231 11739.0 13.840 14.080 14.470 14.820 14.720 44.780 36.180 2.028 -0.037 15.280 14.430 11.130 9.870 0.109 0.140 0.190 0.516 0.00 0.00 0.00 0.8980 8.31 23.08 13.880 14.120 14.510 14.910 14.890 3.543 0.854 13.800 14.040 14.430 14.600 14.740 -0.029 -1.161 1.5810 15.819 7.070 8.735 16.855 6.091 10.757 0.000
VANMET_231 2018-09-28 04:20:00 231 11739.0 13.920 14.190 14.620 14.990 14.810 45.130 34.900 2.215 -0.379 15.300 14.440 11.130 9.870 0.109 0.140 0.190 0.516 0.00 0.00 0.00 0.7980 3.38 26.71 13.950 14.270 14.710 14.930 15.070 3.337 0.635 13.880 14.110 14.520 14.610 14.930 0.588 -1.134 1.4960 15.902 7.165 8.725 17.041 5.941 11.094 0.000
VANMET_231 2018-09-28 04:15:00 231 11739.0 14.020 14.330 14.780 15.110 14.910 49.730 38.910 3.680 1.201 15.320 14.440 11.130 9.870 0.109 0.140 0.190 0.516 0.00 0.00 0.00 0.9110 3.13 38.75 14.070 14.410 14.890 15.040 15.180 4.631 3.210 13.960 14.260 14.720 14.740 15.060 2.243 -0.073 1.2480 16.005 7.951 8.046 17.173 6.663 10.491 0.000
VANMET_231 2018-09-28 04:10:00 231 11739.0 13.970 14.480 14.940 15.170 15.330 48.760 38.900 3.338 1.268 15.340 14.450 11.120 9.870 0.109 0.140 0.190 0.516 0.00 0.00 0.00 0.8190 1.20 39.11 14.090 14.600 15.070 15.770 15.250 4.883 2.469 13.730 14.340 14.790 14.910 15.070 0.880 -0.109 1.3260 15.954 7.761 8.175 17.239 6.695 10.533 0.000
VANMET_231 2018-09-28 04:05:00 231 11739.0 13.720 14.100 14.560 14.880 14.950 52.190 42.350 4.079 2.191 15.360 14.450 11.120 9.870 0.109 0.140 0.190 0.516 0.00 0.00 0.00 0.8790 15.97 37.59 13.770 14.260 14.720 15.390 15.020 4.956 3.288 13.670 14.030 14.500 14.750 14.830 0.867 0.343 1.3790 15.697 8.178 7.505 16.921 7.153 9.755 0.000
VANMET_231 2018-09-28 04:00:00 231 11739.0 13.740 14.050 14.420 14.740 14.740 50.600 43.480 3.680 2.442 15.380 14.450 11.120 9.870 0.109 0.140 0.190 0.516 0.00 0.00 0.00 0.6790 10.46 30.70 13.770 14.140 14.580 15.230 14.890 4.782 3.023 13.710 13.980 14.350 14.550 14.670 3.072 1.279 0.9930 15.717 7.951 7.764 16.769 7.282 9.478 0.000
VANMET_231 2018-09-28 03:55:00 231 11739.0 13.710 14.070 14.360 14.590 14.680 48.380 43.660 3.015 2.381 15.400 14.460 11.120 9.870 0.109 0.140 0.190 0.516 0.00 0.00 0.00 0.5380 24.58 27.05 13.780 14.100 14.420 14.840 14.670 3.976 2.603 13.640 13.990 14.290 14.590 14.530 2.243 2.073 0.8040 15.686 7.585 8.097 16.607 7.251 9.356 0.000
VANMET_231 2018-09-28 03:50:00 231 11739.0 13.660 13.980 14.290 14.560 14.600 46.400 40.610 2.381 1.333 15.420 14.460 11.120 9.870 0.109 0.140 0.190 0.516 0.00 0.00 0.00 0.6290 346.50 20.65 13.710 14.010 14.330 14.730 14.600 3.050 2.024 13.630 13.940 14.270 14.540 14.520 1.661 0.631 0.8950 15.635 7.251 8.381 16.575 6.726 9.844 0.000
VANMET_231 2018-09-28 03:45:00 231 11739.0 13.790 14.090 14.430 14.690 14.630 44.500 36.590 1.901 0.003 15.440 14.470 11.120 9.870 0.109 0.140 0.190 0.516 0.00 0.00 0.00 0.8010 10.24 10.60 13.840 14.170 14.480 14.740 14.750 3.131 0.490 13.710 14.010 14.340 14.460 14.600 0.773 -0.455 1.0390 15.768 7.006 8.751 16.715 6.109 10.599 0.000
VANMET_231 2018-09-28 03:40:00 231 11739.0 13.800 14.140 14.530 14.850 14.740 43.130 34.950 1.479 -0.483 15.470 14.470 11.120 9.870 0.109 0.140 0.190 0.516 0.00 0.00 0.00 0.8150 17.73 7.65 13.830 14.210 14.590 14.920 14.930 2.638 -0.171 13.770 14.100 14.470 14.620 14.760 0.629 -0.628 1.1430 15.778 6.797 8.973 16.888 5.896 10.986 0.000
VANMET_231 2018-09-28 03:35:00 231 11739.0 13.660 14.020 14.430 14.770 14.870 41.500 34.160 0.806 -0.867 15.490 14.470 11.120 9.870 0.109 0.140 0.190 0.516 0.00 0.00 0.00 0.9220 5.01 23.10 13.760 14.200 14.580 15.150 14.930 2.067 0.035 13.570 13.860 14.300 14.500 14.630 -0.374 -1.249 1.2940 15.635 6.475 9.147 16.801 5.733 11.062 0.000
VANMET_231 2018-09-28 03:30:00 231 11739.0 13.560 13.810 14.230 14.540 14.540 44.180 36.440 1.597 -0.184 15.510 14.480 11.120 9.870 0.109 0.140 0.190 0.516 0.00 0.00 0.00 0.9240 13.81 31.38 13.580 13.850 14.280 14.870 14.630 2.622 0.616 13.540 13.780 14.180 14.360 14.480 0.502 -0.830 1.4310 15.534 6.855 8.671 16.553 6.026 10.521 0.000
VANMET_231 2018-09-28 03:25:00 231 11739.0 13.500 13.770 14.170 14.440 14.520 44.540 35.230 1.639 -0.740 15.530 14.480 11.120 9.870 0.109 0.140 0.190 0.516 0.00 0.00 0.00 0.8840 11.84 21.61 13.540 13.860 14.280 14.770 14.550 3.005 0.078 13.450 13.660 14.040 14.220 14.330 -0.517 -1.618 1.3000 15.473 6.876 8.582 16.447 5.787 10.653 0.000
VANMET_231 2018-09-28 03:20:00 231 11739.0 13.510 13.750 14.120 14.430 14.440 45.880 36.770 2.084 -0.156 15.550 14.480 11.120 9.870 0.109 0.140 0.190 0.516 0.00 0.00 0.00 0.8260 8.79 23.06 13.530 13.780 14.140 14.530 14.460 2.864 0.498 13.480 13.700 14.070 14.300 14.380 1.553 -0.485 1.1170 15.483 7.099 8.380 16.436 6.039 10.393 0.000
VANMET_231 2018-09-28 03:15:00 231 11739.0 13.460 13.760 14.140 14.480 14.520 43.400 36.160 1.262 -0.342 15.570 14.490 11.120 9.870 0.109 0.140 0.190 0.516 0.00 0.00 0.00 0.8340 349.40 24.10 13.500 13.790 14.170 14.620 14.500 2.202 0.045 13.420 13.730 14.110 14.330 14.430 0.333 -0.874 1.3070 15.433 6.692 8.735 16.489 5.957 10.527 0.000
VANMET_231 2018-09-28 03:10:00 231 11739.0 13.450 13.720 14.090 14.390 14.500 45.080 36.370 1.779 -0.359 15.590 14.490 11.120 9.870 0.109 0.140 0.190 0.516 0.00 0.00 0.00 0.7380 7.59 30.03 13.470 13.770 14.110 14.740 14.470 2.999 0.824 13.430 13.680 14.060 14.290 14.330 0.372 -1.214 1.2480 15.423 6.945 8.470 16.394 5.950 10.431 0.000
VANMET_231 2018-09-28 03:05:00 231 11739.0 13.410 13.610 13.950 14.240 14.320 45.960 37.130 2.011 -0.204 15.610 14.490 11.120 9.870 0.109 0.140 0.190 0.516 0.00 0.00 0.00 0.5720 358.50 30.10 13.450 13.750 14.080 14.700 14.390 3.183 1.426 13.370 13.500 13.840 13.930 14.140 0.351 -1.013 1.1890 15.383 7.062 8.313 16.235 6.018 10.207 0.000
VANMET_231 2018-09-28 03:00:00 231 11739.0 13.440 13.620 13.960 14.220 14.220 47.990 39.900 2.645 0.778 15.630 14.500 11.110 9.870 0.109 0.140 0.190 0.516 0.00 0.00 0.00 0.7230 5.31 36.56 13.470 13.650 13.990 14.350 14.270 3.749 2.348 13.430 13.550 13.890 13.950 14.150 1.205 0.032 1.2940 15.413 7.389 8.016 16.214 6.462 9.745 0.000
VANMET_231 2018-09-28 02:55:00 231 11739.0 13.450 13.620 13.920 14.190 14.180 48.140 39.690 2.700 0.677 15.650 14.500 11.110 9.870 0.109 0.140 0.190 0.516 0.00 0.00 0.00 0.7140 9.16 36.79 13.500 13.670 13.970 14.360 14.250 4.057 1.775 13.410 13.590 13.890 14.070 14.140 1.476 -0.318 0.9930 15.423 7.418 7.998 16.183 6.415 9.760 0.000
VANMET_231 2018-09-28 02:50:00 231 11739.0 13.510 13.670 13.980 14.290 14.320 45.640 37.510 2.000 -0.014 15.670 14.500 11.110 9.870 0.109 0.140 0.190 0.516 0.00 0.00 0.00 0.7430 2.17 21.27 13.530 13.690 14.000 14.430 14.320 3.524 0.955 13.480 13.630 13.950 14.160 14.230 0.941 -0.745 1.1300 15.483 7.056 8.417 16.288 6.102 10.178 0.000
VANMET_231 2018-09-28 02:45:00 231 11739.0 13.560 13.710 14.050 14.330 14.260 49.470 40.050 3.184 0.927 15.690 14.500 11.110 9.870 0.109 0.140 0.190 0.516 0.00 0.00 0.00 0.8620 3.85 25.65 13.620 13.770 14.130 14.360 14.420 4.192 2.407 13.500 13.650 13.980 14.150 14.270 1.372 -0.478 1.2940 15.534 7.677 7.849 16.330 6.532 9.790 0.000
VANMET_231